<?xml version="1.0" encoding="UTF-8" standalone="no" ?>
<gpx xmlns="http://www.topografix.com/GPX/1/1" xmlns:xsi="http://www.w3.org/2001/XMLSchema-instance" xsi:schemaLocation="http://www.topografix.com/GPX/1/1 http://www.topografix.com/GPX/1/1/gpx.xsd" version="1.1" creator="VisuGPX - https://www.visugpx.com">
  <metadata>
    <name>Au milieu de la campagne...</name>
    <desc><![CDATA[Dénivelé moyen pour cette échappée de 100km au milieu des champs.]]></desc>
  </metadata>
  <trk>
    <name><![CDATA[Au milieu de la campagne..._1]]></name>
    <trkseg>
      <trkpt lat="47.27431" lon="0.43212">
        <ele>73.4</ele>
        <time>2023-06-04T06:06:17Z</time>
      </trkpt>
      <trkpt lat="47.27433" lon="0.43213">
        <ele>73.5</ele>
        <time>2023-06-04T06:06:18Z</time>
      </trkpt>
      <trkpt lat="47.27446" lon="0.43217">
        <ele>74.3</ele>
        <time>2023-06-04T06:06:23Z</time>
      </trkpt>
      <trkpt lat="47.27455" lon="0.43221">
        <ele>75</ele>
        <time>2023-06-04T06:06:26Z</time>
      </trkpt>
      <trkpt lat="47.27466" lon="0.43225">
        <ele>75.6</ele>
        <time>2023-06-04T06:06:29Z</time>
      </trkpt>
      <trkpt lat="47.2747" lon="0.43226">
        <ele>75.8</ele>
        <time>2023-06-04T06:06:30Z</time>
      </trkpt>
      <trkpt lat="47.27485" lon="0.4323">
        <ele>76.7</ele>
        <time>2023-06-04T06:06:34Z</time>
      </trkpt>
      <trkpt lat="47.27493" lon="0.43233">
        <ele>77.2</ele>
        <time>2023-06-04T06:06:36Z</time>
      </trkpt>
      <trkpt lat="47.27505" lon="0.43238">
        <ele>77.8</ele>
        <time>2023-06-04T06:06:40Z</time>
      </trkpt>
      <trkpt lat="47.27508" lon="0.43239">
        <ele>78</ele>
        <time>2023-06-04T06:06:41Z</time>
      </trkpt>
      <trkpt lat="47.27522" lon="0.43247">
        <ele>78.8</ele>
        <time>2023-06-04T06:06:45Z</time>
      </trkpt>
      <trkpt lat="47.27536" lon="0.43254">
        <ele>79.6</ele>
        <time>2023-06-04T06:06:49Z</time>
      </trkpt>
      <trkpt lat="47.27547" lon="0.4326">
        <ele>80.2</ele>
        <time>2023-06-04T06:06:52Z</time>
      </trkpt>
      <trkpt lat="47.27568" lon="0.43272">
        <ele>81</ele>
        <time>2023-06-04T06:06:57Z</time>
      </trkpt>
      <trkpt lat="47.27572" lon="0.43274">
        <ele>81.1</ele>
        <time>2023-06-04T06:06:58Z</time>
      </trkpt>
      <trkpt lat="47.27597" lon="0.43288">
        <ele>81.9</ele>
        <time>2023-06-04T06:07:04Z</time>
      </trkpt>
      <trkpt lat="47.27611" lon="0.43293">
        <ele>82.3</ele>
        <time>2023-06-04T06:07:07Z</time>
      </trkpt>
      <trkpt lat="47.27628" lon="0.433">
        <ele>82.8</ele>
        <time>2023-06-04T06:07:11Z</time>
      </trkpt>
      <trkpt lat="47.27659" lon="0.43308">
        <ele>83.5</ele>
        <time>2023-06-04T06:07:18Z</time>
      </trkpt>
      <trkpt lat="47.27692" lon="0.4332">
        <ele>84.2</ele>
        <time>2023-06-04T06:07:25Z</time>
      </trkpt>
      <trkpt lat="47.27697" lon="0.43322">
        <ele>84.3</ele>
        <time>2023-06-04T06:07:26Z</time>
      </trkpt>
      <trkpt lat="47.27702" lon="0.43325">
        <ele>84.4</ele>
        <time>2023-06-04T06:07:27Z</time>
      </trkpt>
      <trkpt lat="47.2773" lon="0.43345">
        <ele>84.9</ele>
        <time>2023-06-04T06:07:33Z</time>
      </trkpt>
      <trkpt lat="47.2775" lon="0.43364">
        <ele>85.4</ele>
        <time>2023-06-04T06:07:38Z</time>
      </trkpt>
      <trkpt lat="47.27754" lon="0.43368">
        <ele>85.4</ele>
        <time>2023-06-04T06:07:39Z</time>
      </trkpt>
      <trkpt lat="47.27783" lon="0.43396">
        <ele>86</ele>
        <time>2023-06-04T06:07:46Z</time>
      </trkpt>
      <trkpt lat="47.27803" lon="0.43421">
        <ele>86.5</ele>
        <time>2023-06-04T06:07:51Z</time>
      </trkpt>
      <trkpt lat="47.27807" lon="0.43426">
        <ele>86.5</ele>
        <time>2023-06-04T06:07:52Z</time>
      </trkpt>
      <trkpt lat="47.2782" lon="0.43449">
        <ele>86.8</ele>
        <time>2023-06-04T06:07:56Z</time>
      </trkpt>
      <trkpt lat="47.27834" lon="0.43472">
        <ele>87.2</ele>
        <time>2023-06-04T06:08:00Z</time>
      </trkpt>
      <trkpt lat="47.27849" lon="0.43494">
        <ele>87.5</ele>
        <time>2023-06-04T06:08:04Z</time>
      </trkpt>
      <trkpt lat="47.27856" lon="0.43503">
        <ele>87.6</ele>
        <time>2023-06-04T06:08:06Z</time>
      </trkpt>
      <trkpt lat="47.27875" lon="0.43518">
        <ele>87.9</ele>
        <time>2023-06-04T06:08:10Z</time>
      </trkpt>
      <trkpt lat="47.27885" lon="0.43525">
        <ele>88</ele>
        <time>2023-06-04T06:08:12Z</time>
      </trkpt>
      <trkpt lat="47.27927" lon="0.43558">
        <ele>88.6</ele>
        <time>2023-06-04T06:08:20Z</time>
      </trkpt>
      <trkpt lat="47.27947" lon="0.43591">
        <ele>89</ele>
        <time>2023-06-04T06:08:25Z</time>
      </trkpt>
      <trkpt lat="47.27961" lon="0.43637">
        <ele>89.6</ele>
        <time>2023-06-04T06:08:31Z</time>
      </trkpt>
      <trkpt lat="47.27971" lon="0.43692">
        <ele>90.1</ele>
        <time>2023-06-04T06:08:38Z</time>
      </trkpt>
      <trkpt lat="47.27975" lon="0.4375">
        <ele>90.5</ele>
        <time>2023-06-04T06:08:45Z</time>
      </trkpt>
      <trkpt lat="47.27981" lon="0.43825">
        <ele>91.1</ele>
        <time>2023-06-04T06:08:54Z</time>
      </trkpt>
      <trkpt lat="47.27985" lon="0.4384">
        <ele>91.2</ele>
        <time>2023-06-04T06:08:56Z</time>
      </trkpt>
      <trkpt lat="47.27987" lon="0.43848">
        <ele>91.3</ele>
        <time>2023-06-04T06:08:57Z</time>
      </trkpt>
      <trkpt lat="47.27993" lon="0.43862">
        <ele>91.5</ele>
        <time>2023-06-04T06:08:59Z</time>
      </trkpt>
      <trkpt lat="47.28016" lon="0.43907">
        <ele>91.9</ele>
        <time>2023-06-04T06:09:06Z</time>
      </trkpt>
      <trkpt lat="47.28026" lon="0.43928">
        <ele>92</ele>
        <time>2023-06-04T06:09:09Z</time>
      </trkpt>
      <trkpt lat="47.2804" lon="0.43963">
        <ele>92.1</ele>
        <time>2023-06-04T06:09:14Z</time>
      </trkpt>
      <trkpt lat="47.28066" lon="0.44023">
        <ele>92</ele>
        <time>2023-06-04T06:09:22Z</time>
      </trkpt>
      <trkpt lat="47.28092" lon="0.44085">
        <ele>91.7</ele>
        <time>2023-06-04T06:09:30Z</time>
      </trkpt>
      <trkpt lat="47.28103" lon="0.44115">
        <ele>91.6</ele>
        <time>2023-06-04T06:09:34Z</time>
      </trkpt>
      <trkpt lat="47.28108" lon="0.44131">
        <ele>91.6</ele>
        <time>2023-06-04T06:09:36Z</time>
      </trkpt>
      <trkpt lat="47.28114" lon="0.44164">
        <ele>92.1</ele>
        <time>2023-06-04T06:09:40Z</time>
      </trkpt>
      <trkpt lat="47.28114" lon="0.44172">
        <ele>92.3</ele>
        <time>2023-06-04T06:09:41Z</time>
      </trkpt>
      <trkpt lat="47.28114" lon="0.44197">
        <ele>92.2</ele>
        <time>2023-06-04T06:09:44Z</time>
      </trkpt>
      <trkpt lat="47.28115" lon="0.4424">
        <ele>92.2</ele>
        <time>2023-06-04T06:09:49Z</time>
      </trkpt>
      <trkpt lat="47.28119" lon="0.44273">
        <ele>92.4</ele>
        <time>2023-06-04T06:09:53Z</time>
      </trkpt>
      <trkpt lat="47.28121" lon="0.4429">
        <ele>92.6</ele>
        <time>2023-06-04T06:09:55Z</time>
      </trkpt>
      <trkpt lat="47.28127" lon="0.44323">
        <ele>92.8</ele>
        <time>2023-06-04T06:09:59Z</time>
      </trkpt>
      <trkpt lat="47.2813" lon="0.44331">
        <ele>92.9</ele>
        <time>2023-06-04T06:10:00Z</time>
      </trkpt>
      <trkpt lat="47.28132" lon="0.44339">
        <ele>92.9</ele>
        <time>2023-06-04T06:10:01Z</time>
      </trkpt>
      <trkpt lat="47.28134" lon="0.44348">
        <ele>92.9</ele>
        <time>2023-06-04T06:10:02Z</time>
      </trkpt>
      <trkpt lat="47.28143" lon="0.44372">
        <ele>92.9</ele>
        <time>2023-06-04T06:10:05Z</time>
      </trkpt>
      <trkpt lat="47.28167" lon="0.44418">
        <ele>93</ele>
        <time>2023-06-04T06:10:11Z</time>
      </trkpt>
      <trkpt lat="47.28206" lon="0.44474">
        <ele>92.9</ele>
        <time>2023-06-04T06:10:19Z</time>
      </trkpt>
      <trkpt lat="47.2822" lon="0.44496">
        <ele>93</ele>
        <time>2023-06-04T06:10:22Z</time>
      </trkpt>
      <trkpt lat="47.28256" lon="0.44555">
        <ele>93.3</ele>
        <time>2023-06-04T06:10:30Z</time>
      </trkpt>
      <trkpt lat="47.28285" lon="0.44607">
        <ele>93.6</ele>
        <time>2023-06-04T06:10:37Z</time>
      </trkpt>
      <trkpt lat="47.2832" lon="0.44663">
        <ele>93.8</ele>
        <time>2023-06-04T06:10:45Z</time>
      </trkpt>
      <trkpt lat="47.28354" lon="0.44722">
        <ele>93.6</ele>
        <time>2023-06-04T06:10:53Z</time>
      </trkpt>
      <trkpt lat="47.28372" lon="0.44754">
        <ele>93.6</ele>
        <time>2023-06-04T06:10:57Z</time>
      </trkpt>
      <trkpt lat="47.28396" lon="0.44803">
        <ele>93.5</ele>
        <time>2023-06-04T06:11:03Z</time>
      </trkpt>
      <trkpt lat="47.28426" lon="0.4487">
        <ele>93.7</ele>
        <time>2023-06-04T06:11:11Z</time>
      </trkpt>
      <trkpt lat="47.28433" lon="0.44886">
        <ele>93.7</ele>
        <time>2023-06-04T06:11:13Z</time>
      </trkpt>
      <trkpt lat="47.2846" lon="0.44952">
        <ele>94.1</ele>
        <time>2023-06-04T06:11:21Z</time>
      </trkpt>
      <trkpt lat="47.28484" lon="0.45021">
        <ele>94.6</ele>
        <time>2023-06-04T06:11:29Z</time>
      </trkpt>
      <trkpt lat="47.28486" lon="0.45029">
        <ele>94.7</ele>
        <time>2023-06-04T06:11:30Z</time>
      </trkpt>
      <trkpt lat="47.28495" lon="0.45078">
        <ele>95</ele>
        <time>2023-06-04T06:11:36Z</time>
      </trkpt>
      <trkpt lat="47.28495" lon="0.45091">
        <ele>95.1</ele>
        <time>2023-06-04T06:11:38Z</time>
      </trkpt>
      <trkpt lat="47.28495" lon="0.45106">
        <ele>94.9</ele>
        <time>2023-06-04T06:11:40Z</time>
      </trkpt>
      <trkpt lat="47.28495" lon="0.45122">
        <ele>94.6</ele>
        <time>2023-06-04T06:11:42Z</time>
      </trkpt>
      <trkpt lat="47.28495" lon="0.45149">
        <ele>94.2</ele>
        <time>2023-06-04T06:11:45Z</time>
      </trkpt>
      <trkpt lat="47.28493" lon="0.45223">
        <ele>93.2</ele>
        <time>2023-06-04T06:11:52Z</time>
      </trkpt>
      <trkpt lat="47.28491" lon="0.45267">
        <ele>92.8</ele>
        <time>2023-06-04T06:11:56Z</time>
      </trkpt>
      <trkpt lat="47.28492" lon="0.453">
        <ele>92.6</ele>
        <time>2023-06-04T06:11:59Z</time>
      </trkpt>
      <trkpt lat="47.28496" lon="0.45322">
        <ele>92.4</ele>
        <time>2023-06-04T06:12:01Z</time>
      </trkpt>
      <trkpt lat="47.28503" lon="0.45353">
        <ele>92.3</ele>
        <time>2023-06-04T06:12:04Z</time>
      </trkpt>
      <trkpt lat="47.28528" lon="0.45433">
        <ele>92</ele>
        <time>2023-06-04T06:12:12Z</time>
      </trkpt>
      <trkpt lat="47.28555" lon="0.45512">
        <ele>91</ele>
        <time>2023-06-04T06:12:20Z</time>
      </trkpt>
      <trkpt lat="47.28564" lon="0.45543">
        <ele>90.5</ele>
        <time>2023-06-04T06:12:23Z</time>
      </trkpt>
      <trkpt lat="47.28572" lon="0.45578">
        <ele>89.9</ele>
        <time>2023-06-04T06:12:26Z</time>
      </trkpt>
      <trkpt lat="47.28579" lon="0.45614">
        <ele>89.3</ele>
        <time>2023-06-04T06:12:29Z</time>
      </trkpt>
      <trkpt lat="47.28581" lon="0.45626">
        <ele>89.1</ele>
        <time>2023-06-04T06:12:30Z</time>
      </trkpt>
      <trkpt lat="47.28596" lon="0.45673">
        <ele>88.4</ele>
        <time>2023-06-04T06:12:34Z</time>
      </trkpt>
      <trkpt lat="47.28601" lon="0.45684">
        <ele>88.2</ele>
        <time>2023-06-04T06:12:35Z</time>
      </trkpt>
      <trkpt lat="47.28617" lon="0.45728">
        <ele>87.6</ele>
        <time>2023-06-04T06:12:39Z</time>
      </trkpt>
      <trkpt lat="47.28629" lon="0.45762">
        <ele>87.3</ele>
        <time>2023-06-04T06:12:42Z</time>
      </trkpt>
      <trkpt lat="47.28647" lon="0.45833">
        <ele>87</ele>
        <time>2023-06-04T06:12:48Z</time>
      </trkpt>
      <trkpt lat="47.28653" lon="0.45856">
        <ele>87</ele>
        <time>2023-06-04T06:12:50Z</time>
      </trkpt>
      <trkpt lat="47.28657" lon="0.45866">
        <ele>86.9</ele>
        <time>2023-06-04T06:12:51Z</time>
      </trkpt>
      <trkpt lat="47.28666" lon="0.45886">
        <ele>86.8</ele>
        <time>2023-06-04T06:12:53Z</time>
      </trkpt>
      <trkpt lat="47.28682" lon="0.45931">
        <ele>86.7</ele>
        <time>2023-06-04T06:12:57Z</time>
      </trkpt>
      <trkpt lat="47.28684" lon="0.45943">
        <ele>86.7</ele>
        <time>2023-06-04T06:12:58Z</time>
      </trkpt>
      <trkpt lat="47.287" lon="0.46022">
        <ele>86.1</ele>
        <time>2023-06-04T06:13:05Z</time>
      </trkpt>
      <trkpt lat="47.28703" lon="0.46033">
        <ele>86</ele>
        <time>2023-06-04T06:13:06Z</time>
      </trkpt>
      <trkpt lat="47.28713" lon="0.4609">
        <ele>85.1</ele>
        <time>2023-06-04T06:13:11Z</time>
      </trkpt>
      <trkpt lat="47.28719" lon="0.46125">
        <ele>84.4</ele>
        <time>2023-06-04T06:13:14Z</time>
      </trkpt>
      <trkpt lat="47.28728" lon="0.46173">
        <ele>83.4</ele>
        <time>2023-06-04T06:13:18Z</time>
      </trkpt>
      <trkpt lat="47.28737" lon="0.4621">
        <ele>82.6</ele>
        <time>2023-06-04T06:13:21Z</time>
      </trkpt>
      <trkpt lat="47.28747" lon="0.46244">
        <ele>81.7</ele>
        <time>2023-06-04T06:13:24Z</time>
      </trkpt>
      <trkpt lat="47.28756" lon="0.46292">
        <ele>80.3</ele>
        <time>2023-06-04T06:13:28Z</time>
      </trkpt>
      <trkpt lat="47.28756" lon="0.46342">
        <ele>78.6</ele>
        <time>2023-06-04T06:13:32Z</time>
      </trkpt>
      <trkpt lat="47.28755" lon="0.46355">
        <ele>78.2</ele>
        <time>2023-06-04T06:13:33Z</time>
      </trkpt>
      <trkpt lat="47.28752" lon="0.4638">
        <ele>77.2</ele>
        <time>2023-06-04T06:13:35Z</time>
      </trkpt>
      <trkpt lat="47.28749" lon="0.46407">
        <ele>76.2</ele>
        <time>2023-06-04T06:13:37Z</time>
      </trkpt>
      <trkpt lat="47.28745" lon="0.46434">
        <ele>75.3</ele>
        <time>2023-06-04T06:13:39Z</time>
      </trkpt>
      <trkpt lat="47.28741" lon="0.46462">
        <ele>74.7</ele>
        <time>2023-06-04T06:13:41Z</time>
      </trkpt>
      <trkpt lat="47.28734" lon="0.46488">
        <ele>74.6</ele>
        <time>2023-06-04T06:13:43Z</time>
      </trkpt>
      <trkpt lat="47.2873" lon="0.46499">
        <ele>74.6</ele>
        <time>2023-06-04T06:13:44Z</time>
      </trkpt>
      <trkpt lat="47.28726" lon="0.46507">
        <ele>74.8</ele>
        <time>2023-06-04T06:13:45Z</time>
      </trkpt>
      <trkpt lat="47.28709" lon="0.46525">
        <ele>75.7</ele>
        <time>2023-06-04T06:13:48Z</time>
      </trkpt>
      <trkpt lat="47.28699" lon="0.46537">
        <ele>76.6</ele>
        <time>2023-06-04T06:13:50Z</time>
      </trkpt>
      <trkpt lat="47.28689" lon="0.46548">
        <ele>77.3</ele>
        <time>2023-06-04T06:13:52Z</time>
      </trkpt>
      <trkpt lat="47.28679" lon="0.46558">
        <ele>77.9</ele>
        <time>2023-06-04T06:13:54Z</time>
      </trkpt>
      <trkpt lat="47.28675" lon="0.46564">
        <ele>78.2</ele>
        <time>2023-06-04T06:13:55Z</time>
      </trkpt>
      <trkpt lat="47.28665" lon="0.46575">
        <ele>78.9</ele>
        <time>2023-06-04T06:13:57Z</time>
      </trkpt>
      <trkpt lat="47.28661" lon="0.4658">
        <ele>79.1</ele>
        <time>2023-06-04T06:13:58Z</time>
      </trkpt>
      <trkpt lat="47.28647" lon="0.46596">
        <ele>80</ele>
        <time>2023-06-04T06:14:01Z</time>
      </trkpt>
      <trkpt lat="47.28637" lon="0.46608">
        <ele>80.8</ele>
        <time>2023-06-04T06:14:03Z</time>
      </trkpt>
      <trkpt lat="47.28632" lon="0.46614">
        <ele>81.2</ele>
        <time>2023-06-04T06:14:04Z</time>
      </trkpt>
      <trkpt lat="47.28627" lon="0.4662">
        <ele>81.5</ele>
        <time>2023-06-04T06:14:05Z</time>
      </trkpt>
      <trkpt lat="47.28613" lon="0.4664">
        <ele>82.8</ele>
        <time>2023-06-04T06:14:08Z</time>
      </trkpt>
      <trkpt lat="47.2861" lon="0.46647">
        <ele>83.1</ele>
        <time>2023-06-04T06:14:09Z</time>
      </trkpt>
      <trkpt lat="47.28598" lon="0.4667">
        <ele>83.9</ele>
        <time>2023-06-04T06:14:12Z</time>
      </trkpt>
      <trkpt lat="47.28596" lon="0.46678">
        <ele>84</ele>
        <time>2023-06-04T06:14:13Z</time>
      </trkpt>
      <trkpt lat="47.28593" lon="0.46686">
        <ele>84.3</ele>
        <time>2023-06-04T06:14:14Z</time>
      </trkpt>
      <trkpt lat="47.28588" lon="0.46703">
        <ele>84.7</ele>
        <time>2023-06-04T06:14:16Z</time>
      </trkpt>
      <trkpt lat="47.28584" lon="0.4672">
        <ele>85.3</ele>
        <time>2023-06-04T06:14:18Z</time>
      </trkpt>
      <trkpt lat="47.2858" lon="0.46747">
        <ele>86.3</ele>
        <time>2023-06-04T06:14:21Z</time>
      </trkpt>
      <trkpt lat="47.28577" lon="0.46775">
        <ele>87.1</ele>
        <time>2023-06-04T06:14:24Z</time>
      </trkpt>
      <trkpt lat="47.28575" lon="0.46794">
        <ele>87.5</ele>
        <time>2023-06-04T06:14:26Z</time>
      </trkpt>
      <trkpt lat="47.28572" lon="0.46822">
        <ele>87.9</ele>
        <time>2023-06-04T06:14:29Z</time>
      </trkpt>
      <trkpt lat="47.28568" lon="0.46856">
        <ele>88.3</ele>
        <time>2023-06-04T06:14:33Z</time>
      </trkpt>
      <trkpt lat="47.28566" lon="0.46881">
        <ele>88.5</ele>
        <time>2023-06-04T06:14:36Z</time>
      </trkpt>
      <trkpt lat="47.28561" lon="0.46919">
        <ele>88.7</ele>
        <time>2023-06-04T06:14:41Z</time>
      </trkpt>
      <trkpt lat="47.28558" lon="0.46938">
        <ele>88.7</ele>
        <time>2023-06-04T06:14:44Z</time>
      </trkpt>
      <trkpt lat="47.28551" lon="0.46945">
        <ele>88.8</ele>
        <time>2023-06-04T06:14:46Z</time>
      </trkpt>
      <trkpt lat="47.28539" lon="0.46942">
        <ele>88.9</ele>
        <time>2023-06-04T06:14:49Z</time>
      </trkpt>
      <trkpt lat="47.28525" lon="0.4694">
        <ele>89.1</ele>
        <time>2023-06-04T06:14:52Z</time>
      </trkpt>
      <trkpt lat="47.28504" lon="0.46938">
        <ele>89.4</ele>
        <time>2023-06-04T06:14:56Z</time>
      </trkpt>
      <trkpt lat="47.28453" lon="0.46935">
        <ele>90</ele>
        <time>2023-06-04T06:15:05Z</time>
      </trkpt>
      <trkpt lat="47.28403" lon="0.46929">
        <ele>90.2</ele>
        <time>2023-06-04T06:15:13Z</time>
      </trkpt>
      <trkpt lat="47.2835" lon="0.46924">
        <ele>90.2</ele>
        <time>2023-06-04T06:15:21Z</time>
      </trkpt>
      <trkpt lat="47.28316" lon="0.46921">
        <ele>90.4</ele>
        <time>2023-06-04T06:15:26Z</time>
      </trkpt>
      <trkpt lat="47.28294" lon="0.46919">
        <ele>90.7</ele>
        <time>2023-06-04T06:15:29Z</time>
      </trkpt>
      <trkpt lat="47.2824" lon="0.4692">
        <ele>91.2</ele>
        <time>2023-06-04T06:15:37Z</time>
      </trkpt>
      <trkpt lat="47.28227" lon="0.46923">
        <ele>91.2</ele>
        <time>2023-06-04T06:15:39Z</time>
      </trkpt>
      <trkpt lat="47.28192" lon="0.46932">
        <ele>91.2</ele>
        <time>2023-06-04T06:15:44Z</time>
      </trkpt>
      <trkpt lat="47.28167" lon="0.46939">
        <ele>91.2</ele>
        <time>2023-06-04T06:15:48Z</time>
      </trkpt>
      <trkpt lat="47.28155" lon="0.46943">
        <ele>91.1</ele>
        <time>2023-06-04T06:15:50Z</time>
      </trkpt>
      <trkpt lat="47.28152" lon="0.46951">
        <ele>91.1</ele>
        <time>2023-06-04T06:15:51Z</time>
      </trkpt>
      <trkpt lat="47.28148" lon="0.46975">
        <ele>91.3</ele>
        <time>2023-06-04T06:15:54Z</time>
      </trkpt>
      <trkpt lat="47.28133" lon="0.47045">
        <ele>92.2</ele>
        <time>2023-06-04T06:16:02Z</time>
      </trkpt>
      <trkpt lat="47.28121" lon="0.47106">
        <ele>93.1</ele>
        <time>2023-06-04T06:16:09Z</time>
      </trkpt>
      <trkpt lat="47.28116" lon="0.47133">
        <ele>93.5</ele>
        <time>2023-06-04T06:16:12Z</time>
      </trkpt>
      <trkpt lat="47.28109" lon="0.47168">
        <ele>93.9</ele>
        <time>2023-06-04T06:16:16Z</time>
      </trkpt>
      <trkpt lat="47.28095" lon="0.47231">
        <ele>94.4</ele>
        <time>2023-06-04T06:16:23Z</time>
      </trkpt>
      <trkpt lat="47.28077" lon="0.47305">
        <ele>94.7</ele>
        <time>2023-06-04T06:16:31Z</time>
      </trkpt>
      <trkpt lat="47.28054" lon="0.4735">
        <ele>94.9</ele>
        <time>2023-06-04T06:16:37Z</time>
      </trkpt>
      <trkpt lat="47.28041" lon="0.47377">
        <ele>95</ele>
        <time>2023-06-04T06:16:41Z</time>
      </trkpt>
      <trkpt lat="47.28035" lon="0.47392">
        <ele>95</ele>
        <time>2023-06-04T06:16:43Z</time>
      </trkpt>
      <trkpt lat="47.28027" lon="0.47415">
        <ele>95</ele>
        <time>2023-06-04T06:16:46Z</time>
      </trkpt>
      <trkpt lat="47.28019" lon="0.47439">
        <ele>95</ele>
        <time>2023-06-04T06:16:49Z</time>
      </trkpt>
      <trkpt lat="47.28001" lon="0.47504">
        <ele>95.3</ele>
        <time>2023-06-04T06:16:56Z</time>
      </trkpt>
      <trkpt lat="47.27992" lon="0.47534">
        <ele>95.3</ele>
        <time>2023-06-04T06:16:59Z</time>
      </trkpt>
      <trkpt lat="47.27986" lon="0.47565">
        <ele>95.4</ele>
        <time>2023-06-04T06:17:02Z</time>
      </trkpt>
      <trkpt lat="47.27981" lon="0.47596">
        <ele>95.5</ele>
        <time>2023-06-04T06:17:05Z</time>
      </trkpt>
      <trkpt lat="47.27973" lon="0.47637">
        <ele>95.7</ele>
        <time>2023-06-04T06:17:09Z</time>
      </trkpt>
      <trkpt lat="47.27958" lon="0.47716">
        <ele>96.1</ele>
        <time>2023-06-04T06:17:17Z</time>
      </trkpt>
      <trkpt lat="47.27951" lon="0.47762">
        <ele>96.3</ele>
        <time>2023-06-04T06:17:22Z</time>
      </trkpt>
      <trkpt lat="47.27937" lon="0.47843">
        <ele>96.4</ele>
        <time>2023-06-04T06:17:30Z</time>
      </trkpt>
      <trkpt lat="47.27924" lon="0.4792">
        <ele>96.6</ele>
        <time>2023-06-04T06:17:38Z</time>
      </trkpt>
      <trkpt lat="47.27924" lon="0.47929">
        <ele>96.6</ele>
        <time>2023-06-04T06:17:39Z</time>
      </trkpt>
      <trkpt lat="47.27925" lon="0.47936">
        <ele>96.6</ele>
        <time>2023-06-04T06:17:40Z</time>
      </trkpt>
      <trkpt lat="47.2793" lon="0.4794">
        <ele>96.6</ele>
        <time>2023-06-04T06:17:41Z</time>
      </trkpt>
      <trkpt lat="47.27947" lon="0.47943">
        <ele>96.4</ele>
        <time>2023-06-04T06:17:44Z</time>
      </trkpt>
      <trkpt lat="47.27966" lon="0.47946">
        <ele>96.4</ele>
        <time>2023-06-04T06:17:47Z</time>
      </trkpt>
      <trkpt lat="47.27973" lon="0.47961">
        <ele>96.4</ele>
        <time>2023-06-04T06:17:49Z</time>
      </trkpt>
      <trkpt lat="47.27975" lon="0.47987">
        <ele>96.3</ele>
        <time>2023-06-04T06:17:52Z</time>
      </trkpt>
      <trkpt lat="47.27975" lon="0.47997">
        <ele>96.3</ele>
        <time>2023-06-04T06:17:53Z</time>
      </trkpt>
      <trkpt lat="47.27981" lon="0.48056">
        <ele>96.2</ele>
        <time>2023-06-04T06:17:59Z</time>
      </trkpt>
      <trkpt lat="47.27986" lon="0.48125">
        <ele>96.1</ele>
        <time>2023-06-04T06:18:06Z</time>
      </trkpt>
      <trkpt lat="47.27996" lon="0.48213">
        <ele>95.9</ele>
        <time>2023-06-04T06:18:15Z</time>
      </trkpt>
      <trkpt lat="47.27999" lon="0.4828">
        <ele>95.7</ele>
        <time>2023-06-04T06:18:22Z</time>
      </trkpt>
      <trkpt lat="47.27997" lon="0.48299">
        <ele>95.6</ele>
        <time>2023-06-04T06:18:24Z</time>
      </trkpt>
      <trkpt lat="47.27992" lon="0.48318">
        <ele>95.5</ele>
        <time>2023-06-04T06:18:26Z</time>
      </trkpt>
      <trkpt lat="47.27972" lon="0.48391">
        <ele>95.1</ele>
        <time>2023-06-04T06:18:34Z</time>
      </trkpt>
      <trkpt lat="47.27959" lon="0.48438">
        <ele>94.7</ele>
        <time>2023-06-04T06:18:39Z</time>
      </trkpt>
      <trkpt lat="47.27957" lon="0.48448">
        <ele>94.6</ele>
        <time>2023-06-04T06:18:40Z</time>
      </trkpt>
      <trkpt lat="47.27946" lon="0.48496">
        <ele>93.8</ele>
        <time>2023-06-04T06:18:45Z</time>
      </trkpt>
      <trkpt lat="47.27943" lon="0.48506">
        <ele>93.6</ele>
        <time>2023-06-04T06:18:46Z</time>
      </trkpt>
      <trkpt lat="47.27929" lon="0.48559">
        <ele>92.3</ele>
        <time>2023-06-04T06:18:51Z</time>
      </trkpt>
      <trkpt lat="47.27926" lon="0.4857">
        <ele>92.1</ele>
        <time>2023-06-04T06:18:52Z</time>
      </trkpt>
      <trkpt lat="47.27912" lon="0.48621">
        <ele>91.1</ele>
        <time>2023-06-04T06:18:57Z</time>
      </trkpt>
      <trkpt lat="47.27901" lon="0.4866">
        <ele>90.7</ele>
        <time>2023-06-04T06:19:01Z</time>
      </trkpt>
      <trkpt lat="47.27898" lon="0.48669">
        <ele>90.7</ele>
        <time>2023-06-04T06:19:02Z</time>
      </trkpt>
      <trkpt lat="47.27893" lon="0.48687">
        <ele>90.8</ele>
        <time>2023-06-04T06:19:04Z</time>
      </trkpt>
      <trkpt lat="47.27881" lon="0.48705">
        <ele>90.9</ele>
        <time>2023-06-04T06:19:07Z</time>
      </trkpt>
      <trkpt lat="47.27876" lon="0.48706">
        <ele>90.9</ele>
        <time>2023-06-04T06:19:08Z</time>
      </trkpt>
      <trkpt lat="47.2785" lon="0.48697">
        <ele>90.7</ele>
        <time>2023-06-04T06:19:12Z</time>
      </trkpt>
      <trkpt lat="47.27817" lon="0.4868">
        <ele>90.9</ele>
        <time>2023-06-04T06:19:17Z</time>
      </trkpt>
      <trkpt lat="47.27797" lon="0.48669">
        <ele>91.1</ele>
        <time>2023-06-04T06:19:20Z</time>
      </trkpt>
      <trkpt lat="47.2775" lon="0.48645">
        <ele>92</ele>
        <time>2023-06-04T06:19:27Z</time>
      </trkpt>
      <trkpt lat="47.27737" lon="0.48638">
        <ele>92.4</ele>
        <time>2023-06-04T06:19:29Z</time>
      </trkpt>
      <trkpt lat="47.277" lon="0.4862">
        <ele>93.3</ele>
        <time>2023-06-04T06:19:35Z</time>
      </trkpt>
      <trkpt lat="47.27687" lon="0.48613">
        <ele>93.5</ele>
        <time>2023-06-04T06:19:37Z</time>
      </trkpt>
      <trkpt lat="47.27658" lon="0.48597">
        <ele>93.7</ele>
        <time>2023-06-04T06:19:42Z</time>
      </trkpt>
      <trkpt lat="47.27626" lon="0.48578">
        <ele>93.4</ele>
        <time>2023-06-04T06:19:47Z</time>
      </trkpt>
      <trkpt lat="47.27609" lon="0.48562">
        <ele>93.2</ele>
        <time>2023-06-04T06:19:50Z</time>
      </trkpt>
      <trkpt lat="47.27593" lon="0.48542">
        <ele>92.9</ele>
        <time>2023-06-04T06:19:53Z</time>
      </trkpt>
      <trkpt lat="47.27544" lon="0.48489">
        <ele>91.2</ele>
        <time>2023-06-04T06:20:01Z</time>
      </trkpt>
      <trkpt lat="47.27523" lon="0.48472">
        <ele>90.3</ele>
        <time>2023-06-04T06:20:04Z</time>
      </trkpt>
      <trkpt lat="47.27492" lon="0.48453">
        <ele>89.6</ele>
        <time>2023-06-04T06:20:08Z</time>
      </trkpt>
      <trkpt lat="47.27485" lon="0.48448">
        <ele>89.6</ele>
        <time>2023-06-04T06:20:09Z</time>
      </trkpt>
      <trkpt lat="47.27478" lon="0.48444">
        <ele>89.7</ele>
        <time>2023-06-04T06:20:10Z</time>
      </trkpt>
      <trkpt lat="47.27437" lon="0.48421">
        <ele>90.5</ele>
        <time>2023-06-04T06:20:16Z</time>
      </trkpt>
      <trkpt lat="47.27403" lon="0.48405">
        <ele>91.1</ele>
        <time>2023-06-04T06:20:21Z</time>
      </trkpt>
      <trkpt lat="47.27378" lon="0.4839">
        <ele>91.5</ele>
        <time>2023-06-04T06:20:25Z</time>
      </trkpt>
      <trkpt lat="47.27366" lon="0.48382">
        <ele>91.7</ele>
        <time>2023-06-04T06:20:27Z</time>
      </trkpt>
      <trkpt lat="47.27323" lon="0.4835">
        <ele>92</ele>
        <time>2023-06-04T06:20:34Z</time>
      </trkpt>
      <trkpt lat="47.27274" lon="0.48313">
        <ele>92.4</ele>
        <time>2023-06-04T06:20:42Z</time>
      </trkpt>
      <trkpt lat="47.27268" lon="0.48308">
        <ele>92.4</ele>
        <time>2023-06-04T06:20:43Z</time>
      </trkpt>
      <trkpt lat="47.27244" lon="0.48289">
        <ele>92.7</ele>
        <time>2023-06-04T06:20:47Z</time>
      </trkpt>
      <trkpt lat="47.27223" lon="0.4827">
        <ele>93.2</ele>
        <time>2023-06-04T06:20:51Z</time>
      </trkpt>
      <trkpt lat="47.27214" lon="0.48259">
        <ele>93.6</ele>
        <time>2023-06-04T06:20:53Z</time>
      </trkpt>
      <trkpt lat="47.27211" lon="0.48244">
        <ele>93.9</ele>
        <time>2023-06-04T06:20:55Z</time>
      </trkpt>
      <trkpt lat="47.27217" lon="0.48228">
        <ele>93.4</ele>
        <time>2023-06-04T06:20:57Z</time>
      </trkpt>
      <trkpt lat="47.27221" lon="0.48221">
        <ele>93.2</ele>
        <time>2023-06-04T06:20:58Z</time>
      </trkpt>
      <trkpt lat="47.27227" lon="0.48214">
        <ele>93</ele>
        <time>2023-06-04T06:20:59Z</time>
      </trkpt>
      <trkpt lat="47.27242" lon="0.48191">
        <ele>92.5</ele>
        <time>2023-06-04T06:21:02Z</time>
      </trkpt>
      <trkpt lat="47.27256" lon="0.48165">
        <ele>92</ele>
        <time>2023-06-04T06:21:05Z</time>
      </trkpt>
      <trkpt lat="47.27275" lon="0.48129">
        <ele>91.4</ele>
        <time>2023-06-04T06:21:09Z</time>
      </trkpt>
      <trkpt lat="47.2728" lon="0.4812">
        <ele>91.2</ele>
        <time>2023-06-04T06:21:10Z</time>
      </trkpt>
      <trkpt lat="47.27299" lon="0.4808">
        <ele>90.5</ele>
        <time>2023-06-04T06:21:14Z</time>
      </trkpt>
      <trkpt lat="47.27318" lon="0.48038">
        <ele>90.1</ele>
        <time>2023-06-04T06:21:18Z</time>
      </trkpt>
      <trkpt lat="47.27323" lon="0.48027">
        <ele>90</ele>
        <time>2023-06-04T06:21:19Z</time>
      </trkpt>
      <trkpt lat="47.27347" lon="0.47972">
        <ele>89.7</ele>
        <time>2023-06-04T06:21:24Z</time>
      </trkpt>
      <trkpt lat="47.27354" lon="0.47949">
        <ele>89.7</ele>
        <time>2023-06-04T06:21:26Z</time>
      </trkpt>
      <trkpt lat="47.27363" lon="0.47889">
        <ele>89.6</ele>
        <time>2023-06-04T06:21:31Z</time>
      </trkpt>
      <trkpt lat="47.2737" lon="0.47818">
        <ele>89.9</ele>
        <time>2023-06-04T06:21:37Z</time>
      </trkpt>
      <trkpt lat="47.27371" lon="0.47795">
        <ele>90</ele>
        <time>2023-06-04T06:21:39Z</time>
      </trkpt>
      <trkpt lat="47.27366" lon="0.47776">
        <ele>90.2</ele>
        <time>2023-06-04T06:21:41Z</time>
      </trkpt>
      <trkpt lat="47.27347" lon="0.47756">
        <ele>90.4</ele>
        <time>2023-06-04T06:21:44Z</time>
      </trkpt>
      <trkpt lat="47.2734" lon="0.47752">
        <ele>90.4</ele>
        <time>2023-06-04T06:21:45Z</time>
      </trkpt>
      <trkpt lat="47.27333" lon="0.47747">
        <ele>90.5</ele>
        <time>2023-06-04T06:21:46Z</time>
      </trkpt>
      <trkpt lat="47.27297" lon="0.47725">
        <ele>90.4</ele>
        <time>2023-06-04T06:21:51Z</time>
      </trkpt>
      <trkpt lat="47.2729" lon="0.4772">
        <ele>90.3</ele>
        <time>2023-06-04T06:21:52Z</time>
      </trkpt>
      <trkpt lat="47.27281" lon="0.47705">
        <ele>90.2</ele>
        <time>2023-06-04T06:21:54Z</time>
      </trkpt>
      <trkpt lat="47.27282" lon="0.47686">
        <ele>90.2</ele>
        <time>2023-06-04T06:21:56Z</time>
      </trkpt>
      <trkpt lat="47.27289" lon="0.47653">
        <ele>89.7</ele>
        <time>2023-06-04T06:21:59Z</time>
      </trkpt>
      <trkpt lat="47.2728" lon="0.47636">
        <ele>89.6</ele>
        <time>2023-06-04T06:22:01Z</time>
      </trkpt>
      <trkpt lat="47.27267" lon="0.47623">
        <ele>89.4</ele>
        <time>2023-06-04T06:22:03Z</time>
      </trkpt>
      <trkpt lat="47.27238" lon="0.47597">
        <ele>89.3</ele>
        <time>2023-06-04T06:22:07Z</time>
      </trkpt>
      <trkpt lat="47.27211" lon="0.47568">
        <ele>89.4</ele>
        <time>2023-06-04T06:22:11Z</time>
      </trkpt>
      <trkpt lat="47.27173" lon="0.47525">
        <ele>90</ele>
        <time>2023-06-04T06:22:17Z</time>
      </trkpt>
      <trkpt lat="47.27132" lon="0.47473">
        <ele>91.3</ele>
        <time>2023-06-04T06:22:24Z</time>
      </trkpt>
      <trkpt lat="47.27127" lon="0.47466">
        <ele>91.4</ele>
        <time>2023-06-04T06:22:25Z</time>
      </trkpt>
      <trkpt lat="47.2711" lon="0.47447">
        <ele>91.9</ele>
        <time>2023-06-04T06:22:28Z</time>
      </trkpt>
      <trkpt lat="47.27092" lon="0.4743">
        <ele>92.6</ele>
        <time>2023-06-04T06:22:31Z</time>
      </trkpt>
      <trkpt lat="47.27085" lon="0.47425">
        <ele>92.8</ele>
        <time>2023-06-04T06:22:32Z</time>
      </trkpt>
      <trkpt lat="47.27044" lon="0.47397">
        <ele>94.2</ele>
        <time>2023-06-04T06:22:38Z</time>
      </trkpt>
      <trkpt lat="47.27037" lon="0.47392">
        <ele>94.3</ele>
        <time>2023-06-04T06:22:39Z</time>
      </trkpt>
      <trkpt lat="47.27001" lon="0.47368">
        <ele>94.9</ele>
        <time>2023-06-04T06:22:44Z</time>
      </trkpt>
      <trkpt lat="47.26986" lon="0.47359">
        <ele>95.1</ele>
        <time>2023-06-04T06:22:46Z</time>
      </trkpt>
      <trkpt lat="47.26964" lon="0.47344">
        <ele>95.4</ele>
        <time>2023-06-04T06:22:49Z</time>
      </trkpt>
      <trkpt lat="47.26927" lon="0.47318">
        <ele>95.7</ele>
        <time>2023-06-04T06:22:54Z</time>
      </trkpt>
      <trkpt lat="47.26879" lon="0.47276">
        <ele>96</ele>
        <time>2023-06-04T06:23:01Z</time>
      </trkpt>
      <trkpt lat="47.26873" lon="0.47271">
        <ele>96.1</ele>
        <time>2023-06-04T06:23:02Z</time>
      </trkpt>
      <trkpt lat="47.26843" lon="0.47243">
        <ele>95.9</ele>
        <time>2023-06-04T06:23:07Z</time>
      </trkpt>
      <trkpt lat="47.26825" lon="0.47227">
        <ele>95.6</ele>
        <time>2023-06-04T06:23:10Z</time>
      </trkpt>
      <trkpt lat="47.26806" lon="0.4721">
        <ele>95.1</ele>
        <time>2023-06-04T06:23:13Z</time>
      </trkpt>
      <trkpt lat="47.26786" lon="0.47195">
        <ele>94.3</ele>
        <time>2023-06-04T06:23:16Z</time>
      </trkpt>
      <trkpt lat="47.26779" lon="0.47191">
        <ele>94</ele>
        <time>2023-06-04T06:23:17Z</time>
      </trkpt>
      <trkpt lat="47.26755" lon="0.47187">
        <ele>93.3</ele>
        <time>2023-06-04T06:23:20Z</time>
      </trkpt>
      <trkpt lat="47.26738" lon="0.47192">
        <ele>93</ele>
        <time>2023-06-04T06:23:22Z</time>
      </trkpt>
      <trkpt lat="47.2673" lon="0.47192">
        <ele>93.2</ele>
        <time>2023-06-04T06:23:23Z</time>
      </trkpt>
      <trkpt lat="47.26722" lon="0.4719">
        <ele>93</ele>
        <time>2023-06-04T06:23:24Z</time>
      </trkpt>
      <trkpt lat="47.26714" lon="0.47184">
        <ele>92.7</ele>
        <time>2023-06-04T06:23:25Z</time>
      </trkpt>
      <trkpt lat="47.267" lon="0.47176">
        <ele>92.2</ele>
        <time>2023-06-04T06:23:27Z</time>
      </trkpt>
      <trkpt lat="47.26687" lon="0.47184">
        <ele>91.9</ele>
        <time>2023-06-04T06:23:29Z</time>
      </trkpt>
      <trkpt lat="47.26681" lon="0.47204">
        <ele>92.1</ele>
        <time>2023-06-04T06:23:31Z</time>
      </trkpt>
      <trkpt lat="47.26681" lon="0.47226">
        <ele>92.5</ele>
        <time>2023-06-04T06:23:33Z</time>
      </trkpt>
      <trkpt lat="47.26679" lon="0.47247">
        <ele>93.3</ele>
        <time>2023-06-04T06:23:35Z</time>
      </trkpt>
      <trkpt lat="47.26674" lon="0.47275">
        <ele>94.4</ele>
        <time>2023-06-04T06:23:38Z</time>
      </trkpt>
      <trkpt lat="47.26668" lon="0.47295">
        <ele>94.5</ele>
        <time>2023-06-04T06:23:40Z</time>
      </trkpt>
      <trkpt lat="47.26658" lon="0.47322">
        <ele>94.6</ele>
        <time>2023-06-04T06:23:43Z</time>
      </trkpt>
      <trkpt lat="47.26651" lon="0.4734">
        <ele>94.7</ele>
        <time>2023-06-04T06:23:45Z</time>
      </trkpt>
      <trkpt lat="47.26624" lon="0.47396">
        <ele>94.4</ele>
        <time>2023-06-04T06:23:51Z</time>
      </trkpt>
      <trkpt lat="47.26595" lon="0.47448">
        <ele>93.3</ele>
        <time>2023-06-04T06:23:57Z</time>
      </trkpt>
      <trkpt lat="47.26589" lon="0.47454">
        <ele>93</ele>
        <time>2023-06-04T06:23:58Z</time>
      </trkpt>
      <trkpt lat="47.26565" lon="0.47458">
        <ele>92.2</ele>
        <time>2023-06-04T06:24:01Z</time>
      </trkpt>
      <trkpt lat="47.26547" lon="0.47453">
        <ele>91.2</ele>
        <time>2023-06-04T06:24:03Z</time>
      </trkpt>
      <trkpt lat="47.26538" lon="0.4745">
        <ele>90.8</ele>
        <time>2023-06-04T06:24:04Z</time>
      </trkpt>
      <trkpt lat="47.2653" lon="0.47446">
        <ele>90.4</ele>
        <time>2023-06-04T06:24:05Z</time>
      </trkpt>
      <trkpt lat="47.26503" lon="0.47435">
        <ele>89.3</ele>
        <time>2023-06-04T06:24:08Z</time>
      </trkpt>
      <trkpt lat="47.26486" lon="0.47429">
        <ele>88.8</ele>
        <time>2023-06-04T06:24:10Z</time>
      </trkpt>
      <trkpt lat="47.2647" lon="0.47421">
        <ele>88.4</ele>
        <time>2023-06-04T06:24:12Z</time>
      </trkpt>
      <trkpt lat="47.26455" lon="0.47407">
        <ele>88.1</ele>
        <time>2023-06-04T06:24:14Z</time>
      </trkpt>
      <trkpt lat="47.26448" lon="0.47402">
        <ele>88.1</ele>
        <time>2023-06-04T06:24:15Z</time>
      </trkpt>
      <trkpt lat="47.2644" lon="0.47401">
        <ele>87.8</ele>
        <time>2023-06-04T06:24:16Z</time>
      </trkpt>
      <trkpt lat="47.26417" lon="0.4739">
        <ele>87.2</ele>
        <time>2023-06-04T06:24:19Z</time>
      </trkpt>
      <trkpt lat="47.26411" lon="0.47383">
        <ele>86.9</ele>
        <time>2023-06-04T06:24:20Z</time>
      </trkpt>
      <trkpt lat="47.26404" lon="0.47376">
        <ele>86.6</ele>
        <time>2023-06-04T06:24:21Z</time>
      </trkpt>
      <trkpt lat="47.26386" lon="0.47354">
        <ele>85.8</ele>
        <time>2023-06-04T06:24:24Z</time>
      </trkpt>
      <trkpt lat="47.26343" lon="0.47309">
        <ele>83.4</ele>
        <time>2023-06-04T06:24:30Z</time>
      </trkpt>
      <trkpt lat="47.26336" lon="0.47301">
        <ele>82.8</ele>
        <time>2023-06-04T06:24:31Z</time>
      </trkpt>
      <trkpt lat="47.26322" lon="0.47284">
        <ele>81.3</ele>
        <time>2023-06-04T06:24:33Z</time>
      </trkpt>
      <trkpt lat="47.26307" lon="0.47266">
        <ele>79.8</ele>
        <time>2023-06-04T06:24:35Z</time>
      </trkpt>
      <trkpt lat="47.26292" lon="0.47247">
        <ele>78.1</ele>
        <time>2023-06-04T06:24:37Z</time>
      </trkpt>
      <trkpt lat="47.26284" lon="0.47237">
        <ele>77.2</ele>
        <time>2023-06-04T06:24:38Z</time>
      </trkpt>
      <trkpt lat="47.26276" lon="0.47228">
        <ele>76.7</ele>
        <time>2023-06-04T06:24:39Z</time>
      </trkpt>
      <trkpt lat="47.26259" lon="0.47207">
        <ele>75.1</ele>
        <time>2023-06-04T06:24:41Z</time>
      </trkpt>
      <trkpt lat="47.26243" lon="0.47183">
        <ele>73</ele>
        <time>2023-06-04T06:24:43Z</time>
      </trkpt>
      <trkpt lat="47.26226" lon="0.47158">
        <ele>70.8</ele>
        <time>2023-06-04T06:24:45Z</time>
      </trkpt>
      <trkpt lat="47.26217" lon="0.47146">
        <ele>69.7</ele>
        <time>2023-06-04T06:24:46Z</time>
      </trkpt>
      <trkpt lat="47.26209" lon="0.47135">
        <ele>68.6</ele>
        <time>2023-06-04T06:24:47Z</time>
      </trkpt>
      <trkpt lat="47.26202" lon="0.47124">
        <ele>67.6</ele>
        <time>2023-06-04T06:24:48Z</time>
      </trkpt>
      <trkpt lat="47.26195" lon="0.47115">
        <ele>66.7</ele>
        <time>2023-06-04T06:24:49Z</time>
      </trkpt>
      <trkpt lat="47.26189" lon="0.47107">
        <ele>65.8</ele>
        <time>2023-06-04T06:24:50Z</time>
      </trkpt>
      <trkpt lat="47.26184" lon="0.471">
        <ele>65.1</ele>
        <time>2023-06-04T06:24:51Z</time>
      </trkpt>
      <trkpt lat="47.2618" lon="0.47095">
        <ele>64.5</ele>
        <time>2023-06-04T06:24:52Z</time>
      </trkpt>
      <trkpt lat="47.26177" lon="0.4709">
        <ele>64</ele>
        <time>2023-06-04T06:24:53Z</time>
      </trkpt>
      <trkpt lat="47.26169" lon="0.47081">
        <ele>63</ele>
        <time>2023-06-04T06:24:55Z</time>
      </trkpt>
      <trkpt lat="47.26163" lon="0.47077">
        <ele>62.3</ele>
        <time>2023-06-04T06:24:56Z</time>
      </trkpt>
      <trkpt lat="47.26149" lon="0.4707">
        <ele>60.5</ele>
        <time>2023-06-04T06:24:58Z</time>
      </trkpt>
      <trkpt lat="47.26141" lon="0.47066">
        <ele>59.5</ele>
        <time>2023-06-04T06:24:59Z</time>
      </trkpt>
      <trkpt lat="47.26124" lon="0.47058">
        <ele>57.3</ele>
        <time>2023-06-04T06:25:01Z</time>
      </trkpt>
      <trkpt lat="47.26115" lon="0.47053">
        <ele>56.2</ele>
        <time>2023-06-04T06:25:02Z</time>
      </trkpt>
      <trkpt lat="47.26107" lon="0.4705">
        <ele>55.3</ele>
        <time>2023-06-04T06:25:03Z</time>
      </trkpt>
      <trkpt lat="47.26099" lon="0.47046">
        <ele>54.5</ele>
        <time>2023-06-04T06:25:04Z</time>
      </trkpt>
      <trkpt lat="47.26093" lon="0.47039">
        <ele>53.8</ele>
        <time>2023-06-04T06:25:05Z</time>
      </trkpt>
      <trkpt lat="47.26089" lon="0.47029">
        <ele>53.1</ele>
        <time>2023-06-04T06:25:06Z</time>
      </trkpt>
      <trkpt lat="47.26087" lon="0.47018">
        <ele>52.8</ele>
        <time>2023-06-04T06:25:07Z</time>
      </trkpt>
      <trkpt lat="47.26088" lon="0.46996">
        <ele>52.6</ele>
        <time>2023-06-04T06:25:09Z</time>
      </trkpt>
      <trkpt lat="47.26089" lon="0.46986">
        <ele>52.5</ele>
        <time>2023-06-04T06:25:10Z</time>
      </trkpt>
      <trkpt lat="47.26091" lon="0.46976">
        <ele>52.5</ele>
        <time>2023-06-04T06:25:11Z</time>
      </trkpt>
      <trkpt lat="47.26098" lon="0.46939">
        <ele>52.4</ele>
        <time>2023-06-04T06:25:15Z</time>
      </trkpt>
      <trkpt lat="47.26099" lon="0.46929">
        <ele>52.2</ele>
        <time>2023-06-04T06:25:16Z</time>
      </trkpt>
      <trkpt lat="47.26105" lon="0.46873">
        <ele>51.2</ele>
        <time>2023-06-04T06:25:21Z</time>
      </trkpt>
      <trkpt lat="47.26106" lon="0.46861">
        <ele>51</ele>
        <time>2023-06-04T06:25:22Z</time>
      </trkpt>
      <trkpt lat="47.26106" lon="0.46849">
        <ele>50.8</ele>
        <time>2023-06-04T06:25:23Z</time>
      </trkpt>
      <trkpt lat="47.26105" lon="0.46811">
        <ele>50.1</ele>
        <time>2023-06-04T06:25:26Z</time>
      </trkpt>
      <trkpt lat="47.26106" lon="0.46799">
        <ele>50</ele>
        <time>2023-06-04T06:25:27Z</time>
      </trkpt>
      <trkpt lat="47.26111" lon="0.46764">
        <ele>49.7</ele>
        <time>2023-06-04T06:25:30Z</time>
      </trkpt>
      <trkpt lat="47.26114" lon="0.46753">
        <ele>49.6</ele>
        <time>2023-06-04T06:25:31Z</time>
      </trkpt>
      <trkpt lat="47.26128" lon="0.46734">
        <ele>49.5</ele>
        <time>2023-06-04T06:25:34Z</time>
      </trkpt>
      <trkpt lat="47.2614" lon="0.46741">
        <ele>49.9</ele>
        <time>2023-06-04T06:25:36Z</time>
      </trkpt>
      <trkpt lat="47.26158" lon="0.46757">
        <ele>50.7</ele>
        <time>2023-06-04T06:25:40Z</time>
      </trkpt>
      <trkpt lat="47.26167" lon="0.46759">
        <ele>51.3</ele>
        <time>2023-06-04T06:25:42Z</time>
      </trkpt>
      <trkpt lat="47.26172" lon="0.46755">
        <ele>51.7</ele>
        <time>2023-06-04T06:25:43Z</time>
      </trkpt>
      <trkpt lat="47.26177" lon="0.4675">
        <ele>52</ele>
        <time>2023-06-04T06:25:44Z</time>
      </trkpt>
      <trkpt lat="47.26182" lon="0.46736">
        <ele>52.3</ele>
        <time>2023-06-04T06:25:46Z</time>
      </trkpt>
      <trkpt lat="47.26193" lon="0.46702">
        <ele>52.2</ele>
        <time>2023-06-04T06:25:50Z</time>
      </trkpt>
      <trkpt lat="47.26195" lon="0.46692">
        <ele>52.2</ele>
        <time>2023-06-04T06:25:51Z</time>
      </trkpt>
      <trkpt lat="47.26204" lon="0.46674">
        <ele>52</ele>
        <time>2023-06-04T06:25:53Z</time>
      </trkpt>
      <trkpt lat="47.26214" lon="0.46659">
        <ele>52.2</ele>
        <time>2023-06-04T06:25:55Z</time>
      </trkpt>
      <trkpt lat="47.26225" lon="0.46633">
        <ele>52.6</ele>
        <time>2023-06-04T06:25:59Z</time>
      </trkpt>
      <trkpt lat="47.26231" lon="0.4661">
        <ele>52.9</ele>
        <time>2023-06-04T06:26:03Z</time>
      </trkpt>
      <trkpt lat="47.2623" lon="0.46606">
        <ele>52.8</ele>
        <time>2023-06-04T06:26:04Z</time>
      </trkpt>
      <trkpt lat="47.26227" lon="0.46603">
        <ele>52.7</ele>
        <time>2023-06-04T06:26:05Z</time>
      </trkpt>
      <trkpt lat="47.26219" lon="0.46598">
        <ele>52.3</ele>
        <time>2023-06-04T06:26:07Z</time>
      </trkpt>
      <trkpt lat="47.26214" lon="0.46597">
        <ele>52.1</ele>
        <time>2023-06-04T06:26:08Z</time>
      </trkpt>
      <trkpt lat="47.26205" lon="0.46592">
        <ele>51.8</ele>
        <time>2023-06-04T06:26:10Z</time>
      </trkpt>
      <trkpt lat="47.26194" lon="0.46587">
        <ele>51.4</ele>
        <time>2023-06-04T06:26:13Z</time>
      </trkpt>
      <trkpt lat="47.26185" lon="0.46581">
        <ele>51</ele>
        <time>2023-06-04T06:26:16Z</time>
      </trkpt>
      <trkpt lat="47.26176" lon="0.46575">
        <ele>50.4</ele>
        <time>2023-06-04T06:26:19Z</time>
      </trkpt>
      <trkpt lat="47.26158" lon="0.46564">
        <ele>49.3</ele>
        <time>2023-06-04T06:26:24Z</time>
      </trkpt>
      <trkpt lat="47.26144" lon="0.46553">
        <ele>48.5</ele>
        <time>2023-06-04T06:26:27Z</time>
      </trkpt>
      <trkpt lat="47.26134" lon="0.46542">
        <ele>47.8</ele>
        <time>2023-06-04T06:26:29Z</time>
      </trkpt>
      <trkpt lat="47.26117" lon="0.46514">
        <ele>46.7</ele>
        <time>2023-06-04T06:26:33Z</time>
      </trkpt>
      <trkpt lat="47.26112" lon="0.46509">
        <ele>46.5</ele>
        <time>2023-06-04T06:26:34Z</time>
      </trkpt>
      <trkpt lat="47.26096" lon="0.46494">
        <ele>46</ele>
        <time>2023-06-04T06:26:37Z</time>
      </trkpt>
      <trkpt lat="47.2609" lon="0.4649">
        <ele>45.9</ele>
        <time>2023-06-04T06:26:38Z</time>
      </trkpt>
      <trkpt lat="47.26077" lon="0.46484">
        <ele>45.7</ele>
        <time>2023-06-04T06:26:40Z</time>
      </trkpt>
      <trkpt lat="47.2607" lon="0.46481">
        <ele>45.7</ele>
        <time>2023-06-04T06:26:41Z</time>
      </trkpt>
      <trkpt lat="47.26046" lon="0.46469">
        <ele>45.6</ele>
        <time>2023-06-04T06:26:45Z</time>
      </trkpt>
      <trkpt lat="47.26022" lon="0.46457">
        <ele>45.6</ele>
        <time>2023-06-04T06:26:50Z</time>
      </trkpt>
      <trkpt lat="47.26017" lon="0.46454">
        <ele>45.6</ele>
        <time>2023-06-04T06:26:51Z</time>
      </trkpt>
      <trkpt lat="47.26012" lon="0.46452">
        <ele>45.6</ele>
        <time>2023-06-04T06:26:52Z</time>
      </trkpt>
      <trkpt lat="47.25982" lon="0.46437">
        <ele>45.4</ele>
        <time>2023-06-04T06:26:59Z</time>
      </trkpt>
      <trkpt lat="47.25976" lon="0.4643">
        <ele>45.4</ele>
        <time>2023-06-04T06:27:02Z</time>
      </trkpt>
      <trkpt lat="47.25977" lon="0.46426">
        <ele>45.4</ele>
        <time>2023-06-04T06:27:03Z</time>
      </trkpt>
      <trkpt lat="47.25983" lon="0.46421">
        <ele>45.3</ele>
        <time>2023-06-04T06:27:06Z</time>
      </trkpt>
      <trkpt lat="47.25985" lon="0.46415">
        <ele>45.3</ele>
        <time>2023-06-04T06:27:09Z</time>
      </trkpt>
      <trkpt lat="47.25982" lon="0.46413">
        <ele>45.3</ele>
        <time>2023-06-04T06:27:11Z</time>
      </trkpt>
      <trkpt lat="47.25981" lon="0.46413">
        <ele>45.3</ele>
        <time>2023-06-04T06:27:12Z</time>
      </trkpt>
      <trkpt lat="47.2598" lon="0.46414">
        <ele>45.3</ele>
        <time>2023-06-04T06:27:13Z</time>
      </trkpt>
      <trkpt lat="47.25979" lon="0.46417">
        <ele>45.3</ele>
        <time>2023-06-04T06:27:14Z</time>
      </trkpt>
      <trkpt lat="47.2597" lon="0.46429">
        <ele>45.3</ele>
        <time>2023-06-04T06:27:20Z</time>
      </trkpt>
      <trkpt lat="47.2597" lon="0.4643">
        <ele>45.3</ele>
        <time>2023-06-04T06:28:29Z</time>
      </trkpt>
      <trkpt lat="47.25968" lon="0.46432">
        <ele>45.3</ele>
        <time>2023-06-04T06:28:30Z</time>
      </trkpt>
      <trkpt lat="47.25966" lon="0.46432">
        <ele>45.2</ele>
        <time>2023-06-04T06:28:31Z</time>
      </trkpt>
      <trkpt lat="47.25949" lon="0.46437">
        <ele>45.1</ele>
        <time>2023-06-04T06:28:36Z</time>
      </trkpt>
      <trkpt lat="47.25946" lon="0.46438">
        <ele>45.1</ele>
        <time>2023-06-04T06:28:37Z</time>
      </trkpt>
      <trkpt lat="47.25921" lon="0.46437">
        <ele>45</ele>
        <time>2023-06-04T06:28:44Z</time>
      </trkpt>
      <trkpt lat="47.25891" lon="0.46445">
        <ele>44.9</ele>
        <time>2023-06-04T06:28:50Z</time>
      </trkpt>
      <trkpt lat="47.25882" lon="0.46445">
        <ele>44.9</ele>
        <time>2023-06-04T06:28:52Z</time>
      </trkpt>
      <trkpt lat="47.25864" lon="0.46446">
        <ele>44.9</ele>
        <time>2023-06-04T06:28:55Z</time>
      </trkpt>
      <trkpt lat="47.25833" lon="0.46442">
        <ele>44.9</ele>
        <time>2023-06-04T06:29:01Z</time>
      </trkpt>
      <trkpt lat="47.25828" lon="0.4644">
        <ele>44.9</ele>
        <time>2023-06-04T06:29:02Z</time>
      </trkpt>
      <trkpt lat="47.25797" lon="0.46434">
        <ele>44.9</ele>
        <time>2023-06-04T06:29:08Z</time>
      </trkpt>
      <trkpt lat="47.25791" lon="0.46433">
        <ele>44.9</ele>
        <time>2023-06-04T06:29:09Z</time>
      </trkpt>
      <trkpt lat="47.2575" lon="0.46422">
        <ele>44.9</ele>
        <time>2023-06-04T06:29:17Z</time>
      </trkpt>
      <trkpt lat="47.25732" lon="0.46419">
        <ele>44.9</ele>
        <time>2023-06-04T06:29:21Z</time>
      </trkpt>
      <trkpt lat="47.25716" lon="0.46415">
        <ele>44.9</ele>
        <time>2023-06-04T06:29:25Z</time>
      </trkpt>
      <trkpt lat="47.25708" lon="0.46415">
        <ele>44.9</ele>
        <time>2023-06-04T06:29:28Z</time>
      </trkpt>
      <trkpt lat="47.25708" lon="0.46417">
        <ele>44.9</ele>
        <time>2023-06-04T06:29:29Z</time>
      </trkpt>
      <trkpt lat="47.25717" lon="0.46422">
        <ele>44.9</ele>
        <time>2023-06-04T06:29:33Z</time>
      </trkpt>
      <trkpt lat="47.25726" lon="0.46425">
        <ele>44.9</ele>
        <time>2023-06-04T06:29:35Z</time>
      </trkpt>
      <trkpt lat="47.25742" lon="0.46429">
        <ele>44.9</ele>
        <time>2023-06-04T06:29:38Z</time>
      </trkpt>
      <trkpt lat="47.25775" lon="0.46437">
        <ele>44.9</ele>
        <time>2023-06-04T06:29:44Z</time>
      </trkpt>
      <trkpt lat="47.25785" lon="0.46439">
        <ele>44.9</ele>
        <time>2023-06-04T06:29:46Z</time>
      </trkpt>
      <trkpt lat="47.25801" lon="0.46443">
        <ele>44.9</ele>
        <time>2023-06-04T06:29:49Z</time>
      </trkpt>
      <trkpt lat="47.25828" lon="0.46451">
        <ele>44.9</ele>
        <time>2023-06-04T06:29:54Z</time>
      </trkpt>
      <trkpt lat="47.25863" lon="0.46456">
        <ele>44.9</ele>
        <time>2023-06-04T06:30:00Z</time>
      </trkpt>
      <trkpt lat="47.25903" lon="0.46453">
        <ele>45</ele>
        <time>2023-06-04T06:30:07Z</time>
      </trkpt>
      <trkpt lat="47.25941" lon="0.46445">
        <ele>45.1</ele>
        <time>2023-06-04T06:30:14Z</time>
      </trkpt>
      <trkpt lat="47.2596" lon="0.46441">
        <ele>45.2</ele>
        <time>2023-06-04T06:30:18Z</time>
      </trkpt>
      <trkpt lat="47.25967" lon="0.46437">
        <ele>45.3</ele>
        <time>2023-06-04T06:30:20Z</time>
      </trkpt>
      <trkpt lat="47.25975" lon="0.46433">
        <ele>45.3</ele>
        <time>2023-06-04T06:30:24Z</time>
      </trkpt>
      <trkpt lat="47.25973" lon="0.46434">
        <ele>45.3</ele>
        <time>2023-06-04T06:32:18Z</time>
      </trkpt>
      <trkpt lat="47.2597" lon="0.46435">
        <ele>45.3</ele>
        <time>2023-06-04T06:32:19Z</time>
      </trkpt>
      <trkpt lat="47.25958" lon="0.46436">
        <ele>45.2</ele>
        <time>2023-06-04T06:32:22Z</time>
      </trkpt>
      <trkpt lat="47.25953" lon="0.46437">
        <ele>45.2</ele>
        <time>2023-06-04T06:32:23Z</time>
      </trkpt>
      <trkpt lat="47.2594" lon="0.4644">
        <ele>45.1</ele>
        <time>2023-06-04T06:32:26Z</time>
      </trkpt>
      <trkpt lat="47.25925" lon="0.46442">
        <ele>45</ele>
        <time>2023-06-04T06:32:29Z</time>
      </trkpt>
      <trkpt lat="47.25891" lon="0.46447">
        <ele>44.9</ele>
        <time>2023-06-04T06:32:35Z</time>
      </trkpt>
      <trkpt lat="47.25853" lon="0.46446">
        <ele>44.9</ele>
        <time>2023-06-04T06:32:41Z</time>
      </trkpt>
      <trkpt lat="47.25809" lon="0.46438">
        <ele>44.9</ele>
        <time>2023-06-04T06:32:48Z</time>
      </trkpt>
      <trkpt lat="47.2577" lon="0.46429">
        <ele>44.9</ele>
        <time>2023-06-04T06:32:54Z</time>
      </trkpt>
      <trkpt lat="47.25717" lon="0.46415">
        <ele>44.9</ele>
        <time>2023-06-04T06:33:02Z</time>
      </trkpt>
      <trkpt lat="47.25662" lon="0.46398">
        <ele>44.8</ele>
        <time>2023-06-04T06:33:11Z</time>
      </trkpt>
      <trkpt lat="47.25605" lon="0.46377">
        <ele>44.6</ele>
        <time>2023-06-04T06:33:20Z</time>
      </trkpt>
      <trkpt lat="47.25564" lon="0.46352">
        <ele>44.7</ele>
        <time>2023-06-04T06:33:27Z</time>
      </trkpt>
      <trkpt lat="47.25553" lon="0.46342">
        <ele>44.9</ele>
        <time>2023-06-04T06:33:29Z</time>
      </trkpt>
      <trkpt lat="47.2554" lon="0.46323">
        <ele>45.2</ele>
        <time>2023-06-04T06:33:32Z</time>
      </trkpt>
      <trkpt lat="47.25514" lon="0.46286">
        <ele>46.4</ele>
        <time>2023-06-04T06:33:38Z</time>
      </trkpt>
      <trkpt lat="47.25501" lon="0.46269">
        <ele>46.9</ele>
        <time>2023-06-04T06:33:41Z</time>
      </trkpt>
      <trkpt lat="47.25493" lon="0.46259">
        <ele>47.9</ele>
        <time>2023-06-04T06:33:43Z</time>
      </trkpt>
      <trkpt lat="47.25489" lon="0.46254">
        <ele>48.3</ele>
        <time>2023-06-04T06:33:44Z</time>
      </trkpt>
      <trkpt lat="47.25481" lon="0.46244">
        <ele>49.3</ele>
        <time>2023-06-04T06:33:46Z</time>
      </trkpt>
      <trkpt lat="47.25477" lon="0.46239">
        <ele>49.8</ele>
        <time>2023-06-04T06:33:47Z</time>
      </trkpt>
      <trkpt lat="47.25471" lon="0.46231">
        <ele>50.7</ele>
        <time>2023-06-04T06:33:49Z</time>
      </trkpt>
      <trkpt lat="47.25466" lon="0.46225">
        <ele>51.4</ele>
        <time>2023-06-04T06:33:51Z</time>
      </trkpt>
      <trkpt lat="47.25464" lon="0.46222">
        <ele>51.8</ele>
        <time>2023-06-04T06:33:52Z</time>
      </trkpt>
      <trkpt lat="47.25461" lon="0.46222">
        <ele>52.1</ele>
        <time>2023-06-04T06:33:53Z</time>
      </trkpt>
      <trkpt lat="47.25455" lon="0.46226">
        <ele>52.5</ele>
        <time>2023-06-04T06:33:55Z</time>
      </trkpt>
      <trkpt lat="47.25453" lon="0.4623">
        <ele>52.6</ele>
        <time>2023-06-04T06:33:56Z</time>
      </trkpt>
      <trkpt lat="47.2545" lon="0.46234">
        <ele>52.7</ele>
        <time>2023-06-04T06:33:57Z</time>
      </trkpt>
      <trkpt lat="47.25441" lon="0.46248">
        <ele>52.9</ele>
        <time>2023-06-04T06:34:00Z</time>
      </trkpt>
      <trkpt lat="47.25434" lon="0.46259">
        <ele>53.1</ele>
        <time>2023-06-04T06:34:02Z</time>
      </trkpt>
      <trkpt lat="47.25425" lon="0.46279">
        <ele>53.3</ele>
        <time>2023-06-04T06:34:05Z</time>
      </trkpt>
      <trkpt lat="47.25413" lon="0.46318">
        <ele>53.6</ele>
        <time>2023-06-04T06:34:10Z</time>
      </trkpt>
      <trkpt lat="47.25395" lon="0.46371">
        <ele>54.1</ele>
        <time>2023-06-04T06:34:17Z</time>
      </trkpt>
      <trkpt lat="47.25376" lon="0.46412">
        <ele>54.8</ele>
        <time>2023-06-04T06:34:23Z</time>
      </trkpt>
      <trkpt lat="47.2537" lon="0.46426">
        <ele>55</ele>
        <time>2023-06-04T06:34:25Z</time>
      </trkpt>
      <trkpt lat="47.25361" lon="0.46446">
        <ele>55.3</ele>
        <time>2023-06-04T06:34:28Z</time>
      </trkpt>
      <trkpt lat="47.25351" lon="0.46476">
        <ele>55.8</ele>
        <time>2023-06-04T06:34:32Z</time>
      </trkpt>
      <trkpt lat="47.25347" lon="0.46492">
        <ele>56</ele>
        <time>2023-06-04T06:34:34Z</time>
      </trkpt>
      <trkpt lat="47.25334" lon="0.46537">
        <ele>56.4</ele>
        <time>2023-06-04T06:34:40Z</time>
      </trkpt>
      <trkpt lat="47.25326" lon="0.46559">
        <ele>56.3</ele>
        <time>2023-06-04T06:34:43Z</time>
      </trkpt>
      <trkpt lat="47.25316" lon="0.46583">
        <ele>55.9</ele>
        <time>2023-06-04T06:34:46Z</time>
      </trkpt>
      <trkpt lat="47.25292" lon="0.46645">
        <ele>54.8</ele>
        <time>2023-06-04T06:34:53Z</time>
      </trkpt>
      <trkpt lat="47.25275" lon="0.46692">
        <ele>53.7</ele>
        <time>2023-06-04T06:34:58Z</time>
      </trkpt>
      <trkpt lat="47.25267" lon="0.46723">
        <ele>52.8</ele>
        <time>2023-06-04T06:35:01Z</time>
      </trkpt>
      <trkpt lat="47.25259" lon="0.46781">
        <ele>51.4</ele>
        <time>2023-06-04T06:35:06Z</time>
      </trkpt>
      <trkpt lat="47.25257" lon="0.46816">
        <ele>50.6</ele>
        <time>2023-06-04T06:35:09Z</time>
      </trkpt>
      <trkpt lat="47.25255" lon="0.46851">
        <ele>50</ele>
        <time>2023-06-04T06:35:12Z</time>
      </trkpt>
      <trkpt lat="47.25253" lon="0.46874">
        <ele>49.6</ele>
        <time>2023-06-04T06:35:14Z</time>
      </trkpt>
      <trkpt lat="47.25252" lon="0.46886">
        <ele>49.5</ele>
        <time>2023-06-04T06:35:15Z</time>
      </trkpt>
      <trkpt lat="47.25251" lon="0.46897">
        <ele>49.4</ele>
        <time>2023-06-04T06:35:16Z</time>
      </trkpt>
      <trkpt lat="47.2524" lon="0.46948">
        <ele>49.5</ele>
        <time>2023-06-04T06:35:21Z</time>
      </trkpt>
      <trkpt lat="47.25233" lon="0.46967">
        <ele>49.6</ele>
        <time>2023-06-04T06:35:23Z</time>
      </trkpt>
      <trkpt lat="47.25214" lon="0.47013">
        <ele>50.1</ele>
        <time>2023-06-04T06:35:28Z</time>
      </trkpt>
      <trkpt lat="47.25199" lon="0.47057">
        <ele>51.2</ele>
        <time>2023-06-04T06:35:33Z</time>
      </trkpt>
      <trkpt lat="47.25193" lon="0.47073">
        <ele>51.9</ele>
        <time>2023-06-04T06:35:35Z</time>
      </trkpt>
      <trkpt lat="47.25189" lon="0.47089">
        <ele>52.5</ele>
        <time>2023-06-04T06:35:37Z</time>
      </trkpt>
      <trkpt lat="47.25185" lon="0.47104">
        <ele>53.1</ele>
        <time>2023-06-04T06:35:39Z</time>
      </trkpt>
      <trkpt lat="47.25183" lon="0.47111">
        <ele>53.4</ele>
        <time>2023-06-04T06:35:40Z</time>
      </trkpt>
      <trkpt lat="47.25178" lon="0.47134">
        <ele>54.3</ele>
        <time>2023-06-04T06:35:43Z</time>
      </trkpt>
      <trkpt lat="47.25176" lon="0.47148">
        <ele>54.7</ele>
        <time>2023-06-04T06:35:45Z</time>
      </trkpt>
      <trkpt lat="47.25174" lon="0.47155">
        <ele>54.9</ele>
        <time>2023-06-04T06:35:46Z</time>
      </trkpt>
      <trkpt lat="47.25173" lon="0.47163">
        <ele>55.1</ele>
        <time>2023-06-04T06:35:47Z</time>
      </trkpt>
      <trkpt lat="47.2517" lon="0.47186">
        <ele>55.6</ele>
        <time>2023-06-04T06:35:50Z</time>
      </trkpt>
      <trkpt lat="47.25165" lon="0.47237">
        <ele>56.2</ele>
        <time>2023-06-04T06:35:56Z</time>
      </trkpt>
      <trkpt lat="47.2516" lon="0.47265">
        <ele>56.2</ele>
        <time>2023-06-04T06:35:59Z</time>
      </trkpt>
      <trkpt lat="47.25151" lon="0.47279">
        <ele>56.4</ele>
        <time>2023-06-04T06:36:01Z</time>
      </trkpt>
      <trkpt lat="47.25134" lon="0.47286">
        <ele>56.8</ele>
        <time>2023-06-04T06:36:04Z</time>
      </trkpt>
      <trkpt lat="47.25123" lon="0.47286">
        <ele>57.1</ele>
        <time>2023-06-04T06:36:06Z</time>
      </trkpt>
      <trkpt lat="47.25099" lon="0.47283">
        <ele>57.8</ele>
        <time>2023-06-04T06:36:10Z</time>
      </trkpt>
      <trkpt lat="47.25082" lon="0.47281">
        <ele>58.4</ele>
        <time>2023-06-04T06:36:13Z</time>
      </trkpt>
      <trkpt lat="47.25055" lon="0.47278">
        <ele>59.7</ele>
        <time>2023-06-04T06:36:18Z</time>
      </trkpt>
      <trkpt lat="47.25022" lon="0.47274">
        <ele>61.3</ele>
        <time>2023-06-04T06:36:24Z</time>
      </trkpt>
      <trkpt lat="47.25006" lon="0.47272">
        <ele>62</ele>
        <time>2023-06-04T06:36:27Z</time>
      </trkpt>
      <trkpt lat="47.25001" lon="0.47272">
        <ele>62.3</ele>
        <time>2023-06-04T06:36:28Z</time>
      </trkpt>
      <trkpt lat="47.2498" lon="0.4727">
        <ele>63.3</ele>
        <time>2023-06-04T06:36:32Z</time>
      </trkpt>
      <trkpt lat="47.24964" lon="0.4727">
        <ele>64.1</ele>
        <time>2023-06-04T06:36:35Z</time>
      </trkpt>
      <trkpt lat="47.24948" lon="0.47272">
        <ele>65</ele>
        <time>2023-06-04T06:36:38Z</time>
      </trkpt>
      <trkpt lat="47.24938" lon="0.47275">
        <ele>65.7</ele>
        <time>2023-06-04T06:36:40Z</time>
      </trkpt>
      <trkpt lat="47.24918" lon="0.47282">
        <ele>66.8</ele>
        <time>2023-06-04T06:36:44Z</time>
      </trkpt>
      <trkpt lat="47.24913" lon="0.47284">
        <ele>67.2</ele>
        <time>2023-06-04T06:36:45Z</time>
      </trkpt>
      <trkpt lat="47.24903" lon="0.47289">
        <ele>67.8</ele>
        <time>2023-06-04T06:36:47Z</time>
      </trkpt>
      <trkpt lat="47.24884" lon="0.47298">
        <ele>69</ele>
        <time>2023-06-04T06:36:51Z</time>
      </trkpt>
      <trkpt lat="47.24879" lon="0.47301">
        <ele>69.3</ele>
        <time>2023-06-04T06:36:52Z</time>
      </trkpt>
      <trkpt lat="47.24869" lon="0.47305">
        <ele>69.9</ele>
        <time>2023-06-04T06:36:54Z</time>
      </trkpt>
      <trkpt lat="47.24844" lon="0.47317">
        <ele>71.5</ele>
        <time>2023-06-04T06:36:59Z</time>
      </trkpt>
      <trkpt lat="47.2483" lon="0.47324">
        <ele>72.5</ele>
        <time>2023-06-04T06:37:02Z</time>
      </trkpt>
      <trkpt lat="47.24825" lon="0.47326">
        <ele>72.8</ele>
        <time>2023-06-04T06:37:03Z</time>
      </trkpt>
      <trkpt lat="47.24812" lon="0.47332">
        <ele>73.6</ele>
        <time>2023-06-04T06:37:06Z</time>
      </trkpt>
      <trkpt lat="47.24799" lon="0.47338">
        <ele>74.5</ele>
        <time>2023-06-04T06:37:09Z</time>
      </trkpt>
      <trkpt lat="47.24795" lon="0.4734">
        <ele>74.8</ele>
        <time>2023-06-04T06:37:10Z</time>
      </trkpt>
      <trkpt lat="47.24775" lon="0.4735">
        <ele>76.1</ele>
        <time>2023-06-04T06:37:14Z</time>
      </trkpt>
      <trkpt lat="47.24755" lon="0.47359">
        <ele>77.5</ele>
        <time>2023-06-04T06:37:18Z</time>
      </trkpt>
      <trkpt lat="47.24735" lon="0.47369">
        <ele>78.8</ele>
        <time>2023-06-04T06:37:22Z</time>
      </trkpt>
      <trkpt lat="47.24725" lon="0.47373">
        <ele>79.4</ele>
        <time>2023-06-04T06:37:24Z</time>
      </trkpt>
      <trkpt lat="47.24701" lon="0.47386">
        <ele>81</ele>
        <time>2023-06-04T06:37:29Z</time>
      </trkpt>
      <trkpt lat="47.24696" lon="0.47388">
        <ele>81.3</ele>
        <time>2023-06-04T06:37:30Z</time>
      </trkpt>
      <trkpt lat="47.24676" lon="0.47398">
        <ele>82.6</ele>
        <time>2023-06-04T06:37:34Z</time>
      </trkpt>
      <trkpt lat="47.24662" lon="0.47405">
        <ele>83.7</ele>
        <time>2023-06-04T06:37:37Z</time>
      </trkpt>
      <trkpt lat="47.24657" lon="0.47407">
        <ele>84</ele>
        <time>2023-06-04T06:37:38Z</time>
      </trkpt>
      <trkpt lat="47.24642" lon="0.47414">
        <ele>85.1</ele>
        <time>2023-06-04T06:37:41Z</time>
      </trkpt>
      <trkpt lat="47.24623" lon="0.47422">
        <ele>86.4</ele>
        <time>2023-06-04T06:37:45Z</time>
      </trkpt>
      <trkpt lat="47.24608" lon="0.47429">
        <ele>87.3</ele>
        <time>2023-06-04T06:37:48Z</time>
      </trkpt>
      <trkpt lat="47.24593" lon="0.47436">
        <ele>88.2</ele>
        <time>2023-06-04T06:37:51Z</time>
      </trkpt>
      <trkpt lat="47.24579" lon="0.47443">
        <ele>89.1</ele>
        <time>2023-06-04T06:37:54Z</time>
      </trkpt>
      <trkpt lat="47.24558" lon="0.47452">
        <ele>90.3</ele>
        <time>2023-06-04T06:37:58Z</time>
      </trkpt>
      <trkpt lat="47.24548" lon="0.47457">
        <ele>90.9</ele>
        <time>2023-06-04T06:38:00Z</time>
      </trkpt>
      <trkpt lat="47.24529" lon="0.47467">
        <ele>92.1</ele>
        <time>2023-06-04T06:38:04Z</time>
      </trkpt>
      <trkpt lat="47.24514" lon="0.47473">
        <ele>92.9</ele>
        <time>2023-06-04T06:38:07Z</time>
      </trkpt>
      <trkpt lat="47.24508" lon="0.47475">
        <ele>93.2</ele>
        <time>2023-06-04T06:38:08Z</time>
      </trkpt>
      <trkpt lat="47.24493" lon="0.47483">
        <ele>94.1</ele>
        <time>2023-06-04T06:38:11Z</time>
      </trkpt>
      <trkpt lat="47.24462" lon="0.47498">
        <ele>95.6</ele>
        <time>2023-06-04T06:38:17Z</time>
      </trkpt>
      <trkpt lat="47.24457" lon="0.475">
        <ele>95.8</ele>
        <time>2023-06-04T06:38:18Z</time>
      </trkpt>
      <trkpt lat="47.24442" lon="0.47508">
        <ele>96.5</ele>
        <time>2023-06-04T06:38:21Z</time>
      </trkpt>
      <trkpt lat="47.24423" lon="0.47517">
        <ele>97.3</ele>
        <time>2023-06-04T06:38:25Z</time>
      </trkpt>
      <trkpt lat="47.24405" lon="0.47525">
        <ele>97.9</ele>
        <time>2023-06-04T06:38:29Z</time>
      </trkpt>
      <trkpt lat="47.24383" lon="0.47535">
        <ele>98.7</ele>
        <time>2023-06-04T06:38:34Z</time>
      </trkpt>
      <trkpt lat="47.24379" lon="0.47537">
        <ele>98.8</ele>
        <time>2023-06-04T06:38:35Z</time>
      </trkpt>
      <trkpt lat="47.24369" lon="0.47541">
        <ele>99.1</ele>
        <time>2023-06-04T06:38:37Z</time>
      </trkpt>
      <trkpt lat="47.2436" lon="0.47546">
        <ele>99.3</ele>
        <time>2023-06-04T06:38:39Z</time>
      </trkpt>
      <trkpt lat="47.24341" lon="0.47555">
        <ele>99.7</ele>
        <time>2023-06-04T06:38:43Z</time>
      </trkpt>
      <trkpt lat="47.24312" lon="0.47569">
        <ele>100.1</ele>
        <time>2023-06-04T06:38:49Z</time>
      </trkpt>
      <trkpt lat="47.24287" lon="0.47582">
        <ele>100.4</ele>
        <time>2023-06-04T06:38:54Z</time>
      </trkpt>
      <trkpt lat="47.24241" lon="0.47616">
        <ele>100</ele>
        <time>2023-06-04T06:39:03Z</time>
      </trkpt>
      <trkpt lat="47.24205" lon="0.47657">
        <ele>99.3</ele>
        <time>2023-06-04T06:39:10Z</time>
      </trkpt>
      <trkpt lat="47.24168" lon="0.47703">
        <ele>98.2</ele>
        <time>2023-06-04T06:39:17Z</time>
      </trkpt>
      <trkpt lat="47.24162" lon="0.4771">
        <ele>98</ele>
        <time>2023-06-04T06:39:18Z</time>
      </trkpt>
      <trkpt lat="47.24135" lon="0.47743">
        <ele>97</ele>
        <time>2023-06-04T06:39:23Z</time>
      </trkpt>
      <trkpt lat="47.24107" lon="0.47776">
        <ele>96</ele>
        <time>2023-06-04T06:39:28Z</time>
      </trkpt>
      <trkpt lat="47.24089" lon="0.47795">
        <ele>95.5</ele>
        <time>2023-06-04T06:39:31Z</time>
      </trkpt>
      <trkpt lat="47.24069" lon="0.4781">
        <ele>95</ele>
        <time>2023-06-04T06:39:34Z</time>
      </trkpt>
      <trkpt lat="47.24054" lon="0.47818">
        <ele>94.8</ele>
        <time>2023-06-04T06:39:36Z</time>
      </trkpt>
      <trkpt lat="47.24032" lon="0.47826">
        <ele>94.6</ele>
        <time>2023-06-04T06:39:39Z</time>
      </trkpt>
      <trkpt lat="47.24017" lon="0.47829">
        <ele>94.4</ele>
        <time>2023-06-04T06:39:41Z</time>
      </trkpt>
      <trkpt lat="47.23987" lon="0.47835">
        <ele>94.1</ele>
        <time>2023-06-04T06:39:45Z</time>
      </trkpt>
      <trkpt lat="47.23979" lon="0.47837">
        <ele>94</ele>
        <time>2023-06-04T06:39:46Z</time>
      </trkpt>
      <trkpt lat="47.23918" lon="0.47848">
        <ele>94.3</ele>
        <time>2023-06-04T06:39:54Z</time>
      </trkpt>
      <trkpt lat="47.2391" lon="0.4785">
        <ele>94.3</ele>
        <time>2023-06-04T06:39:55Z</time>
      </trkpt>
      <trkpt lat="47.23851" lon="0.47864">
        <ele>95</ele>
        <time>2023-06-04T06:40:03Z</time>
      </trkpt>
      <trkpt lat="47.23844" lon="0.47865">
        <ele>95.1</ele>
        <time>2023-06-04T06:40:04Z</time>
      </trkpt>
      <trkpt lat="47.23793" lon="0.47879">
        <ele>95.6</ele>
        <time>2023-06-04T06:40:11Z</time>
      </trkpt>
      <trkpt lat="47.23786" lon="0.47882">
        <ele>95.7</ele>
        <time>2023-06-04T06:40:12Z</time>
      </trkpt>
      <trkpt lat="47.23743" lon="0.47901">
        <ele>96.3</ele>
        <time>2023-06-04T06:40:18Z</time>
      </trkpt>
      <trkpt lat="47.23728" lon="0.47904">
        <ele>96.4</ele>
        <time>2023-06-04T06:40:20Z</time>
      </trkpt>
      <trkpt lat="47.23697" lon="0.47906">
        <ele>96.5</ele>
        <time>2023-06-04T06:40:24Z</time>
      </trkpt>
      <trkpt lat="47.2365" lon="0.47919">
        <ele>96.4</ele>
        <time>2023-06-04T06:40:30Z</time>
      </trkpt>
      <trkpt lat="47.23596" lon="0.47946">
        <ele>96.6</ele>
        <time>2023-06-04T06:40:37Z</time>
      </trkpt>
      <trkpt lat="47.23546" lon="0.47982">
        <ele>97.5</ele>
        <time>2023-06-04T06:40:44Z</time>
      </trkpt>
      <trkpt lat="47.23526" lon="0.47998">
        <ele>97.8</ele>
        <time>2023-06-04T06:40:47Z</time>
      </trkpt>
      <trkpt lat="47.235" lon="0.48018">
        <ele>98.1</ele>
        <time>2023-06-04T06:40:51Z</time>
      </trkpt>
      <trkpt lat="47.23473" lon="0.48039">
        <ele>98.2</ele>
        <time>2023-06-04T06:40:55Z</time>
      </trkpt>
      <trkpt lat="47.23419" lon="0.48077">
        <ele>99.3</ele>
        <time>2023-06-04T06:41:03Z</time>
      </trkpt>
      <trkpt lat="47.23405" lon="0.48086">
        <ele>99.4</ele>
        <time>2023-06-04T06:41:05Z</time>
      </trkpt>
      <trkpt lat="47.23356" lon="0.4812">
        <ele>99.1</ele>
        <time>2023-06-04T06:41:12Z</time>
      </trkpt>
      <trkpt lat="47.23342" lon="0.4813">
        <ele>98.8</ele>
        <time>2023-06-04T06:41:14Z</time>
      </trkpt>
      <trkpt lat="47.23302" lon="0.48163">
        <ele>97.8</ele>
        <time>2023-06-04T06:41:20Z</time>
      </trkpt>
      <trkpt lat="47.23295" lon="0.48169">
        <ele>97.7</ele>
        <time>2023-06-04T06:41:21Z</time>
      </trkpt>
      <trkpt lat="47.23269" lon="0.48198">
        <ele>96.9</ele>
        <time>2023-06-04T06:41:25Z</time>
      </trkpt>
      <trkpt lat="47.23251" lon="0.48223">
        <ele>96.3</ele>
        <time>2023-06-04T06:41:28Z</time>
      </trkpt>
      <trkpt lat="47.23238" lon="0.48241">
        <ele>95.8</ele>
        <time>2023-06-04T06:41:30Z</time>
      </trkpt>
      <trkpt lat="47.23208" lon="0.48289">
        <ele>94.5</ele>
        <time>2023-06-04T06:41:35Z</time>
      </trkpt>
      <trkpt lat="47.23202" lon="0.48298">
        <ele>94.3</ele>
        <time>2023-06-04T06:41:36Z</time>
      </trkpt>
      <trkpt lat="47.23186" lon="0.48326">
        <ele>93.7</ele>
        <time>2023-06-04T06:41:39Z</time>
      </trkpt>
      <trkpt lat="47.23163" lon="0.48364">
        <ele>93.2</ele>
        <time>2023-06-04T06:41:43Z</time>
      </trkpt>
      <trkpt lat="47.23145" lon="0.48391">
        <ele>93.3</ele>
        <time>2023-06-04T06:41:46Z</time>
      </trkpt>
      <trkpt lat="47.23124" lon="0.48411">
        <ele>93.6</ele>
        <time>2023-06-04T06:41:49Z</time>
      </trkpt>
      <trkpt lat="47.23076" lon="0.48451">
        <ele>94.6</ele>
        <time>2023-06-04T06:41:56Z</time>
      </trkpt>
      <trkpt lat="47.23069" lon="0.48456">
        <ele>94.7</ele>
        <time>2023-06-04T06:41:57Z</time>
      </trkpt>
      <trkpt lat="47.23043" lon="0.48477">
        <ele>95</ele>
        <time>2023-06-04T06:42:01Z</time>
      </trkpt>
      <trkpt lat="47.23011" lon="0.48501">
        <ele>94.4</ele>
        <time>2023-06-04T06:42:06Z</time>
      </trkpt>
      <trkpt lat="47.23005" lon="0.48506">
        <ele>94.2</ele>
        <time>2023-06-04T06:42:07Z</time>
      </trkpt>
      <trkpt lat="47.2298" lon="0.48526">
        <ele>92.9</ele>
        <time>2023-06-04T06:42:11Z</time>
      </trkpt>
      <trkpt lat="47.22972" lon="0.48532">
        <ele>92.4</ele>
        <time>2023-06-04T06:42:13Z</time>
      </trkpt>
      <trkpt lat="47.22969" lon="0.48534">
        <ele>92.2</ele>
        <time>2023-06-04T06:42:14Z</time>
      </trkpt>
      <trkpt lat="47.22956" lon="0.48543">
        <ele>91.3</ele>
        <time>2023-06-04T06:42:18Z</time>
      </trkpt>
      <trkpt lat="47.22938" lon="0.48559">
        <ele>89.8</ele>
        <time>2023-06-04T06:42:22Z</time>
      </trkpt>
      <trkpt lat="47.22933" lon="0.48564">
        <ele>89.3</ele>
        <time>2023-06-04T06:42:23Z</time>
      </trkpt>
      <trkpt lat="47.22922" lon="0.48576">
        <ele>88.3</ele>
        <time>2023-06-04T06:42:25Z</time>
      </trkpt>
      <trkpt lat="47.22916" lon="0.48583">
        <ele>87.7</ele>
        <time>2023-06-04T06:42:26Z</time>
      </trkpt>
      <trkpt lat="47.22905" lon="0.48601">
        <ele>86.4</ele>
        <time>2023-06-04T06:42:28Z</time>
      </trkpt>
      <trkpt lat="47.22896" lon="0.48622">
        <ele>84.9</ele>
        <time>2023-06-04T06:42:30Z</time>
      </trkpt>
      <trkpt lat="47.22894" lon="0.48635">
        <ele>84.1</ele>
        <time>2023-06-04T06:42:31Z</time>
      </trkpt>
      <trkpt lat="47.22892" lon="0.48649">
        <ele>83.3</ele>
        <time>2023-06-04T06:42:32Z</time>
      </trkpt>
      <trkpt lat="47.22888" lon="0.48678">
        <ele>81.6</ele>
        <time>2023-06-04T06:42:34Z</time>
      </trkpt>
      <trkpt lat="47.22885" lon="0.48709">
        <ele>79.6</ele>
        <time>2023-06-04T06:42:36Z</time>
      </trkpt>
      <trkpt lat="47.22883" lon="0.48725">
        <ele>78.5</ele>
        <time>2023-06-04T06:42:37Z</time>
      </trkpt>
      <trkpt lat="47.22881" lon="0.48742">
        <ele>77.3</ele>
        <time>2023-06-04T06:42:38Z</time>
      </trkpt>
      <trkpt lat="47.2288" lon="0.4876">
        <ele>76.2</ele>
        <time>2023-06-04T06:42:39Z</time>
      </trkpt>
      <trkpt lat="47.22878" lon="0.48797">
        <ele>74.1</ele>
        <time>2023-06-04T06:42:41Z</time>
      </trkpt>
      <trkpt lat="47.22878" lon="0.48814">
        <ele>73.1</ele>
        <time>2023-06-04T06:42:42Z</time>
      </trkpt>
      <trkpt lat="47.22879" lon="0.48831">
        <ele>72.3</ele>
        <time>2023-06-04T06:42:43Z</time>
      </trkpt>
      <trkpt lat="47.22879" lon="0.48849">
        <ele>71.5</ele>
        <time>2023-06-04T06:42:44Z</time>
      </trkpt>
      <trkpt lat="47.22881" lon="0.48865">
        <ele>70.9</ele>
        <time>2023-06-04T06:42:45Z</time>
      </trkpt>
      <trkpt lat="47.22881" lon="0.48881">
        <ele>70.3</ele>
        <time>2023-06-04T06:42:46Z</time>
      </trkpt>
      <trkpt lat="47.22876" lon="0.48912">
        <ele>69.2</ele>
        <time>2023-06-04T06:42:48Z</time>
      </trkpt>
      <trkpt lat="47.22872" lon="0.48927">
        <ele>68.7</ele>
        <time>2023-06-04T06:42:49Z</time>
      </trkpt>
      <trkpt lat="47.22869" lon="0.48943">
        <ele>68.2</ele>
        <time>2023-06-04T06:42:50Z</time>
      </trkpt>
      <trkpt lat="47.22863" lon="0.48976">
        <ele>67.1</ele>
        <time>2023-06-04T06:42:52Z</time>
      </trkpt>
      <trkpt lat="47.22855" lon="0.49024">
        <ele>65.3</ele>
        <time>2023-06-04T06:42:55Z</time>
      </trkpt>
      <trkpt lat="47.22854" lon="0.4904">
        <ele>64.7</ele>
        <time>2023-06-04T06:42:56Z</time>
      </trkpt>
      <trkpt lat="47.22852" lon="0.49055">
        <ele>64</ele>
        <time>2023-06-04T06:42:57Z</time>
      </trkpt>
      <trkpt lat="47.22846" lon="0.49087">
        <ele>62.8</ele>
        <time>2023-06-04T06:42:59Z</time>
      </trkpt>
      <trkpt lat="47.22846" lon="0.49101">
        <ele>62.4</ele>
        <time>2023-06-04T06:43:00Z</time>
      </trkpt>
      <trkpt lat="47.2284" lon="0.49124">
        <ele>62</ele>
        <time>2023-06-04T06:43:02Z</time>
      </trkpt>
      <trkpt lat="47.22836" lon="0.4913">
        <ele>61.9</ele>
        <time>2023-06-04T06:43:03Z</time>
      </trkpt>
      <trkpt lat="47.22831" lon="0.49133">
        <ele>61.8</ele>
        <time>2023-06-04T06:43:04Z</time>
      </trkpt>
      <trkpt lat="47.22824" lon="0.49133">
        <ele>61.8</ele>
        <time>2023-06-04T06:43:05Z</time>
      </trkpt>
      <trkpt lat="47.22818" lon="0.49134">
        <ele>61.8</ele>
        <time>2023-06-04T06:43:06Z</time>
      </trkpt>
      <trkpt lat="47.22796" lon="0.49138">
        <ele>61.7</ele>
        <time>2023-06-04T06:43:10Z</time>
      </trkpt>
      <trkpt lat="47.22788" lon="0.4914">
        <ele>61.7</ele>
        <time>2023-06-04T06:43:13Z</time>
      </trkpt>
      <trkpt lat="47.22785" lon="0.49142">
        <ele>61.7</ele>
        <time>2023-06-04T06:43:14Z</time>
      </trkpt>
      <trkpt lat="47.22774" lon="0.49154">
        <ele>61.6</ele>
        <time>2023-06-04T06:43:18Z</time>
      </trkpt>
      <trkpt lat="47.22771" lon="0.49159">
        <ele>61.7</ele>
        <time>2023-06-04T06:43:19Z</time>
      </trkpt>
      <trkpt lat="47.22762" lon="0.49182">
        <ele>62.3</ele>
        <time>2023-06-04T06:43:23Z</time>
      </trkpt>
      <trkpt lat="47.22757" lon="0.49202">
        <ele>63.2</ele>
        <time>2023-06-04T06:43:26Z</time>
      </trkpt>
      <trkpt lat="47.2275" lon="0.49229">
        <ele>64.6</ele>
        <time>2023-06-04T06:43:30Z</time>
      </trkpt>
      <trkpt lat="47.22748" lon="0.49242">
        <ele>65.3</ele>
        <time>2023-06-04T06:43:32Z</time>
      </trkpt>
      <trkpt lat="47.22746" lon="0.49249">
        <ele>65.7</ele>
        <time>2023-06-04T06:43:33Z</time>
      </trkpt>
      <trkpt lat="47.22742" lon="0.49262">
        <ele>66.4</ele>
        <time>2023-06-04T06:43:35Z</time>
      </trkpt>
      <trkpt lat="47.2274" lon="0.49269">
        <ele>66.7</ele>
        <time>2023-06-04T06:43:36Z</time>
      </trkpt>
      <trkpt lat="47.2273" lon="0.49286">
        <ele>67.5</ele>
        <time>2023-06-04T06:43:39Z</time>
      </trkpt>
      <trkpt lat="47.22721" lon="0.49294">
        <ele>67.9</ele>
        <time>2023-06-04T06:43:41Z</time>
      </trkpt>
      <trkpt lat="47.22712" lon="0.49298">
        <ele>68.2</ele>
        <time>2023-06-04T06:43:43Z</time>
      </trkpt>
      <trkpt lat="47.22707" lon="0.493">
        <ele>68.4</ele>
        <time>2023-06-04T06:43:44Z</time>
      </trkpt>
      <trkpt lat="47.22703" lon="0.49301">
        <ele>68.5</ele>
        <time>2023-06-04T06:43:45Z</time>
      </trkpt>
      <trkpt lat="47.22682" lon="0.49309">
        <ele>68.6</ele>
        <time>2023-06-04T06:43:49Z</time>
      </trkpt>
      <trkpt lat="47.2267" lon="0.49313">
        <ele>68.6</ele>
        <time>2023-06-04T06:43:51Z</time>
      </trkpt>
      <trkpt lat="47.22621" lon="0.49333">
        <ele>69.1</ele>
        <time>2023-06-04T06:43:59Z</time>
      </trkpt>
      <trkpt lat="47.22577" lon="0.49369">
        <ele>69.9</ele>
        <time>2023-06-04T06:44:07Z</time>
      </trkpt>
      <trkpt lat="47.22528" lon="0.49407">
        <ele>70.1</ele>
        <time>2023-06-04T06:44:15Z</time>
      </trkpt>
      <trkpt lat="47.22522" lon="0.4941">
        <ele>69.9</ele>
        <time>2023-06-04T06:44:16Z</time>
      </trkpt>
      <trkpt lat="47.22482" lon="0.49429">
        <ele>68.3</ele>
        <time>2023-06-04T06:44:22Z</time>
      </trkpt>
      <trkpt lat="47.22459" lon="0.4944">
        <ele>67.7</ele>
        <time>2023-06-04T06:44:25Z</time>
      </trkpt>
      <trkpt lat="47.22438" lon="0.49453">
        <ele>67</ele>
        <time>2023-06-04T06:44:28Z</time>
      </trkpt>
      <trkpt lat="47.22419" lon="0.49469">
        <ele>66.7</ele>
        <time>2023-06-04T06:44:31Z</time>
      </trkpt>
      <trkpt lat="47.22413" lon="0.49473">
        <ele>66.6</ele>
        <time>2023-06-04T06:44:32Z</time>
      </trkpt>
      <trkpt lat="47.22407" lon="0.49477">
        <ele>66.6</ele>
        <time>2023-06-04T06:44:33Z</time>
      </trkpt>
      <trkpt lat="47.22401" lon="0.49478">
        <ele>66.6</ele>
        <time>2023-06-04T06:44:34Z</time>
      </trkpt>
      <trkpt lat="47.22389" lon="0.49473">
        <ele>66.7</ele>
        <time>2023-06-04T06:44:36Z</time>
      </trkpt>
      <trkpt lat="47.22376" lon="0.49468">
        <ele>66.8</ele>
        <time>2023-06-04T06:44:38Z</time>
      </trkpt>
      <trkpt lat="47.22357" lon="0.49467">
        <ele>67.1</ele>
        <time>2023-06-04T06:44:41Z</time>
      </trkpt>
      <trkpt lat="47.22338" lon="0.49466">
        <ele>67.8</ele>
        <time>2023-06-04T06:44:44Z</time>
      </trkpt>
      <trkpt lat="47.22321" lon="0.49458">
        <ele>68.7</ele>
        <time>2023-06-04T06:44:47Z</time>
      </trkpt>
      <trkpt lat="47.22311" lon="0.4945">
        <ele>69.3</ele>
        <time>2023-06-04T06:44:49Z</time>
      </trkpt>
      <trkpt lat="47.22307" lon="0.49444">
        <ele>69.7</ele>
        <time>2023-06-04T06:44:50Z</time>
      </trkpt>
      <trkpt lat="47.22299" lon="0.49434">
        <ele>70.3</ele>
        <time>2023-06-04T06:44:52Z</time>
      </trkpt>
      <trkpt lat="47.22295" lon="0.49429">
        <ele>70.7</ele>
        <time>2023-06-04T06:44:53Z</time>
      </trkpt>
      <trkpt lat="47.22284" lon="0.49414">
        <ele>71.7</ele>
        <time>2023-06-04T06:44:56Z</time>
      </trkpt>
      <trkpt lat="47.22276" lon="0.49405">
        <ele>72.4</ele>
        <time>2023-06-04T06:44:58Z</time>
      </trkpt>
      <trkpt lat="47.22272" lon="0.49401">
        <ele>72.8</ele>
        <time>2023-06-04T06:44:59Z</time>
      </trkpt>
      <trkpt lat="47.22269" lon="0.49395">
        <ele>73.2</ele>
        <time>2023-06-04T06:45:00Z</time>
      </trkpt>
      <trkpt lat="47.22266" lon="0.4939">
        <ele>73.6</ele>
        <time>2023-06-04T06:45:01Z</time>
      </trkpt>
      <trkpt lat="47.22257" lon="0.49373">
        <ele>74.7</ele>
        <time>2023-06-04T06:45:04Z</time>
      </trkpt>
      <trkpt lat="47.22249" lon="0.49357">
        <ele>76</ele>
        <time>2023-06-04T06:45:07Z</time>
      </trkpt>
      <trkpt lat="47.22242" lon="0.49337">
        <ele>77.3</ele>
        <time>2023-06-04T06:45:10Z</time>
      </trkpt>
      <trkpt lat="47.2224" lon="0.49331">
        <ele>77.7</ele>
        <time>2023-06-04T06:45:11Z</time>
      </trkpt>
      <trkpt lat="47.22239" lon="0.49317">
        <ele>78.5</ele>
        <time>2023-06-04T06:45:13Z</time>
      </trkpt>
      <trkpt lat="47.2224" lon="0.49311">
        <ele>78.9</ele>
        <time>2023-06-04T06:45:14Z</time>
      </trkpt>
      <trkpt lat="47.22242" lon="0.4929">
        <ele>80.1</ele>
        <time>2023-06-04T06:45:17Z</time>
      </trkpt>
      <trkpt lat="47.22242" lon="0.49283">
        <ele>80.5</ele>
        <time>2023-06-04T06:45:18Z</time>
      </trkpt>
      <trkpt lat="47.22242" lon="0.49276">
        <ele>80.9</ele>
        <time>2023-06-04T06:45:19Z</time>
      </trkpt>
      <trkpt lat="47.22242" lon="0.49269">
        <ele>81.3</ele>
        <time>2023-06-04T06:45:20Z</time>
      </trkpt>
      <trkpt lat="47.22241" lon="0.49255">
        <ele>82.2</ele>
        <time>2023-06-04T06:45:22Z</time>
      </trkpt>
      <trkpt lat="47.22239" lon="0.49249">
        <ele>82.7</ele>
        <time>2023-06-04T06:45:23Z</time>
      </trkpt>
      <trkpt lat="47.22237" lon="0.49243">
        <ele>83.1</ele>
        <time>2023-06-04T06:45:24Z</time>
      </trkpt>
      <trkpt lat="47.22233" lon="0.49231">
        <ele>83.9</ele>
        <time>2023-06-04T06:45:26Z</time>
      </trkpt>
      <trkpt lat="47.2223" lon="0.49226">
        <ele>84.4</ele>
        <time>2023-06-04T06:45:27Z</time>
      </trkpt>
      <trkpt lat="47.22222" lon="0.49218">
        <ele>85.3</ele>
        <time>2023-06-04T06:45:29Z</time>
      </trkpt>
      <trkpt lat="47.2221" lon="0.49208">
        <ele>86.4</ele>
        <time>2023-06-04T06:45:32Z</time>
      </trkpt>
      <trkpt lat="47.22199" lon="0.49198">
        <ele>87.5</ele>
        <time>2023-06-04T06:45:35Z</time>
      </trkpt>
      <trkpt lat="47.22196" lon="0.49194">
        <ele>87.8</ele>
        <time>2023-06-04T06:45:36Z</time>
      </trkpt>
      <trkpt lat="47.22189" lon="0.49187">
        <ele>88.5</ele>
        <time>2023-06-04T06:45:38Z</time>
      </trkpt>
      <trkpt lat="47.22179" lon="0.49175">
        <ele>89.5</ele>
        <time>2023-06-04T06:45:41Z</time>
      </trkpt>
      <trkpt lat="47.22176" lon="0.49171">
        <ele>89.7</ele>
        <time>2023-06-04T06:45:42Z</time>
      </trkpt>
      <trkpt lat="47.22169" lon="0.49158">
        <ele>90.5</ele>
        <time>2023-06-04T06:45:45Z</time>
      </trkpt>
      <trkpt lat="47.22161" lon="0.49147">
        <ele>91</ele>
        <time>2023-06-04T06:45:48Z</time>
      </trkpt>
      <trkpt lat="47.22156" lon="0.49138">
        <ele>91.4</ele>
        <time>2023-06-04T06:45:50Z</time>
      </trkpt>
      <trkpt lat="47.22147" lon="0.49124">
        <ele>92</ele>
        <time>2023-06-04T06:45:53Z</time>
      </trkpt>
      <trkpt lat="47.22144" lon="0.49121">
        <ele>92.2</ele>
        <time>2023-06-04T06:45:54Z</time>
      </trkpt>
      <trkpt lat="47.22131" lon="0.49107">
        <ele>93</ele>
        <time>2023-06-04T06:45:58Z</time>
      </trkpt>
      <trkpt lat="47.22121" lon="0.49098">
        <ele>93.6</ele>
        <time>2023-06-04T06:46:01Z</time>
      </trkpt>
      <trkpt lat="47.22102" lon="0.49087">
        <ele>94.5</ele>
        <time>2023-06-04T06:46:06Z</time>
      </trkpt>
      <trkpt lat="47.22082" lon="0.4908">
        <ele>95.5</ele>
        <time>2023-06-04T06:46:11Z</time>
      </trkpt>
      <trkpt lat="47.22065" lon="0.49077">
        <ele>96.2</ele>
        <time>2023-06-04T06:46:15Z</time>
      </trkpt>
      <trkpt lat="47.22061" lon="0.49077">
        <ele>96.3</ele>
        <time>2023-06-04T06:46:16Z</time>
      </trkpt>
      <trkpt lat="47.22033" lon="0.49078">
        <ele>97.1</ele>
        <time>2023-06-04T06:46:22Z</time>
      </trkpt>
      <trkpt lat="47.22023" lon="0.49078">
        <ele>97.3</ele>
        <time>2023-06-04T06:46:24Z</time>
      </trkpt>
      <trkpt lat="47.2199" lon="0.4907">
        <ele>98.1</ele>
        <time>2023-06-04T06:46:31Z</time>
      </trkpt>
      <trkpt lat="47.21986" lon="0.49068">
        <ele>98.2</ele>
        <time>2023-06-04T06:46:32Z</time>
      </trkpt>
      <trkpt lat="47.21948" lon="0.49047">
        <ele>99.3</ele>
        <time>2023-06-04T06:46:40Z</time>
      </trkpt>
      <trkpt lat="47.21939" lon="0.49042">
        <ele>99.7</ele>
        <time>2023-06-04T06:46:42Z</time>
      </trkpt>
      <trkpt lat="47.21917" lon="0.49027">
        <ele>100.5</ele>
        <time>2023-06-04T06:46:47Z</time>
      </trkpt>
      <trkpt lat="47.21913" lon="0.49024">
        <ele>100.7</ele>
        <time>2023-06-04T06:46:48Z</time>
      </trkpt>
      <trkpt lat="47.21904" lon="0.49018">
        <ele>101</ele>
        <time>2023-06-04T06:46:50Z</time>
      </trkpt>
      <trkpt lat="47.21878" lon="0.48997">
        <ele>101.7</ele>
        <time>2023-06-04T06:46:56Z</time>
      </trkpt>
      <trkpt lat="47.21874" lon="0.48993">
        <ele>101.9</ele>
        <time>2023-06-04T06:46:57Z</time>
      </trkpt>
      <trkpt lat="47.21855" lon="0.4897">
        <ele>102.5</ele>
        <time>2023-06-04T06:47:02Z</time>
      </trkpt>
      <trkpt lat="47.21847" lon="0.48959">
        <ele>102.7</ele>
        <time>2023-06-04T06:47:04Z</time>
      </trkpt>
      <trkpt lat="47.21826" lon="0.48916">
        <ele>103.4</ele>
        <time>2023-06-04T06:47:11Z</time>
      </trkpt>
      <trkpt lat="47.21823" lon="0.4891">
        <ele>103.5</ele>
        <time>2023-06-04T06:47:12Z</time>
      </trkpt>
      <trkpt lat="47.21796" lon="0.48851">
        <ele>104.1</ele>
        <time>2023-06-04T06:47:21Z</time>
      </trkpt>
      <trkpt lat="47.2177" lon="0.48802">
        <ele>104.8</ele>
        <time>2023-06-04T06:47:29Z</time>
      </trkpt>
      <trkpt lat="47.21766" lon="0.48796">
        <ele>104.8</ele>
        <time>2023-06-04T06:47:30Z</time>
      </trkpt>
      <trkpt lat="47.21735" lon="0.48754">
        <ele>105.5</ele>
        <time>2023-06-04T06:47:38Z</time>
      </trkpt>
      <trkpt lat="47.21702" lon="0.48718">
        <ele>106.2</ele>
        <time>2023-06-04T06:47:45Z</time>
      </trkpt>
      <trkpt lat="47.21658" lon="0.48671">
        <ele>106.9</ele>
        <time>2023-06-04T06:47:54Z</time>
      </trkpt>
      <trkpt lat="47.21654" lon="0.48665">
        <ele>107</ele>
        <time>2023-06-04T06:47:55Z</time>
      </trkpt>
      <trkpt lat="47.21639" lon="0.4865">
        <ele>107.3</ele>
        <time>2023-06-04T06:47:58Z</time>
      </trkpt>
      <trkpt lat="47.21609" lon="0.4862">
        <ele>107.9</ele>
        <time>2023-06-04T06:48:04Z</time>
      </trkpt>
      <trkpt lat="47.21599" lon="0.4861">
        <ele>108</ele>
        <time>2023-06-04T06:48:06Z</time>
      </trkpt>
      <trkpt lat="47.21564" lon="0.48575">
        <ele>108.6</ele>
        <time>2023-06-04T06:48:13Z</time>
      </trkpt>
      <trkpt lat="47.21518" lon="0.48529">
        <ele>109.5</ele>
        <time>2023-06-04T06:48:22Z</time>
      </trkpt>
      <trkpt lat="47.21508" lon="0.48518">
        <ele>109.7</ele>
        <time>2023-06-04T06:48:24Z</time>
      </trkpt>
      <trkpt lat="47.21464" lon="0.48482">
        <ele>110.3</ele>
        <time>2023-06-04T06:48:32Z</time>
      </trkpt>
      <trkpt lat="47.21441" lon="0.48465">
        <ele>110.7</ele>
        <time>2023-06-04T06:48:36Z</time>
      </trkpt>
      <trkpt lat="47.21426" lon="0.48453">
        <ele>110.8</ele>
        <time>2023-06-04T06:48:39Z</time>
      </trkpt>
      <trkpt lat="47.2139" lon="0.48416">
        <ele>111.2</ele>
        <time>2023-06-04T06:48:46Z</time>
      </trkpt>
      <trkpt lat="47.21347" lon="0.48363">
        <ele>111.3</ele>
        <time>2023-06-04T06:48:55Z</time>
      </trkpt>
      <trkpt lat="47.21342" lon="0.48357">
        <ele>111.3</ele>
        <time>2023-06-04T06:48:56Z</time>
      </trkpt>
      <trkpt lat="47.21312" lon="0.48307">
        <ele>111.3</ele>
        <time>2023-06-04T06:49:03Z</time>
      </trkpt>
      <trkpt lat="47.21281" lon="0.48244">
        <ele>111.2</ele>
        <time>2023-06-04T06:49:11Z</time>
      </trkpt>
      <trkpt lat="47.2125" lon="0.48178">
        <ele>111.3</ele>
        <time>2023-06-04T06:49:19Z</time>
      </trkpt>
      <trkpt lat="47.21244" lon="0.4816">
        <ele>111.3</ele>
        <time>2023-06-04T06:49:21Z</time>
      </trkpt>
      <trkpt lat="47.21223" lon="0.48083">
        <ele>111</ele>
        <time>2023-06-04T06:49:29Z</time>
      </trkpt>
      <trkpt lat="47.21203" lon="0.48008">
        <ele>110.3</ele>
        <time>2023-06-04T06:49:37Z</time>
      </trkpt>
      <trkpt lat="47.21192" lon="0.47972">
        <ele>109.7</ele>
        <time>2023-06-04T06:49:41Z</time>
      </trkpt>
      <trkpt lat="47.21188" lon="0.47963">
        <ele>109.5</ele>
        <time>2023-06-04T06:49:42Z</time>
      </trkpt>
      <trkpt lat="47.21184" lon="0.47956">
        <ele>109.4</ele>
        <time>2023-06-04T06:49:43Z</time>
      </trkpt>
      <trkpt lat="47.2116" lon="0.47918">
        <ele>108.4</ele>
        <time>2023-06-04T06:49:48Z</time>
      </trkpt>
      <trkpt lat="47.21155" lon="0.4791">
        <ele>108.2</ele>
        <time>2023-06-04T06:49:49Z</time>
      </trkpt>
      <trkpt lat="47.21134" lon="0.47878">
        <ele>107.1</ele>
        <time>2023-06-04T06:49:53Z</time>
      </trkpt>
      <trkpt lat="47.21117" lon="0.47853">
        <ele>106.2</ele>
        <time>2023-06-04T06:49:56Z</time>
      </trkpt>
      <trkpt lat="47.21112" lon="0.47844">
        <ele>105.9</ele>
        <time>2023-06-04T06:49:57Z</time>
      </trkpt>
      <trkpt lat="47.21094" lon="0.47817">
        <ele>104.9</ele>
        <time>2023-06-04T06:50:00Z</time>
      </trkpt>
      <trkpt lat="47.21077" lon="0.47789">
        <ele>104.1</ele>
        <time>2023-06-04T06:50:03Z</time>
      </trkpt>
      <trkpt lat="47.2107" lon="0.47781">
        <ele>103.9</ele>
        <time>2023-06-04T06:50:04Z</time>
      </trkpt>
      <trkpt lat="47.21052" lon="0.47756">
        <ele>103.6</ele>
        <time>2023-06-04T06:50:07Z</time>
      </trkpt>
      <trkpt lat="47.21047" lon="0.47747">
        <ele>103.6</ele>
        <time>2023-06-04T06:50:08Z</time>
      </trkpt>
      <trkpt lat="47.21043" lon="0.47737">
        <ele>103.5</ele>
        <time>2023-06-04T06:50:09Z</time>
      </trkpt>
      <trkpt lat="47.21031" lon="0.47696">
        <ele>103.7</ele>
        <time>2023-06-04T06:50:13Z</time>
      </trkpt>
      <trkpt lat="47.21028" lon="0.47686">
        <ele>103.8</ele>
        <time>2023-06-04T06:50:14Z</time>
      </trkpt>
      <trkpt lat="47.21005" lon="0.47645">
        <ele>104.5</ele>
        <time>2023-06-04T06:50:19Z</time>
      </trkpt>
      <trkpt lat="47.20977" lon="0.47601">
        <ele>105.4</ele>
        <time>2023-06-04T06:50:25Z</time>
      </trkpt>
      <trkpt lat="47.20973" lon="0.47593">
        <ele>105.7</ele>
        <time>2023-06-04T06:50:26Z</time>
      </trkpt>
      <trkpt lat="47.20963" lon="0.47579">
        <ele>106.1</ele>
        <time>2023-06-04T06:50:28Z</time>
      </trkpt>
      <trkpt lat="47.2095" lon="0.4756">
        <ele>106.7</ele>
        <time>2023-06-04T06:50:31Z</time>
      </trkpt>
      <trkpt lat="47.20936" lon="0.4754">
        <ele>107.1</ele>
        <time>2023-06-04T06:50:34Z</time>
      </trkpt>
      <trkpt lat="47.20932" lon="0.47534">
        <ele>107.2</ele>
        <time>2023-06-04T06:50:35Z</time>
      </trkpt>
      <trkpt lat="47.20916" lon="0.47514">
        <ele>107.6</ele>
        <time>2023-06-04T06:50:38Z</time>
      </trkpt>
      <trkpt lat="47.20899" lon="0.47494">
        <ele>108.1</ele>
        <time>2023-06-04T06:50:41Z</time>
      </trkpt>
      <trkpt lat="47.2088" lon="0.47473">
        <ele>108.8</ele>
        <time>2023-06-04T06:50:45Z</time>
      </trkpt>
      <trkpt lat="47.20872" lon="0.47465">
        <ele>109.2</ele>
        <time>2023-06-04T06:50:47Z</time>
      </trkpt>
      <trkpt lat="47.20858" lon="0.47452">
        <ele>109.9</ele>
        <time>2023-06-04T06:50:51Z</time>
      </trkpt>
      <trkpt lat="47.20855" lon="0.47449">
        <ele>110</ele>
        <time>2023-06-04T06:50:52Z</time>
      </trkpt>
      <trkpt lat="47.20849" lon="0.4744">
        <ele>110.8</ele>
        <time>2023-06-04T06:50:56Z</time>
      </trkpt>
      <trkpt lat="47.20848" lon="0.47438">
        <ele>110.8</ele>
        <time>2023-06-04T06:50:57Z</time>
      </trkpt>
      <trkpt lat="47.20845" lon="0.47437">
        <ele>110.8</ele>
        <time>2023-06-04T06:50:59Z</time>
      </trkpt>
      <trkpt lat="47.20844" lon="0.47442">
        <ele>110.9</ele>
        <time>2023-06-04T06:51:01Z</time>
      </trkpt>
      <trkpt lat="47.20848" lon="0.47441">
        <ele>111</ele>
        <time>2023-06-04T06:51:04Z</time>
      </trkpt>
      <trkpt lat="47.20852" lon="0.47424">
        <ele>111.1</ele>
        <time>2023-06-04T06:51:08Z</time>
      </trkpt>
      <trkpt lat="47.20861" lon="0.47392">
        <ele>111.5</ele>
        <time>2023-06-04T06:51:13Z</time>
      </trkpt>
      <trkpt lat="47.20873" lon="0.47352">
        <ele>112</ele>
        <time>2023-06-04T06:51:18Z</time>
      </trkpt>
      <trkpt lat="47.20875" lon="0.47344">
        <ele>112</ele>
        <time>2023-06-04T06:51:19Z</time>
      </trkpt>
      <trkpt lat="47.20895" lon="0.47276">
        <ele>112.8</ele>
        <time>2023-06-04T06:51:27Z</time>
      </trkpt>
      <trkpt lat="47.20897" lon="0.47267">
        <ele>112.9</ele>
        <time>2023-06-04T06:51:28Z</time>
      </trkpt>
      <trkpt lat="47.209" lon="0.47258">
        <ele>113</ele>
        <time>2023-06-04T06:51:29Z</time>
      </trkpt>
      <trkpt lat="47.20912" lon="0.47203">
        <ele>113</ele>
        <time>2023-06-04T06:51:35Z</time>
      </trkpt>
      <trkpt lat="47.2093" lon="0.47119">
        <ele>112.2</ele>
        <time>2023-06-04T06:51:44Z</time>
      </trkpt>
      <trkpt lat="47.20932" lon="0.4711">
        <ele>112</ele>
        <time>2023-06-04T06:51:45Z</time>
      </trkpt>
      <trkpt lat="47.2095" lon="0.47043">
        <ele>110.5</ele>
        <time>2023-06-04T06:51:52Z</time>
      </trkpt>
      <trkpt lat="47.2096" lon="0.4701">
        <ele>109.6</ele>
        <time>2023-06-04T06:51:55Z</time>
      </trkpt>
      <trkpt lat="47.20971" lon="0.46976">
        <ele>108.7</ele>
        <time>2023-06-04T06:51:58Z</time>
      </trkpt>
      <trkpt lat="47.20974" lon="0.46964">
        <ele>108.5</ele>
        <time>2023-06-04T06:51:59Z</time>
      </trkpt>
      <trkpt lat="47.20977" lon="0.46953">
        <ele>108.1</ele>
        <time>2023-06-04T06:52:00Z</time>
      </trkpt>
      <trkpt lat="47.20984" lon="0.4693">
        <ele>107.4</ele>
        <time>2023-06-04T06:52:02Z</time>
      </trkpt>
      <trkpt lat="47.21002" lon="0.46872">
        <ele>106</ele>
        <time>2023-06-04T06:52:07Z</time>
      </trkpt>
      <trkpt lat="47.21005" lon="0.4686">
        <ele>105.8</ele>
        <time>2023-06-04T06:52:08Z</time>
      </trkpt>
      <trkpt lat="47.21019" lon="0.46809">
        <ele>105</ele>
        <time>2023-06-04T06:52:12Z</time>
      </trkpt>
      <trkpt lat="47.21028" lon="0.46771">
        <ele>104.6</ele>
        <time>2023-06-04T06:52:15Z</time>
      </trkpt>
      <trkpt lat="47.21047" lon="0.46683">
        <ele>103.9</ele>
        <time>2023-06-04T06:52:22Z</time>
      </trkpt>
      <trkpt lat="47.2105" lon="0.46671">
        <ele>103.9</ele>
        <time>2023-06-04T06:52:23Z</time>
      </trkpt>
      <trkpt lat="47.21071" lon="0.4659">
        <ele>104.3</ele>
        <time>2023-06-04T06:52:30Z</time>
      </trkpt>
      <trkpt lat="47.2108" lon="0.46555">
        <ele>104.5</ele>
        <time>2023-06-04T06:52:33Z</time>
      </trkpt>
      <trkpt lat="47.21097" lon="0.46475">
        <ele>105</ele>
        <time>2023-06-04T06:52:40Z</time>
      </trkpt>
      <trkpt lat="47.21114" lon="0.46396">
        <ele>105.6</ele>
        <time>2023-06-04T06:52:47Z</time>
      </trkpt>
      <trkpt lat="47.21115" lon="0.46385">
        <ele>105.6</ele>
        <time>2023-06-04T06:52:48Z</time>
      </trkpt>
      <trkpt lat="47.21126" lon="0.46303">
        <ele>106.3</ele>
        <time>2023-06-04T06:52:55Z</time>
      </trkpt>
      <trkpt lat="47.21129" lon="0.46279">
        <ele>106.6</ele>
        <time>2023-06-04T06:52:57Z</time>
      </trkpt>
      <trkpt lat="47.21133" lon="0.46246">
        <ele>107</ele>
        <time>2023-06-04T06:53:00Z</time>
      </trkpt>
      <trkpt lat="47.2114" lon="0.46194">
        <ele>107.7</ele>
        <time>2023-06-04T06:53:05Z</time>
      </trkpt>
      <trkpt lat="47.21142" lon="0.46173">
        <ele>107.9</ele>
        <time>2023-06-04T06:53:07Z</time>
      </trkpt>
      <trkpt lat="47.21149" lon="0.46121">
        <ele>108.7</ele>
        <time>2023-06-04T06:53:12Z</time>
      </trkpt>
      <trkpt lat="47.21153" lon="0.46079">
        <ele>109.3</ele>
        <time>2023-06-04T06:53:16Z</time>
      </trkpt>
      <trkpt lat="47.2116" lon="0.46028">
        <ele>110.1</ele>
        <time>2023-06-04T06:53:21Z</time>
      </trkpt>
      <trkpt lat="47.21164" lon="0.45988">
        <ele>110.8</ele>
        <time>2023-06-04T06:53:25Z</time>
      </trkpt>
      <trkpt lat="47.21169" lon="0.45939">
        <ele>111.8</ele>
        <time>2023-06-04T06:53:30Z</time>
      </trkpt>
      <trkpt lat="47.21171" lon="0.45915">
        <ele>112.3</ele>
        <time>2023-06-04T06:53:33Z</time>
      </trkpt>
      <trkpt lat="47.21174" lon="0.45893">
        <ele>112.8</ele>
        <time>2023-06-04T06:53:36Z</time>
      </trkpt>
      <trkpt lat="47.21177" lon="0.4587">
        <ele>113.5</ele>
        <time>2023-06-04T06:53:40Z</time>
      </trkpt>
      <trkpt lat="47.21178" lon="0.4586">
        <ele>113.8</ele>
        <time>2023-06-04T06:53:42Z</time>
      </trkpt>
      <trkpt lat="47.21176" lon="0.45852">
        <ele>114.1</ele>
        <time>2023-06-04T06:53:44Z</time>
      </trkpt>
      <trkpt lat="47.21173" lon="0.45849">
        <ele>114.2</ele>
        <time>2023-06-04T06:53:45Z</time>
      </trkpt>
      <trkpt lat="47.21166" lon="0.45845">
        <ele>114.3</ele>
        <time>2023-06-04T06:53:47Z</time>
      </trkpt>
      <trkpt lat="47.21157" lon="0.45844">
        <ele>114.5</ele>
        <time>2023-06-04T06:53:49Z</time>
      </trkpt>
      <trkpt lat="47.21152" lon="0.45843">
        <ele>114.6</ele>
        <time>2023-06-04T06:53:50Z</time>
      </trkpt>
      <trkpt lat="47.21125" lon="0.45839">
        <ele>115.2</ele>
        <time>2023-06-04T06:53:55Z</time>
      </trkpt>
      <trkpt lat="47.2112" lon="0.45839">
        <ele>115.3</ele>
        <time>2023-06-04T06:53:56Z</time>
      </trkpt>
      <trkpt lat="47.21083" lon="0.45836">
        <ele>116</ele>
        <time>2023-06-04T06:54:02Z</time>
      </trkpt>
      <trkpt lat="47.21063" lon="0.45835">
        <ele>116.3</ele>
        <time>2023-06-04T06:54:05Z</time>
      </trkpt>
      <trkpt lat="47.21018" lon="0.45834">
        <ele>116.8</ele>
        <time>2023-06-04T06:54:12Z</time>
      </trkpt>
      <trkpt lat="47.20961" lon="0.45832">
        <ele>117.1</ele>
        <time>2023-06-04T06:54:20Z</time>
      </trkpt>
      <trkpt lat="47.20941" lon="0.45831">
        <ele>117.3</ele>
        <time>2023-06-04T06:54:23Z</time>
      </trkpt>
      <trkpt lat="47.20884" lon="0.45829">
        <ele>117.6</ele>
        <time>2023-06-04T06:54:31Z</time>
      </trkpt>
      <trkpt lat="47.20877" lon="0.45829">
        <ele>117.6</ele>
        <time>2023-06-04T06:54:32Z</time>
      </trkpt>
      <trkpt lat="47.20818" lon="0.45826">
        <ele>117.5</ele>
        <time>2023-06-04T06:54:40Z</time>
      </trkpt>
      <trkpt lat="47.20788" lon="0.45825">
        <ele>117.4</ele>
        <time>2023-06-04T06:54:44Z</time>
      </trkpt>
      <trkpt lat="47.20728" lon="0.45823">
        <ele>117.3</ele>
        <time>2023-06-04T06:54:52Z</time>
      </trkpt>
      <trkpt lat="47.2072" lon="0.45823">
        <ele>117.3</ele>
        <time>2023-06-04T06:54:53Z</time>
      </trkpt>
      <trkpt lat="47.20664" lon="0.45821">
        <ele>116.8</ele>
        <time>2023-06-04T06:55:00Z</time>
      </trkpt>
      <trkpt lat="47.20656" lon="0.4582">
        <ele>116.8</ele>
        <time>2023-06-04T06:55:01Z</time>
      </trkpt>
      <trkpt lat="47.20598" lon="0.45818">
        <ele>116.3</ele>
        <time>2023-06-04T06:55:08Z</time>
      </trkpt>
      <trkpt lat="47.2059" lon="0.45818">
        <ele>116.2</ele>
        <time>2023-06-04T06:55:09Z</time>
      </trkpt>
      <trkpt lat="47.20556" lon="0.45816">
        <ele>115.7</ele>
        <time>2023-06-04T06:55:13Z</time>
      </trkpt>
      <trkpt lat="47.20493" lon="0.45814">
        <ele>114.6</ele>
        <time>2023-06-04T06:55:20Z</time>
      </trkpt>
      <trkpt lat="47.20484" lon="0.45814">
        <ele>114.4</ele>
        <time>2023-06-04T06:55:21Z</time>
      </trkpt>
      <trkpt lat="47.20466" lon="0.45813">
        <ele>114.1</ele>
        <time>2023-06-04T06:55:23Z</time>
      </trkpt>
      <trkpt lat="47.20448" lon="0.45812">
        <ele>113.8</ele>
        <time>2023-06-04T06:55:25Z</time>
      </trkpt>
      <trkpt lat="47.20386" lon="0.45809">
        <ele>112.7</ele>
        <time>2023-06-04T06:55:32Z</time>
      </trkpt>
      <trkpt lat="47.20377" lon="0.45809">
        <ele>112.5</ele>
        <time>2023-06-04T06:55:33Z</time>
      </trkpt>
      <trkpt lat="47.20369" lon="0.45809">
        <ele>112.3</ele>
        <time>2023-06-04T06:55:34Z</time>
      </trkpt>
      <trkpt lat="47.20314" lon="0.45807">
        <ele>110.7</ele>
        <time>2023-06-04T06:55:40Z</time>
      </trkpt>
      <trkpt lat="47.20304" lon="0.45807">
        <ele>110.4</ele>
        <time>2023-06-04T06:55:41Z</time>
      </trkpt>
      <trkpt lat="47.20275" lon="0.45806">
        <ele>109.4</ele>
        <time>2023-06-04T06:55:44Z</time>
      </trkpt>
      <trkpt lat="47.20245" lon="0.45805">
        <ele>108.6</ele>
        <time>2023-06-04T06:55:47Z</time>
      </trkpt>
      <trkpt lat="47.20226" lon="0.45804">
        <ele>108.4</ele>
        <time>2023-06-04T06:55:49Z</time>
      </trkpt>
      <trkpt lat="47.20216" lon="0.45804">
        <ele>108.4</ele>
        <time>2023-06-04T06:55:50Z</time>
      </trkpt>
      <trkpt lat="47.20172" lon="0.45802">
        <ele>108.5</ele>
        <time>2023-06-04T06:55:55Z</time>
      </trkpt>
      <trkpt lat="47.20155" lon="0.45801">
        <ele>108.8</ele>
        <time>2023-06-04T06:55:57Z</time>
      </trkpt>
      <trkpt lat="47.20096" lon="0.45798">
        <ele>110</ele>
        <time>2023-06-04T06:56:04Z</time>
      </trkpt>
      <trkpt lat="47.20079" lon="0.45797">
        <ele>110.3</ele>
        <time>2023-06-04T06:56:06Z</time>
      </trkpt>
      <trkpt lat="47.20053" lon="0.45796">
        <ele>110.8</ele>
        <time>2023-06-04T06:56:09Z</time>
      </trkpt>
      <trkpt lat="47.2001" lon="0.45794">
        <ele>111.6</ele>
        <time>2023-06-04T06:56:14Z</time>
      </trkpt>
      <trkpt lat="47.19992" lon="0.45794">
        <ele>112</ele>
        <time>2023-06-04T06:56:16Z</time>
      </trkpt>
      <trkpt lat="47.19939" lon="0.45792">
        <ele>113</ele>
        <time>2023-06-04T06:56:22Z</time>
      </trkpt>
      <trkpt lat="47.19887" lon="0.45791">
        <ele>114.1</ele>
        <time>2023-06-04T06:56:28Z</time>
      </trkpt>
      <trkpt lat="47.19878" lon="0.4579">
        <ele>114.3</ele>
        <time>2023-06-04T06:56:29Z</time>
      </trkpt>
      <trkpt lat="47.19826" lon="0.45787">
        <ele>115.4</ele>
        <time>2023-06-04T06:56:35Z</time>
      </trkpt>
      <trkpt lat="47.19791" lon="0.45786">
        <ele>116.2</ele>
        <time>2023-06-04T06:56:39Z</time>
      </trkpt>
      <trkpt lat="47.19774" lon="0.45785">
        <ele>116.4</ele>
        <time>2023-06-04T06:56:41Z</time>
      </trkpt>
      <trkpt lat="47.1973" lon="0.45783">
        <ele>117</ele>
        <time>2023-06-04T06:56:46Z</time>
      </trkpt>
      <trkpt lat="47.19703" lon="0.45782">
        <ele>117.2</ele>
        <time>2023-06-04T06:56:49Z</time>
      </trkpt>
      <trkpt lat="47.19649" lon="0.4578">
        <ele>117.5</ele>
        <time>2023-06-04T06:56:55Z</time>
      </trkpt>
      <trkpt lat="47.19632" lon="0.45779">
        <ele>117.7</ele>
        <time>2023-06-04T06:56:57Z</time>
      </trkpt>
      <trkpt lat="47.19599" lon="0.45777">
        <ele>117.8</ele>
        <time>2023-06-04T06:57:01Z</time>
      </trkpt>
      <trkpt lat="47.19566" lon="0.45777">
        <ele>117.8</ele>
        <time>2023-06-04T06:57:05Z</time>
      </trkpt>
      <trkpt lat="47.19509" lon="0.45774">
        <ele>117.8</ele>
        <time>2023-06-04T06:57:12Z</time>
      </trkpt>
      <trkpt lat="47.19493" lon="0.45773">
        <ele>117.8</ele>
        <time>2023-06-04T06:57:14Z</time>
      </trkpt>
      <trkpt lat="47.19436" lon="0.45771">
        <ele>117.7</ele>
        <time>2023-06-04T06:57:21Z</time>
      </trkpt>
      <trkpt lat="47.1942" lon="0.45771">
        <ele>117.6</ele>
        <time>2023-06-04T06:57:23Z</time>
      </trkpt>
      <trkpt lat="47.19363" lon="0.45768">
        <ele>117.3</ele>
        <time>2023-06-04T06:57:30Z</time>
      </trkpt>
      <trkpt lat="47.19339" lon="0.45767">
        <ele>117.1</ele>
        <time>2023-06-04T06:57:33Z</time>
      </trkpt>
      <trkpt lat="47.19281" lon="0.45765">
        <ele>116.5</ele>
        <time>2023-06-04T06:57:40Z</time>
      </trkpt>
      <trkpt lat="47.19273" lon="0.45764">
        <ele>116.4</ele>
        <time>2023-06-04T06:57:41Z</time>
      </trkpt>
      <trkpt lat="47.19213" lon="0.45761">
        <ele>116</ele>
        <time>2023-06-04T06:57:48Z</time>
      </trkpt>
      <trkpt lat="47.19196" lon="0.4576">
        <ele>115.9</ele>
        <time>2023-06-04T06:57:50Z</time>
      </trkpt>
      <trkpt lat="47.19187" lon="0.4576">
        <ele>115.8</ele>
        <time>2023-06-04T06:57:51Z</time>
      </trkpt>
      <trkpt lat="47.19125" lon="0.45757">
        <ele>115.4</ele>
        <time>2023-06-04T06:57:58Z</time>
      </trkpt>
      <trkpt lat="47.1909" lon="0.45755">
        <ele>115.3</ele>
        <time>2023-06-04T06:58:02Z</time>
      </trkpt>
      <trkpt lat="47.19072" lon="0.45755">
        <ele>115.2</ele>
        <time>2023-06-04T06:58:04Z</time>
      </trkpt>
      <trkpt lat="47.19011" lon="0.45752">
        <ele>114.9</ele>
        <time>2023-06-04T06:58:11Z</time>
      </trkpt>
      <trkpt lat="47.19003" lon="0.45751">
        <ele>114.9</ele>
        <time>2023-06-04T06:58:12Z</time>
      </trkpt>
      <trkpt lat="47.18942" lon="0.45749">
        <ele>114.7</ele>
        <time>2023-06-04T06:58:19Z</time>
      </trkpt>
      <trkpt lat="47.18898" lon="0.45746">
        <ele>114.7</ele>
        <time>2023-06-04T06:58:24Z</time>
      </trkpt>
      <trkpt lat="47.18863" lon="0.45746">
        <ele>114.8</ele>
        <time>2023-06-04T06:58:28Z</time>
      </trkpt>
      <trkpt lat="47.18812" lon="0.45742">
        <ele>115.2</ele>
        <time>2023-06-04T06:58:34Z</time>
      </trkpt>
      <trkpt lat="47.18751" lon="0.4574">
        <ele>115.1</ele>
        <time>2023-06-04T06:58:41Z</time>
      </trkpt>
      <trkpt lat="47.18707" lon="0.45737">
        <ele>114.9</ele>
        <time>2023-06-04T06:58:46Z</time>
      </trkpt>
      <trkpt lat="47.18644" lon="0.45734">
        <ele>114.5</ele>
        <time>2023-06-04T06:58:53Z</time>
      </trkpt>
      <trkpt lat="47.18609" lon="0.45732">
        <ele>114.2</ele>
        <time>2023-06-04T06:58:57Z</time>
      </trkpt>
      <trkpt lat="47.18548" lon="0.4573">
        <ele>113.4</ele>
        <time>2023-06-04T06:59:04Z</time>
      </trkpt>
      <trkpt lat="47.1854" lon="0.45729">
        <ele>113.2</ele>
        <time>2023-06-04T06:59:05Z</time>
      </trkpt>
      <trkpt lat="47.18504" lon="0.45727">
        <ele>112.6</ele>
        <time>2023-06-04T06:59:09Z</time>
      </trkpt>
      <trkpt lat="47.18459" lon="0.45725">
        <ele>112.3</ele>
        <time>2023-06-04T06:59:14Z</time>
      </trkpt>
      <trkpt lat="47.1845" lon="0.45724">
        <ele>112.2</ele>
        <time>2023-06-04T06:59:15Z</time>
      </trkpt>
      <trkpt lat="47.18389" lon="0.45721">
        <ele>112.3</ele>
        <time>2023-06-04T06:59:22Z</time>
      </trkpt>
      <trkpt lat="47.18381" lon="0.4572">
        <ele>112.3</ele>
        <time>2023-06-04T06:59:23Z</time>
      </trkpt>
      <trkpt lat="47.18322" lon="0.45718">
        <ele>112.7</ele>
        <time>2023-06-04T06:59:30Z</time>
      </trkpt>
      <trkpt lat="47.18289" lon="0.45717">
        <ele>112.8</ele>
        <time>2023-06-04T06:59:34Z</time>
      </trkpt>
      <trkpt lat="47.1828" lon="0.45716">
        <ele>112.8</ele>
        <time>2023-06-04T06:59:35Z</time>
      </trkpt>
      <trkpt lat="47.1822" lon="0.45714">
        <ele>112.5</ele>
        <time>2023-06-04T06:59:42Z</time>
      </trkpt>
      <trkpt lat="47.18168" lon="0.45711">
        <ele>112.2</ele>
        <time>2023-06-04T06:59:48Z</time>
      </trkpt>
      <trkpt lat="47.18142" lon="0.45709">
        <ele>112.1</ele>
        <time>2023-06-04T06:59:51Z</time>
      </trkpt>
      <trkpt lat="47.18081" lon="0.45707">
        <ele>112.3</ele>
        <time>2023-06-04T06:59:58Z</time>
      </trkpt>
      <trkpt lat="47.18056" lon="0.45705">
        <ele>112.7</ele>
        <time>2023-06-04T07:00:01Z</time>
      </trkpt>
      <trkpt lat="47.17998" lon="0.45702">
        <ele>113.5</ele>
        <time>2023-06-04T07:00:08Z</time>
      </trkpt>
      <trkpt lat="47.1799" lon="0.45702">
        <ele>113.6</ele>
        <time>2023-06-04T07:00:09Z</time>
      </trkpt>
      <trkpt lat="47.17983" lon="0.45702">
        <ele>113.8</ele>
        <time>2023-06-04T07:00:10Z</time>
      </trkpt>
      <trkpt lat="47.1796" lon="0.45701">
        <ele>114.3</ele>
        <time>2023-06-04T07:00:13Z</time>
      </trkpt>
      <trkpt lat="47.17925" lon="0.457">
        <ele>114.7</ele>
        <time>2023-06-04T07:00:18Z</time>
      </trkpt>
      <trkpt lat="47.17918" lon="0.457">
        <ele>114.8</ele>
        <time>2023-06-04T07:00:19Z</time>
      </trkpt>
      <trkpt lat="47.17874" lon="0.45698">
        <ele>115.3</ele>
        <time>2023-06-04T07:00:26Z</time>
      </trkpt>
      <trkpt lat="47.17854" lon="0.45695">
        <ele>115.4</ele>
        <time>2023-06-04T07:00:29Z</time>
      </trkpt>
      <trkpt lat="47.17818" lon="0.45693">
        <ele>115.3</ele>
        <time>2023-06-04T07:00:34Z</time>
      </trkpt>
      <trkpt lat="47.17757" lon="0.45686">
        <ele>115.1</ele>
        <time>2023-06-04T07:00:42Z</time>
      </trkpt>
      <trkpt lat="47.177" lon="0.45678">
        <ele>114.4</ele>
        <time>2023-06-04T07:00:49Z</time>
      </trkpt>
      <trkpt lat="47.17674" lon="0.45675">
        <ele>113.9</ele>
        <time>2023-06-04T07:00:52Z</time>
      </trkpt>
      <trkpt lat="47.1764" lon="0.4567">
        <ele>113.1</ele>
        <time>2023-06-04T07:00:56Z</time>
      </trkpt>
      <trkpt lat="47.17596" lon="0.45663">
        <ele>112</ele>
        <time>2023-06-04T07:01:01Z</time>
      </trkpt>
      <trkpt lat="47.17587" lon="0.45662">
        <ele>111.9</ele>
        <time>2023-06-04T07:01:02Z</time>
      </trkpt>
      <trkpt lat="47.1753" lon="0.45653">
        <ele>110.7</ele>
        <time>2023-06-04T07:01:08Z</time>
      </trkpt>
      <trkpt lat="47.1752" lon="0.45651">
        <ele>110.5</ele>
        <time>2023-06-04T07:01:09Z</time>
      </trkpt>
      <trkpt lat="47.17471" lon="0.45644">
        <ele>110</ele>
        <time>2023-06-04T07:01:14Z</time>
      </trkpt>
      <trkpt lat="47.17431" lon="0.45638">
        <ele>109.9</ele>
        <time>2023-06-04T07:01:18Z</time>
      </trkpt>
      <trkpt lat="47.17373" lon="0.45629">
        <ele>109.3</ele>
        <time>2023-06-04T07:01:24Z</time>
      </trkpt>
      <trkpt lat="47.17333" lon="0.45623">
        <ele>108.6</ele>
        <time>2023-06-04T07:01:28Z</time>
      </trkpt>
      <trkpt lat="47.1727" lon="0.45613">
        <ele>107.4</ele>
        <time>2023-06-04T07:01:34Z</time>
      </trkpt>
      <trkpt lat="47.17249" lon="0.4561">
        <ele>106.9</ele>
        <time>2023-06-04T07:01:36Z</time>
      </trkpt>
      <trkpt lat="47.17238" lon="0.45608">
        <ele>106.6</ele>
        <time>2023-06-04T07:01:37Z</time>
      </trkpt>
      <trkpt lat="47.17194" lon="0.45601">
        <ele>105.5</ele>
        <time>2023-06-04T07:01:41Z</time>
      </trkpt>
      <trkpt lat="47.17162" lon="0.45597">
        <ele>105</ele>
        <time>2023-06-04T07:01:44Z</time>
      </trkpt>
      <trkpt lat="47.1714" lon="0.45594">
        <ele>104.8</ele>
        <time>2023-06-04T07:01:46Z</time>
      </trkpt>
      <trkpt lat="47.17097" lon="0.45589">
        <ele>104.8</ele>
        <time>2023-06-04T07:01:50Z</time>
      </trkpt>
      <trkpt lat="47.17055" lon="0.45583">
        <ele>105</ele>
        <time>2023-06-04T07:01:54Z</time>
      </trkpt>
      <trkpt lat="47.17045" lon="0.45579">
        <ele>105.1</ele>
        <time>2023-06-04T07:01:55Z</time>
      </trkpt>
      <trkpt lat="47.17017" lon="0.45563">
        <ele>105.5</ele>
        <time>2023-06-04T07:01:58Z</time>
      </trkpt>
      <trkpt lat="47.16965" lon="0.45524">
        <ele>105.7</ele>
        <time>2023-06-04T07:02:04Z</time>
      </trkpt>
      <trkpt lat="47.16938" lon="0.45504">
        <ele>105.6</ele>
        <time>2023-06-04T07:02:07Z</time>
      </trkpt>
      <trkpt lat="47.16892" lon="0.4547">
        <ele>105.4</ele>
        <time>2023-06-04T07:02:12Z</time>
      </trkpt>
      <trkpt lat="47.16836" lon="0.4543">
        <ele>105.1</ele>
        <time>2023-06-04T07:02:18Z</time>
      </trkpt>
      <trkpt lat="47.1681" lon="0.45412">
        <ele>104.9</ele>
        <time>2023-06-04T07:02:21Z</time>
      </trkpt>
      <trkpt lat="47.16754" lon="0.45378">
        <ele>104.2</ele>
        <time>2023-06-04T07:02:27Z</time>
      </trkpt>
      <trkpt lat="47.16745" lon="0.45374">
        <ele>104</ele>
        <time>2023-06-04T07:02:28Z</time>
      </trkpt>
      <trkpt lat="47.16706" lon="0.45361">
        <ele>103.2</ele>
        <time>2023-06-04T07:02:32Z</time>
      </trkpt>
      <trkpt lat="47.16677" lon="0.45352">
        <ele>102.2</ele>
        <time>2023-06-04T07:02:35Z</time>
      </trkpt>
      <trkpt lat="47.16657" lon="0.45346">
        <ele>101.4</ele>
        <time>2023-06-04T07:02:37Z</time>
      </trkpt>
      <trkpt lat="47.16616" lon="0.45331">
        <ele>98.8</ele>
        <time>2023-06-04T07:02:41Z</time>
      </trkpt>
      <trkpt lat="47.16583" lon="0.45318">
        <ele>95.9</ele>
        <time>2023-06-04T07:02:44Z</time>
      </trkpt>
      <trkpt lat="47.16558" lon="0.4531">
        <ele>93.6</ele>
        <time>2023-06-04T07:02:46Z</time>
      </trkpt>
      <trkpt lat="47.16531" lon="0.45303">
        <ele>91.4</ele>
        <time>2023-06-04T07:02:48Z</time>
      </trkpt>
      <trkpt lat="47.16518" lon="0.45299">
        <ele>90.2</ele>
        <time>2023-06-04T07:02:49Z</time>
      </trkpt>
      <trkpt lat="47.16505" lon="0.45294">
        <ele>89</ele>
        <time>2023-06-04T07:02:50Z</time>
      </trkpt>
      <trkpt lat="47.16492" lon="0.45289">
        <ele>87.8</ele>
        <time>2023-06-04T07:02:51Z</time>
      </trkpt>
      <trkpt lat="47.16479" lon="0.45284">
        <ele>86.6</ele>
        <time>2023-06-04T07:02:52Z</time>
      </trkpt>
      <trkpt lat="47.16466" lon="0.45278">
        <ele>85.5</ele>
        <time>2023-06-04T07:02:53Z</time>
      </trkpt>
      <trkpt lat="47.16453" lon="0.45271">
        <ele>84.3</ele>
        <time>2023-06-04T07:02:54Z</time>
      </trkpt>
      <trkpt lat="47.16441" lon="0.45263">
        <ele>83.1</ele>
        <time>2023-06-04T07:02:55Z</time>
      </trkpt>
      <trkpt lat="47.16429" lon="0.45255">
        <ele>82</ele>
        <time>2023-06-04T07:02:56Z</time>
      </trkpt>
      <trkpt lat="47.16418" lon="0.45249">
        <ele>81.1</ele>
        <time>2023-06-04T07:02:57Z</time>
      </trkpt>
      <trkpt lat="47.16406" lon="0.45242">
        <ele>80.1</ele>
        <time>2023-06-04T07:02:58Z</time>
      </trkpt>
      <trkpt lat="47.16396" lon="0.45235">
        <ele>79.3</ele>
        <time>2023-06-04T07:02:59Z</time>
      </trkpt>
      <trkpt lat="47.16385" lon="0.45227">
        <ele>78.4</ele>
        <time>2023-06-04T07:03:00Z</time>
      </trkpt>
      <trkpt lat="47.16374" lon="0.45217">
        <ele>77.5</ele>
        <time>2023-06-04T07:03:01Z</time>
      </trkpt>
      <trkpt lat="47.1636" lon="0.45189">
        <ele>76.2</ele>
        <time>2023-06-04T07:03:03Z</time>
      </trkpt>
      <trkpt lat="47.16346" lon="0.45162">
        <ele>75.2</ele>
        <time>2023-06-04T07:03:05Z</time>
      </trkpt>
      <trkpt lat="47.16329" lon="0.45138">
        <ele>74.4</ele>
        <time>2023-06-04T07:03:07Z</time>
      </trkpt>
      <trkpt lat="47.16311" lon="0.45117">
        <ele>73.9</ele>
        <time>2023-06-04T07:03:09Z</time>
      </trkpt>
      <trkpt lat="47.16302" lon="0.45108">
        <ele>73.6</ele>
        <time>2023-06-04T07:03:10Z</time>
      </trkpt>
      <trkpt lat="47.16293" lon="0.45098">
        <ele>73.3</ele>
        <time>2023-06-04T07:03:11Z</time>
      </trkpt>
      <trkpt lat="47.16284" lon="0.4509">
        <ele>73</ele>
        <time>2023-06-04T07:03:12Z</time>
      </trkpt>
      <trkpt lat="47.16249" lon="0.45055">
        <ele>72.3</ele>
        <time>2023-06-04T07:03:16Z</time>
      </trkpt>
      <trkpt lat="47.1624" lon="0.45046">
        <ele>72.3</ele>
        <time>2023-06-04T07:03:17Z</time>
      </trkpt>
      <trkpt lat="47.16187" lon="0.44998">
        <ele>71.7</ele>
        <time>2023-06-04T07:03:23Z</time>
      </trkpt>
      <trkpt lat="47.16144" lon="0.44957">
        <ele>71.3</ele>
        <time>2023-06-04T07:03:28Z</time>
      </trkpt>
      <trkpt lat="47.16127" lon="0.44943">
        <ele>71</ele>
        <time>2023-06-04T07:03:30Z</time>
      </trkpt>
      <trkpt lat="47.16108" lon="0.44933">
        <ele>70.8</ele>
        <time>2023-06-04T07:03:32Z</time>
      </trkpt>
      <trkpt lat="47.16099" lon="0.44928">
        <ele>70.7</ele>
        <time>2023-06-04T07:03:33Z</time>
      </trkpt>
      <trkpt lat="47.16089" lon="0.44924">
        <ele>70.6</ele>
        <time>2023-06-04T07:03:34Z</time>
      </trkpt>
      <trkpt lat="47.1603" lon="0.44903">
        <ele>70.1</ele>
        <time>2023-06-04T07:03:40Z</time>
      </trkpt>
      <trkpt lat="47.16001" lon="0.44892">
        <ele>69.8</ele>
        <time>2023-06-04T07:03:43Z</time>
      </trkpt>
      <trkpt lat="47.15947" lon="0.44872">
        <ele>69.4</ele>
        <time>2023-06-04T07:03:49Z</time>
      </trkpt>
      <trkpt lat="47.15899" lon="0.44843">
        <ele>67.7</ele>
        <time>2023-06-04T07:03:55Z</time>
      </trkpt>
      <trkpt lat="47.15865" lon="0.44818">
        <ele>65.6</ele>
        <time>2023-06-04T07:03:59Z</time>
      </trkpt>
      <trkpt lat="47.15856" lon="0.44812">
        <ele>65.2</ele>
        <time>2023-06-04T07:04:00Z</time>
      </trkpt>
      <trkpt lat="47.15847" lon="0.44807">
        <ele>64.8</ele>
        <time>2023-06-04T07:04:01Z</time>
      </trkpt>
      <trkpt lat="47.15837" lon="0.44805">
        <ele>64.4</ele>
        <time>2023-06-04T07:04:02Z</time>
      </trkpt>
      <trkpt lat="47.15816" lon="0.44804">
        <ele>63.6</ele>
        <time>2023-06-04T07:04:04Z</time>
      </trkpt>
      <trkpt lat="47.15795" lon="0.44809">
        <ele>63</ele>
        <time>2023-06-04T07:04:06Z</time>
      </trkpt>
      <trkpt lat="47.15785" lon="0.44813">
        <ele>62.7</ele>
        <time>2023-06-04T07:04:07Z</time>
      </trkpt>
      <trkpt lat="47.15767" lon="0.44823">
        <ele>62.3</ele>
        <time>2023-06-04T07:04:09Z</time>
      </trkpt>
      <trkpt lat="47.1575" lon="0.44831">
        <ele>62.1</ele>
        <time>2023-06-04T07:04:11Z</time>
      </trkpt>
      <trkpt lat="47.15742" lon="0.44835">
        <ele>62.1</ele>
        <time>2023-06-04T07:04:12Z</time>
      </trkpt>
      <trkpt lat="47.15702" lon="0.44856">
        <ele>63</ele>
        <time>2023-06-04T07:04:18Z</time>
      </trkpt>
      <trkpt lat="47.15694" lon="0.4486">
        <ele>63.3</ele>
        <time>2023-06-04T07:04:20Z</time>
      </trkpt>
      <trkpt lat="47.15692" lon="0.44861">
        <ele>63.3</ele>
        <time>2023-06-04T07:04:21Z</time>
      </trkpt>
      <trkpt lat="47.1569" lon="0.44862">
        <ele>63.4</ele>
        <time>2023-06-04T07:04:22Z</time>
      </trkpt>
      <trkpt lat="47.15688" lon="0.44863">
        <ele>63.5</ele>
        <time>2023-06-04T07:04:23Z</time>
      </trkpt>
      <trkpt lat="47.15686" lon="0.44866">
        <ele>63.4</ele>
        <time>2023-06-04T07:04:25Z</time>
      </trkpt>
      <trkpt lat="47.15684" lon="0.44867">
        <ele>63.3</ele>
        <time>2023-06-04T07:04:27Z</time>
      </trkpt>
      <trkpt lat="47.15683" lon="0.44866">
        <ele>63.3</ele>
        <time>2023-06-04T07:04:28Z</time>
      </trkpt>
      <trkpt lat="47.15678" lon="0.44865">
        <ele>63</ele>
        <time>2023-06-04T07:04:33Z</time>
      </trkpt>
      <trkpt lat="47.15676" lon="0.44865">
        <ele>62.9</ele>
        <time>2023-06-04T07:04:35Z</time>
      </trkpt>
      <trkpt lat="47.15668" lon="0.44862">
        <ele>62.5</ele>
        <time>2023-06-04T07:04:40Z</time>
      </trkpt>
      <trkpt lat="47.15665" lon="0.4486">
        <ele>62.3</ele>
        <time>2023-06-04T07:04:41Z</time>
      </trkpt>
      <trkpt lat="47.15652" lon="0.44851">
        <ele>61.6</ele>
        <time>2023-06-04T07:04:44Z</time>
      </trkpt>
      <trkpt lat="47.15647" lon="0.44847">
        <ele>61.3</ele>
        <time>2023-06-04T07:04:45Z</time>
      </trkpt>
      <trkpt lat="47.15631" lon="0.44832">
        <ele>60.4</ele>
        <time>2023-06-04T07:04:48Z</time>
      </trkpt>
      <trkpt lat="47.15618" lon="0.44823">
        <ele>59.9</ele>
        <time>2023-06-04T07:04:50Z</time>
      </trkpt>
      <trkpt lat="47.15604" lon="0.44819">
        <ele>59.6</ele>
        <time>2023-06-04T07:04:52Z</time>
      </trkpt>
      <trkpt lat="47.15589" lon="0.44817">
        <ele>59.3</ele>
        <time>2023-06-04T07:04:54Z</time>
      </trkpt>
      <trkpt lat="47.15582" lon="0.44817">
        <ele>59.2</ele>
        <time>2023-06-04T07:04:55Z</time>
      </trkpt>
      <trkpt lat="47.15541" lon="0.44821">
        <ele>58.6</ele>
        <time>2023-06-04T07:05:01Z</time>
      </trkpt>
      <trkpt lat="47.15528" lon="0.44824">
        <ele>58.5</ele>
        <time>2023-06-04T07:05:03Z</time>
      </trkpt>
      <trkpt lat="47.1549" lon="0.44827">
        <ele>58.1</ele>
        <time>2023-06-04T07:05:09Z</time>
      </trkpt>
      <trkpt lat="47.15465" lon="0.44822">
        <ele>57.8</ele>
        <time>2023-06-04T07:05:13Z</time>
      </trkpt>
      <trkpt lat="47.15446" lon="0.44817">
        <ele>57.5</ele>
        <time>2023-06-04T07:05:16Z</time>
      </trkpt>
      <trkpt lat="47.15395" lon="0.44804">
        <ele>56.8</ele>
        <time>2023-06-04T07:05:23Z</time>
      </trkpt>
      <trkpt lat="47.15341" lon="0.44801">
        <ele>56.4</ele>
        <time>2023-06-04T07:05:30Z</time>
      </trkpt>
      <trkpt lat="47.15333" lon="0.44801">
        <ele>56.4</ele>
        <time>2023-06-04T07:05:31Z</time>
      </trkpt>
      <trkpt lat="47.15317" lon="0.44802">
        <ele>56.3</ele>
        <time>2023-06-04T07:05:33Z</time>
      </trkpt>
      <trkpt lat="47.15278" lon="0.44805">
        <ele>56.2</ele>
        <time>2023-06-04T07:05:38Z</time>
      </trkpt>
      <trkpt lat="47.15223" lon="0.44804">
        <ele>55.3</ele>
        <time>2023-06-04T07:05:45Z</time>
      </trkpt>
      <trkpt lat="47.15164" lon="0.44796">
        <ele>53.6</ele>
        <time>2023-06-04T07:05:52Z</time>
      </trkpt>
      <trkpt lat="47.15146" lon="0.44792">
        <ele>53.1</ele>
        <time>2023-06-04T07:05:54Z</time>
      </trkpt>
      <trkpt lat="47.15119" lon="0.44788">
        <ele>52.4</ele>
        <time>2023-06-04T07:05:57Z</time>
      </trkpt>
      <trkpt lat="47.15092" lon="0.44783">
        <ele>51.9</ele>
        <time>2023-06-04T07:06:00Z</time>
      </trkpt>
      <trkpt lat="47.15083" lon="0.4478">
        <ele>51.8</ele>
        <time>2023-06-04T07:06:01Z</time>
      </trkpt>
      <trkpt lat="47.15047" lon="0.44771">
        <ele>51.1</ele>
        <time>2023-06-04T07:06:05Z</time>
      </trkpt>
      <trkpt lat="47.15021" lon="0.44763">
        <ele>50.5</ele>
        <time>2023-06-04T07:06:08Z</time>
      </trkpt>
      <trkpt lat="47.14968" lon="0.44745">
        <ele>49.7</ele>
        <time>2023-06-04T07:06:14Z</time>
      </trkpt>
      <trkpt lat="47.14942" lon="0.44737">
        <ele>49.4</ele>
        <time>2023-06-04T07:06:17Z</time>
      </trkpt>
      <trkpt lat="47.14926" lon="0.44735">
        <ele>49.3</ele>
        <time>2023-06-04T07:06:19Z</time>
      </trkpt>
      <trkpt lat="47.14902" lon="0.44737">
        <ele>49</ele>
        <time>2023-06-04T07:06:22Z</time>
      </trkpt>
      <trkpt lat="47.1486" lon="0.44744">
        <ele>48.9</ele>
        <time>2023-06-04T07:06:28Z</time>
      </trkpt>
      <trkpt lat="47.14841" lon="0.44749">
        <ele>49</ele>
        <time>2023-06-04T07:06:32Z</time>
      </trkpt>
      <trkpt lat="47.14833" lon="0.44757">
        <ele>48.9</ele>
        <time>2023-06-04T07:06:35Z</time>
      </trkpt>
      <trkpt lat="47.14835" lon="0.44776">
        <ele>49.6</ele>
        <time>2023-06-04T07:06:38Z</time>
      </trkpt>
      <trkpt lat="47.14836" lon="0.4479">
        <ele>50</ele>
        <time>2023-06-04T07:06:40Z</time>
      </trkpt>
      <trkpt lat="47.14838" lon="0.44812">
        <ele>50.8</ele>
        <time>2023-06-04T07:06:43Z</time>
      </trkpt>
      <trkpt lat="47.1484" lon="0.44827">
        <ele>51.5</ele>
        <time>2023-06-04T07:06:45Z</time>
      </trkpt>
      <trkpt lat="47.14848" lon="0.44855">
        <ele>52.8</ele>
        <time>2023-06-04T07:06:49Z</time>
      </trkpt>
      <trkpt lat="47.1485" lon="0.44862">
        <ele>53.2</ele>
        <time>2023-06-04T07:06:50Z</time>
      </trkpt>
      <trkpt lat="47.14856" lon="0.44882">
        <ele>54.1</ele>
        <time>2023-06-04T07:06:53Z</time>
      </trkpt>
      <trkpt lat="47.14861" lon="0.44896">
        <ele>54.6</ele>
        <time>2023-06-04T07:06:55Z</time>
      </trkpt>
      <trkpt lat="47.14866" lon="0.44909">
        <ele>55.1</ele>
        <time>2023-06-04T07:06:57Z</time>
      </trkpt>
      <trkpt lat="47.14869" lon="0.44916">
        <ele>55.3</ele>
        <time>2023-06-04T07:06:58Z</time>
      </trkpt>
      <trkpt lat="47.14881" lon="0.4496">
        <ele>56.2</ele>
        <time>2023-06-04T07:07:04Z</time>
      </trkpt>
      <trkpt lat="47.14883" lon="0.44968">
        <ele>56.4</ele>
        <time>2023-06-04T07:07:05Z</time>
      </trkpt>
      <trkpt lat="47.14887" lon="0.44983">
        <ele>56.6</ele>
        <time>2023-06-04T07:07:07Z</time>
      </trkpt>
      <trkpt lat="47.14901" lon="0.4503">
        <ele>56.8</ele>
        <time>2023-06-04T07:07:13Z</time>
      </trkpt>
      <trkpt lat="47.14925" lon="0.45112">
        <ele>56</ele>
        <time>2023-06-04T07:07:22Z</time>
      </trkpt>
      <trkpt lat="47.14929" lon="0.45131">
        <ele>55.8</ele>
        <time>2023-06-04T07:07:24Z</time>
      </trkpt>
      <trkpt lat="47.14932" lon="0.4517">
        <ele>55.7</ele>
        <time>2023-06-04T07:07:28Z</time>
      </trkpt>
      <trkpt lat="47.14934" lon="0.45252">
        <ele>55</ele>
        <time>2023-06-04T07:07:36Z</time>
      </trkpt>
      <trkpt lat="47.14934" lon="0.45263">
        <ele>54.9</ele>
        <time>2023-06-04T07:07:37Z</time>
      </trkpt>
      <trkpt lat="47.14936" lon="0.45318">
        <ele>54.3</ele>
        <time>2023-06-04T07:07:42Z</time>
      </trkpt>
      <trkpt lat="47.14937" lon="0.45374">
        <ele>54</ele>
        <time>2023-06-04T07:07:47Z</time>
      </trkpt>
      <trkpt lat="47.14938" lon="0.45407">
        <ele>54.2</ele>
        <time>2023-06-04T07:07:50Z</time>
      </trkpt>
      <trkpt lat="47.14939" lon="0.4547">
        <ele>55.1</ele>
        <time>2023-06-04T07:07:56Z</time>
      </trkpt>
      <trkpt lat="47.14941" lon="0.45516">
        <ele>56</ele>
        <time>2023-06-04T07:08:01Z</time>
      </trkpt>
      <trkpt lat="47.14941" lon="0.45534">
        <ele>56.3</ele>
        <time>2023-06-04T07:08:03Z</time>
      </trkpt>
      <trkpt lat="47.1494" lon="0.45579">
        <ele>56.6</ele>
        <time>2023-06-04T07:08:08Z</time>
      </trkpt>
      <trkpt lat="47.14937" lon="0.45598">
        <ele>56.5</ele>
        <time>2023-06-04T07:08:10Z</time>
      </trkpt>
      <trkpt lat="47.14922" lon="0.45665">
        <ele>55.1</ele>
        <time>2023-06-04T07:08:17Z</time>
      </trkpt>
      <trkpt lat="47.14903" lon="0.45714">
        <ele>53.7</ele>
        <time>2023-06-04T07:08:22Z</time>
      </trkpt>
      <trkpt lat="47.14899" lon="0.45724">
        <ele>53.4</ele>
        <time>2023-06-04T07:08:23Z</time>
      </trkpt>
      <trkpt lat="47.14882" lon="0.45764">
        <ele>52.2</ele>
        <time>2023-06-04T07:08:27Z</time>
      </trkpt>
      <trkpt lat="47.1487" lon="0.45794">
        <ele>51.3</ele>
        <time>2023-06-04T07:08:30Z</time>
      </trkpt>
      <trkpt lat="47.14861" lon="0.45814">
        <ele>50.5</ele>
        <time>2023-06-04T07:08:32Z</time>
      </trkpt>
      <trkpt lat="47.14852" lon="0.45835">
        <ele>49.8</ele>
        <time>2023-06-04T07:08:34Z</time>
      </trkpt>
      <trkpt lat="47.14835" lon="0.45877">
        <ele>48.4</ele>
        <time>2023-06-04T07:08:38Z</time>
      </trkpt>
      <trkpt lat="47.14822" lon="0.45909">
        <ele>47.3</ele>
        <time>2023-06-04T07:08:41Z</time>
      </trkpt>
      <trkpt lat="47.14818" lon="0.45919">
        <ele>47</ele>
        <time>2023-06-04T07:08:42Z</time>
      </trkpt>
      <trkpt lat="47.14809" lon="0.45942">
        <ele>46.3</ele>
        <time>2023-06-04T07:08:44Z</time>
      </trkpt>
      <trkpt lat="47.14791" lon="0.45987">
        <ele>45.2</ele>
        <time>2023-06-04T07:08:48Z</time>
      </trkpt>
      <trkpt lat="47.14779" lon="0.4602">
        <ele>44.9</ele>
        <time>2023-06-04T07:08:51Z</time>
      </trkpt>
      <trkpt lat="47.14775" lon="0.46031">
        <ele>44.9</ele>
        <time>2023-06-04T07:08:52Z</time>
      </trkpt>
      <trkpt lat="47.14767" lon="0.46075">
        <ele>45.3</ele>
        <time>2023-06-04T07:08:56Z</time>
      </trkpt>
      <trkpt lat="47.14766" lon="0.46127">
        <ele>46.1</ele>
        <time>2023-06-04T07:09:01Z</time>
      </trkpt>
      <trkpt lat="47.14767" lon="0.46157">
        <ele>46.7</ele>
        <time>2023-06-04T07:09:04Z</time>
      </trkpt>
      <trkpt lat="47.14769" lon="0.46203">
        <ele>47.5</ele>
        <time>2023-06-04T07:09:09Z</time>
      </trkpt>
      <trkpt lat="47.14769" lon="0.46212">
        <ele>47.6</ele>
        <time>2023-06-04T07:09:10Z</time>
      </trkpt>
      <trkpt lat="47.14772" lon="0.46286">
        <ele>47.9</ele>
        <time>2023-06-04T07:09:18Z</time>
      </trkpt>
      <trkpt lat="47.14775" lon="0.46369">
        <ele>46.7</ele>
        <time>2023-06-04T07:09:26Z</time>
      </trkpt>
      <trkpt lat="47.14781" lon="0.46422">
        <ele>45.8</ele>
        <time>2023-06-04T07:09:31Z</time>
      </trkpt>
      <trkpt lat="47.14784" lon="0.46442">
        <ele>45.5</ele>
        <time>2023-06-04T07:09:33Z</time>
      </trkpt>
      <trkpt lat="47.14789" lon="0.46474">
        <ele>45.2</ele>
        <time>2023-06-04T07:09:36Z</time>
      </trkpt>
      <trkpt lat="47.14805" lon="0.46556">
        <ele>45.3</ele>
        <time>2023-06-04T07:09:44Z</time>
      </trkpt>
      <trkpt lat="47.14811" lon="0.46575">
        <ele>45.5</ele>
        <time>2023-06-04T07:09:46Z</time>
      </trkpt>
      <trkpt lat="47.14821" lon="0.466">
        <ele>46</ele>
        <time>2023-06-04T07:09:49Z</time>
      </trkpt>
      <trkpt lat="47.14842" lon="0.46644">
        <ele>47.3</ele>
        <time>2023-06-04T07:09:55Z</time>
      </trkpt>
      <trkpt lat="47.14845" lon="0.46651">
        <ele>47.5</ele>
        <time>2023-06-04T07:09:56Z</time>
      </trkpt>
      <trkpt lat="47.14854" lon="0.46671">
        <ele>48.2</ele>
        <time>2023-06-04T07:09:59Z</time>
      </trkpt>
      <trkpt lat="47.14863" lon="0.46692">
        <ele>48.8</ele>
        <time>2023-06-04T07:10:02Z</time>
      </trkpt>
      <trkpt lat="47.14874" lon="0.4672">
        <ele>49.6</ele>
        <time>2023-06-04T07:10:06Z</time>
      </trkpt>
      <trkpt lat="47.14876" lon="0.46728">
        <ele>49.7</ele>
        <time>2023-06-04T07:10:07Z</time>
      </trkpt>
      <trkpt lat="47.14884" lon="0.46768">
        <ele>50.5</ele>
        <time>2023-06-04T07:10:12Z</time>
      </trkpt>
      <trkpt lat="47.14885" lon="0.46783">
        <ele>50.8</ele>
        <time>2023-06-04T07:10:14Z</time>
      </trkpt>
      <trkpt lat="47.14888" lon="0.46815">
        <ele>51.4</ele>
        <time>2023-06-04T07:10:18Z</time>
      </trkpt>
      <trkpt lat="47.14889" lon="0.4683">
        <ele>51.7</ele>
        <time>2023-06-04T07:10:20Z</time>
      </trkpt>
      <trkpt lat="47.14896" lon="0.46884">
        <ele>52.8</ele>
        <time>2023-06-04T07:10:27Z</time>
      </trkpt>
      <trkpt lat="47.14908" lon="0.46936">
        <ele>54.2</ele>
        <time>2023-06-04T07:10:34Z</time>
      </trkpt>
      <trkpt lat="47.14909" lon="0.46942">
        <ele>54.4</ele>
        <time>2023-06-04T07:10:35Z</time>
      </trkpt>
      <trkpt lat="47.14914" lon="0.46962">
        <ele>55.2</ele>
        <time>2023-06-04T07:10:38Z</time>
      </trkpt>
      <trkpt lat="47.14919" lon="0.46987">
        <ele>56.2</ele>
        <time>2023-06-04T07:10:42Z</time>
      </trkpt>
      <trkpt lat="47.14923" lon="0.47012">
        <ele>57.3</ele>
        <time>2023-06-04T07:10:46Z</time>
      </trkpt>
      <trkpt lat="47.14925" lon="0.47031">
        <ele>58</ele>
        <time>2023-06-04T07:10:49Z</time>
      </trkpt>
      <trkpt lat="47.14929" lon="0.47064">
        <ele>59.1</ele>
        <time>2023-06-04T07:10:54Z</time>
      </trkpt>
      <trkpt lat="47.14931" lon="0.47077">
        <ele>59.5</ele>
        <time>2023-06-04T07:10:56Z</time>
      </trkpt>
      <trkpt lat="47.14934" lon="0.4711">
        <ele>60.4</ele>
        <time>2023-06-04T07:11:01Z</time>
      </trkpt>
      <trkpt lat="47.14937" lon="0.47137">
        <ele>61.1</ele>
        <time>2023-06-04T07:11:05Z</time>
      </trkpt>
      <trkpt lat="47.14939" lon="0.47151">
        <ele>61.4</ele>
        <time>2023-06-04T07:11:07Z</time>
      </trkpt>
      <trkpt lat="47.14945" lon="0.47206">
        <ele>62.5</ele>
        <time>2023-06-04T07:11:15Z</time>
      </trkpt>
      <trkpt lat="47.14946" lon="0.4722">
        <ele>62.7</ele>
        <time>2023-06-04T07:11:17Z</time>
      </trkpt>
      <trkpt lat="47.14951" lon="0.47261">
        <ele>63.6</ele>
        <time>2023-06-04T07:11:23Z</time>
      </trkpt>
      <trkpt lat="47.14953" lon="0.47281">
        <ele>64</ele>
        <time>2023-06-04T07:11:26Z</time>
      </trkpt>
      <trkpt lat="47.14955" lon="0.47301">
        <ele>64.5</ele>
        <time>2023-06-04T07:11:29Z</time>
      </trkpt>
      <trkpt lat="47.14957" lon="0.47321">
        <ele>65</ele>
        <time>2023-06-04T07:11:32Z</time>
      </trkpt>
      <trkpt lat="47.1496" lon="0.4734">
        <ele>65.5</ele>
        <time>2023-06-04T07:11:35Z</time>
      </trkpt>
      <trkpt lat="47.14961" lon="0.47346">
        <ele>65.7</ele>
        <time>2023-06-04T07:11:36Z</time>
      </trkpt>
      <trkpt lat="47.14965" lon="0.47371">
        <ele>66.3</ele>
        <time>2023-06-04T07:11:40Z</time>
      </trkpt>
      <trkpt lat="47.14966" lon="0.47377">
        <ele>66.5</ele>
        <time>2023-06-04T07:11:41Z</time>
      </trkpt>
      <trkpt lat="47.1497" lon="0.47396">
        <ele>67</ele>
        <time>2023-06-04T07:11:44Z</time>
      </trkpt>
      <trkpt lat="47.14972" lon="0.47403">
        <ele>67.1</ele>
        <time>2023-06-04T07:11:45Z</time>
      </trkpt>
      <trkpt lat="47.1498" lon="0.47457">
        <ele>68.6</ele>
        <time>2023-06-04T07:11:53Z</time>
      </trkpt>
      <trkpt lat="47.1498" lon="0.47471">
        <ele>69</ele>
        <time>2023-06-04T07:11:55Z</time>
      </trkpt>
      <trkpt lat="47.14981" lon="0.47499">
        <ele>69.8</ele>
        <time>2023-06-04T07:11:59Z</time>
      </trkpt>
      <trkpt lat="47.14981" lon="0.47527">
        <ele>70.6</ele>
        <time>2023-06-04T07:12:03Z</time>
      </trkpt>
      <trkpt lat="47.1498" lon="0.47556">
        <ele>71.4</ele>
        <time>2023-06-04T07:12:07Z</time>
      </trkpt>
      <trkpt lat="47.14977" lon="0.476">
        <ele>72.5</ele>
        <time>2023-06-04T07:12:13Z</time>
      </trkpt>
      <trkpt lat="47.14976" lon="0.47607">
        <ele>72.6</ele>
        <time>2023-06-04T07:12:14Z</time>
      </trkpt>
      <trkpt lat="47.14967" lon="0.4767">
        <ele>73.6</ele>
        <time>2023-06-04T07:12:22Z</time>
      </trkpt>
      <trkpt lat="47.14956" lon="0.47742">
        <ele>74.3</ele>
        <time>2023-06-04T07:12:31Z</time>
      </trkpt>
      <trkpt lat="47.14953" lon="0.47758">
        <ele>74.5</ele>
        <time>2023-06-04T07:12:33Z</time>
      </trkpt>
      <trkpt lat="47.14947" lon="0.47805">
        <ele>75.1</ele>
        <time>2023-06-04T07:12:39Z</time>
      </trkpt>
      <trkpt lat="47.14946" lon="0.47812">
        <ele>75.2</ele>
        <time>2023-06-04T07:12:40Z</time>
      </trkpt>
      <trkpt lat="47.14938" lon="0.47866">
        <ele>75.5</ele>
        <time>2023-06-04T07:12:47Z</time>
      </trkpt>
      <trkpt lat="47.14936" lon="0.47874">
        <ele>75.4</ele>
        <time>2023-06-04T07:12:48Z</time>
      </trkpt>
      <trkpt lat="47.14922" lon="0.4792">
        <ele>74.8</ele>
        <time>2023-06-04T07:12:54Z</time>
      </trkpt>
      <trkpt lat="47.1492" lon="0.47928">
        <ele>74.7</ele>
        <time>2023-06-04T07:12:55Z</time>
      </trkpt>
      <trkpt lat="47.14913" lon="0.47965">
        <ele>74.1</ele>
        <time>2023-06-04T07:12:59Z</time>
      </trkpt>
      <trkpt lat="47.14912" lon="0.47984">
        <ele>73.8</ele>
        <time>2023-06-04T07:13:01Z</time>
      </trkpt>
      <trkpt lat="47.14911" lon="0.48015">
        <ele>73.1</ele>
        <time>2023-06-04T07:13:04Z</time>
      </trkpt>
      <trkpt lat="47.14909" lon="0.48035">
        <ele>72.6</ele>
        <time>2023-06-04T07:13:06Z</time>
      </trkpt>
      <trkpt lat="47.14906" lon="0.48045">
        <ele>72.3</ele>
        <time>2023-06-04T07:13:07Z</time>
      </trkpt>
      <trkpt lat="47.14891" lon="0.48087">
        <ele>71.2</ele>
        <time>2023-06-04T07:13:11Z</time>
      </trkpt>
      <trkpt lat="47.14885" lon="0.4811">
        <ele>71</ele>
        <time>2023-06-04T07:13:13Z</time>
      </trkpt>
      <trkpt lat="47.14883" lon="0.48121">
        <ele>70.9</ele>
        <time>2023-06-04T07:13:14Z</time>
      </trkpt>
      <trkpt lat="47.14882" lon="0.48132">
        <ele>70.9</ele>
        <time>2023-06-04T07:13:15Z</time>
      </trkpt>
      <trkpt lat="47.14882" lon="0.48154">
        <ele>71</ele>
        <time>2023-06-04T07:13:17Z</time>
      </trkpt>
      <trkpt lat="47.14885" lon="0.48175">
        <ele>71.2</ele>
        <time>2023-06-04T07:13:19Z</time>
      </trkpt>
      <trkpt lat="47.1489" lon="0.48205">
        <ele>71.7</ele>
        <time>2023-06-04T07:13:22Z</time>
      </trkpt>
      <trkpt lat="47.14895" lon="0.4825">
        <ele>72.5</ele>
        <time>2023-06-04T07:13:27Z</time>
      </trkpt>
      <trkpt lat="47.14896" lon="0.48267">
        <ele>72.7</ele>
        <time>2023-06-04T07:13:29Z</time>
      </trkpt>
      <trkpt lat="47.14895" lon="0.48275">
        <ele>72.8</ele>
        <time>2023-06-04T07:13:30Z</time>
      </trkpt>
      <trkpt lat="47.14895" lon="0.48316">
        <ele>73.2</ele>
        <time>2023-06-04T07:13:35Z</time>
      </trkpt>
      <trkpt lat="47.14892" lon="0.48374">
        <ele>73.4</ele>
        <time>2023-06-04T07:13:42Z</time>
      </trkpt>
      <trkpt lat="47.14892" lon="0.48405">
        <ele>73.3</ele>
        <time>2023-06-04T07:13:46Z</time>
      </trkpt>
      <trkpt lat="47.14891" lon="0.48431">
        <ele>73.2</ele>
        <time>2023-06-04T07:13:49Z</time>
      </trkpt>
      <trkpt lat="47.14892" lon="0.48439">
        <ele>73.2</ele>
        <time>2023-06-04T07:13:50Z</time>
      </trkpt>
      <trkpt lat="47.14895" lon="0.48456">
        <ele>73.2</ele>
        <time>2023-06-04T07:13:52Z</time>
      </trkpt>
      <trkpt lat="47.14898" lon="0.48464">
        <ele>73.2</ele>
        <time>2023-06-04T07:13:53Z</time>
      </trkpt>
      <trkpt lat="47.14908" lon="0.48479">
        <ele>73.2</ele>
        <time>2023-06-04T07:13:55Z</time>
      </trkpt>
      <trkpt lat="47.14917" lon="0.48492">
        <ele>73.3</ele>
        <time>2023-06-04T07:13:57Z</time>
      </trkpt>
      <trkpt lat="47.14922" lon="0.48498">
        <ele>73.4</ele>
        <time>2023-06-04T07:13:58Z</time>
      </trkpt>
      <trkpt lat="47.14946" lon="0.48523">
        <ele>73.8</ele>
        <time>2023-06-04T07:14:03Z</time>
      </trkpt>
      <trkpt lat="47.14952" lon="0.48526">
        <ele>74</ele>
        <time>2023-06-04T07:14:04Z</time>
      </trkpt>
      <trkpt lat="47.14967" lon="0.48532">
        <ele>74.4</ele>
        <time>2023-06-04T07:14:07Z</time>
      </trkpt>
      <trkpt lat="47.14971" lon="0.48534">
        <ele>74.5</ele>
        <time>2023-06-04T07:14:08Z</time>
      </trkpt>
      <trkpt lat="47.14975" lon="0.48538">
        <ele>74.4</ele>
        <time>2023-06-04T07:14:09Z</time>
      </trkpt>
      <trkpt lat="47.14978" lon="0.48543">
        <ele>74.3</ele>
        <time>2023-06-04T07:14:10Z</time>
      </trkpt>
      <trkpt lat="47.14981" lon="0.48548">
        <ele>74.2</ele>
        <time>2023-06-04T07:14:11Z</time>
      </trkpt>
      <trkpt lat="47.14983" lon="0.48555">
        <ele>74.2</ele>
        <time>2023-06-04T07:14:12Z</time>
      </trkpt>
      <trkpt lat="47.14985" lon="0.48571">
        <ele>73.9</ele>
        <time>2023-06-04T07:14:14Z</time>
      </trkpt>
      <trkpt lat="47.14992" lon="0.48627">
        <ele>72.6</ele>
        <time>2023-06-04T07:14:20Z</time>
      </trkpt>
      <trkpt lat="47.14997" lon="0.48681">
        <ele>71.5</ele>
        <time>2023-06-04T07:14:25Z</time>
      </trkpt>
      <trkpt lat="47.15" lon="0.48714">
        <ele>71</ele>
        <time>2023-06-04T07:14:28Z</time>
      </trkpt>
      <trkpt lat="47.15001" lon="0.48737">
        <ele>70.5</ele>
        <time>2023-06-04T07:14:30Z</time>
      </trkpt>
      <trkpt lat="47.15002" lon="0.48772">
        <ele>69.9</ele>
        <time>2023-06-04T07:14:33Z</time>
      </trkpt>
      <trkpt lat="47.15003" lon="0.48784">
        <ele>69.6</ele>
        <time>2023-06-04T07:14:34Z</time>
      </trkpt>
      <trkpt lat="47.15005" lon="0.48831">
        <ele>68.7</ele>
        <time>2023-06-04T07:14:38Z</time>
      </trkpt>
      <trkpt lat="47.15005" lon="0.48878">
        <ele>67.4</ele>
        <time>2023-06-04T07:14:42Z</time>
      </trkpt>
      <trkpt lat="47.15001" lon="0.48939">
        <ele>65.8</ele>
        <time>2023-06-04T07:14:47Z</time>
      </trkpt>
      <trkpt lat="47.14998" lon="0.48963">
        <ele>65.1</ele>
        <time>2023-06-04T07:14:49Z</time>
      </trkpt>
      <trkpt lat="47.14995" lon="0.48975">
        <ele>64.8</ele>
        <time>2023-06-04T07:14:50Z</time>
      </trkpt>
      <trkpt lat="47.14983" lon="0.49024">
        <ele>63.2</ele>
        <time>2023-06-04T07:14:54Z</time>
      </trkpt>
      <trkpt lat="47.14967" lon="0.49086">
        <ele>61.3</ele>
        <time>2023-06-04T07:14:59Z</time>
      </trkpt>
      <trkpt lat="47.14957" lon="0.49123">
        <ele>60.2</ele>
        <time>2023-06-04T07:15:02Z</time>
      </trkpt>
      <trkpt lat="47.14947" lon="0.49158">
        <ele>59.3</ele>
        <time>2023-06-04T07:15:05Z</time>
      </trkpt>
      <trkpt lat="47.14934" lon="0.49192">
        <ele>58.4</ele>
        <time>2023-06-04T07:15:08Z</time>
      </trkpt>
      <trkpt lat="47.14917" lon="0.49236">
        <ele>57.3</ele>
        <time>2023-06-04T07:15:12Z</time>
      </trkpt>
      <trkpt lat="47.14899" lon="0.4928">
        <ele>56.2</ele>
        <time>2023-06-04T07:15:16Z</time>
      </trkpt>
      <trkpt lat="47.14886" lon="0.49313">
        <ele>55.2</ele>
        <time>2023-06-04T07:15:19Z</time>
      </trkpt>
      <trkpt lat="47.14857" lon="0.49379">
        <ele>53.2</ele>
        <time>2023-06-04T07:15:25Z</time>
      </trkpt>
      <trkpt lat="47.14848" lon="0.49401">
        <ele>52.7</ele>
        <time>2023-06-04T07:15:27Z</time>
      </trkpt>
      <trkpt lat="47.14829" lon="0.49444">
        <ele>51.8</ele>
        <time>2023-06-04T07:15:31Z</time>
      </trkpt>
      <trkpt lat="47.14821" lon="0.49466">
        <ele>51.6</ele>
        <time>2023-06-04T07:15:33Z</time>
      </trkpt>
      <trkpt lat="47.14819" lon="0.49478">
        <ele>51.6</ele>
        <time>2023-06-04T07:15:34Z</time>
      </trkpt>
      <trkpt lat="47.14819" lon="0.49514">
        <ele>51.5</ele>
        <time>2023-06-04T07:15:37Z</time>
      </trkpt>
      <trkpt lat="47.14821" lon="0.49525">
        <ele>51.5</ele>
        <time>2023-06-04T07:15:38Z</time>
      </trkpt>
      <trkpt lat="47.14826" lon="0.49546">
        <ele>51.5</ele>
        <time>2023-06-04T07:15:40Z</time>
      </trkpt>
      <trkpt lat="47.14832" lon="0.49567">
        <ele>51.7</ele>
        <time>2023-06-04T07:15:42Z</time>
      </trkpt>
      <trkpt lat="47.14843" lon="0.49639">
        <ele>52.1</ele>
        <time>2023-06-04T07:15:49Z</time>
      </trkpt>
      <trkpt lat="47.14841" lon="0.497">
        <ele>52.2</ele>
        <time>2023-06-04T07:15:55Z</time>
      </trkpt>
      <trkpt lat="47.14834" lon="0.49783">
        <ele>52.3</ele>
        <time>2023-06-04T07:16:03Z</time>
      </trkpt>
      <trkpt lat="47.14833" lon="0.49804">
        <ele>52.3</ele>
        <time>2023-06-04T07:16:05Z</time>
      </trkpt>
      <trkpt lat="47.14834" lon="0.49835">
        <ele>52.3</ele>
        <time>2023-06-04T07:16:08Z</time>
      </trkpt>
      <trkpt lat="47.14837" lon="0.49853">
        <ele>52.3</ele>
        <time>2023-06-04T07:16:10Z</time>
      </trkpt>
      <trkpt lat="47.14839" lon="0.49859">
        <ele>52.3</ele>
        <time>2023-06-04T07:16:11Z</time>
      </trkpt>
      <trkpt lat="47.14842" lon="0.49868">
        <ele>52.1</ele>
        <time>2023-06-04T07:16:13Z</time>
      </trkpt>
      <trkpt lat="47.1485" lon="0.4989">
        <ele>51.5</ele>
        <time>2023-06-04T07:16:17Z</time>
      </trkpt>
      <trkpt lat="47.14854" lon="0.49904">
        <ele>51.1</ele>
        <time>2023-06-04T07:16:19Z</time>
      </trkpt>
      <trkpt lat="47.14861" lon="0.49947">
        <ele>50.2</ele>
        <time>2023-06-04T07:16:24Z</time>
      </trkpt>
      <trkpt lat="47.14864" lon="0.49966">
        <ele>50</ele>
        <time>2023-06-04T07:16:26Z</time>
      </trkpt>
      <trkpt lat="47.14869" lon="0.50004">
        <ele>50.1</ele>
        <time>2023-06-04T07:16:30Z</time>
      </trkpt>
      <trkpt lat="47.14873" lon="0.50033">
        <ele>50.4</ele>
        <time>2023-06-04T07:16:33Z</time>
      </trkpt>
      <trkpt lat="47.14881" lon="0.50097">
        <ele>51.1</ele>
        <time>2023-06-04T07:16:40Z</time>
      </trkpt>
      <trkpt lat="47.14881" lon="0.50106">
        <ele>51.1</ele>
        <time>2023-06-04T07:16:41Z</time>
      </trkpt>
      <trkpt lat="47.14876" lon="0.50171">
        <ele>52.2</ele>
        <time>2023-06-04T07:16:48Z</time>
      </trkpt>
      <trkpt lat="47.14875" lon="0.5018">
        <ele>52.3</ele>
        <time>2023-06-04T07:16:49Z</time>
      </trkpt>
      <trkpt lat="47.14872" lon="0.50188">
        <ele>52.5</ele>
        <time>2023-06-04T07:16:50Z</time>
      </trkpt>
      <trkpt lat="47.14866" lon="0.50204">
        <ele>52.7</ele>
        <time>2023-06-04T07:16:52Z</time>
      </trkpt>
      <trkpt lat="47.14861" lon="0.50212">
        <ele>52.8</ele>
        <time>2023-06-04T07:16:53Z</time>
      </trkpt>
      <trkpt lat="47.14857" lon="0.50219">
        <ele>52.9</ele>
        <time>2023-06-04T07:16:54Z</time>
      </trkpt>
      <trkpt lat="47.14845" lon="0.50241">
        <ele>53.3</ele>
        <time>2023-06-04T07:16:57Z</time>
      </trkpt>
      <trkpt lat="47.14842" lon="0.50249">
        <ele>53.4</ele>
        <time>2023-06-04T07:16:58Z</time>
      </trkpt>
      <trkpt lat="47.1484" lon="0.50258">
        <ele>53.4</ele>
        <time>2023-06-04T07:16:59Z</time>
      </trkpt>
      <trkpt lat="47.14836" lon="0.50287">
        <ele>53.6</ele>
        <time>2023-06-04T07:17:02Z</time>
      </trkpt>
      <trkpt lat="47.14836" lon="0.50297">
        <ele>53.6</ele>
        <time>2023-06-04T07:17:03Z</time>
      </trkpt>
      <trkpt lat="47.14838" lon="0.50357">
        <ele>53.7</ele>
        <time>2023-06-04T07:17:09Z</time>
      </trkpt>
      <trkpt lat="47.14842" lon="0.50446">
        <ele>53.5</ele>
        <time>2023-06-04T07:17:18Z</time>
      </trkpt>
      <trkpt lat="47.14842" lon="0.50456">
        <ele>53.5</ele>
        <time>2023-06-04T07:17:19Z</time>
      </trkpt>
      <trkpt lat="47.14847" lon="0.50526">
        <ele>53.3</ele>
        <time>2023-06-04T07:17:26Z</time>
      </trkpt>
      <trkpt lat="47.14856" lon="0.50608">
        <ele>53</ele>
        <time>2023-06-04T07:17:34Z</time>
      </trkpt>
      <trkpt lat="47.14857" lon="0.50619">
        <ele>53</ele>
        <time>2023-06-04T07:17:35Z</time>
      </trkpt>
      <trkpt lat="47.14858" lon="0.50629">
        <ele>52.9</ele>
        <time>2023-06-04T07:17:36Z</time>
      </trkpt>
      <trkpt lat="47.14867" lon="0.50711">
        <ele>52.5</ele>
        <time>2023-06-04T07:17:44Z</time>
      </trkpt>
      <trkpt lat="47.14869" lon="0.50722">
        <ele>52.5</ele>
        <time>2023-06-04T07:17:45Z</time>
      </trkpt>
      <trkpt lat="47.1488" lon="0.50806">
        <ele>52.5</ele>
        <time>2023-06-04T07:17:53Z</time>
      </trkpt>
      <trkpt lat="47.14882" lon="0.50816">
        <ele>52.5</ele>
        <time>2023-06-04T07:17:54Z</time>
      </trkpt>
      <trkpt lat="47.14898" lon="0.50892">
        <ele>52.6</ele>
        <time>2023-06-04T07:18:02Z</time>
      </trkpt>
      <trkpt lat="47.14909" lon="0.50971">
        <ele>52.7</ele>
        <time>2023-06-04T07:18:10Z</time>
      </trkpt>
      <trkpt lat="47.14909" lon="0.51042">
        <ele>52.6</ele>
        <time>2023-06-04T07:18:17Z</time>
      </trkpt>
      <trkpt lat="47.14899" lon="0.51091">
        <ele>52.5</ele>
        <time>2023-06-04T07:18:22Z</time>
      </trkpt>
      <trkpt lat="47.14878" lon="0.51165">
        <ele>52.4</ele>
        <time>2023-06-04T07:18:30Z</time>
      </trkpt>
      <trkpt lat="47.14868" lon="0.51201">
        <ele>52.6</ele>
        <time>2023-06-04T07:18:34Z</time>
      </trkpt>
      <trkpt lat="47.14849" lon="0.51263">
        <ele>53.2</ele>
        <time>2023-06-04T07:18:41Z</time>
      </trkpt>
      <trkpt lat="47.14843" lon="0.5128">
        <ele>53.5</ele>
        <time>2023-06-04T07:18:43Z</time>
      </trkpt>
      <trkpt lat="47.14826" lon="0.51317">
        <ele>54.5</ele>
        <time>2023-06-04T07:18:48Z</time>
      </trkpt>
      <trkpt lat="47.14819" lon="0.51331">
        <ele>54.9</ele>
        <time>2023-06-04T07:18:50Z</time>
      </trkpt>
      <trkpt lat="47.14812" lon="0.51345">
        <ele>55.4</ele>
        <time>2023-06-04T07:18:52Z</time>
      </trkpt>
      <trkpt lat="47.14794" lon="0.5138">
        <ele>57</ele>
        <time>2023-06-04T07:18:58Z</time>
      </trkpt>
      <trkpt lat="47.14791" lon="0.51386">
        <ele>57.4</ele>
        <time>2023-06-04T07:18:59Z</time>
      </trkpt>
      <trkpt lat="47.14783" lon="0.51402">
        <ele>58.4</ele>
        <time>2023-06-04T07:19:02Z</time>
      </trkpt>
      <trkpt lat="47.1478" lon="0.51408">
        <ele>58.7</ele>
        <time>2023-06-04T07:19:03Z</time>
      </trkpt>
      <trkpt lat="47.14775" lon="0.51419">
        <ele>59.4</ele>
        <time>2023-06-04T07:19:05Z</time>
      </trkpt>
      <trkpt lat="47.14773" lon="0.51424">
        <ele>59.8</ele>
        <time>2023-06-04T07:19:06Z</time>
      </trkpt>
      <trkpt lat="47.1477" lon="0.51431">
        <ele>60.1</ele>
        <time>2023-06-04T07:19:07Z</time>
      </trkpt>
      <trkpt lat="47.14764" lon="0.51449">
        <ele>61.2</ele>
        <time>2023-06-04T07:19:10Z</time>
      </trkpt>
      <trkpt lat="47.14756" lon="0.51476">
        <ele>62.4</ele>
        <time>2023-06-04T07:19:14Z</time>
      </trkpt>
      <trkpt lat="47.14754" lon="0.51482">
        <ele>62.6</ele>
        <time>2023-06-04T07:19:15Z</time>
      </trkpt>
      <trkpt lat="47.14749" lon="0.51504">
        <ele>63</ele>
        <time>2023-06-04T07:19:18Z</time>
      </trkpt>
      <trkpt lat="47.14746" lon="0.51529">
        <ele>63</ele>
        <time>2023-06-04T07:19:21Z</time>
      </trkpt>
      <trkpt lat="47.14743" lon="0.516">
        <ele>62</ele>
        <time>2023-06-04T07:19:29Z</time>
      </trkpt>
      <trkpt lat="47.14741" lon="0.51644">
        <ele>60.9</ele>
        <time>2023-06-04T07:19:33Z</time>
      </trkpt>
      <trkpt lat="47.14739" lon="0.51667">
        <ele>60.4</ele>
        <time>2023-06-04T07:19:35Z</time>
      </trkpt>
      <trkpt lat="47.14738" lon="0.51678">
        <ele>60.2</ele>
        <time>2023-06-04T07:19:36Z</time>
      </trkpt>
      <trkpt lat="47.14738" lon="0.51711">
        <ele>59.8</ele>
        <time>2023-06-04T07:19:39Z</time>
      </trkpt>
      <trkpt lat="47.1474" lon="0.51732">
        <ele>59.5</ele>
        <time>2023-06-04T07:19:41Z</time>
      </trkpt>
      <trkpt lat="47.14743" lon="0.51755">
        <ele>59.2</ele>
        <time>2023-06-04T07:19:43Z</time>
      </trkpt>
      <trkpt lat="47.14751" lon="0.51822">
        <ele>57.8</ele>
        <time>2023-06-04T07:19:49Z</time>
      </trkpt>
      <trkpt lat="47.14756" lon="0.51857">
        <ele>56.7</ele>
        <time>2023-06-04T07:19:52Z</time>
      </trkpt>
      <trkpt lat="47.14757" lon="0.51882">
        <ele>55.9</ele>
        <time>2023-06-04T07:19:54Z</time>
      </trkpt>
      <trkpt lat="47.14756" lon="0.51895">
        <ele>55.4</ele>
        <time>2023-06-04T07:19:55Z</time>
      </trkpt>
      <trkpt lat="47.14755" lon="0.51908">
        <ele>55.1</ele>
        <time>2023-06-04T07:19:56Z</time>
      </trkpt>
      <trkpt lat="47.1475" lon="0.51932">
        <ele>54.5</ele>
        <time>2023-06-04T07:19:58Z</time>
      </trkpt>
      <trkpt lat="47.14748" lon="0.51944">
        <ele>54.2</ele>
        <time>2023-06-04T07:19:59Z</time>
      </trkpt>
      <trkpt lat="47.14746" lon="0.51956">
        <ele>54</ele>
        <time>2023-06-04T07:20:00Z</time>
      </trkpt>
      <trkpt lat="47.1474" lon="0.51979">
        <ele>53.5</ele>
        <time>2023-06-04T07:20:02Z</time>
      </trkpt>
      <trkpt lat="47.14729" lon="0.52012">
        <ele>53.1</ele>
        <time>2023-06-04T07:20:05Z</time>
      </trkpt>
      <trkpt lat="47.14725" lon="0.52022">
        <ele>52.9</ele>
        <time>2023-06-04T07:20:06Z</time>
      </trkpt>
      <trkpt lat="47.14694" lon="0.52091">
        <ele>52.3</ele>
        <time>2023-06-04T07:20:13Z</time>
      </trkpt>
      <trkpt lat="47.14665" lon="0.52158">
        <ele>52.2</ele>
        <time>2023-06-04T07:20:20Z</time>
      </trkpt>
      <trkpt lat="47.14661" lon="0.52168">
        <ele>52.2</ele>
        <time>2023-06-04T07:20:21Z</time>
      </trkpt>
      <trkpt lat="47.14628" lon="0.52229">
        <ele>53.3</ele>
        <time>2023-06-04T07:20:28Z</time>
      </trkpt>
      <trkpt lat="47.14593" lon="0.52281">
        <ele>55.6</ele>
        <time>2023-06-04T07:20:35Z</time>
      </trkpt>
      <trkpt lat="47.14582" lon="0.52306">
        <ele>56.8</ele>
        <time>2023-06-04T07:20:38Z</time>
      </trkpt>
      <trkpt lat="47.14579" lon="0.52314">
        <ele>57.2</ele>
        <time>2023-06-04T07:20:39Z</time>
      </trkpt>
      <trkpt lat="47.14577" lon="0.52323">
        <ele>57.6</ele>
        <time>2023-06-04T07:20:40Z</time>
      </trkpt>
      <trkpt lat="47.14575" lon="0.52341">
        <ele>58.4</ele>
        <time>2023-06-04T07:20:42Z</time>
      </trkpt>
      <trkpt lat="47.14576" lon="0.52359">
        <ele>59.2</ele>
        <time>2023-06-04T07:20:44Z</time>
      </trkpt>
      <trkpt lat="47.14577" lon="0.52368">
        <ele>59.6</ele>
        <time>2023-06-04T07:20:45Z</time>
      </trkpt>
      <trkpt lat="47.14578" lon="0.52377">
        <ele>60</ele>
        <time>2023-06-04T07:20:46Z</time>
      </trkpt>
      <trkpt lat="47.14583" lon="0.52403">
        <ele>61</ele>
        <time>2023-06-04T07:20:49Z</time>
      </trkpt>
      <trkpt lat="47.14584" lon="0.52411">
        <ele>61.3</ele>
        <time>2023-06-04T07:20:50Z</time>
      </trkpt>
      <trkpt lat="47.14585" lon="0.5242">
        <ele>61.6</ele>
        <time>2023-06-04T07:20:51Z</time>
      </trkpt>
      <trkpt lat="47.14586" lon="0.52429">
        <ele>61.8</ele>
        <time>2023-06-04T07:20:52Z</time>
      </trkpt>
      <trkpt lat="47.14586" lon="0.52454">
        <ele>62.5</ele>
        <time>2023-06-04T07:20:55Z</time>
      </trkpt>
      <trkpt lat="47.14582" lon="0.52479">
        <ele>63.1</ele>
        <time>2023-06-04T07:20:58Z</time>
      </trkpt>
      <trkpt lat="47.1458" lon="0.52486">
        <ele>63.1</ele>
        <time>2023-06-04T07:20:59Z</time>
      </trkpt>
      <trkpt lat="47.14577" lon="0.52494">
        <ele>63.1</ele>
        <time>2023-06-04T07:21:00Z</time>
      </trkpt>
      <trkpt lat="47.14568" lon="0.52518">
        <ele>63</ele>
        <time>2023-06-04T07:21:03Z</time>
      </trkpt>
      <trkpt lat="47.14555" lon="0.52553">
        <ele>62.8</ele>
        <time>2023-06-04T07:21:07Z</time>
      </trkpt>
      <trkpt lat="47.14544" lon="0.526">
        <ele>62.5</ele>
        <time>2023-06-04T07:21:12Z</time>
      </trkpt>
      <trkpt lat="47.14543" lon="0.5261">
        <ele>62.5</ele>
        <time>2023-06-04T07:21:13Z</time>
      </trkpt>
      <trkpt lat="47.14542" lon="0.52641">
        <ele>62.2</ele>
        <time>2023-06-04T07:21:16Z</time>
      </trkpt>
      <trkpt lat="47.14543" lon="0.52681">
        <ele>61.9</ele>
        <time>2023-06-04T07:21:20Z</time>
      </trkpt>
      <trkpt lat="47.14544" lon="0.52711">
        <ele>61.8</ele>
        <time>2023-06-04T07:21:23Z</time>
      </trkpt>
      <trkpt lat="47.14543" lon="0.5277">
        <ele>62</ele>
        <time>2023-06-04T07:21:29Z</time>
      </trkpt>
      <trkpt lat="47.14532" lon="0.52818">
        <ele>62.3</ele>
        <time>2023-06-04T07:21:34Z</time>
      </trkpt>
      <trkpt lat="47.14504" lon="0.52885">
        <ele>63.2</ele>
        <time>2023-06-04T07:21:42Z</time>
      </trkpt>
      <trkpt lat="47.14495" lon="0.52911">
        <ele>63.5</ele>
        <time>2023-06-04T07:21:45Z</time>
      </trkpt>
      <trkpt lat="47.14489" lon="0.5294">
        <ele>63.6</ele>
        <time>2023-06-04T07:21:48Z</time>
      </trkpt>
      <trkpt lat="47.14489" lon="0.5298">
        <ele>63.9</ele>
        <time>2023-06-04T07:21:52Z</time>
      </trkpt>
      <trkpt lat="47.1449" lon="0.5299">
        <ele>64</ele>
        <time>2023-06-04T07:21:53Z</time>
      </trkpt>
      <trkpt lat="47.14498" lon="0.53035">
        <ele>64.3</ele>
        <time>2023-06-04T07:21:58Z</time>
      </trkpt>
      <trkpt lat="47.1452" lon="0.53094">
        <ele>64.8</ele>
        <time>2023-06-04T07:22:05Z</time>
      </trkpt>
      <trkpt lat="47.14539" lon="0.53132">
        <ele>65.2</ele>
        <time>2023-06-04T07:22:10Z</time>
      </trkpt>
      <trkpt lat="47.14545" lon="0.53149">
        <ele>65.3</ele>
        <time>2023-06-04T07:22:12Z</time>
      </trkpt>
      <trkpt lat="47.14547" lon="0.53157">
        <ele>65.4</ele>
        <time>2023-06-04T07:22:13Z</time>
      </trkpt>
      <trkpt lat="47.1455" lon="0.53175">
        <ele>65.6</ele>
        <time>2023-06-04T07:22:15Z</time>
      </trkpt>
      <trkpt lat="47.14552" lon="0.53193">
        <ele>65.7</ele>
        <time>2023-06-04T07:22:17Z</time>
      </trkpt>
      <trkpt lat="47.14555" lon="0.53239">
        <ele>65.8</ele>
        <time>2023-06-04T07:22:22Z</time>
      </trkpt>
      <trkpt lat="47.14557" lon="0.53257">
        <ele>65.8</ele>
        <time>2023-06-04T07:22:24Z</time>
      </trkpt>
      <trkpt lat="47.14569" lon="0.53319">
        <ele>65.5</ele>
        <time>2023-06-04T07:22:31Z</time>
      </trkpt>
      <trkpt lat="47.14574" lon="0.53344">
        <ele>65.2</ele>
        <time>2023-06-04T07:22:34Z</time>
      </trkpt>
      <trkpt lat="47.14576" lon="0.53362">
        <ele>65</ele>
        <time>2023-06-04T07:22:36Z</time>
      </trkpt>
      <trkpt lat="47.14576" lon="0.53371">
        <ele>64.9</ele>
        <time>2023-06-04T07:22:37Z</time>
      </trkpt>
      <trkpt lat="47.14576" lon="0.53422">
        <ele>63.8</ele>
        <time>2023-06-04T07:22:42Z</time>
      </trkpt>
      <trkpt lat="47.14574" lon="0.53442">
        <ele>63.3</ele>
        <time>2023-06-04T07:22:44Z</time>
      </trkpt>
      <trkpt lat="47.14573" lon="0.53462">
        <ele>62.9</ele>
        <time>2023-06-04T07:22:46Z</time>
      </trkpt>
      <trkpt lat="47.14569" lon="0.53502">
        <ele>61.9</ele>
        <time>2023-06-04T07:22:50Z</time>
      </trkpt>
      <trkpt lat="47.14568" lon="0.53512">
        <ele>61.7</ele>
        <time>2023-06-04T07:22:51Z</time>
      </trkpt>
      <trkpt lat="47.14565" lon="0.53553">
        <ele>60.7</ele>
        <time>2023-06-04T07:22:55Z</time>
      </trkpt>
      <trkpt lat="47.14564" lon="0.53573">
        <ele>60.3</ele>
        <time>2023-06-04T07:22:57Z</time>
      </trkpt>
      <trkpt lat="47.14563" lon="0.53583">
        <ele>60.1</ele>
        <time>2023-06-04T07:22:58Z</time>
      </trkpt>
      <trkpt lat="47.14559" lon="0.53623">
        <ele>59.3</ele>
        <time>2023-06-04T07:23:02Z</time>
      </trkpt>
      <trkpt lat="47.14558" lon="0.53633">
        <ele>59.2</ele>
        <time>2023-06-04T07:23:03Z</time>
      </trkpt>
      <trkpt lat="47.14555" lon="0.53672">
        <ele>58.8</ele>
        <time>2023-06-04T07:23:07Z</time>
      </trkpt>
      <trkpt lat="47.14552" lon="0.53699">
        <ele>58.7</ele>
        <time>2023-06-04T07:23:11Z</time>
      </trkpt>
      <trkpt lat="47.14554" lon="0.53707">
        <ele>58.7</ele>
        <time>2023-06-04T07:23:24Z</time>
      </trkpt>
      <trkpt lat="47.14559" lon="0.53708">
        <ele>58.8</ele>
        <time>2023-06-04T07:23:27Z</time>
      </trkpt>
      <trkpt lat="47.14571" lon="0.53714">
        <ele>59</ele>
        <time>2023-06-04T07:23:31Z</time>
      </trkpt>
      <trkpt lat="47.1458" lon="0.53715">
        <ele>59</ele>
        <time>2023-06-04T07:23:33Z</time>
      </trkpt>
      <trkpt lat="47.14589" lon="0.53716">
        <ele>59.1</ele>
        <time>2023-06-04T07:23:35Z</time>
      </trkpt>
      <trkpt lat="47.146" lon="0.53718">
        <ele>59.2</ele>
        <time>2023-06-04T07:23:37Z</time>
      </trkpt>
      <trkpt lat="47.14607" lon="0.53728">
        <ele>59.2</ele>
        <time>2023-06-04T07:23:39Z</time>
      </trkpt>
      <trkpt lat="47.14611" lon="0.53755">
        <ele>59</ele>
        <time>2023-06-04T07:23:42Z</time>
      </trkpt>
      <trkpt lat="47.14612" lon="0.53763">
        <ele>59</ele>
        <time>2023-06-04T07:23:43Z</time>
      </trkpt>
      <trkpt lat="47.14622" lon="0.53819">
        <ele>59.1</ele>
        <time>2023-06-04T07:23:49Z</time>
      </trkpt>
      <trkpt lat="47.14626" lon="0.53846">
        <ele>59.3</ele>
        <time>2023-06-04T07:23:52Z</time>
      </trkpt>
      <trkpt lat="47.14641" lon="0.5393">
        <ele>59.4</ele>
        <time>2023-06-04T07:24:01Z</time>
      </trkpt>
      <trkpt lat="47.14653" lon="0.53999">
        <ele>59.8</ele>
        <time>2023-06-04T07:24:08Z</time>
      </trkpt>
      <trkpt lat="47.14665" lon="0.54077">
        <ele>59.9</ele>
        <time>2023-06-04T07:24:16Z</time>
      </trkpt>
      <trkpt lat="47.14669" lon="0.54107">
        <ele>59.9</ele>
        <time>2023-06-04T07:24:19Z</time>
      </trkpt>
      <trkpt lat="47.14681" lon="0.54188">
        <ele>59.4</ele>
        <time>2023-06-04T07:24:27Z</time>
      </trkpt>
      <trkpt lat="47.14683" lon="0.54198">
        <ele>59.3</ele>
        <time>2023-06-04T07:24:28Z</time>
      </trkpt>
      <trkpt lat="47.14695" lon="0.54279">
        <ele>59</ele>
        <time>2023-06-04T07:24:36Z</time>
      </trkpt>
      <trkpt lat="47.14698" lon="0.54299">
        <ele>58.9</ele>
        <time>2023-06-04T07:24:38Z</time>
      </trkpt>
      <trkpt lat="47.147" lon="0.5431">
        <ele>58.8</ele>
        <time>2023-06-04T07:24:39Z</time>
      </trkpt>
      <trkpt lat="47.14712" lon="0.54387">
        <ele>58.6</ele>
        <time>2023-06-04T07:24:47Z</time>
      </trkpt>
      <trkpt lat="47.14714" lon="0.54396">
        <ele>58.6</ele>
        <time>2023-06-04T07:24:48Z</time>
      </trkpt>
      <trkpt lat="47.14727" lon="0.5448">
        <ele>58.5</ele>
        <time>2023-06-04T07:24:57Z</time>
      </trkpt>
      <trkpt lat="47.1474" lon="0.54564">
        <ele>59</ele>
        <time>2023-06-04T07:25:06Z</time>
      </trkpt>
      <trkpt lat="47.14742" lon="0.54573">
        <ele>59.1</ele>
        <time>2023-06-04T07:25:07Z</time>
      </trkpt>
      <trkpt lat="47.14743" lon="0.54582">
        <ele>59.2</ele>
        <time>2023-06-04T07:25:08Z</time>
      </trkpt>
      <trkpt lat="47.14754" lon="0.54654">
        <ele>60.2</ele>
        <time>2023-06-04T07:25:16Z</time>
      </trkpt>
      <trkpt lat="47.1476" lon="0.54697">
        <ele>61.1</ele>
        <time>2023-06-04T07:25:21Z</time>
      </trkpt>
      <trkpt lat="47.14767" lon="0.54731">
        <ele>61.8</ele>
        <time>2023-06-04T07:25:25Z</time>
      </trkpt>
      <trkpt lat="47.1477" lon="0.54748">
        <ele>62.1</ele>
        <time>2023-06-04T07:25:27Z</time>
      </trkpt>
      <trkpt lat="47.14784" lon="0.54797">
        <ele>63.1</ele>
        <time>2023-06-04T07:25:33Z</time>
      </trkpt>
      <trkpt lat="47.14786" lon="0.54804">
        <ele>63.3</ele>
        <time>2023-06-04T07:25:34Z</time>
      </trkpt>
      <trkpt lat="47.14802" lon="0.54841">
        <ele>64.1</ele>
        <time>2023-06-04T07:25:39Z</time>
      </trkpt>
      <trkpt lat="47.14809" lon="0.54856">
        <ele>64.4</ele>
        <time>2023-06-04T07:25:41Z</time>
      </trkpt>
      <trkpt lat="47.14824" lon="0.54885">
        <ele>65</ele>
        <time>2023-06-04T07:25:45Z</time>
      </trkpt>
      <trkpt lat="47.1484" lon="0.54913">
        <ele>65.6</ele>
        <time>2023-06-04T07:25:49Z</time>
      </trkpt>
      <trkpt lat="47.14854" lon="0.54942">
        <ele>66.2</ele>
        <time>2023-06-04T07:25:53Z</time>
      </trkpt>
      <trkpt lat="47.14867" lon="0.54971">
        <ele>66.8</ele>
        <time>2023-06-04T07:25:57Z</time>
      </trkpt>
      <trkpt lat="47.14886" lon="0.55006">
        <ele>67.6</ele>
        <time>2023-06-04T07:26:02Z</time>
      </trkpt>
      <trkpt lat="47.14889" lon="0.55013">
        <ele>67.7</ele>
        <time>2023-06-04T07:26:03Z</time>
      </trkpt>
      <trkpt lat="47.14914" lon="0.55062">
        <ele>68.2</ele>
        <time>2023-06-04T07:26:10Z</time>
      </trkpt>
      <trkpt lat="47.14922" lon="0.55078">
        <ele>68.2</ele>
        <time>2023-06-04T07:26:12Z</time>
      </trkpt>
      <trkpt lat="47.14955" lon="0.55147">
        <ele>67.5</ele>
        <time>2023-06-04T07:26:20Z</time>
      </trkpt>
      <trkpt lat="47.14991" lon="0.55218">
        <ele>66.3</ele>
        <time>2023-06-04T07:26:28Z</time>
      </trkpt>
      <trkpt lat="47.14995" lon="0.55227">
        <ele>66.1</ele>
        <time>2023-06-04T07:26:29Z</time>
      </trkpt>
      <trkpt lat="47.15" lon="0.55236">
        <ele>66</ele>
        <time>2023-06-04T07:26:30Z</time>
      </trkpt>
      <trkpt lat="47.15023" lon="0.55283">
        <ele>65.3</ele>
        <time>2023-06-04T07:26:35Z</time>
      </trkpt>
      <trkpt lat="47.15044" lon="0.55323">
        <ele>64.5</ele>
        <time>2023-06-04T07:26:39Z</time>
      </trkpt>
      <trkpt lat="47.15054" lon="0.55343">
        <ele>64</ele>
        <time>2023-06-04T07:26:41Z</time>
      </trkpt>
      <trkpt lat="47.15069" lon="0.55373">
        <ele>63.5</ele>
        <time>2023-06-04T07:26:44Z</time>
      </trkpt>
      <trkpt lat="47.15094" lon="0.55425">
        <ele>62.6</ele>
        <time>2023-06-04T07:26:49Z</time>
      </trkpt>
      <trkpt lat="47.15104" lon="0.55446">
        <ele>62.4</ele>
        <time>2023-06-04T07:26:51Z</time>
      </trkpt>
      <trkpt lat="47.15126" lon="0.555">
        <ele>61.9</ele>
        <time>2023-06-04T07:26:56Z</time>
      </trkpt>
      <trkpt lat="47.15155" lon="0.55573">
        <ele>62.1</ele>
        <time>2023-06-04T07:27:03Z</time>
      </trkpt>
      <trkpt lat="47.15159" lon="0.55583">
        <ele>62.2</ele>
        <time>2023-06-04T07:27:04Z</time>
      </trkpt>
      <trkpt lat="47.15188" lon="0.55655">
        <ele>63.1</ele>
        <time>2023-06-04T07:27:12Z</time>
      </trkpt>
      <trkpt lat="47.15201" lon="0.55688">
        <ele>63.6</ele>
        <time>2023-06-04T07:27:16Z</time>
      </trkpt>
      <trkpt lat="47.15217" lon="0.5573">
        <ele>64.2</ele>
        <time>2023-06-04T07:27:21Z</time>
      </trkpt>
      <trkpt lat="47.15224" lon="0.55746">
        <ele>64.5</ele>
        <time>2023-06-04T07:27:23Z</time>
      </trkpt>
      <trkpt lat="47.1525" lon="0.55813">
        <ele>65.3</ele>
        <time>2023-06-04T07:27:31Z</time>
      </trkpt>
      <trkpt lat="47.15254" lon="0.55821">
        <ele>65.3</ele>
        <time>2023-06-04T07:27:32Z</time>
      </trkpt>
      <trkpt lat="47.15276" lon="0.55868">
        <ele>65.8</ele>
        <time>2023-06-04T07:27:38Z</time>
      </trkpt>
      <trkpt lat="47.15297" lon="0.55904">
        <ele>66.3</ele>
        <time>2023-06-04T07:27:43Z</time>
      </trkpt>
      <trkpt lat="47.1531" lon="0.55924">
        <ele>66.6</ele>
        <time>2023-06-04T07:27:46Z</time>
      </trkpt>
      <trkpt lat="47.15348" lon="0.55972">
        <ele>67.1</ele>
        <time>2023-06-04T07:27:54Z</time>
      </trkpt>
      <trkpt lat="47.15391" lon="0.56026">
        <ele>67.5</ele>
        <time>2023-06-04T07:28:03Z</time>
      </trkpt>
      <trkpt lat="47.15396" lon="0.56032">
        <ele>67.6</ele>
        <time>2023-06-04T07:28:04Z</time>
      </trkpt>
      <trkpt lat="47.1543" lon="0.56075">
        <ele>67.8</ele>
        <time>2023-06-04T07:28:11Z</time>
      </trkpt>
      <trkpt lat="47.15435" lon="0.56081">
        <ele>67.8</ele>
        <time>2023-06-04T07:28:12Z</time>
      </trkpt>
      <trkpt lat="47.15468" lon="0.56122">
        <ele>66.7</ele>
        <time>2023-06-04T07:28:18Z</time>
      </trkpt>
      <trkpt lat="47.15496" lon="0.56156">
        <ele>65.9</ele>
        <time>2023-06-04T07:28:23Z</time>
      </trkpt>
      <trkpt lat="47.15517" lon="0.56187">
        <ele>65.4</ele>
        <time>2023-06-04T07:28:27Z</time>
      </trkpt>
      <trkpt lat="47.15522" lon="0.56196">
        <ele>65.3</ele>
        <time>2023-06-04T07:28:28Z</time>
      </trkpt>
      <trkpt lat="47.15544" lon="0.56241">
        <ele>65.2</ele>
        <time>2023-06-04T07:28:33Z</time>
      </trkpt>
      <trkpt lat="47.15574" lon="0.56311">
        <ele>66.4</ele>
        <time>2023-06-04T07:28:41Z</time>
      </trkpt>
      <trkpt lat="47.15581" lon="0.56327">
        <ele>66.8</ele>
        <time>2023-06-04T07:28:43Z</time>
      </trkpt>
      <trkpt lat="47.156" lon="0.56371">
        <ele>67.8</ele>
        <time>2023-06-04T07:28:49Z</time>
      </trkpt>
      <trkpt lat="47.15604" lon="0.56378">
        <ele>67.9</ele>
        <time>2023-06-04T07:28:50Z</time>
      </trkpt>
      <trkpt lat="47.15615" lon="0.56406">
        <ele>68.4</ele>
        <time>2023-06-04T07:28:54Z</time>
      </trkpt>
      <trkpt lat="47.15628" lon="0.56433">
        <ele>68.8</ele>
        <time>2023-06-04T07:28:58Z</time>
      </trkpt>
      <trkpt lat="47.15636" lon="0.56454">
        <ele>69</ele>
        <time>2023-06-04T07:29:01Z</time>
      </trkpt>
      <trkpt lat="47.15654" lon="0.56497">
        <ele>68.8</ele>
        <time>2023-06-04T07:29:07Z</time>
      </trkpt>
      <trkpt lat="47.15675" lon="0.56546">
        <ele>68.4</ele>
        <time>2023-06-04T07:29:13Z</time>
      </trkpt>
      <trkpt lat="47.15696" lon="0.56597">
        <ele>68</ele>
        <time>2023-06-04T07:29:19Z</time>
      </trkpt>
      <trkpt lat="47.15707" lon="0.56623">
        <ele>67.6</ele>
        <time>2023-06-04T07:29:22Z</time>
      </trkpt>
      <trkpt lat="47.15711" lon="0.56631">
        <ele>67.4</ele>
        <time>2023-06-04T07:29:23Z</time>
      </trkpt>
      <trkpt lat="47.15732" lon="0.56688">
        <ele>66.4</ele>
        <time>2023-06-04T07:29:29Z</time>
      </trkpt>
      <trkpt lat="47.15738" lon="0.56708">
        <ele>66.1</ele>
        <time>2023-06-04T07:29:31Z</time>
      </trkpt>
      <trkpt lat="47.15746" lon="0.56751">
        <ele>65.7</ele>
        <time>2023-06-04T07:29:35Z</time>
      </trkpt>
      <trkpt lat="47.15749" lon="0.56772">
        <ele>65.7</ele>
        <time>2023-06-04T07:29:37Z</time>
      </trkpt>
      <trkpt lat="47.15749" lon="0.56783">
        <ele>65.7</ele>
        <time>2023-06-04T07:29:38Z</time>
      </trkpt>
      <trkpt lat="47.15749" lon="0.56813">
        <ele>65.8</ele>
        <time>2023-06-04T07:29:41Z</time>
      </trkpt>
      <trkpt lat="47.1575" lon="0.56894">
        <ele>66.1</ele>
        <time>2023-06-04T07:29:49Z</time>
      </trkpt>
      <trkpt lat="47.15759" lon="0.56954">
        <ele>66.1</ele>
        <time>2023-06-04T07:29:55Z</time>
      </trkpt>
      <trkpt lat="47.15779" lon="0.5702">
        <ele>66.1</ele>
        <time>2023-06-04T07:30:02Z</time>
      </trkpt>
      <trkpt lat="47.15805" lon="0.57097">
        <ele>66.4</ele>
        <time>2023-06-04T07:30:10Z</time>
      </trkpt>
      <trkpt lat="47.15808" lon="0.57107">
        <ele>66.5</ele>
        <time>2023-06-04T07:30:11Z</time>
      </trkpt>
      <trkpt lat="47.1583" lon="0.57173">
        <ele>67.2</ele>
        <time>2023-06-04T07:30:18Z</time>
      </trkpt>
      <trkpt lat="47.15853" lon="0.57243">
        <ele>67.9</ele>
        <time>2023-06-04T07:30:26Z</time>
      </trkpt>
      <trkpt lat="47.15859" lon="0.57261">
        <ele>68.2</ele>
        <time>2023-06-04T07:30:28Z</time>
      </trkpt>
      <trkpt lat="47.15876" lon="0.57311">
        <ele>68.9</ele>
        <time>2023-06-04T07:30:34Z</time>
      </trkpt>
      <trkpt lat="47.15881" lon="0.57328">
        <ele>69.1</ele>
        <time>2023-06-04T07:30:36Z</time>
      </trkpt>
      <trkpt lat="47.15896" lon="0.57363">
        <ele>69.4</ele>
        <time>2023-06-04T07:30:41Z</time>
      </trkpt>
      <trkpt lat="47.159" lon="0.57369">
        <ele>69.4</ele>
        <time>2023-06-04T07:30:42Z</time>
      </trkpt>
      <trkpt lat="47.15929" lon="0.57416">
        <ele>69.5</ele>
        <time>2023-06-04T07:30:50Z</time>
      </trkpt>
      <trkpt lat="47.1595" lon="0.57445">
        <ele>69.7</ele>
        <time>2023-06-04T07:30:56Z</time>
      </trkpt>
      <trkpt lat="47.15964" lon="0.57461">
        <ele>69.7</ele>
        <time>2023-06-04T07:31:00Z</time>
      </trkpt>
      <trkpt lat="47.15975" lon="0.57471">
        <ele>69.8</ele>
        <time>2023-06-04T07:31:03Z</time>
      </trkpt>
      <trkpt lat="47.16002" lon="0.57492">
        <ele>70.2</ele>
        <time>2023-06-04T07:31:11Z</time>
      </trkpt>
      <trkpt lat="47.16023" lon="0.57505">
        <ele>70.6</ele>
        <time>2023-06-04T07:31:17Z</time>
      </trkpt>
      <trkpt lat="47.16035" lon="0.57512">
        <ele>70.9</ele>
        <time>2023-06-04T07:31:21Z</time>
      </trkpt>
      <trkpt lat="47.16048" lon="0.57515">
        <ele>71.2</ele>
        <time>2023-06-04T07:31:26Z</time>
      </trkpt>
      <trkpt lat="47.16047" lon="0.57513">
        <ele>71.2</ele>
        <time>2023-06-04T07:31:27Z</time>
      </trkpt>
      <trkpt lat="47.16045" lon="0.57512">
        <ele>71.1</ele>
        <time>2023-06-04T07:31:28Z</time>
      </trkpt>
      <trkpt lat="47.16038" lon="0.5751">
        <ele>71</ele>
        <time>2023-06-04T07:31:30Z</time>
      </trkpt>
      <trkpt lat="47.16015" lon="0.57497">
        <ele>70.4</ele>
        <time>2023-06-04T07:31:35Z</time>
      </trkpt>
      <trkpt lat="47.15981" lon="0.57471">
        <ele>69.9</ele>
        <time>2023-06-04T07:31:41Z</time>
      </trkpt>
      <trkpt lat="47.15961" lon="0.5745">
        <ele>69.7</ele>
        <time>2023-06-04T07:31:45Z</time>
      </trkpt>
      <trkpt lat="47.1595" lon="0.57444">
        <ele>69.7</ele>
        <time>2023-06-04T07:31:47Z</time>
      </trkpt>
      <trkpt lat="47.15942" lon="0.57454">
        <ele>69.7</ele>
        <time>2023-06-04T07:31:49Z</time>
      </trkpt>
      <trkpt lat="47.15938" lon="0.57482">
        <ele>69.7</ele>
        <time>2023-06-04T07:31:52Z</time>
      </trkpt>
      <trkpt lat="47.15934" lon="0.575">
        <ele>69.7</ele>
        <time>2023-06-04T07:31:54Z</time>
      </trkpt>
      <trkpt lat="47.15929" lon="0.57529">
        <ele>69.8</ele>
        <time>2023-06-04T07:31:57Z</time>
      </trkpt>
      <trkpt lat="47.1592" lon="0.57586">
        <ele>70.5</ele>
        <time>2023-06-04T07:32:03Z</time>
      </trkpt>
      <trkpt lat="47.15917" lon="0.57605">
        <ele>70.7</ele>
        <time>2023-06-04T07:32:05Z</time>
      </trkpt>
      <trkpt lat="47.15914" lon="0.57624">
        <ele>70.7</ele>
        <time>2023-06-04T07:32:07Z</time>
      </trkpt>
      <trkpt lat="47.15905" lon="0.57703">
        <ele>70</ele>
        <time>2023-06-04T07:32:15Z</time>
      </trkpt>
      <trkpt lat="47.15906" lon="0.57757">
        <ele>69.3</ele>
        <time>2023-06-04T07:32:20Z</time>
      </trkpt>
      <trkpt lat="47.15905" lon="0.57768">
        <ele>69.3</ele>
        <time>2023-06-04T07:32:21Z</time>
      </trkpt>
      <trkpt lat="47.15903" lon="0.57778">
        <ele>69.2</ele>
        <time>2023-06-04T07:32:22Z</time>
      </trkpt>
      <trkpt lat="47.15897" lon="0.57798">
        <ele>69.1</ele>
        <time>2023-06-04T07:32:24Z</time>
      </trkpt>
      <trkpt lat="47.15895" lon="0.57807">
        <ele>69</ele>
        <time>2023-06-04T07:32:25Z</time>
      </trkpt>
      <trkpt lat="47.15874" lon="0.57873">
        <ele>69.2</ele>
        <time>2023-06-04T07:32:32Z</time>
      </trkpt>
      <trkpt lat="47.15869" lon="0.5792">
        <ele>70.2</ele>
        <time>2023-06-04T07:32:37Z</time>
      </trkpt>
      <trkpt lat="47.15867" lon="0.57954">
        <ele>71.1</ele>
        <time>2023-06-04T07:32:41Z</time>
      </trkpt>
      <trkpt lat="47.15867" lon="0.57988">
        <ele>72</ele>
        <time>2023-06-04T07:32:45Z</time>
      </trkpt>
      <trkpt lat="47.15867" lon="0.57996">
        <ele>72.3</ele>
        <time>2023-06-04T07:32:46Z</time>
      </trkpt>
      <trkpt lat="47.15869" lon="0.58044">
        <ele>73.8</ele>
        <time>2023-06-04T07:32:52Z</time>
      </trkpt>
      <trkpt lat="47.1587" lon="0.58061">
        <ele>74.3</ele>
        <time>2023-06-04T07:32:54Z</time>
      </trkpt>
      <trkpt lat="47.1587" lon="0.58069">
        <ele>74.6</ele>
        <time>2023-06-04T07:32:55Z</time>
      </trkpt>
      <trkpt lat="47.15873" lon="0.58103">
        <ele>75.6</ele>
        <time>2023-06-04T07:32:59Z</time>
      </trkpt>
      <trkpt lat="47.15877" lon="0.58145">
        <ele>76.9</ele>
        <time>2023-06-04T07:33:04Z</time>
      </trkpt>
      <trkpt lat="47.1588" lon="0.58194">
        <ele>78.5</ele>
        <time>2023-06-04T07:33:10Z</time>
      </trkpt>
      <trkpt lat="47.15881" lon="0.58211">
        <ele>79.1</ele>
        <time>2023-06-04T07:33:12Z</time>
      </trkpt>
      <trkpt lat="47.15882" lon="0.58219">
        <ele>79.4</ele>
        <time>2023-06-04T07:33:13Z</time>
      </trkpt>
      <trkpt lat="47.15884" lon="0.58259">
        <ele>80.4</ele>
        <time>2023-06-04T07:33:18Z</time>
      </trkpt>
      <trkpt lat="47.15886" lon="0.58283">
        <ele>80.9</ele>
        <time>2023-06-04T07:33:21Z</time>
      </trkpt>
      <trkpt lat="47.15886" lon="0.58291">
        <ele>81.1</ele>
        <time>2023-06-04T07:33:22Z</time>
      </trkpt>
      <trkpt lat="47.15889" lon="0.58322">
        <ele>81.9</ele>
        <time>2023-06-04T07:33:26Z</time>
      </trkpt>
      <trkpt lat="47.1589" lon="0.58338">
        <ele>82.2</ele>
        <time>2023-06-04T07:33:28Z</time>
      </trkpt>
      <trkpt lat="47.15892" lon="0.5836">
        <ele>82.8</ele>
        <time>2023-06-04T07:33:31Z</time>
      </trkpt>
      <trkpt lat="47.15895" lon="0.58374">
        <ele>83.3</ele>
        <time>2023-06-04T07:33:33Z</time>
      </trkpt>
      <trkpt lat="47.15906" lon="0.58418">
        <ele>84.7</ele>
        <time>2023-06-04T07:33:39Z</time>
      </trkpt>
      <trkpt lat="47.15907" lon="0.58425">
        <ele>85</ele>
        <time>2023-06-04T07:33:40Z</time>
      </trkpt>
      <trkpt lat="47.15916" lon="0.5846">
        <ele>86.2</ele>
        <time>2023-06-04T07:33:45Z</time>
      </trkpt>
      <trkpt lat="47.1592" lon="0.58482">
        <ele>86.9</ele>
        <time>2023-06-04T07:33:48Z</time>
      </trkpt>
      <trkpt lat="47.15922" lon="0.58489">
        <ele>87.1</ele>
        <time>2023-06-04T07:33:49Z</time>
      </trkpt>
      <trkpt lat="47.15929" lon="0.58519">
        <ele>88.1</ele>
        <time>2023-06-04T07:33:53Z</time>
      </trkpt>
      <trkpt lat="47.15936" lon="0.58545">
        <ele>89</ele>
        <time>2023-06-04T07:33:57Z</time>
      </trkpt>
      <trkpt lat="47.15938" lon="0.58551">
        <ele>89.2</ele>
        <time>2023-06-04T07:33:58Z</time>
      </trkpt>
      <trkpt lat="47.15945" lon="0.58585">
        <ele>90.2</ele>
        <time>2023-06-04T07:34:03Z</time>
      </trkpt>
      <trkpt lat="47.15947" lon="0.58592">
        <ele>90.4</ele>
        <time>2023-06-04T07:34:04Z</time>
      </trkpt>
      <trkpt lat="47.15952" lon="0.58623">
        <ele>91.1</ele>
        <time>2023-06-04T07:34:08Z</time>
      </trkpt>
      <trkpt lat="47.15953" lon="0.58647">
        <ele>91.2</ele>
        <time>2023-06-04T07:34:11Z</time>
      </trkpt>
      <trkpt lat="47.15949" lon="0.58696">
        <ele>91.2</ele>
        <time>2023-06-04T07:34:17Z</time>
      </trkpt>
      <trkpt lat="47.15948" lon="0.58704">
        <ele>91.2</ele>
        <time>2023-06-04T07:34:18Z</time>
      </trkpt>
      <trkpt lat="47.15938" lon="0.58772">
        <ele>90.7</ele>
        <time>2023-06-04T07:34:26Z</time>
      </trkpt>
      <trkpt lat="47.15929" lon="0.58832">
        <ele>88.9</ele>
        <time>2023-06-04T07:34:32Z</time>
      </trkpt>
      <trkpt lat="47.15925" lon="0.58854">
        <ele>88.6</ele>
        <time>2023-06-04T07:34:34Z</time>
      </trkpt>
      <trkpt lat="47.15922" lon="0.58875">
        <ele>88.8</ele>
        <time>2023-06-04T07:34:36Z</time>
      </trkpt>
      <trkpt lat="47.15918" lon="0.58902">
        <ele>89.5</ele>
        <time>2023-06-04T07:34:39Z</time>
      </trkpt>
      <trkpt lat="47.15911" lon="0.58937">
        <ele>90.5</ele>
        <time>2023-06-04T07:34:44Z</time>
      </trkpt>
      <trkpt lat="47.15908" lon="0.58952">
        <ele>90.7</ele>
        <time>2023-06-04T07:34:46Z</time>
      </trkpt>
      <trkpt lat="47.15902" lon="0.58982">
        <ele>91.1</ele>
        <time>2023-06-04T07:34:50Z</time>
      </trkpt>
      <trkpt lat="47.159" lon="0.58999">
        <ele>91.2</ele>
        <time>2023-06-04T07:34:52Z</time>
      </trkpt>
      <trkpt lat="47.1589" lon="0.59066">
        <ele>91.8</ele>
        <time>2023-06-04T07:35:00Z</time>
      </trkpt>
      <trkpt lat="47.15886" lon="0.59134">
        <ele>91.9</ele>
        <time>2023-06-04T07:35:08Z</time>
      </trkpt>
      <trkpt lat="47.15888" lon="0.59213">
        <ele>91.3</ele>
        <time>2023-06-04T07:35:16Z</time>
      </trkpt>
      <trkpt lat="47.1589" lon="0.59299">
        <ele>90.2</ele>
        <time>2023-06-04T07:35:24Z</time>
      </trkpt>
      <trkpt lat="47.15882" lon="0.59353">
        <ele>89.2</ele>
        <time>2023-06-04T07:35:29Z</time>
      </trkpt>
      <trkpt lat="47.15879" lon="0.59363">
        <ele>88.8</ele>
        <time>2023-06-04T07:35:30Z</time>
      </trkpt>
      <trkpt lat="47.15864" lon="0.59405">
        <ele>86.8</ele>
        <time>2023-06-04T07:35:34Z</time>
      </trkpt>
      <trkpt lat="47.15859" lon="0.59416">
        <ele>86.3</ele>
        <time>2023-06-04T07:35:35Z</time>
      </trkpt>
      <trkpt lat="47.15845" lon="0.5945">
        <ele>84.8</ele>
        <time>2023-06-04T07:35:38Z</time>
      </trkpt>
      <trkpt lat="47.15835" lon="0.59473">
        <ele>84</ele>
        <time>2023-06-04T07:35:40Z</time>
      </trkpt>
      <trkpt lat="47.15825" lon="0.59497">
        <ele>83.7</ele>
        <time>2023-06-04T07:35:42Z</time>
      </trkpt>
      <trkpt lat="47.1582" lon="0.59508">
        <ele>83.9</ele>
        <time>2023-06-04T07:35:43Z</time>
      </trkpt>
      <trkpt lat="47.15815" lon="0.59519">
        <ele>84.1</ele>
        <time>2023-06-04T07:35:44Z</time>
      </trkpt>
      <trkpt lat="47.15806" lon="0.59539">
        <ele>84.4</ele>
        <time>2023-06-04T07:35:46Z</time>
      </trkpt>
      <trkpt lat="47.15794" lon="0.59567">
        <ele>85.2</ele>
        <time>2023-06-04T07:35:49Z</time>
      </trkpt>
      <trkpt lat="47.15781" lon="0.596">
        <ele>86.8</ele>
        <time>2023-06-04T07:35:53Z</time>
      </trkpt>
      <trkpt lat="47.15775" lon="0.59614">
        <ele>87.6</ele>
        <time>2023-06-04T07:35:55Z</time>
      </trkpt>
      <trkpt lat="47.1577" lon="0.59628">
        <ele>88.4</ele>
        <time>2023-06-04T07:35:57Z</time>
      </trkpt>
      <trkpt lat="47.15766" lon="0.5965">
        <ele>89.5</ele>
        <time>2023-06-04T07:36:00Z</time>
      </trkpt>
      <trkpt lat="47.15764" lon="0.59674">
        <ele>90.5</ele>
        <time>2023-06-04T07:36:03Z</time>
      </trkpt>
      <trkpt lat="47.15763" lon="0.59682">
        <ele>90.8</ele>
        <time>2023-06-04T07:36:04Z</time>
      </trkpt>
      <trkpt lat="47.15763" lon="0.59689">
        <ele>91.1</ele>
        <time>2023-06-04T07:36:05Z</time>
      </trkpt>
      <trkpt lat="47.15762" lon="0.59697">
        <ele>91.5</ele>
        <time>2023-06-04T07:36:06Z</time>
      </trkpt>
      <trkpt lat="47.15759" lon="0.59726">
        <ele>92.7</ele>
        <time>2023-06-04T07:36:10Z</time>
      </trkpt>
      <trkpt lat="47.15758" lon="0.59733">
        <ele>93.1</ele>
        <time>2023-06-04T07:36:11Z</time>
      </trkpt>
      <trkpt lat="47.15756" lon="0.59747">
        <ele>93.7</ele>
        <time>2023-06-04T07:36:13Z</time>
      </trkpt>
      <trkpt lat="47.15754" lon="0.59754">
        <ele>94.1</ele>
        <time>2023-06-04T07:36:14Z</time>
      </trkpt>
      <trkpt lat="47.15748" lon="0.59772">
        <ele>95.2</ele>
        <time>2023-06-04T07:36:17Z</time>
      </trkpt>
      <trkpt lat="47.15738" lon="0.59796">
        <ele>96.7</ele>
        <time>2023-06-04T07:36:21Z</time>
      </trkpt>
      <trkpt lat="47.15733" lon="0.59808">
        <ele>97.5</ele>
        <time>2023-06-04T07:36:23Z</time>
      </trkpt>
      <trkpt lat="47.1573" lon="0.59814">
        <ele>97.8</ele>
        <time>2023-06-04T07:36:24Z</time>
      </trkpt>
      <trkpt lat="47.15725" lon="0.59825">
        <ele>98.6</ele>
        <time>2023-06-04T07:36:26Z</time>
      </trkpt>
      <trkpt lat="47.15723" lon="0.59831">
        <ele>98.9</ele>
        <time>2023-06-04T07:36:27Z</time>
      </trkpt>
      <trkpt lat="47.1572" lon="0.59838">
        <ele>99.3</ele>
        <time>2023-06-04T07:36:28Z</time>
      </trkpt>
      <trkpt lat="47.15716" lon="0.59851">
        <ele>100</ele>
        <time>2023-06-04T07:36:30Z</time>
      </trkpt>
      <trkpt lat="47.15714" lon="0.59858">
        <ele>100.4</ele>
        <time>2023-06-04T07:36:31Z</time>
      </trkpt>
      <trkpt lat="47.15711" lon="0.59873">
        <ele>101.2</ele>
        <time>2023-06-04T07:36:33Z</time>
      </trkpt>
      <trkpt lat="47.15709" lon="0.5988">
        <ele>101.6</ele>
        <time>2023-06-04T07:36:34Z</time>
      </trkpt>
      <trkpt lat="47.15706" lon="0.59894">
        <ele>102.3</ele>
        <time>2023-06-04T07:36:36Z</time>
      </trkpt>
      <trkpt lat="47.15705" lon="0.59902">
        <ele>102.7</ele>
        <time>2023-06-04T07:36:37Z</time>
      </trkpt>
      <trkpt lat="47.15702" lon="0.59917">
        <ele>103.3</ele>
        <time>2023-06-04T07:36:39Z</time>
      </trkpt>
      <trkpt lat="47.15701" lon="0.59931">
        <ele>104</ele>
        <time>2023-06-04T07:36:41Z</time>
      </trkpt>
      <trkpt lat="47.15698" lon="0.59967">
        <ele>105.3</ele>
        <time>2023-06-04T07:36:46Z</time>
      </trkpt>
      <trkpt lat="47.15698" lon="0.59974">
        <ele>105.6</ele>
        <time>2023-06-04T07:36:47Z</time>
      </trkpt>
      <trkpt lat="47.15701" lon="0.60025">
        <ele>107.1</ele>
        <time>2023-06-04T07:36:54Z</time>
      </trkpt>
      <trkpt lat="47.15702" lon="0.60033">
        <ele>107.3</ele>
        <time>2023-06-04T07:36:55Z</time>
      </trkpt>
      <trkpt lat="47.15706" lon="0.60065">
        <ele>107.9</ele>
        <time>2023-06-04T07:37:00Z</time>
      </trkpt>
      <trkpt lat="47.15708" lon="0.60078">
        <ele>108.1</ele>
        <time>2023-06-04T07:37:02Z</time>
      </trkpt>
      <trkpt lat="47.1571" lon="0.60097">
        <ele>108.4</ele>
        <time>2023-06-04T07:37:05Z</time>
      </trkpt>
      <trkpt lat="47.15716" lon="0.60138">
        <ele>108.8</ele>
        <time>2023-06-04T07:37:11Z</time>
      </trkpt>
      <trkpt lat="47.15725" lon="0.60206">
        <ele>108.9</ele>
        <time>2023-06-04T07:37:20Z</time>
      </trkpt>
      <trkpt lat="47.15736" lon="0.60288">
        <ele>109</ele>
        <time>2023-06-04T07:37:30Z</time>
      </trkpt>
      <trkpt lat="47.15737" lon="0.60296">
        <ele>109</ele>
        <time>2023-06-04T07:37:31Z</time>
      </trkpt>
      <trkpt lat="47.15749" lon="0.60379">
        <ele>109</ele>
        <time>2023-06-04T07:37:40Z</time>
      </trkpt>
      <trkpt lat="47.15758" lon="0.60451">
        <ele>109.9</ele>
        <time>2023-06-04T07:37:48Z</time>
      </trkpt>
      <trkpt lat="47.15764" lon="0.60497">
        <ele>110.8</ele>
        <time>2023-06-04T07:37:54Z</time>
      </trkpt>
      <trkpt lat="47.15766" lon="0.60512">
        <ele>111.1</ele>
        <time>2023-06-04T07:37:56Z</time>
      </trkpt>
      <trkpt lat="47.15769" lon="0.60536">
        <ele>111.5</ele>
        <time>2023-06-04T07:37:59Z</time>
      </trkpt>
      <trkpt lat="47.15775" lon="0.60576">
        <ele>112.1</ele>
        <time>2023-06-04T07:38:04Z</time>
      </trkpt>
      <trkpt lat="47.15777" lon="0.60593">
        <ele>112.2</ele>
        <time>2023-06-04T07:38:06Z</time>
      </trkpt>
      <trkpt lat="47.15786" lon="0.60662">
        <ele>112.5</ele>
        <time>2023-06-04T07:38:14Z</time>
      </trkpt>
      <trkpt lat="47.15797" lon="0.6074">
        <ele>112.6</ele>
        <time>2023-06-04T07:38:23Z</time>
      </trkpt>
      <trkpt lat="47.15808" lon="0.60819">
        <ele>112.9</ele>
        <time>2023-06-04T07:38:32Z</time>
      </trkpt>
      <trkpt lat="47.15811" lon="0.60837">
        <ele>112.9</ele>
        <time>2023-06-04T07:38:34Z</time>
      </trkpt>
      <trkpt lat="47.15821" lon="0.60916">
        <ele>113.4</ele>
        <time>2023-06-04T07:38:43Z</time>
      </trkpt>
      <trkpt lat="47.15832" lon="0.60996">
        <ele>113.6</ele>
        <time>2023-06-04T07:38:52Z</time>
      </trkpt>
      <trkpt lat="47.15835" lon="0.61014">
        <ele>113.6</ele>
        <time>2023-06-04T07:38:54Z</time>
      </trkpt>
      <trkpt lat="47.15846" lon="0.61097">
        <ele>113.5</ele>
        <time>2023-06-04T07:39:03Z</time>
      </trkpt>
      <trkpt lat="47.15847" lon="0.61107">
        <ele>113.5</ele>
        <time>2023-06-04T07:39:04Z</time>
      </trkpt>
      <trkpt lat="47.15857" lon="0.61178">
        <ele>112.9</ele>
        <time>2023-06-04T07:39:12Z</time>
      </trkpt>
      <trkpt lat="47.1586" lon="0.61195">
        <ele>112.7</ele>
        <time>2023-06-04T07:39:14Z</time>
      </trkpt>
      <trkpt lat="47.15867" lon="0.61253">
        <ele>112.2</ele>
        <time>2023-06-04T07:39:20Z</time>
      </trkpt>
      <trkpt lat="47.15878" lon="0.61334">
        <ele>111.5</ele>
        <time>2023-06-04T07:39:28Z</time>
      </trkpt>
      <trkpt lat="47.15879" lon="0.61344">
        <ele>111.5</ele>
        <time>2023-06-04T07:39:29Z</time>
      </trkpt>
      <trkpt lat="47.15896" lon="0.61424">
        <ele>111.1</ele>
        <time>2023-06-04T07:39:37Z</time>
      </trkpt>
      <trkpt lat="47.15899" lon="0.61433">
        <ele>111.1</ele>
        <time>2023-06-04T07:39:38Z</time>
      </trkpt>
      <trkpt lat="47.15906" lon="0.61462">
        <ele>111</ele>
        <time>2023-06-04T07:39:41Z</time>
      </trkpt>
      <trkpt lat="47.1592" lon="0.61508">
        <ele>110.7</ele>
        <time>2023-06-04T07:39:46Z</time>
      </trkpt>
      <trkpt lat="47.15942" lon="0.61584">
        <ele>110.3</ele>
        <time>2023-06-04T07:39:54Z</time>
      </trkpt>
      <trkpt lat="47.1595" lon="0.61611">
        <ele>110.3</ele>
        <time>2023-06-04T07:39:57Z</time>
      </trkpt>
      <trkpt lat="47.15972" lon="0.61686">
        <ele>109.8</ele>
        <time>2023-06-04T07:40:05Z</time>
      </trkpt>
      <trkpt lat="47.1598" lon="0.61714">
        <ele>109.5</ele>
        <time>2023-06-04T07:40:08Z</time>
      </trkpt>
      <trkpt lat="47.16002" lon="0.61789">
        <ele>108.7</ele>
        <time>2023-06-04T07:40:16Z</time>
      </trkpt>
      <trkpt lat="47.16005" lon="0.61799">
        <ele>108.6</ele>
        <time>2023-06-04T07:40:17Z</time>
      </trkpt>
      <trkpt lat="47.16016" lon="0.61836">
        <ele>108.2</ele>
        <time>2023-06-04T07:40:21Z</time>
      </trkpt>
      <trkpt lat="47.16024" lon="0.61866">
        <ele>107.8</ele>
        <time>2023-06-04T07:40:24Z</time>
      </trkpt>
      <trkpt lat="47.16035" lon="0.61905">
        <ele>107.1</ele>
        <time>2023-06-04T07:40:28Z</time>
      </trkpt>
      <trkpt lat="47.16047" lon="0.61957">
        <ele>106.3</ele>
        <time>2023-06-04T07:40:33Z</time>
      </trkpt>
      <trkpt lat="47.16055" lon="0.62011">
        <ele>106.1</ele>
        <time>2023-06-04T07:40:38Z</time>
      </trkpt>
      <trkpt lat="47.16057" lon="0.62032">
        <ele>106.2</ele>
        <time>2023-06-04T07:40:40Z</time>
      </trkpt>
      <trkpt lat="47.16063" lon="0.62099">
        <ele>106.6</ele>
        <time>2023-06-04T07:40:47Z</time>
      </trkpt>
      <trkpt lat="47.16063" lon="0.62128">
        <ele>106.7</ele>
        <time>2023-06-04T07:40:50Z</time>
      </trkpt>
      <trkpt lat="47.16057" lon="0.62158">
        <ele>106.7</ele>
        <time>2023-06-04T07:40:53Z</time>
      </trkpt>
      <trkpt lat="47.16055" lon="0.62168">
        <ele>106.7</ele>
        <time>2023-06-04T07:40:54Z</time>
      </trkpt>
      <trkpt lat="47.16042" lon="0.62209">
        <ele>107.3</ele>
        <time>2023-06-04T07:40:59Z</time>
      </trkpt>
      <trkpt lat="47.16036" lon="0.62223">
        <ele>107.5</ele>
        <time>2023-06-04T07:41:01Z</time>
      </trkpt>
      <trkpt lat="47.16027" lon="0.62236">
        <ele>107.7</ele>
        <time>2023-06-04T07:41:03Z</time>
      </trkpt>
      <trkpt lat="47.16011" lon="0.6225">
        <ele>108</ele>
        <time>2023-06-04T07:41:06Z</time>
      </trkpt>
      <trkpt lat="47.15997" lon="0.62265">
        <ele>108.2</ele>
        <time>2023-06-04T07:41:09Z</time>
      </trkpt>
      <trkpt lat="47.15992" lon="0.62271">
        <ele>108.2</ele>
        <time>2023-06-04T07:41:10Z</time>
      </trkpt>
      <trkpt lat="47.15979" lon="0.62293">
        <ele>108.2</ele>
        <time>2023-06-04T07:41:13Z</time>
      </trkpt>
      <trkpt lat="47.1597" lon="0.6233">
        <ele>108.5</ele>
        <time>2023-06-04T07:41:17Z</time>
      </trkpt>
      <trkpt lat="47.15968" lon="0.6234">
        <ele>108.6</ele>
        <time>2023-06-04T07:41:18Z</time>
      </trkpt>
      <trkpt lat="47.15955" lon="0.62401">
        <ele>109.1</ele>
        <time>2023-06-04T07:41:24Z</time>
      </trkpt>
      <trkpt lat="47.15952" lon="0.62411">
        <ele>109</ele>
        <time>2023-06-04T07:41:25Z</time>
      </trkpt>
      <trkpt lat="47.15945" lon="0.6244">
        <ele>108.8</ele>
        <time>2023-06-04T07:41:28Z</time>
      </trkpt>
      <trkpt lat="47.15941" lon="0.62458">
        <ele>108.8</ele>
        <time>2023-06-04T07:41:30Z</time>
      </trkpt>
      <trkpt lat="47.15933" lon="0.62495">
        <ele>109</ele>
        <time>2023-06-04T07:41:34Z</time>
      </trkpt>
      <trkpt lat="47.15928" lon="0.62521">
        <ele>109.1</ele>
        <time>2023-06-04T07:41:37Z</time>
      </trkpt>
      <trkpt lat="47.15924" lon="0.62548">
        <ele>108.9</ele>
        <time>2023-06-04T07:41:40Z</time>
      </trkpt>
      <trkpt lat="47.15921" lon="0.62566">
        <ele>108.8</ele>
        <time>2023-06-04T07:41:42Z</time>
      </trkpt>
      <trkpt lat="47.15919" lon="0.62584">
        <ele>108.5</ele>
        <time>2023-06-04T07:41:44Z</time>
      </trkpt>
      <trkpt lat="47.15912" lon="0.6264">
        <ele>108.3</ele>
        <time>2023-06-04T07:41:50Z</time>
      </trkpt>
      <trkpt lat="47.1591" lon="0.62658">
        <ele>108.2</ele>
        <time>2023-06-04T07:41:52Z</time>
      </trkpt>
      <trkpt lat="47.15903" lon="0.6274">
        <ele>109.5</ele>
        <time>2023-06-04T07:42:00Z</time>
      </trkpt>
      <trkpt lat="47.15901" lon="0.62772">
        <ele>109.9</ele>
        <time>2023-06-04T07:42:03Z</time>
      </trkpt>
      <trkpt lat="47.159" lon="0.62805">
        <ele>110.3</ele>
        <time>2023-06-04T07:42:06Z</time>
      </trkpt>
      <trkpt lat="47.15899" lon="0.6284">
        <ele>110.7</ele>
        <time>2023-06-04T07:42:09Z</time>
      </trkpt>
      <trkpt lat="47.15897" lon="0.62874">
        <ele>111.4</ele>
        <time>2023-06-04T07:42:12Z</time>
      </trkpt>
      <trkpt lat="47.15896" lon="0.62897">
        <ele>111.5</ele>
        <time>2023-06-04T07:42:14Z</time>
      </trkpt>
      <trkpt lat="47.15893" lon="0.62919">
        <ele>111.3</ele>
        <time>2023-06-04T07:42:16Z</time>
      </trkpt>
      <trkpt lat="47.15886" lon="0.62983">
        <ele>111.6</ele>
        <time>2023-06-04T07:42:22Z</time>
      </trkpt>
      <trkpt lat="47.15876" lon="0.63064">
        <ele>111.8</ele>
        <time>2023-06-04T07:42:30Z</time>
      </trkpt>
      <trkpt lat="47.15873" lon="0.63084">
        <ele>111.8</ele>
        <time>2023-06-04T07:42:32Z</time>
      </trkpt>
      <trkpt lat="47.15863" lon="0.63165">
        <ele>111.7</ele>
        <time>2023-06-04T07:42:40Z</time>
      </trkpt>
      <trkpt lat="47.15861" lon="0.63176">
        <ele>111.7</ele>
        <time>2023-06-04T07:42:41Z</time>
      </trkpt>
      <trkpt lat="47.15851" lon="0.63258">
        <ele>111.5</ele>
        <time>2023-06-04T07:42:49Z</time>
      </trkpt>
      <trkpt lat="47.1584" lon="0.63342">
        <ele>111.3</ele>
        <time>2023-06-04T07:42:57Z</time>
      </trkpt>
      <trkpt lat="47.15836" lon="0.63374">
        <ele>111.2</ele>
        <time>2023-06-04T07:43:00Z</time>
      </trkpt>
      <trkpt lat="47.15825" lon="0.63459">
        <ele>111.1</ele>
        <time>2023-06-04T07:43:08Z</time>
      </trkpt>
      <trkpt lat="47.1582" lon="0.635">
        <ele>111.1</ele>
        <time>2023-06-04T07:43:12Z</time>
      </trkpt>
      <trkpt lat="47.15808" lon="0.63582">
        <ele>111.1</ele>
        <time>2023-06-04T07:43:20Z</time>
      </trkpt>
      <trkpt lat="47.15806" lon="0.63602">
        <ele>111.1</ele>
        <time>2023-06-04T07:43:22Z</time>
      </trkpt>
      <trkpt lat="47.15795" lon="0.63683">
        <ele>111.7</ele>
        <time>2023-06-04T07:43:30Z</time>
      </trkpt>
      <trkpt lat="47.15791" lon="0.63714">
        <ele>112</ele>
        <time>2023-06-04T07:43:33Z</time>
      </trkpt>
      <trkpt lat="47.15787" lon="0.63744">
        <ele>112.3</ele>
        <time>2023-06-04T07:43:36Z</time>
      </trkpt>
      <trkpt lat="47.15778" lon="0.63826">
        <ele>113</ele>
        <time>2023-06-04T07:43:44Z</time>
      </trkpt>
      <trkpt lat="47.15778" lon="0.63863">
        <ele>113.1</ele>
        <time>2023-06-04T07:43:48Z</time>
      </trkpt>
      <trkpt lat="47.15779" lon="0.63882">
        <ele>113.1</ele>
        <time>2023-06-04T07:43:50Z</time>
      </trkpt>
      <trkpt lat="47.15789" lon="0.63942">
        <ele>112.8</ele>
        <time>2023-06-04T07:43:56Z</time>
      </trkpt>
      <trkpt lat="47.15806" lon="0.64023">
        <ele>112.7</ele>
        <time>2023-06-04T07:44:04Z</time>
      </trkpt>
      <trkpt lat="47.15812" lon="0.64054">
        <ele>112.7</ele>
        <time>2023-06-04T07:44:07Z</time>
      </trkpt>
      <trkpt lat="47.15829" lon="0.64132">
        <ele>113.1</ele>
        <time>2023-06-04T07:44:15Z</time>
      </trkpt>
      <trkpt lat="47.15834" lon="0.64161">
        <ele>113.3</ele>
        <time>2023-06-04T07:44:18Z</time>
      </trkpt>
      <trkpt lat="47.15848" lon="0.64238">
        <ele>113.7</ele>
        <time>2023-06-04T07:44:26Z</time>
      </trkpt>
      <trkpt lat="47.15852" lon="0.64257">
        <ele>113.7</ele>
        <time>2023-06-04T07:44:28Z</time>
      </trkpt>
      <trkpt lat="47.15868" lon="0.64335">
        <ele>113.7</ele>
        <time>2023-06-04T07:44:36Z</time>
      </trkpt>
      <trkpt lat="47.15872" lon="0.64355">
        <ele>113.6</ele>
        <time>2023-06-04T07:44:38Z</time>
      </trkpt>
      <trkpt lat="47.15887" lon="0.64428">
        <ele>113.1</ele>
        <time>2023-06-04T07:44:46Z</time>
      </trkpt>
      <trkpt lat="47.15903" lon="0.64509">
        <ele>112.5</ele>
        <time>2023-06-04T07:44:55Z</time>
      </trkpt>
      <trkpt lat="47.15905" lon="0.64518">
        <ele>112.5</ele>
        <time>2023-06-04T07:44:56Z</time>
      </trkpt>
      <trkpt lat="47.15911" lon="0.64545">
        <ele>112.3</ele>
        <time>2023-06-04T07:44:59Z</time>
      </trkpt>
      <trkpt lat="47.15918" lon="0.64578">
        <ele>112.1</ele>
        <time>2023-06-04T07:45:03Z</time>
      </trkpt>
      <trkpt lat="47.15923" lon="0.64603">
        <ele>112</ele>
        <time>2023-06-04T07:45:06Z</time>
      </trkpt>
      <trkpt lat="47.15931" lon="0.6464">
        <ele>112</ele>
        <time>2023-06-04T07:45:11Z</time>
      </trkpt>
      <trkpt lat="47.15933" lon="0.64654">
        <ele>112.1</ele>
        <time>2023-06-04T07:45:13Z</time>
      </trkpt>
      <trkpt lat="47.15936" lon="0.64675">
        <ele>112.1</ele>
        <time>2023-06-04T07:45:16Z</time>
      </trkpt>
      <trkpt lat="47.15935" lon="0.64693">
        <ele>112</ele>
        <time>2023-06-04T07:45:19Z</time>
      </trkpt>
      <trkpt lat="47.15934" lon="0.64702">
        <ele>112</ele>
        <time>2023-06-04T07:45:23Z</time>
      </trkpt>
      <trkpt lat="47.15932" lon="0.64705">
        <ele>112</ele>
        <time>2023-06-04T07:45:31Z</time>
      </trkpt>
      <trkpt lat="47.15931" lon="0.64707">
        <ele>112</ele>
        <time>2023-06-04T07:45:32Z</time>
      </trkpt>
      <trkpt lat="47.15922" lon="0.64722">
        <ele>111.9</ele>
        <time>2023-06-04T07:45:37Z</time>
      </trkpt>
      <trkpt lat="47.15921" lon="0.64735">
        <ele>111.8</ele>
        <time>2023-06-04T07:45:39Z</time>
      </trkpt>
      <trkpt lat="47.15922" lon="0.64749">
        <ele>111.6</ele>
        <time>2023-06-04T07:45:41Z</time>
      </trkpt>
      <trkpt lat="47.15926" lon="0.64783">
        <ele>111.2</ele>
        <time>2023-06-04T07:45:45Z</time>
      </trkpt>
      <trkpt lat="47.15929" lon="0.64802">
        <ele>111</ele>
        <time>2023-06-04T07:45:47Z</time>
      </trkpt>
      <trkpt lat="47.15931" lon="0.64843">
        <ele>110.6</ele>
        <time>2023-06-04T07:45:51Z</time>
      </trkpt>
      <trkpt lat="47.15929" lon="0.64862">
        <ele>110.5</ele>
        <time>2023-06-04T07:45:53Z</time>
      </trkpt>
      <trkpt lat="47.15917" lon="0.64917">
        <ele>110.3</ele>
        <time>2023-06-04T07:45:59Z</time>
      </trkpt>
      <trkpt lat="47.15902" lon="0.6497">
        <ele>110.2</ele>
        <time>2023-06-04T07:46:05Z</time>
      </trkpt>
      <trkpt lat="47.15897" lon="0.64989">
        <ele>110.2</ele>
        <time>2023-06-04T07:46:07Z</time>
      </trkpt>
      <trkpt lat="47.15877" lon="0.65064">
        <ele>111.1</ele>
        <time>2023-06-04T07:46:15Z</time>
      </trkpt>
      <trkpt lat="47.15859" lon="0.651">
        <ele>112.1</ele>
        <time>2023-06-04T07:46:20Z</time>
      </trkpt>
      <trkpt lat="47.15855" lon="0.65106">
        <ele>112.3</ele>
        <time>2023-06-04T07:46:21Z</time>
      </trkpt>
      <trkpt lat="47.15845" lon="0.65127">
        <ele>112.9</ele>
        <time>2023-06-04T07:46:24Z</time>
      </trkpt>
      <trkpt lat="47.15835" lon="0.65147">
        <ele>113.6</ele>
        <time>2023-06-04T07:46:27Z</time>
      </trkpt>
      <trkpt lat="47.15832" lon="0.65154">
        <ele>113.7</ele>
        <time>2023-06-04T07:46:28Z</time>
      </trkpt>
      <trkpt lat="47.15815" lon="0.65188">
        <ele>114.4</ele>
        <time>2023-06-04T07:46:33Z</time>
      </trkpt>
      <trkpt lat="47.15809" lon="0.65202">
        <ele>114.6</ele>
        <time>2023-06-04T07:46:35Z</time>
      </trkpt>
      <trkpt lat="47.15796" lon="0.6524">
        <ele>115</ele>
        <time>2023-06-04T07:46:40Z</time>
      </trkpt>
      <trkpt lat="47.15793" lon="0.65247">
        <ele>115.1</ele>
        <time>2023-06-04T07:46:41Z</time>
      </trkpt>
      <trkpt lat="47.15774" lon="0.65297">
        <ele>115.4</ele>
        <time>2023-06-04T07:46:48Z</time>
      </trkpt>
      <trkpt lat="47.15772" lon="0.65304">
        <ele>115.4</ele>
        <time>2023-06-04T07:46:49Z</time>
      </trkpt>
      <trkpt lat="47.15754" lon="0.65359">
        <ele>115.2</ele>
        <time>2023-06-04T07:46:56Z</time>
      </trkpt>
      <trkpt lat="47.15737" lon="0.65412">
        <ele>115.1</ele>
        <time>2023-06-04T07:47:03Z</time>
      </trkpt>
      <trkpt lat="47.15715" lon="0.65461">
        <ele>114.5</ele>
        <time>2023-06-04T07:47:10Z</time>
      </trkpt>
      <trkpt lat="47.1569" lon="0.65499">
        <ele>113.7</ele>
        <time>2023-06-04T07:47:16Z</time>
      </trkpt>
      <trkpt lat="47.15682" lon="0.65512">
        <ele>113.3</ele>
        <time>2023-06-04T07:47:18Z</time>
      </trkpt>
      <trkpt lat="47.15663" lon="0.65537">
        <ele>112.8</ele>
        <time>2023-06-04T07:47:22Z</time>
      </trkpt>
      <trkpt lat="47.15659" lon="0.65543">
        <ele>112.8</ele>
        <time>2023-06-04T07:47:23Z</time>
      </trkpt>
      <trkpt lat="47.15648" lon="0.6556">
        <ele>112.8</ele>
        <time>2023-06-04T07:47:26Z</time>
      </trkpt>
      <trkpt lat="47.15646" lon="0.65563">
        <ele>112.8</ele>
        <time>2023-06-04T07:47:27Z</time>
      </trkpt>
      <trkpt lat="47.15645" lon="0.65571">
        <ele>112.8</ele>
        <time>2023-06-04T07:47:30Z</time>
      </trkpt>
      <trkpt lat="47.15646" lon="0.65573">
        <ele>112.7</ele>
        <time>2023-06-04T07:47:31Z</time>
      </trkpt>
      <trkpt lat="47.15657" lon="0.65589">
        <ele>112.6</ele>
        <time>2023-06-04T07:47:35Z</time>
      </trkpt>
      <trkpt lat="47.15678" lon="0.65622">
        <ele>112.8</ele>
        <time>2023-06-04T07:47:41Z</time>
      </trkpt>
      <trkpt lat="47.15694" lon="0.65646">
        <ele>113.1</ele>
        <time>2023-06-04T07:47:45Z</time>
      </trkpt>
      <trkpt lat="47.15705" lon="0.65665">
        <ele>113.3</ele>
        <time>2023-06-04T07:47:48Z</time>
      </trkpt>
      <trkpt lat="47.15726" lon="0.65707">
        <ele>113.8</ele>
        <time>2023-06-04T07:47:54Z</time>
      </trkpt>
      <trkpt lat="47.15729" lon="0.65715">
        <ele>113.9</ele>
        <time>2023-06-04T07:47:55Z</time>
      </trkpt>
      <trkpt lat="47.1573" lon="0.65723">
        <ele>113.9</ele>
        <time>2023-06-04T07:47:56Z</time>
      </trkpt>
      <trkpt lat="47.15734" lon="0.65748">
        <ele>114.2</ele>
        <time>2023-06-04T07:47:59Z</time>
      </trkpt>
      <trkpt lat="47.15727" lon="0.65781">
        <ele>114.4</ele>
        <time>2023-06-04T07:48:03Z</time>
      </trkpt>
      <trkpt lat="47.15721" lon="0.65795">
        <ele>114.5</ele>
        <time>2023-06-04T07:48:05Z</time>
      </trkpt>
      <trkpt lat="47.1571" lon="0.65817">
        <ele>114.5</ele>
        <time>2023-06-04T07:48:08Z</time>
      </trkpt>
      <trkpt lat="47.157" lon="0.65839">
        <ele>114.5</ele>
        <time>2023-06-04T07:48:11Z</time>
      </trkpt>
      <trkpt lat="47.15691" lon="0.65866">
        <ele>114.5</ele>
        <time>2023-06-04T07:48:14Z</time>
      </trkpt>
      <trkpt lat="47.15689" lon="0.65877">
        <ele>114.4</ele>
        <time>2023-06-04T07:48:15Z</time>
      </trkpt>
      <trkpt lat="47.15689" lon="0.65909">
        <ele>114.4</ele>
        <time>2023-06-04T07:48:18Z</time>
      </trkpt>
      <trkpt lat="47.15691" lon="0.65928">
        <ele>114.4</ele>
        <time>2023-06-04T07:48:20Z</time>
      </trkpt>
      <trkpt lat="47.15693" lon="0.65959">
        <ele>114.3</ele>
        <time>2023-06-04T07:48:23Z</time>
      </trkpt>
      <trkpt lat="47.15698" lon="0.6604">
        <ele>114.2</ele>
        <time>2023-06-04T07:48:31Z</time>
      </trkpt>
      <trkpt lat="47.15699" lon="0.6607">
        <ele>114</ele>
        <time>2023-06-04T07:48:34Z</time>
      </trkpt>
      <trkpt lat="47.15702" lon="0.66148">
        <ele>113.7</ele>
        <time>2023-06-04T07:48:42Z</time>
      </trkpt>
      <trkpt lat="47.15707" lon="0.6623">
        <ele>113.5</ele>
        <time>2023-06-04T07:48:50Z</time>
      </trkpt>
      <trkpt lat="47.15708" lon="0.6624">
        <ele>113.4</ele>
        <time>2023-06-04T07:48:51Z</time>
      </trkpt>
      <trkpt lat="47.15711" lon="0.6626">
        <ele>113.3</ele>
        <time>2023-06-04T07:48:53Z</time>
      </trkpt>
      <trkpt lat="47.1572" lon="0.66322">
        <ele>113.2</ele>
        <time>2023-06-04T07:48:59Z</time>
      </trkpt>
      <trkpt lat="47.15739" lon="0.66399">
        <ele>113.3</ele>
        <time>2023-06-04T07:49:07Z</time>
      </trkpt>
      <trkpt lat="47.15747" lon="0.66471">
        <ele>113.4</ele>
        <time>2023-06-04T07:49:14Z</time>
      </trkpt>
      <trkpt lat="47.15752" lon="0.66551">
        <ele>113.7</ele>
        <time>2023-06-04T07:49:22Z</time>
      </trkpt>
      <trkpt lat="47.15753" lon="0.66581">
        <ele>113.8</ele>
        <time>2023-06-04T07:49:25Z</time>
      </trkpt>
      <trkpt lat="47.15754" lon="0.66652">
        <ele>114.2</ele>
        <time>2023-06-04T07:49:32Z</time>
      </trkpt>
      <trkpt lat="47.15754" lon="0.66692">
        <ele>114.2</ele>
        <time>2023-06-04T07:49:36Z</time>
      </trkpt>
      <trkpt lat="47.15756" lon="0.66777">
        <ele>113.4</ele>
        <time>2023-06-04T07:49:44Z</time>
      </trkpt>
      <trkpt lat="47.15765" lon="0.66843">
        <ele>112.9</ele>
        <time>2023-06-04T07:49:50Z</time>
      </trkpt>
      <trkpt lat="47.15767" lon="0.66854">
        <ele>112.8</ele>
        <time>2023-06-04T07:49:51Z</time>
      </trkpt>
      <trkpt lat="47.15781" lon="0.66938">
        <ele>111.9</ele>
        <time>2023-06-04T07:49:59Z</time>
      </trkpt>
      <trkpt lat="47.15785" lon="0.66959">
        <ele>111.6</ele>
        <time>2023-06-04T07:50:01Z</time>
      </trkpt>
      <trkpt lat="47.1579" lon="0.6699">
        <ele>111.5</ele>
        <time>2023-06-04T07:50:04Z</time>
      </trkpt>
      <trkpt lat="47.15798" lon="0.67031">
        <ele>111.4</ele>
        <time>2023-06-04T07:50:08Z</time>
      </trkpt>
      <trkpt lat="47.15808" lon="0.6707">
        <ele>111.2</ele>
        <time>2023-06-04T07:50:12Z</time>
      </trkpt>
      <trkpt lat="47.15829" lon="0.67142">
        <ele>111.2</ele>
        <time>2023-06-04T07:50:20Z</time>
      </trkpt>
      <trkpt lat="47.15852" lon="0.67214">
        <ele>110.8</ele>
        <time>2023-06-04T07:50:28Z</time>
      </trkpt>
      <trkpt lat="47.15858" lon="0.67232">
        <ele>110.8</ele>
        <time>2023-06-04T07:50:30Z</time>
      </trkpt>
      <trkpt lat="47.15876" lon="0.67286">
        <ele>110.8</ele>
        <time>2023-06-04T07:50:36Z</time>
      </trkpt>
      <trkpt lat="47.15889" lon="0.67345">
        <ele>111.2</ele>
        <time>2023-06-04T07:50:42Z</time>
      </trkpt>
      <trkpt lat="47.15892" lon="0.67397">
        <ele>111.2</ele>
        <time>2023-06-04T07:50:47Z</time>
      </trkpt>
      <trkpt lat="47.15886" lon="0.67448">
        <ele>111.7</ele>
        <time>2023-06-04T07:50:52Z</time>
      </trkpt>
      <trkpt lat="47.15868" lon="0.67502">
        <ele>112.3</ele>
        <time>2023-06-04T07:50:58Z</time>
      </trkpt>
      <trkpt lat="47.15855" lon="0.67526">
        <ele>112.5</ele>
        <time>2023-06-04T07:51:01Z</time>
      </trkpt>
      <trkpt lat="47.1584" lon="0.67547">
        <ele>112.6</ele>
        <time>2023-06-04T07:51:04Z</time>
      </trkpt>
      <trkpt lat="47.15823" lon="0.67565">
        <ele>112.7</ele>
        <time>2023-06-04T07:51:07Z</time>
      </trkpt>
      <trkpt lat="47.1581" lon="0.67575">
        <ele>112.7</ele>
        <time>2023-06-04T07:51:09Z</time>
      </trkpt>
      <trkpt lat="47.15769" lon="0.67597">
        <ele>112.7</ele>
        <time>2023-06-04T07:51:15Z</time>
      </trkpt>
      <trkpt lat="47.15713" lon="0.67624">
        <ele>113</ele>
        <time>2023-06-04T07:51:23Z</time>
      </trkpt>
      <trkpt lat="47.15699" lon="0.67631">
        <ele>113.1</ele>
        <time>2023-06-04T07:51:25Z</time>
      </trkpt>
      <trkpt lat="47.15643" lon="0.67657">
        <ele>113.5</ele>
        <time>2023-06-04T07:51:33Z</time>
      </trkpt>
      <trkpt lat="47.15628" lon="0.67664">
        <ele>113.5</ele>
        <time>2023-06-04T07:51:35Z</time>
      </trkpt>
      <trkpt lat="47.15585" lon="0.67692">
        <ele>114</ele>
        <time>2023-06-04T07:51:42Z</time>
      </trkpt>
      <trkpt lat="47.15571" lon="0.67707">
        <ele>114.2</ele>
        <time>2023-06-04T07:51:45Z</time>
      </trkpt>
      <trkpt lat="47.15569" lon="0.67714">
        <ele>114.3</ele>
        <time>2023-06-04T07:51:46Z</time>
      </trkpt>
      <trkpt lat="47.15573" lon="0.67728">
        <ele>113.9</ele>
        <time>2023-06-04T07:51:48Z</time>
      </trkpt>
      <trkpt lat="47.15581" lon="0.67738">
        <ele>113.6</ele>
        <time>2023-06-04T07:51:50Z</time>
      </trkpt>
      <trkpt lat="47.15594" lon="0.6775">
        <ele>113.2</ele>
        <time>2023-06-04T07:51:53Z</time>
      </trkpt>
      <trkpt lat="47.15621" lon="0.6778">
        <ele>112.6</ele>
        <time>2023-06-04T07:51:59Z</time>
      </trkpt>
      <trkpt lat="47.15658" lon="0.67818">
        <ele>112.3</ele>
        <time>2023-06-04T07:52:06Z</time>
      </trkpt>
      <trkpt lat="47.15669" lon="0.67827">
        <ele>112.3</ele>
        <time>2023-06-04T07:52:08Z</time>
      </trkpt>
      <trkpt lat="47.15716" lon="0.6786">
        <ele>112.7</ele>
        <time>2023-06-04T07:52:16Z</time>
      </trkpt>
      <trkpt lat="47.1577" lon="0.67892">
        <ele>113.3</ele>
        <time>2023-06-04T07:52:25Z</time>
      </trkpt>
      <trkpt lat="47.15805" lon="0.67914">
        <ele>113.3</ele>
        <time>2023-06-04T07:52:31Z</time>
      </trkpt>
      <trkpt lat="47.15858" lon="0.67951">
        <ele>113.2</ele>
        <time>2023-06-04T07:52:40Z</time>
      </trkpt>
      <trkpt lat="47.15909" lon="0.67998">
        <ele>112.9</ele>
        <time>2023-06-04T07:52:49Z</time>
      </trkpt>
      <trkpt lat="47.15919" lon="0.68009">
        <ele>112.9</ele>
        <time>2023-06-04T07:52:51Z</time>
      </trkpt>
      <trkpt lat="47.15959" lon="0.68058">
        <ele>112.5</ele>
        <time>2023-06-04T07:52:59Z</time>
      </trkpt>
      <trkpt lat="47.15979" lon="0.68084">
        <ele>112.5</ele>
        <time>2023-06-04T07:53:03Z</time>
      </trkpt>
      <trkpt lat="47.16004" lon="0.68114">
        <ele>112.6</ele>
        <time>2023-06-04T07:53:08Z</time>
      </trkpt>
      <trkpt lat="47.16039" lon="0.68143">
        <ele>112.7</ele>
        <time>2023-06-04T07:53:14Z</time>
      </trkpt>
      <trkpt lat="47.16087" lon="0.68169">
        <ele>113.3</ele>
        <time>2023-06-04T07:53:22Z</time>
      </trkpt>
      <trkpt lat="47.16134" lon="0.68193">
        <ele>114</ele>
        <time>2023-06-04T07:53:30Z</time>
      </trkpt>
      <trkpt lat="47.16152" lon="0.68201">
        <ele>114.3</ele>
        <time>2023-06-04T07:53:33Z</time>
      </trkpt>
      <trkpt lat="47.16185" lon="0.68224">
        <ele>115</ele>
        <time>2023-06-04T07:53:39Z</time>
      </trkpt>
      <trkpt lat="47.16215" lon="0.6826">
        <ele>115.7</ele>
        <time>2023-06-04T07:53:46Z</time>
      </trkpt>
      <trkpt lat="47.16229" lon="0.68283">
        <ele>116.1</ele>
        <time>2023-06-04T07:53:51Z</time>
      </trkpt>
      <trkpt lat="47.16232" lon="0.68288">
        <ele>116.1</ele>
        <time>2023-06-04T07:53:52Z</time>
      </trkpt>
      <trkpt lat="47.16239" lon="0.68305">
        <ele>116.2</ele>
        <time>2023-06-04T07:53:55Z</time>
      </trkpt>
      <trkpt lat="47.16242" lon="0.6831">
        <ele>116.3</ele>
        <time>2023-06-04T07:53:56Z</time>
      </trkpt>
      <trkpt lat="47.16251" lon="0.68327">
        <ele>116.4</ele>
        <time>2023-06-04T07:53:59Z</time>
      </trkpt>
      <trkpt lat="47.16279" lon="0.68362">
        <ele>116.6</ele>
        <time>2023-06-04T07:54:06Z</time>
      </trkpt>
      <trkpt lat="47.16328" lon="0.68407">
        <ele>116.7</ele>
        <time>2023-06-04T07:54:16Z</time>
      </trkpt>
      <trkpt lat="47.16377" lon="0.68441">
        <ele>117.1</ele>
        <time>2023-06-04T07:54:25Z</time>
      </trkpt>
      <trkpt lat="47.16429" lon="0.6846">
        <ele>117.2</ele>
        <time>2023-06-04T07:54:34Z</time>
      </trkpt>
      <trkpt lat="47.16476" lon="0.68475">
        <ele>117.5</ele>
        <time>2023-06-04T07:54:42Z</time>
      </trkpt>
      <trkpt lat="47.1653" lon="0.68494">
        <ele>117.8</ele>
        <time>2023-06-04T07:54:51Z</time>
      </trkpt>
      <trkpt lat="47.16541" lon="0.68498">
        <ele>117.9</ele>
        <time>2023-06-04T07:54:53Z</time>
      </trkpt>
      <trkpt lat="47.16576" lon="0.68509">
        <ele>118.2</ele>
        <time>2023-06-04T07:54:59Z</time>
      </trkpt>
      <trkpt lat="47.1658" lon="0.6851">
        <ele>118.2</ele>
        <time>2023-06-04T07:55:00Z</time>
      </trkpt>
      <trkpt lat="47.16584" lon="0.68512">
        <ele>118.2</ele>
        <time>2023-06-04T07:55:02Z</time>
      </trkpt>
      <trkpt lat="47.16585" lon="0.68512">
        <ele>118.2</ele>
        <time>2023-06-04T07:55:16Z</time>
      </trkpt>
      <trkpt lat="47.16586" lon="0.68514">
        <ele>118.2</ele>
        <time>2023-06-04T07:55:17Z</time>
      </trkpt>
      <trkpt lat="47.166" lon="0.68521">
        <ele>118.3</ele>
        <time>2023-06-04T07:55:22Z</time>
      </trkpt>
      <trkpt lat="47.16624" lon="0.6854">
        <ele>118.6</ele>
        <time>2023-06-04T07:55:28Z</time>
      </trkpt>
      <trkpt lat="47.16648" lon="0.68565">
        <ele>118.9</ele>
        <time>2023-06-04T07:55:34Z</time>
      </trkpt>
      <trkpt lat="47.16657" lon="0.68575">
        <ele>119</ele>
        <time>2023-06-04T07:55:36Z</time>
      </trkpt>
      <trkpt lat="47.16666" lon="0.68585">
        <ele>119.1</ele>
        <time>2023-06-04T07:55:38Z</time>
      </trkpt>
      <trkpt lat="47.16693" lon="0.68616">
        <ele>119.5</ele>
        <time>2023-06-04T07:55:44Z</time>
      </trkpt>
      <trkpt lat="47.16721" lon="0.68642">
        <ele>119.7</ele>
        <time>2023-06-04T07:55:50Z</time>
      </trkpt>
      <trkpt lat="47.16757" lon="0.68665">
        <ele>119.8</ele>
        <time>2023-06-04T07:55:57Z</time>
      </trkpt>
      <trkpt lat="47.16794" lon="0.68688">
        <ele>119.8</ele>
        <time>2023-06-04T07:56:05Z</time>
      </trkpt>
      <trkpt lat="47.16848" lon="0.68721">
        <ele>120</ele>
        <time>2023-06-04T07:56:15Z</time>
      </trkpt>
      <trkpt lat="47.16903" lon="0.68757">
        <ele>120.3</ele>
        <time>2023-06-04T07:56:25Z</time>
      </trkpt>
      <trkpt lat="47.16908" lon="0.68761">
        <ele>120.3</ele>
        <time>2023-06-04T07:56:26Z</time>
      </trkpt>
      <trkpt lat="47.1695" lon="0.68806">
        <ele>120.7</ele>
        <time>2023-06-04T07:56:35Z</time>
      </trkpt>
      <trkpt lat="47.16981" lon="0.68845">
        <ele>121</ele>
        <time>2023-06-04T07:56:42Z</time>
      </trkpt>
      <trkpt lat="47.16994" lon="0.68861">
        <ele>121.2</ele>
        <time>2023-06-04T07:56:45Z</time>
      </trkpt>
      <trkpt lat="47.17023" lon="0.68901">
        <ele>121.8</ele>
        <time>2023-06-04T07:56:52Z</time>
      </trkpt>
      <trkpt lat="47.1703" lon="0.68913">
        <ele>122</ele>
        <time>2023-06-04T07:56:54Z</time>
      </trkpt>
      <trkpt lat="47.17058" lon="0.68975">
        <ele>122.4</ele>
        <time>2023-06-04T07:57:03Z</time>
      </trkpt>
      <trkpt lat="47.17077" lon="0.69026">
        <ele>122.7</ele>
        <time>2023-06-04T07:57:10Z</time>
      </trkpt>
      <trkpt lat="47.17101" lon="0.69091">
        <ele>123.2</ele>
        <time>2023-06-04T07:57:19Z</time>
      </trkpt>
      <trkpt lat="47.17124" lon="0.69162">
        <ele>123.5</ele>
        <time>2023-06-04T07:57:28Z</time>
      </trkpt>
      <trkpt lat="47.1714" lon="0.69225">
        <ele>123.8</ele>
        <time>2023-06-04T07:57:36Z</time>
      </trkpt>
      <trkpt lat="47.17144" lon="0.69241">
        <ele>123.9</ele>
        <time>2023-06-04T07:57:38Z</time>
      </trkpt>
      <trkpt lat="47.17155" lon="0.69273">
        <ele>124</ele>
        <time>2023-06-04T07:57:42Z</time>
      </trkpt>
      <trkpt lat="47.17166" lon="0.69294">
        <ele>124.1</ele>
        <time>2023-06-04T07:57:45Z</time>
      </trkpt>
      <trkpt lat="47.17175" lon="0.69304">
        <ele>124.2</ele>
        <time>2023-06-04T07:57:47Z</time>
      </trkpt>
      <trkpt lat="47.17186" lon="0.69313">
        <ele>124.3</ele>
        <time>2023-06-04T07:57:49Z</time>
      </trkpt>
      <trkpt lat="47.1721" lon="0.69334">
        <ele>124.5</ele>
        <time>2023-06-04T07:57:54Z</time>
      </trkpt>
      <trkpt lat="47.17241" lon="0.69361">
        <ele>124.6</ele>
        <time>2023-06-04T07:58:00Z</time>
      </trkpt>
      <trkpt lat="47.17289" lon="0.69404">
        <ele>124.2</ele>
        <time>2023-06-04T07:58:09Z</time>
      </trkpt>
      <trkpt lat="47.17337" lon="0.69449">
        <ele>123.5</ele>
        <time>2023-06-04T07:58:18Z</time>
      </trkpt>
      <trkpt lat="47.17387" lon="0.69494">
        <ele>123.2</ele>
        <time>2023-06-04T07:58:27Z</time>
      </trkpt>
      <trkpt lat="47.17393" lon="0.69498">
        <ele>123.1</ele>
        <time>2023-06-04T07:58:28Z</time>
      </trkpt>
      <trkpt lat="47.17441" lon="0.69536">
        <ele>122.5</ele>
        <time>2023-06-04T07:58:36Z</time>
      </trkpt>
      <trkpt lat="47.17447" lon="0.69541">
        <ele>122.4</ele>
        <time>2023-06-04T07:58:37Z</time>
      </trkpt>
      <trkpt lat="47.17495" lon="0.69579">
        <ele>121.9</ele>
        <time>2023-06-04T07:58:45Z</time>
      </trkpt>
      <trkpt lat="47.17507" lon="0.69588">
        <ele>121.7</ele>
        <time>2023-06-04T07:58:47Z</time>
      </trkpt>
      <trkpt lat="47.17551" lon="0.69623">
        <ele>121.1</ele>
        <time>2023-06-04T07:58:54Z</time>
      </trkpt>
      <trkpt lat="47.17575" lon="0.69643">
        <ele>121</ele>
        <time>2023-06-04T07:58:58Z</time>
      </trkpt>
      <trkpt lat="47.17627" lon="0.69685">
        <ele>120.7</ele>
        <time>2023-06-04T07:59:07Z</time>
      </trkpt>
      <trkpt lat="47.17645" lon="0.69698">
        <ele>120.7</ele>
        <time>2023-06-04T07:59:10Z</time>
      </trkpt>
      <trkpt lat="47.17691" lon="0.69737">
        <ele>120.3</ele>
        <time>2023-06-04T07:59:18Z</time>
      </trkpt>
      <trkpt lat="47.17741" lon="0.69778">
        <ele>120.3</ele>
        <time>2023-06-04T07:59:27Z</time>
      </trkpt>
      <trkpt lat="47.17746" lon="0.69783">
        <ele>120.3</ele>
        <time>2023-06-04T07:59:28Z</time>
      </trkpt>
      <trkpt lat="47.17794" lon="0.69828">
        <ele>120</ele>
        <time>2023-06-04T07:59:37Z</time>
      </trkpt>
      <trkpt lat="47.17844" lon="0.69873">
        <ele>119.6</ele>
        <time>2023-06-04T07:59:46Z</time>
      </trkpt>
      <trkpt lat="47.17856" lon="0.69883">
        <ele>119.5</ele>
        <time>2023-06-04T07:59:48Z</time>
      </trkpt>
      <trkpt lat="47.17879" lon="0.69904">
        <ele>119.3</ele>
        <time>2023-06-04T07:59:52Z</time>
      </trkpt>
      <trkpt lat="47.17912" lon="0.69934">
        <ele>119.1</ele>
        <time>2023-06-04T07:59:58Z</time>
      </trkpt>
      <trkpt lat="47.17952" lon="0.6997">
        <ele>118.8</ele>
        <time>2023-06-04T08:00:05Z</time>
      </trkpt>
      <trkpt lat="47.17969" lon="0.69985">
        <ele>118.7</ele>
        <time>2023-06-04T08:00:08Z</time>
      </trkpt>
      <trkpt lat="47.1802" lon="0.70032">
        <ele>118.2</ele>
        <time>2023-06-04T08:00:17Z</time>
      </trkpt>
      <trkpt lat="47.18037" lon="0.70048">
        <ele>118.1</ele>
        <time>2023-06-04T08:00:20Z</time>
      </trkpt>
      <trkpt lat="47.18088" lon="0.70094">
        <ele>117.8</ele>
        <time>2023-06-04T08:00:29Z</time>
      </trkpt>
      <trkpt lat="47.18135" lon="0.70136">
        <ele>117.4</ele>
        <time>2023-06-04T08:00:37Z</time>
      </trkpt>
      <trkpt lat="47.1814" lon="0.70141">
        <ele>117.3</ele>
        <time>2023-06-04T08:00:38Z</time>
      </trkpt>
      <trkpt lat="47.18146" lon="0.70146">
        <ele>117.3</ele>
        <time>2023-06-04T08:00:39Z</time>
      </trkpt>
      <trkpt lat="47.18197" lon="0.70192">
        <ele>117.3</ele>
        <time>2023-06-04T08:00:48Z</time>
      </trkpt>
      <trkpt lat="47.18203" lon="0.70197">
        <ele>117.3</ele>
        <time>2023-06-04T08:00:49Z</time>
      </trkpt>
      <trkpt lat="47.18253" lon="0.70243">
        <ele>117.5</ele>
        <time>2023-06-04T08:00:58Z</time>
      </trkpt>
      <trkpt lat="47.18305" lon="0.70283">
        <ele>118</ele>
        <time>2023-06-04T08:01:07Z</time>
      </trkpt>
      <trkpt lat="47.18357" lon="0.70316">
        <ele>118.3</ele>
        <time>2023-06-04T08:01:16Z</time>
      </trkpt>
      <trkpt lat="47.18363" lon="0.7032">
        <ele>118.4</ele>
        <time>2023-06-04T08:01:17Z</time>
      </trkpt>
      <trkpt lat="47.18416" lon="0.70353">
        <ele>118.3</ele>
        <time>2023-06-04T08:01:26Z</time>
      </trkpt>
      <trkpt lat="47.18428" lon="0.70361">
        <ele>118.1</ele>
        <time>2023-06-04T08:01:28Z</time>
      </trkpt>
      <trkpt lat="47.18434" lon="0.70365">
        <ele>118.1</ele>
        <time>2023-06-04T08:01:29Z</time>
      </trkpt>
      <trkpt lat="47.18474" lon="0.70391">
        <ele>117.7</ele>
        <time>2023-06-04T08:01:36Z</time>
      </trkpt>
      <trkpt lat="47.18528" lon="0.70424">
        <ele>117.2</ele>
        <time>2023-06-04T08:01:45Z</time>
      </trkpt>
      <trkpt lat="47.18535" lon="0.70428">
        <ele>117.1</ele>
        <time>2023-06-04T08:01:46Z</time>
      </trkpt>
      <trkpt lat="47.18584" lon="0.70461">
        <ele>116.5</ele>
        <time>2023-06-04T08:01:54Z</time>
      </trkpt>
      <trkpt lat="47.18596" lon="0.70471">
        <ele>116.4</ele>
        <time>2023-06-04T08:01:56Z</time>
      </trkpt>
      <trkpt lat="47.18602" lon="0.70476">
        <ele>116.4</ele>
        <time>2023-06-04T08:01:57Z</time>
      </trkpt>
      <trkpt lat="47.18652" lon="0.70525">
        <ele>115.7</ele>
        <time>2023-06-04T08:02:06Z</time>
      </trkpt>
      <trkpt lat="47.18697" lon="0.70574">
        <ele>115.2</ele>
        <time>2023-06-04T08:02:14Z</time>
      </trkpt>
      <trkpt lat="47.18703" lon="0.70581">
        <ele>115.2</ele>
        <time>2023-06-04T08:02:15Z</time>
      </trkpt>
      <trkpt lat="47.18748" lon="0.70631">
        <ele>114.9</ele>
        <time>2023-06-04T08:02:23Z</time>
      </trkpt>
      <trkpt lat="47.18754" lon="0.70637">
        <ele>114.9</ele>
        <time>2023-06-04T08:02:24Z</time>
      </trkpt>
      <trkpt lat="47.18799" lon="0.70688">
        <ele>114.8</ele>
        <time>2023-06-04T08:02:32Z</time>
      </trkpt>
      <trkpt lat="47.18844" lon="0.70739">
        <ele>114.7</ele>
        <time>2023-06-04T08:02:40Z</time>
      </trkpt>
      <trkpt lat="47.18872" lon="0.70771">
        <ele>114.6</ele>
        <time>2023-06-04T08:02:45Z</time>
      </trkpt>
      <trkpt lat="47.18916" lon="0.70819">
        <ele>114.6</ele>
        <time>2023-06-04T08:02:53Z</time>
      </trkpt>
      <trkpt lat="47.18939" lon="0.70844">
        <ele>114.8</ele>
        <time>2023-06-04T08:02:58Z</time>
      </trkpt>
      <trkpt lat="47.18957" lon="0.70866">
        <ele>115</ele>
        <time>2023-06-04T08:03:03Z</time>
      </trkpt>
      <trkpt lat="47.1896" lon="0.70869">
        <ele>115.1</ele>
        <time>2023-06-04T08:03:04Z</time>
      </trkpt>
      <trkpt lat="47.18976" lon="0.70888">
        <ele>115.6</ele>
        <time>2023-06-04T08:03:10Z</time>
      </trkpt>
      <trkpt lat="47.18977" lon="0.70889">
        <ele>115.7</ele>
        <time>2023-06-04T08:03:11Z</time>
      </trkpt>
      <trkpt lat="47.18984" lon="0.70897">
        <ele>115.7</ele>
        <time>2023-06-04T08:03:16Z</time>
      </trkpt>
      <trkpt lat="47.18988" lon="0.70904">
        <ele>115.6</ele>
        <time>2023-06-04T08:03:18Z</time>
      </trkpt>
      <trkpt lat="47.18993" lon="0.70913">
        <ele>115.5</ele>
        <time>2023-06-04T08:03:20Z</time>
      </trkpt>
      <trkpt lat="47.19018" lon="0.70951">
        <ele>115.5</ele>
        <time>2023-06-04T08:03:27Z</time>
      </trkpt>
      <trkpt lat="47.19038" lon="0.7098">
        <ele>115.6</ele>
        <time>2023-06-04T08:03:32Z</time>
      </trkpt>
      <trkpt lat="47.19064" lon="0.71018">
        <ele>115.9</ele>
        <time>2023-06-04T08:03:38Z</time>
      </trkpt>
      <trkpt lat="47.19104" lon="0.71076">
        <ele>116.3</ele>
        <time>2023-06-04T08:03:47Z</time>
      </trkpt>
      <trkpt lat="47.19134" lon="0.71121">
        <ele>116.5</ele>
        <time>2023-06-04T08:03:54Z</time>
      </trkpt>
      <trkpt lat="47.1917" lon="0.71173">
        <ele>116.4</ele>
        <time>2023-06-04T08:04:02Z</time>
      </trkpt>
      <trkpt lat="47.19205" lon="0.71217">
        <ele>116</ele>
        <time>2023-06-04T08:04:09Z</time>
      </trkpt>
      <trkpt lat="47.19245" lon="0.71265">
        <ele>115.6</ele>
        <time>2023-06-04T08:04:17Z</time>
      </trkpt>
      <trkpt lat="47.19284" lon="0.71318">
        <ele>115.1</ele>
        <time>2023-06-04T08:04:25Z</time>
      </trkpt>
      <trkpt lat="47.19302" lon="0.71348">
        <ele>114.8</ele>
        <time>2023-06-04T08:04:29Z</time>
      </trkpt>
      <trkpt lat="47.19331" lon="0.71393">
        <ele>114.5</ele>
        <time>2023-06-04T08:04:35Z</time>
      </trkpt>
      <trkpt lat="47.19369" lon="0.71454">
        <ele>114.2</ele>
        <time>2023-06-04T08:04:43Z</time>
      </trkpt>
      <trkpt lat="47.19383" lon="0.71476">
        <ele>114.1</ele>
        <time>2023-06-04T08:04:46Z</time>
      </trkpt>
      <trkpt lat="47.19422" lon="0.71536">
        <ele>113.7</ele>
        <time>2023-06-04T08:04:54Z</time>
      </trkpt>
      <trkpt lat="47.19432" lon="0.7155">
        <ele>113.6</ele>
        <time>2023-06-04T08:04:56Z</time>
      </trkpt>
      <trkpt lat="47.19474" lon="0.7161">
        <ele>113.1</ele>
        <time>2023-06-04T08:05:04Z</time>
      </trkpt>
      <trkpt lat="47.19479" lon="0.71618">
        <ele>113.1</ele>
        <time>2023-06-04T08:05:05Z</time>
      </trkpt>
      <trkpt lat="47.19511" lon="0.71665">
        <ele>112.7</ele>
        <time>2023-06-04T08:05:11Z</time>
      </trkpt>
      <trkpt lat="47.19526" lon="0.7169">
        <ele>112.4</ele>
        <time>2023-06-04T08:05:14Z</time>
      </trkpt>
      <trkpt lat="47.19549" lon="0.71732">
        <ele>112</ele>
        <time>2023-06-04T08:05:19Z</time>
      </trkpt>
      <trkpt lat="47.19562" lon="0.71759">
        <ele>111.7</ele>
        <time>2023-06-04T08:05:22Z</time>
      </trkpt>
      <trkpt lat="47.19599" lon="0.71831">
        <ele>110.9</ele>
        <time>2023-06-04T08:05:30Z</time>
      </trkpt>
      <trkpt lat="47.19608" lon="0.71849">
        <ele>110.7</ele>
        <time>2023-06-04T08:05:32Z</time>
      </trkpt>
      <trkpt lat="47.19613" lon="0.71858">
        <ele>110.6</ele>
        <time>2023-06-04T08:05:33Z</time>
      </trkpt>
      <trkpt lat="47.19645" lon="0.71919">
        <ele>110.1</ele>
        <time>2023-06-04T08:05:40Z</time>
      </trkpt>
      <trkpt lat="47.19654" lon="0.71936">
        <ele>110</ele>
        <time>2023-06-04T08:05:42Z</time>
      </trkpt>
      <trkpt lat="47.19695" lon="0.72001">
        <ele>109.3</ele>
        <time>2023-06-04T08:05:50Z</time>
      </trkpt>
      <trkpt lat="47.19731" lon="0.72056">
        <ele>109</ele>
        <time>2023-06-04T08:05:57Z</time>
      </trkpt>
      <trkpt lat="47.19777" lon="0.72112">
        <ele>108.5</ele>
        <time>2023-06-04T08:06:05Z</time>
      </trkpt>
      <trkpt lat="47.19782" lon="0.72118">
        <ele>108.4</ele>
        <time>2023-06-04T08:06:06Z</time>
      </trkpt>
      <trkpt lat="47.1982" lon="0.72157">
        <ele>108</ele>
        <time>2023-06-04T08:06:12Z</time>
      </trkpt>
      <trkpt lat="47.19855" lon="0.72195">
        <ele>108.2</ele>
        <time>2023-06-04T08:06:18Z</time>
      </trkpt>
      <trkpt lat="47.19882" lon="0.72243">
        <ele>108.7</ele>
        <time>2023-06-04T08:06:24Z</time>
      </trkpt>
      <trkpt lat="47.19917" lon="0.72312">
        <ele>109.8</ele>
        <time>2023-06-04T08:06:33Z</time>
      </trkpt>
      <trkpt lat="47.19922" lon="0.72319">
        <ele>109.9</ele>
        <time>2023-06-04T08:06:34Z</time>
      </trkpt>
      <trkpt lat="47.19957" lon="0.72378">
        <ele>111</ele>
        <time>2023-06-04T08:06:43Z</time>
      </trkpt>
      <trkpt lat="47.19981" lon="0.72416">
        <ele>111.6</ele>
        <time>2023-06-04T08:06:49Z</time>
      </trkpt>
      <trkpt lat="47.19992" lon="0.72434">
        <ele>111.9</ele>
        <time>2023-06-04T08:06:52Z</time>
      </trkpt>
      <trkpt lat="47.20003" lon="0.72453">
        <ele>112.1</ele>
        <time>2023-06-04T08:06:55Z</time>
      </trkpt>
      <trkpt lat="47.20025" lon="0.72489">
        <ele>112.4</ele>
        <time>2023-06-04T08:07:01Z</time>
      </trkpt>
      <trkpt lat="47.20063" lon="0.72537">
        <ele>112.8</ele>
        <time>2023-06-04T08:07:10Z</time>
      </trkpt>
      <trkpt lat="47.20087" lon="0.7256">
        <ele>112.9</ele>
        <time>2023-06-04T08:07:15Z</time>
      </trkpt>
      <trkpt lat="47.20113" lon="0.72581">
        <ele>113</ele>
        <time>2023-06-04T08:07:20Z</time>
      </trkpt>
      <trkpt lat="47.20158" lon="0.72613">
        <ele>113.1</ele>
        <time>2023-06-04T08:07:28Z</time>
      </trkpt>
      <trkpt lat="47.2021" lon="0.72643">
        <ele>113.3</ele>
        <time>2023-06-04T08:07:37Z</time>
      </trkpt>
      <trkpt lat="47.20263" lon="0.72673">
        <ele>113</ele>
        <time>2023-06-04T08:07:46Z</time>
      </trkpt>
      <trkpt lat="47.20274" lon="0.72679">
        <ele>113</ele>
        <time>2023-06-04T08:07:48Z</time>
      </trkpt>
      <trkpt lat="47.20329" lon="0.72708">
        <ele>112.7</ele>
        <time>2023-06-04T08:07:57Z</time>
      </trkpt>
      <trkpt lat="47.20385" lon="0.72733">
        <ele>112.3</ele>
        <time>2023-06-04T08:08:06Z</time>
      </trkpt>
      <trkpt lat="47.20391" lon="0.72736">
        <ele>112.2</ele>
        <time>2023-06-04T08:08:07Z</time>
      </trkpt>
      <trkpt lat="47.20447" lon="0.72761">
        <ele>112.1</ele>
        <time>2023-06-04T08:08:16Z</time>
      </trkpt>
      <trkpt lat="47.20499" lon="0.72786">
        <ele>111.7</ele>
        <time>2023-06-04T08:08:24Z</time>
      </trkpt>
      <trkpt lat="47.20506" lon="0.72789">
        <ele>111.6</ele>
        <time>2023-06-04T08:08:25Z</time>
      </trkpt>
      <trkpt lat="47.20531" lon="0.72802">
        <ele>111.4</ele>
        <time>2023-06-04T08:08:29Z</time>
      </trkpt>
      <trkpt lat="47.20549" lon="0.72813">
        <ele>111.3</ele>
        <time>2023-06-04T08:08:32Z</time>
      </trkpt>
      <trkpt lat="47.20599" lon="0.72845">
        <ele>111</ele>
        <time>2023-06-04T08:08:40Z</time>
      </trkpt>
      <trkpt lat="47.20654" lon="0.7288">
        <ele>111</ele>
        <time>2023-06-04T08:08:49Z</time>
      </trkpt>
      <trkpt lat="47.2066" lon="0.72884">
        <ele>111</ele>
        <time>2023-06-04T08:08:50Z</time>
      </trkpt>
      <trkpt lat="47.20709" lon="0.72915">
        <ele>111.4</ele>
        <time>2023-06-04T08:08:58Z</time>
      </trkpt>
      <trkpt lat="47.20726" lon="0.72925">
        <ele>111.4</ele>
        <time>2023-06-04T08:09:01Z</time>
      </trkpt>
      <trkpt lat="47.20753" lon="0.72942">
        <ele>111.6</ele>
        <time>2023-06-04T08:09:06Z</time>
      </trkpt>
      <trkpt lat="47.20767" lon="0.72952">
        <ele>112</ele>
        <time>2023-06-04T08:09:09Z</time>
      </trkpt>
      <trkpt lat="47.20782" lon="0.72961">
        <ele>112.5</ele>
        <time>2023-06-04T08:09:13Z</time>
      </trkpt>
      <trkpt lat="47.20786" lon="0.72961">
        <ele>112.5</ele>
        <time>2023-06-04T08:09:14Z</time>
      </trkpt>
      <trkpt lat="47.208" lon="0.72965">
        <ele>112.2</ele>
        <time>2023-06-04T08:09:17Z</time>
      </trkpt>
      <trkpt lat="47.20804" lon="0.7297">
        <ele>112</ele>
        <time>2023-06-04T08:09:18Z</time>
      </trkpt>
      <trkpt lat="47.20814" lon="0.72991">
        <ele>111.5</ele>
        <time>2023-06-04T08:09:21Z</time>
      </trkpt>
      <trkpt lat="47.20818" lon="0.72998">
        <ele>111.4</ele>
        <time>2023-06-04T08:09:22Z</time>
      </trkpt>
      <trkpt lat="47.20831" lon="0.73029">
        <ele>111.2</ele>
        <time>2023-06-04T08:09:26Z</time>
      </trkpt>
      <trkpt lat="47.20842" lon="0.73059">
        <ele>111</ele>
        <time>2023-06-04T08:09:30Z</time>
      </trkpt>
      <trkpt lat="47.20848" lon="0.73075">
        <ele>110.8</ele>
        <time>2023-06-04T08:09:32Z</time>
      </trkpt>
      <trkpt lat="47.20866" lon="0.73118">
        <ele>110.4</ele>
        <time>2023-06-04T08:09:37Z</time>
      </trkpt>
      <trkpt lat="47.20894" lon="0.7319">
        <ele>109.8</ele>
        <time>2023-06-04T08:09:45Z</time>
      </trkpt>
      <trkpt lat="47.20901" lon="0.73209">
        <ele>109.7</ele>
        <time>2023-06-04T08:09:47Z</time>
      </trkpt>
      <trkpt lat="47.20905" lon="0.73219">
        <ele>109.6</ele>
        <time>2023-06-04T08:09:48Z</time>
      </trkpt>
      <trkpt lat="47.20934" lon="0.73296">
        <ele>109.3</ele>
        <time>2023-06-04T08:09:57Z</time>
      </trkpt>
      <trkpt lat="47.20945" lon="0.73324">
        <ele>109.3</ele>
        <time>2023-06-04T08:10:00Z</time>
      </trkpt>
      <trkpt lat="47.20953" lon="0.73343">
        <ele>109.3</ele>
        <time>2023-06-04T08:10:02Z</time>
      </trkpt>
      <trkpt lat="47.20979" lon="0.73407">
        <ele>109.2</ele>
        <time>2023-06-04T08:10:09Z</time>
      </trkpt>
      <trkpt lat="47.21012" lon="0.73478">
        <ele>109.1</ele>
        <time>2023-06-04T08:10:17Z</time>
      </trkpt>
      <trkpt lat="47.21046" lon="0.73548">
        <ele>109.4</ele>
        <time>2023-06-04T08:10:25Z</time>
      </trkpt>
      <trkpt lat="47.21054" lon="0.73564">
        <ele>109.5</ele>
        <time>2023-06-04T08:10:27Z</time>
      </trkpt>
      <trkpt lat="47.21089" lon="0.73634">
        <ele>109.9</ele>
        <time>2023-06-04T08:10:36Z</time>
      </trkpt>
      <trkpt lat="47.21113" lon="0.73682">
        <ele>109.6</ele>
        <time>2023-06-04T08:10:42Z</time>
      </trkpt>
      <trkpt lat="47.21118" lon="0.73691">
        <ele>109.6</ele>
        <time>2023-06-04T08:10:43Z</time>
      </trkpt>
      <trkpt lat="47.21151" lon="0.73758">
        <ele>109.2</ele>
        <time>2023-06-04T08:10:51Z</time>
      </trkpt>
      <trkpt lat="47.21159" lon="0.73776">
        <ele>109.1</ele>
        <time>2023-06-04T08:10:53Z</time>
      </trkpt>
      <trkpt lat="47.21193" lon="0.73844">
        <ele>108.8</ele>
        <time>2023-06-04T08:11:01Z</time>
      </trkpt>
      <trkpt lat="47.21202" lon="0.73861">
        <ele>108.6</ele>
        <time>2023-06-04T08:11:03Z</time>
      </trkpt>
      <trkpt lat="47.21228" lon="0.73911">
        <ele>108.5</ele>
        <time>2023-06-04T08:11:09Z</time>
      </trkpt>
      <trkpt lat="47.2125" lon="0.73953">
        <ele>108.3</ele>
        <time>2023-06-04T08:11:14Z</time>
      </trkpt>
      <trkpt lat="47.21286" lon="0.74015">
        <ele>108.4</ele>
        <time>2023-06-04T08:11:22Z</time>
      </trkpt>
      <trkpt lat="47.21296" lon="0.74031">
        <ele>108.5</ele>
        <time>2023-06-04T08:11:24Z</time>
      </trkpt>
      <trkpt lat="47.21335" lon="0.74092">
        <ele>108.3</ele>
        <time>2023-06-04T08:11:32Z</time>
      </trkpt>
      <trkpt lat="47.21376" lon="0.74157">
        <ele>107.6</ele>
        <time>2023-06-04T08:11:40Z</time>
      </trkpt>
      <trkpt lat="47.21381" lon="0.74165">
        <ele>107.6</ele>
        <time>2023-06-04T08:11:41Z</time>
      </trkpt>
      <trkpt lat="47.214" lon="0.74194">
        <ele>107.4</ele>
        <time>2023-06-04T08:11:45Z</time>
      </trkpt>
      <trkpt lat="47.21409" lon="0.74208">
        <ele>107.3</ele>
        <time>2023-06-04T08:11:47Z</time>
      </trkpt>
      <trkpt lat="47.21446" lon="0.74266">
        <ele>107.4</ele>
        <time>2023-06-04T08:11:55Z</time>
      </trkpt>
      <trkpt lat="47.21451" lon="0.74274">
        <ele>107.5</ele>
        <time>2023-06-04T08:11:56Z</time>
      </trkpt>
      <trkpt lat="47.21483" lon="0.74323">
        <ele>108.3</ele>
        <time>2023-06-04T08:12:03Z</time>
      </trkpt>
      <trkpt lat="47.21501" lon="0.74349">
        <ele>108.8</ele>
        <time>2023-06-04T08:12:07Z</time>
      </trkpt>
      <trkpt lat="47.21518" lon="0.74377">
        <ele>109.2</ele>
        <time>2023-06-04T08:12:11Z</time>
      </trkpt>
      <trkpt lat="47.21531" lon="0.744">
        <ele>109.4</ele>
        <time>2023-06-04T08:12:14Z</time>
      </trkpt>
      <trkpt lat="47.21549" lon="0.74439">
        <ele>109.6</ele>
        <time>2023-06-04T08:12:19Z</time>
      </trkpt>
      <trkpt lat="47.21569" lon="0.74503">
        <ele>109.7</ele>
        <time>2023-06-04T08:12:26Z</time>
      </trkpt>
      <trkpt lat="47.21591" lon="0.74569">
        <ele>109.5</ele>
        <time>2023-06-04T08:12:33Z</time>
      </trkpt>
      <trkpt lat="47.21597" lon="0.74588">
        <ele>109.3</ele>
        <time>2023-06-04T08:12:35Z</time>
      </trkpt>
      <trkpt lat="47.21616" lon="0.74645">
        <ele>108.8</ele>
        <time>2023-06-04T08:12:41Z</time>
      </trkpt>
      <trkpt lat="47.21625" lon="0.74673">
        <ele>108.5</ele>
        <time>2023-06-04T08:12:44Z</time>
      </trkpt>
      <trkpt lat="47.2164" lon="0.74718">
        <ele>108.1</ele>
        <time>2023-06-04T08:12:49Z</time>
      </trkpt>
      <trkpt lat="47.21643" lon="0.74727">
        <ele>108</ele>
        <time>2023-06-04T08:12:50Z</time>
      </trkpt>
      <trkpt lat="47.21669" lon="0.74803">
        <ele>107.5</ele>
        <time>2023-06-04T08:12:58Z</time>
      </trkpt>
      <trkpt lat="47.21676" lon="0.74821">
        <ele>107.4</ele>
        <time>2023-06-04T08:13:00Z</time>
      </trkpt>
      <trkpt lat="47.21702" lon="0.74896">
        <ele>107</ele>
        <time>2023-06-04T08:13:08Z</time>
      </trkpt>
      <trkpt lat="47.21705" lon="0.74905">
        <ele>107</ele>
        <time>2023-06-04T08:13:09Z</time>
      </trkpt>
      <trkpt lat="47.21733" lon="0.74979">
        <ele>106.8</ele>
        <time>2023-06-04T08:13:17Z</time>
      </trkpt>
      <trkpt lat="47.2174" lon="0.74998">
        <ele>106.8</ele>
        <time>2023-06-04T08:13:19Z</time>
      </trkpt>
      <trkpt lat="47.2177" lon="0.7507">
        <ele>106.7</ele>
        <time>2023-06-04T08:13:27Z</time>
      </trkpt>
      <trkpt lat="47.21781" lon="0.75097">
        <ele>106.6</ele>
        <time>2023-06-04T08:13:30Z</time>
      </trkpt>
      <trkpt lat="47.21815" lon="0.75166">
        <ele>106.2</ele>
        <time>2023-06-04T08:13:38Z</time>
      </trkpt>
      <trkpt lat="47.21824" lon="0.75183">
        <ele>106.1</ele>
        <time>2023-06-04T08:13:40Z</time>
      </trkpt>
      <trkpt lat="47.21848" lon="0.75224">
        <ele>105.5</ele>
        <time>2023-06-04T08:13:45Z</time>
      </trkpt>
      <trkpt lat="47.21858" lon="0.75238">
        <ele>105.3</ele>
        <time>2023-06-04T08:13:47Z</time>
      </trkpt>
      <trkpt lat="47.21903" lon="0.75295">
        <ele>104.5</ele>
        <time>2023-06-04T08:13:55Z</time>
      </trkpt>
      <trkpt lat="47.21915" lon="0.75309">
        <ele>104.3</ele>
        <time>2023-06-04T08:13:57Z</time>
      </trkpt>
      <trkpt lat="47.21962" lon="0.75351">
        <ele>103.6</ele>
        <time>2023-06-04T08:14:04Z</time>
      </trkpt>
      <trkpt lat="47.21989" lon="0.75372">
        <ele>103.3</ele>
        <time>2023-06-04T08:14:08Z</time>
      </trkpt>
      <trkpt lat="47.22024" lon="0.754">
        <ele>102.5</ele>
        <time>2023-06-04T08:14:13Z</time>
      </trkpt>
      <trkpt lat="47.22031" lon="0.75406">
        <ele>102.3</ele>
        <time>2023-06-04T08:14:14Z</time>
      </trkpt>
      <trkpt lat="47.22073" lon="0.75435">
        <ele>101.4</ele>
        <time>2023-06-04T08:14:20Z</time>
      </trkpt>
      <trkpt lat="47.22106" lon="0.75461">
        <ele>100.2</ele>
        <time>2023-06-04T08:14:25Z</time>
      </trkpt>
      <trkpt lat="47.22126" lon="0.7548">
        <ele>99.5</ele>
        <time>2023-06-04T08:14:28Z</time>
      </trkpt>
      <trkpt lat="47.22133" lon="0.75486">
        <ele>99.2</ele>
        <time>2023-06-04T08:14:29Z</time>
      </trkpt>
      <trkpt lat="47.22159" lon="0.75514">
        <ele>98.2</ele>
        <time>2023-06-04T08:14:33Z</time>
      </trkpt>
      <trkpt lat="47.22165" lon="0.75521">
        <ele>97.9</ele>
        <time>2023-06-04T08:14:34Z</time>
      </trkpt>
      <trkpt lat="47.22183" lon="0.75543">
        <ele>97.1</ele>
        <time>2023-06-04T08:14:37Z</time>
      </trkpt>
      <trkpt lat="47.22197" lon="0.75558">
        <ele>96.5</ele>
        <time>2023-06-04T08:14:39Z</time>
      </trkpt>
      <trkpt lat="47.22211" lon="0.75573">
        <ele>95.7</ele>
        <time>2023-06-04T08:14:41Z</time>
      </trkpt>
      <trkpt lat="47.22232" lon="0.75597">
        <ele>94.6</ele>
        <time>2023-06-04T08:14:44Z</time>
      </trkpt>
      <trkpt lat="47.22238" lon="0.75606">
        <ele>94.3</ele>
        <time>2023-06-04T08:14:45Z</time>
      </trkpt>
      <trkpt lat="47.22262" lon="0.75642">
        <ele>93.1</ele>
        <time>2023-06-04T08:14:49Z</time>
      </trkpt>
      <trkpt lat="47.22273" lon="0.75662">
        <ele>92.7</ele>
        <time>2023-06-04T08:14:51Z</time>
      </trkpt>
      <trkpt lat="47.22279" lon="0.75672">
        <ele>92.5</ele>
        <time>2023-06-04T08:14:52Z</time>
      </trkpt>
      <trkpt lat="47.22298" lon="0.757">
        <ele>92.2</ele>
        <time>2023-06-04T08:14:55Z</time>
      </trkpt>
      <trkpt lat="47.22325" lon="0.75746">
        <ele>92.2</ele>
        <time>2023-06-04T08:15:00Z</time>
      </trkpt>
      <trkpt lat="47.22354" lon="0.75802">
        <ele>93.7</ele>
        <time>2023-06-04T08:15:06Z</time>
      </trkpt>
      <trkpt lat="47.22357" lon="0.75811">
        <ele>94.1</ele>
        <time>2023-06-04T08:15:07Z</time>
      </trkpt>
      <trkpt lat="47.2236" lon="0.7582">
        <ele>94.5</ele>
        <time>2023-06-04T08:15:08Z</time>
      </trkpt>
      <trkpt lat="47.22368" lon="0.75843">
        <ele>95.7</ele>
        <time>2023-06-04T08:15:11Z</time>
      </trkpt>
      <trkpt lat="47.22373" lon="0.75858">
        <ele>96.4</ele>
        <time>2023-06-04T08:15:13Z</time>
      </trkpt>
      <trkpt lat="47.22377" lon="0.75872">
        <ele>96.9</ele>
        <time>2023-06-04T08:15:15Z</time>
      </trkpt>
      <trkpt lat="47.2238" lon="0.75879">
        <ele>97.1</ele>
        <time>2023-06-04T08:15:16Z</time>
      </trkpt>
      <trkpt lat="47.22384" lon="0.75894">
        <ele>97.6</ele>
        <time>2023-06-04T08:15:18Z</time>
      </trkpt>
      <trkpt lat="47.22386" lon="0.75901">
        <ele>97.7</ele>
        <time>2023-06-04T08:15:19Z</time>
      </trkpt>
      <trkpt lat="47.2239" lon="0.75917">
        <ele>98</ele>
        <time>2023-06-04T08:15:21Z</time>
      </trkpt>
      <trkpt lat="47.22396" lon="0.75949">
        <ele>98.5</ele>
        <time>2023-06-04T08:15:25Z</time>
      </trkpt>
      <trkpt lat="47.22398" lon="0.75957">
        <ele>98.6</ele>
        <time>2023-06-04T08:15:26Z</time>
      </trkpt>
      <trkpt lat="47.22412" lon="0.76033">
        <ele>99.6</ele>
        <time>2023-06-04T08:15:35Z</time>
      </trkpt>
      <trkpt lat="47.22421" lon="0.76074">
        <ele>100.1</ele>
        <time>2023-06-04T08:15:40Z</time>
      </trkpt>
      <trkpt lat="47.22426" lon="0.76107">
        <ele>100.3</ele>
        <time>2023-06-04T08:15:44Z</time>
      </trkpt>
      <trkpt lat="47.22434" lon="0.76148">
        <ele>100.6</ele>
        <time>2023-06-04T08:15:49Z</time>
      </trkpt>
      <trkpt lat="47.22439" lon="0.76171">
        <ele>100.8</ele>
        <time>2023-06-04T08:15:52Z</time>
      </trkpt>
      <trkpt lat="47.22452" lon="0.76225">
        <ele>101.1</ele>
        <time>2023-06-04T08:15:59Z</time>
      </trkpt>
      <trkpt lat="47.22472" lon="0.76285">
        <ele>101.4</ele>
        <time>2023-06-04T08:16:07Z</time>
      </trkpt>
      <trkpt lat="47.22497" lon="0.7633">
        <ele>101.6</ele>
        <time>2023-06-04T08:16:14Z</time>
      </trkpt>
      <trkpt lat="47.22536" lon="0.76386">
        <ele>101.6</ele>
        <time>2023-06-04T08:16:23Z</time>
      </trkpt>
      <trkpt lat="47.22571" lon="0.76438">
        <ele>100.9</ele>
        <time>2023-06-04T08:16:31Z</time>
      </trkpt>
      <trkpt lat="47.226" lon="0.7649">
        <ele>100.2</ele>
        <time>2023-06-04T08:16:38Z</time>
      </trkpt>
      <trkpt lat="47.22632" lon="0.76523">
        <ele>100.1</ele>
        <time>2023-06-04T08:16:44Z</time>
      </trkpt>
      <trkpt lat="47.22637" lon="0.76528">
        <ele>100.1</ele>
        <time>2023-06-04T08:16:45Z</time>
      </trkpt>
      <trkpt lat="47.22681" lon="0.76569">
        <ele>99.8</ele>
        <time>2023-06-04T08:16:53Z</time>
      </trkpt>
      <trkpt lat="47.22695" lon="0.76592">
        <ele>99.8</ele>
        <time>2023-06-04T08:16:57Z</time>
      </trkpt>
      <trkpt lat="47.227" lon="0.76595">
        <ele>99.8</ele>
        <time>2023-06-04T08:16:59Z</time>
      </trkpt>
      <trkpt lat="47.22704" lon="0.76592">
        <ele>99.7</ele>
        <time>2023-06-04T08:17:00Z</time>
      </trkpt>
      <trkpt lat="47.22713" lon="0.76578">
        <ele>99.7</ele>
        <time>2023-06-04T08:17:03Z</time>
      </trkpt>
      <trkpt lat="47.22717" lon="0.76573">
        <ele>99.7</ele>
        <time>2023-06-04T08:17:04Z</time>
      </trkpt>
      <trkpt lat="47.22735" lon="0.76556">
        <ele>99.5</ele>
        <time>2023-06-04T08:17:08Z</time>
      </trkpt>
      <trkpt lat="47.2274" lon="0.76552">
        <ele>99.4</ele>
        <time>2023-06-04T08:17:09Z</time>
      </trkpt>
      <trkpt lat="47.22777" lon="0.76525">
        <ele>99.2</ele>
        <time>2023-06-04T08:17:16Z</time>
      </trkpt>
      <trkpt lat="47.22792" lon="0.76514">
        <ele>99.2</ele>
        <time>2023-06-04T08:17:19Z</time>
      </trkpt>
      <trkpt lat="47.22798" lon="0.7651">
        <ele>99.2</ele>
        <time>2023-06-04T08:17:20Z</time>
      </trkpt>
      <trkpt lat="47.22808" lon="0.76502">
        <ele>99.2</ele>
        <time>2023-06-04T08:17:22Z</time>
      </trkpt>
      <trkpt lat="47.22834" lon="0.76473">
        <ele>99.5</ele>
        <time>2023-06-04T08:17:28Z</time>
      </trkpt>
      <trkpt lat="47.22862" lon="0.7643">
        <ele>99.3</ele>
        <time>2023-06-04T08:17:35Z</time>
      </trkpt>
      <trkpt lat="47.22888" lon="0.76391">
        <ele>99.4</ele>
        <time>2023-06-04T08:17:41Z</time>
      </trkpt>
      <trkpt lat="47.229" lon="0.76372">
        <ele>99.4</ele>
        <time>2023-06-04T08:17:44Z</time>
      </trkpt>
      <trkpt lat="47.22939" lon="0.7631">
        <ele>99.2</ele>
        <time>2023-06-04T08:17:53Z</time>
      </trkpt>
      <trkpt lat="47.22943" lon="0.76304">
        <ele>99.2</ele>
        <time>2023-06-04T08:17:54Z</time>
      </trkpt>
      <trkpt lat="47.22961" lon="0.76279">
        <ele>99.1</ele>
        <time>2023-06-04T08:17:58Z</time>
      </trkpt>
      <trkpt lat="47.22972" lon="0.76272">
        <ele>98.9</ele>
        <time>2023-06-04T08:18:00Z</time>
      </trkpt>
      <trkpt lat="47.22979" lon="0.76252">
        <ele>98.7</ele>
        <time>2023-06-04T08:18:03Z</time>
      </trkpt>
      <trkpt lat="47.22988" lon="0.76232">
        <ele>98.6</ele>
        <time>2023-06-04T08:18:06Z</time>
      </trkpt>
      <trkpt lat="47.22991" lon="0.76226">
        <ele>98.5</ele>
        <time>2023-06-04T08:18:07Z</time>
      </trkpt>
      <trkpt lat="47.23004" lon="0.76199">
        <ele>98.3</ele>
        <time>2023-06-04T08:18:12Z</time>
      </trkpt>
      <trkpt lat="47.23012" lon="0.76178">
        <ele>98.1</ele>
        <time>2023-06-04T08:18:16Z</time>
      </trkpt>
      <trkpt lat="47.23021" lon="0.76149">
        <ele>98</ele>
        <time>2023-06-04T08:18:21Z</time>
      </trkpt>
      <trkpt lat="47.23022" lon="0.76143">
        <ele>98</ele>
        <time>2023-06-04T08:18:22Z</time>
      </trkpt>
      <trkpt lat="47.23028" lon="0.76099">
        <ele>97.9</ele>
        <time>2023-06-04T08:18:28Z</time>
      </trkpt>
      <trkpt lat="47.23027" lon="0.76035">
        <ele>98</ele>
        <time>2023-06-04T08:18:36Z</time>
      </trkpt>
      <trkpt lat="47.23025" lon="0.75965">
        <ele>98.2</ele>
        <time>2023-06-04T08:18:44Z</time>
      </trkpt>
      <trkpt lat="47.23025" lon="0.75955">
        <ele>98.2</ele>
        <time>2023-06-04T08:18:45Z</time>
      </trkpt>
      <trkpt lat="47.23033" lon="0.75918">
        <ele>98.3</ele>
        <time>2023-06-04T08:18:49Z</time>
      </trkpt>
      <trkpt lat="47.23037" lon="0.7591">
        <ele>98.3</ele>
        <time>2023-06-04T08:18:50Z</time>
      </trkpt>
      <trkpt lat="47.23056" lon="0.75872">
        <ele>98.6</ele>
        <time>2023-06-04T08:18:55Z</time>
      </trkpt>
      <trkpt lat="47.2308" lon="0.7582">
        <ele>99</ele>
        <time>2023-06-04T08:19:02Z</time>
      </trkpt>
      <trkpt lat="47.23097" lon="0.75761">
        <ele>99.3</ele>
        <time>2023-06-04T08:19:09Z</time>
      </trkpt>
      <trkpt lat="47.23107" lon="0.75697">
        <ele>99.2</ele>
        <time>2023-06-04T08:19:16Z</time>
      </trkpt>
      <trkpt lat="47.23112" lon="0.75633">
        <ele>98.7</ele>
        <time>2023-06-04T08:19:23Z</time>
      </trkpt>
      <trkpt lat="47.23112" lon="0.75624">
        <ele>98.7</ele>
        <time>2023-06-04T08:19:24Z</time>
      </trkpt>
      <trkpt lat="47.23118" lon="0.7555">
        <ele>97.9</ele>
        <time>2023-06-04T08:19:32Z</time>
      </trkpt>
      <trkpt lat="47.2312" lon="0.75462">
        <ele>96.9</ele>
        <time>2023-06-04T08:19:41Z</time>
      </trkpt>
      <trkpt lat="47.2312" lon="0.75451">
        <ele>96.7</ele>
        <time>2023-06-04T08:19:42Z</time>
      </trkpt>
      <trkpt lat="47.23119" lon="0.75411">
        <ele>95.8</ele>
        <time>2023-06-04T08:19:46Z</time>
      </trkpt>
      <trkpt lat="47.23118" lon="0.75381">
        <ele>95.2</ele>
        <time>2023-06-04T08:19:49Z</time>
      </trkpt>
      <trkpt lat="47.23116" lon="0.75361">
        <ele>94.9</ele>
        <time>2023-06-04T08:19:51Z</time>
      </trkpt>
      <trkpt lat="47.23111" lon="0.75317">
        <ele>93.8</ele>
        <time>2023-06-04T08:19:55Z</time>
      </trkpt>
      <trkpt lat="47.23106" lon="0.75294">
        <ele>93.1</ele>
        <time>2023-06-04T08:19:57Z</time>
      </trkpt>
      <trkpt lat="47.23104" lon="0.75283">
        <ele>92.7</ele>
        <time>2023-06-04T08:19:58Z</time>
      </trkpt>
      <trkpt lat="47.231" lon="0.75257">
        <ele>91.8</ele>
        <time>2023-06-04T08:20:00Z</time>
      </trkpt>
      <trkpt lat="47.23097" lon="0.75244">
        <ele>91.3</ele>
        <time>2023-06-04T08:20:01Z</time>
      </trkpt>
      <trkpt lat="47.23091" lon="0.75218">
        <ele>90.4</ele>
        <time>2023-06-04T08:20:03Z</time>
      </trkpt>
      <trkpt lat="47.23081" lon="0.75176">
        <ele>89.8</ele>
        <time>2023-06-04T08:20:06Z</time>
      </trkpt>
      <trkpt lat="47.23072" lon="0.75149">
        <ele>89.1</ele>
        <time>2023-06-04T08:20:08Z</time>
      </trkpt>
      <trkpt lat="47.23068" lon="0.75136">
        <ele>88.9</ele>
        <time>2023-06-04T08:20:09Z</time>
      </trkpt>
      <trkpt lat="47.23064" lon="0.75123">
        <ele>88.6</ele>
        <time>2023-06-04T08:20:10Z</time>
      </trkpt>
      <trkpt lat="47.23058" lon="0.75098">
        <ele>88.5</ele>
        <time>2023-06-04T08:20:12Z</time>
      </trkpt>
      <trkpt lat="47.23053" lon="0.75073">
        <ele>88.7</ele>
        <time>2023-06-04T08:20:14Z</time>
      </trkpt>
      <trkpt lat="47.23049" lon="0.75048">
        <ele>89.1</ele>
        <time>2023-06-04T08:20:16Z</time>
      </trkpt>
      <trkpt lat="47.23047" lon="0.75025">
        <ele>89.6</ele>
        <time>2023-06-04T08:20:18Z</time>
      </trkpt>
      <trkpt lat="47.23045" lon="0.75014">
        <ele>89.8</ele>
        <time>2023-06-04T08:20:19Z</time>
      </trkpt>
      <trkpt lat="47.23043" lon="0.74993">
        <ele>90.4</ele>
        <time>2023-06-04T08:20:21Z</time>
      </trkpt>
      <trkpt lat="47.23042" lon="0.74983">
        <ele>90.6</ele>
        <time>2023-06-04T08:20:22Z</time>
      </trkpt>
      <trkpt lat="47.23039" lon="0.74954">
        <ele>91.4</ele>
        <time>2023-06-04T08:20:25Z</time>
      </trkpt>
      <trkpt lat="47.23038" lon="0.74945">
        <ele>91.7</ele>
        <time>2023-06-04T08:20:26Z</time>
      </trkpt>
      <trkpt lat="47.23037" lon="0.74927">
        <ele>92.1</ele>
        <time>2023-06-04T08:20:28Z</time>
      </trkpt>
      <trkpt lat="47.23035" lon="0.74899">
        <ele>92.7</ele>
        <time>2023-06-04T08:20:31Z</time>
      </trkpt>
      <trkpt lat="47.23032" lon="0.74872">
        <ele>93.2</ele>
        <time>2023-06-04T08:20:34Z</time>
      </trkpt>
      <trkpt lat="47.23029" lon="0.74836">
        <ele>93.7</ele>
        <time>2023-06-04T08:20:38Z</time>
      </trkpt>
      <trkpt lat="47.23026" lon="0.748">
        <ele>94</ele>
        <time>2023-06-04T08:20:42Z</time>
      </trkpt>
      <trkpt lat="47.23025" lon="0.74791">
        <ele>94.1</ele>
        <time>2023-06-04T08:20:43Z</time>
      </trkpt>
      <trkpt lat="47.23015" lon="0.74746">
        <ele>94.8</ele>
        <time>2023-06-04T08:20:48Z</time>
      </trkpt>
      <trkpt lat="47.23013" lon="0.74737">
        <ele>94.9</ele>
        <time>2023-06-04T08:20:49Z</time>
      </trkpt>
      <trkpt lat="47.22997" lon="0.74678">
        <ele>95.4</ele>
        <time>2023-06-04T08:20:56Z</time>
      </trkpt>
      <trkpt lat="47.22996" lon="0.74659">
        <ele>95.6</ele>
        <time>2023-06-04T08:20:58Z</time>
      </trkpt>
      <trkpt lat="47.22995" lon="0.74631">
        <ele>95.8</ele>
        <time>2023-06-04T08:21:01Z</time>
      </trkpt>
      <trkpt lat="47.22995" lon="0.74544">
        <ele>96.4</ele>
        <time>2023-06-04T08:21:10Z</time>
      </trkpt>
      <trkpt lat="47.22995" lon="0.74515">
        <ele>96.6</ele>
        <time>2023-06-04T08:21:13Z</time>
      </trkpt>
      <trkpt lat="47.22995" lon="0.74455">
        <ele>97.1</ele>
        <time>2023-06-04T08:21:19Z</time>
      </trkpt>
      <trkpt lat="47.22994" lon="0.74374">
        <ele>97.6</ele>
        <time>2023-06-04T08:21:27Z</time>
      </trkpt>
      <trkpt lat="47.22994" lon="0.74355">
        <ele>97.8</ele>
        <time>2023-06-04T08:21:29Z</time>
      </trkpt>
      <trkpt lat="47.22992" lon="0.74266">
        <ele>98</ele>
        <time>2023-06-04T08:21:38Z</time>
      </trkpt>
      <trkpt lat="47.22992" lon="0.74236">
        <ele>98.1</ele>
        <time>2023-06-04T08:21:41Z</time>
      </trkpt>
      <trkpt lat="47.22999" lon="0.74177">
        <ele>98</ele>
        <time>2023-06-04T08:21:47Z</time>
      </trkpt>
      <trkpt lat="47.23017" lon="0.74101">
        <ele>97.9</ele>
        <time>2023-06-04T08:21:55Z</time>
      </trkpt>
      <trkpt lat="47.2302" lon="0.74091">
        <ele>97.9</ele>
        <time>2023-06-04T08:21:56Z</time>
      </trkpt>
      <trkpt lat="47.23039" lon="0.74012">
        <ele>97.7</ele>
        <time>2023-06-04T08:22:04Z</time>
      </trkpt>
      <trkpt lat="47.23044" lon="0.73992">
        <ele>97.7</ele>
        <time>2023-06-04T08:22:06Z</time>
      </trkpt>
      <trkpt lat="47.23065" lon="0.73912">
        <ele>97.8</ele>
        <time>2023-06-04T08:22:14Z</time>
      </trkpt>
      <trkpt lat="47.23071" lon="0.73892">
        <ele>97.8</ele>
        <time>2023-06-04T08:22:16Z</time>
      </trkpt>
      <trkpt lat="47.23093" lon="0.73813">
        <ele>97.9</ele>
        <time>2023-06-04T08:22:24Z</time>
      </trkpt>
      <trkpt lat="47.23117" lon="0.73734">
        <ele>97.4</ele>
        <time>2023-06-04T08:22:32Z</time>
      </trkpt>
      <trkpt lat="47.23145" lon="0.73656">
        <ele>96.9</ele>
        <time>2023-06-04T08:22:40Z</time>
      </trkpt>
      <trkpt lat="47.23153" lon="0.73638">
        <ele>96.9</ele>
        <time>2023-06-04T08:22:42Z</time>
      </trkpt>
      <trkpt lat="47.23186" lon="0.73565">
        <ele>96.6</ele>
        <time>2023-06-04T08:22:50Z</time>
      </trkpt>
      <trkpt lat="47.23219" lon="0.73492">
        <ele>96.7</ele>
        <time>2023-06-04T08:22:58Z</time>
      </trkpt>
      <trkpt lat="47.23235" lon="0.73455">
        <ele>96.8</ele>
        <time>2023-06-04T08:23:02Z</time>
      </trkpt>
      <trkpt lat="47.23267" lon="0.73384">
        <ele>97.1</ele>
        <time>2023-06-04T08:23:10Z</time>
      </trkpt>
      <trkpt lat="47.23275" lon="0.73366">
        <ele>97.2</ele>
        <time>2023-06-04T08:23:12Z</time>
      </trkpt>
      <trkpt lat="47.23307" lon="0.73294">
        <ele>97.4</ele>
        <time>2023-06-04T08:23:20Z</time>
      </trkpt>
      <trkpt lat="47.23312" lon="0.73287">
        <ele>97.4</ele>
        <time>2023-06-04T08:23:21Z</time>
      </trkpt>
      <trkpt lat="47.23352" lon="0.73228">
        <ele>97.3</ele>
        <time>2023-06-04T08:23:29Z</time>
      </trkpt>
      <trkpt lat="47.23357" lon="0.7322">
        <ele>97.2</ele>
        <time>2023-06-04T08:23:30Z</time>
      </trkpt>
      <trkpt lat="47.23393" lon="0.7315">
        <ele>97</ele>
        <time>2023-06-04T08:23:38Z</time>
      </trkpt>
      <trkpt lat="47.23402" lon="0.73132">
        <ele>97</ele>
        <time>2023-06-04T08:23:40Z</time>
      </trkpt>
      <trkpt lat="47.23435" lon="0.73057">
        <ele>96.9</ele>
        <time>2023-06-04T08:23:48Z</time>
      </trkpt>
      <trkpt lat="47.23444" lon="0.73039">
        <ele>96.9</ele>
        <time>2023-06-04T08:23:50Z</time>
      </trkpt>
      <trkpt lat="47.23459" lon="0.73015">
        <ele>96.9</ele>
        <time>2023-06-04T08:23:53Z</time>
      </trkpt>
      <trkpt lat="47.23471" lon="0.73001">
        <ele>97</ele>
        <time>2023-06-04T08:23:55Z</time>
      </trkpt>
      <trkpt lat="47.23516" lon="0.72944">
        <ele>97.2</ele>
        <time>2023-06-04T08:24:03Z</time>
      </trkpt>
      <trkpt lat="47.23527" lon="0.7293">
        <ele>97.3</ele>
        <time>2023-06-04T08:24:05Z</time>
      </trkpt>
      <trkpt lat="47.23532" lon="0.72922">
        <ele>97.4</ele>
        <time>2023-06-04T08:24:06Z</time>
      </trkpt>
      <trkpt lat="47.23549" lon="0.72889">
        <ele>97.5</ele>
        <time>2023-06-04T08:24:10Z</time>
      </trkpt>
      <trkpt lat="47.2358" lon="0.72815">
        <ele>97.4</ele>
        <time>2023-06-04T08:24:18Z</time>
      </trkpt>
      <trkpt lat="47.23584" lon="0.72806">
        <ele>97.4</ele>
        <time>2023-06-04T08:24:19Z</time>
      </trkpt>
      <trkpt lat="47.23615" lon="0.72734">
        <ele>97.6</ele>
        <time>2023-06-04T08:24:27Z</time>
      </trkpt>
      <trkpt lat="47.23623" lon="0.72716">
        <ele>97.7</ele>
        <time>2023-06-04T08:24:29Z</time>
      </trkpt>
      <trkpt lat="47.23654" lon="0.72645">
        <ele>97.9</ele>
        <time>2023-06-04T08:24:37Z</time>
      </trkpt>
      <trkpt lat="47.23665" lon="0.72618">
        <ele>97.9</ele>
        <time>2023-06-04T08:24:40Z</time>
      </trkpt>
      <trkpt lat="47.23695" lon="0.72548">
        <ele>97.8</ele>
        <time>2023-06-04T08:24:48Z</time>
      </trkpt>
      <trkpt lat="47.23699" lon="0.72539">
        <ele>97.8</ele>
        <time>2023-06-04T08:24:49Z</time>
      </trkpt>
      <trkpt lat="47.2373" lon="0.72467">
        <ele>97.4</ele>
        <time>2023-06-04T08:24:57Z</time>
      </trkpt>
      <trkpt lat="47.23734" lon="0.72458">
        <ele>97.4</ele>
        <time>2023-06-04T08:24:58Z</time>
      </trkpt>
      <trkpt lat="47.23764" lon="0.72386">
        <ele>96.8</ele>
        <time>2023-06-04T08:25:06Z</time>
      </trkpt>
      <trkpt lat="47.23773" lon="0.72368">
        <ele>96.5</ele>
        <time>2023-06-04T08:25:08Z</time>
      </trkpt>
      <trkpt lat="47.23798" lon="0.72309">
        <ele>95.6</ele>
        <time>2023-06-04T08:25:14Z</time>
      </trkpt>
      <trkpt lat="47.23807" lon="0.72288">
        <ele>95.2</ele>
        <time>2023-06-04T08:25:16Z</time>
      </trkpt>
      <trkpt lat="47.23829" lon="0.72236">
        <ele>94</ele>
        <time>2023-06-04T08:25:21Z</time>
      </trkpt>
      <trkpt lat="47.23847" lon="0.72195">
        <ele>93.1</ele>
        <time>2023-06-04T08:25:25Z</time>
      </trkpt>
      <trkpt lat="47.23874" lon="0.72133">
        <ele>91.6</ele>
        <time>2023-06-04T08:25:31Z</time>
      </trkpt>
      <trkpt lat="47.23887" lon="0.72102">
        <ele>91</ele>
        <time>2023-06-04T08:25:34Z</time>
      </trkpt>
      <trkpt lat="47.2391" lon="0.72048">
        <ele>90.1</ele>
        <time>2023-06-04T08:25:39Z</time>
      </trkpt>
      <trkpt lat="47.23922" lon="0.72015">
        <ele>89.8</ele>
        <time>2023-06-04T08:25:42Z</time>
      </trkpt>
      <trkpt lat="47.23936" lon="0.71984">
        <ele>89.3</ele>
        <time>2023-06-04T08:25:45Z</time>
      </trkpt>
      <trkpt lat="47.23962" lon="0.71923">
        <ele>89.1</ele>
        <time>2023-06-04T08:25:51Z</time>
      </trkpt>
      <trkpt lat="47.23975" lon="0.71881">
        <ele>89.6</ele>
        <time>2023-06-04T08:25:55Z</time>
      </trkpt>
      <trkpt lat="47.23976" lon="0.7187">
        <ele>89.7</ele>
        <time>2023-06-04T08:25:56Z</time>
      </trkpt>
      <trkpt lat="47.23976" lon="0.71825">
        <ele>90.3</ele>
        <time>2023-06-04T08:26:00Z</time>
      </trkpt>
      <trkpt lat="47.23976" lon="0.71814">
        <ele>90.4</ele>
        <time>2023-06-04T08:26:01Z</time>
      </trkpt>
      <trkpt lat="47.23977" lon="0.71763">
        <ele>91.2</ele>
        <time>2023-06-04T08:26:06Z</time>
      </trkpt>
      <trkpt lat="47.23977" lon="0.71733">
        <ele>91.7</ele>
        <time>2023-06-04T08:26:09Z</time>
      </trkpt>
      <trkpt lat="47.23977" lon="0.71723">
        <ele>91.9</ele>
        <time>2023-06-04T08:26:10Z</time>
      </trkpt>
      <trkpt lat="47.23978" lon="0.71693">
        <ele>92.2</ele>
        <time>2023-06-04T08:26:13Z</time>
      </trkpt>
      <trkpt lat="47.23979" lon="0.71663">
        <ele>92.6</ele>
        <time>2023-06-04T08:26:16Z</time>
      </trkpt>
      <trkpt lat="47.23978" lon="0.71623">
        <ele>93.1</ele>
        <time>2023-06-04T08:26:20Z</time>
      </trkpt>
      <trkpt lat="47.23975" lon="0.71594">
        <ele>93.6</ele>
        <time>2023-06-04T08:26:23Z</time>
      </trkpt>
      <trkpt lat="47.23972" lon="0.71535">
        <ele>94.6</ele>
        <time>2023-06-04T08:26:29Z</time>
      </trkpt>
      <trkpt lat="47.23973" lon="0.71526">
        <ele>94.7</ele>
        <time>2023-06-04T08:26:30Z</time>
      </trkpt>
      <trkpt lat="47.23981" lon="0.71499">
        <ele>95.2</ele>
        <time>2023-06-04T08:26:33Z</time>
      </trkpt>
      <trkpt lat="47.23986" lon="0.71481">
        <ele>95.5</ele>
        <time>2023-06-04T08:26:35Z</time>
      </trkpt>
      <trkpt lat="47.23994" lon="0.71455">
        <ele>95.9</ele>
        <time>2023-06-04T08:26:38Z</time>
      </trkpt>
      <trkpt lat="47.24004" lon="0.71418">
        <ele>96.1</ele>
        <time>2023-06-04T08:26:42Z</time>
      </trkpt>
      <trkpt lat="47.24018" lon="0.71342">
        <ele>96.5</ele>
        <time>2023-06-04T08:26:50Z</time>
      </trkpt>
      <trkpt lat="47.24019" lon="0.71332">
        <ele>96.5</ele>
        <time>2023-06-04T08:26:51Z</time>
      </trkpt>
      <trkpt lat="47.24018" lon="0.71283">
        <ele>96.5</ele>
        <time>2023-06-04T08:26:56Z</time>
      </trkpt>
      <trkpt lat="47.24014" lon="0.71202">
        <ele>96.3</ele>
        <time>2023-06-04T08:27:04Z</time>
      </trkpt>
      <trkpt lat="47.24013" lon="0.71192">
        <ele>96.2</ele>
        <time>2023-06-04T08:27:05Z</time>
      </trkpt>
      <trkpt lat="47.24" lon="0.71108">
        <ele>96.3</ele>
        <time>2023-06-04T08:27:13Z</time>
      </trkpt>
      <trkpt lat="47.23988" lon="0.71023">
        <ele>96.6</ele>
        <time>2023-06-04T08:27:21Z</time>
      </trkpt>
      <trkpt lat="47.23984" lon="0.70991">
        <ele>96.7</ele>
        <time>2023-06-04T08:27:24Z</time>
      </trkpt>
      <trkpt lat="47.23974" lon="0.70906">
        <ele>96.9</ele>
        <time>2023-06-04T08:27:32Z</time>
      </trkpt>
      <trkpt lat="47.23967" lon="0.70821">
        <ele>97.3</ele>
        <time>2023-06-04T08:27:40Z</time>
      </trkpt>
      <trkpt lat="47.23967" lon="0.7081">
        <ele>97.4</ele>
        <time>2023-06-04T08:27:41Z</time>
      </trkpt>
      <trkpt lat="47.23966" lon="0.708">
        <ele>97.4</ele>
        <time>2023-06-04T08:27:42Z</time>
      </trkpt>
      <trkpt lat="47.23965" lon="0.70715">
        <ele>97.9</ele>
        <time>2023-06-04T08:27:50Z</time>
      </trkpt>
      <trkpt lat="47.23964" lon="0.70704">
        <ele>97.9</ele>
        <time>2023-06-04T08:27:51Z</time>
      </trkpt>
      <trkpt lat="47.23967" lon="0.7062">
        <ele>98.2</ele>
        <time>2023-06-04T08:27:59Z</time>
      </trkpt>
      <trkpt lat="47.23978" lon="0.70547">
        <ele>98.4</ele>
        <time>2023-06-04T08:28:06Z</time>
      </trkpt>
      <trkpt lat="47.23998" lon="0.7049">
        <ele>98.6</ele>
        <time>2023-06-04T08:28:12Z</time>
      </trkpt>
      <trkpt lat="47.24029" lon="0.70416">
        <ele>98.3</ele>
        <time>2023-06-04T08:28:20Z</time>
      </trkpt>
      <trkpt lat="47.24037" lon="0.70396">
        <ele>98.1</ele>
        <time>2023-06-04T08:28:22Z</time>
      </trkpt>
      <trkpt lat="47.24057" lon="0.7035">
        <ele>97.7</ele>
        <time>2023-06-04T08:28:27Z</time>
      </trkpt>
      <trkpt lat="47.24074" lon="0.70314">
        <ele>97.4</ele>
        <time>2023-06-04T08:28:31Z</time>
      </trkpt>
      <trkpt lat="47.24103" lon="0.7025">
        <ele>96.6</ele>
        <time>2023-06-04T08:28:38Z</time>
      </trkpt>
      <trkpt lat="47.2412" lon="0.70213">
        <ele>96.1</ele>
        <time>2023-06-04T08:28:42Z</time>
      </trkpt>
      <trkpt lat="47.24133" lon="0.70173">
        <ele>95.5</ele>
        <time>2023-06-04T08:28:46Z</time>
      </trkpt>
      <trkpt lat="47.24139" lon="0.70151">
        <ele>95.2</ele>
        <time>2023-06-04T08:28:48Z</time>
      </trkpt>
      <trkpt lat="47.24148" lon="0.70119">
        <ele>94.8</ele>
        <time>2023-06-04T08:28:51Z</time>
      </trkpt>
      <trkpt lat="47.24152" lon="0.70108">
        <ele>94.6</ele>
        <time>2023-06-04T08:28:52Z</time>
      </trkpt>
      <trkpt lat="47.24163" lon="0.70067">
        <ele>94.2</ele>
        <time>2023-06-04T08:28:56Z</time>
      </trkpt>
      <trkpt lat="47.24171" lon="0.70036">
        <ele>93.9</ele>
        <time>2023-06-04T08:28:59Z</time>
      </trkpt>
      <trkpt lat="47.24179" lon="0.70017">
        <ele>93.7</ele>
        <time>2023-06-04T08:29:01Z</time>
      </trkpt>
      <trkpt lat="47.24206" lon="0.69976">
        <ele>93.5</ele>
        <time>2023-06-04T08:29:06Z</time>
      </trkpt>
      <trkpt lat="47.24236" lon="0.69937">
        <ele>93.4</ele>
        <time>2023-06-04T08:29:11Z</time>
      </trkpt>
      <trkpt lat="47.24254" lon="0.69912">
        <ele>93.5</ele>
        <time>2023-06-04T08:29:14Z</time>
      </trkpt>
      <trkpt lat="47.24282" lon="0.69856">
        <ele>93.7</ele>
        <time>2023-06-04T08:29:20Z</time>
      </trkpt>
      <trkpt lat="47.24288" lon="0.69835">
        <ele>93.8</ele>
        <time>2023-06-04T08:29:22Z</time>
      </trkpt>
      <trkpt lat="47.24293" lon="0.69803">
        <ele>94</ele>
        <time>2023-06-04T08:29:25Z</time>
      </trkpt>
      <trkpt lat="47.24304" lon="0.6972">
        <ele>95.1</ele>
        <time>2023-06-04T08:29:33Z</time>
      </trkpt>
      <trkpt lat="47.24306" lon="0.69701">
        <ele>95.3</ele>
        <time>2023-06-04T08:29:35Z</time>
      </trkpt>
      <trkpt lat="47.24313" lon="0.69656">
        <ele>95.8</ele>
        <time>2023-06-04T08:29:40Z</time>
      </trkpt>
      <trkpt lat="47.24314" lon="0.69648">
        <ele>95.8</ele>
        <time>2023-06-04T08:29:41Z</time>
      </trkpt>
      <trkpt lat="47.24321" lon="0.69596">
        <ele>96.3</ele>
        <time>2023-06-04T08:29:47Z</time>
      </trkpt>
      <trkpt lat="47.24323" lon="0.69573">
        <ele>96.5</ele>
        <time>2023-06-04T08:29:50Z</time>
      </trkpt>
      <trkpt lat="47.24326" lon="0.69552">
        <ele>96.6</ele>
        <time>2023-06-04T08:29:53Z</time>
      </trkpt>
      <trkpt lat="47.24329" lon="0.69527">
        <ele>96.7</ele>
        <time>2023-06-04T08:29:58Z</time>
      </trkpt>
      <trkpt lat="47.24334" lon="0.69492">
        <ele>96.8</ele>
        <time>2023-06-04T08:30:04Z</time>
      </trkpt>
      <trkpt lat="47.24341" lon="0.6945">
        <ele>96.9</ele>
        <time>2023-06-04T08:30:10Z</time>
      </trkpt>
      <trkpt lat="47.24345" lon="0.69428">
        <ele>96.9</ele>
        <time>2023-06-04T08:30:13Z</time>
      </trkpt>
      <trkpt lat="47.24356" lon="0.6942">
        <ele>96.8</ele>
        <time>2023-06-04T08:30:15Z</time>
      </trkpt>
      <trkpt lat="47.24366" lon="0.69414">
        <ele>96.8</ele>
        <time>2023-06-04T08:30:17Z</time>
      </trkpt>
      <trkpt lat="47.24377" lon="0.69408">
        <ele>96.7</ele>
        <time>2023-06-04T08:30:19Z</time>
      </trkpt>
      <trkpt lat="47.24393" lon="0.69399">
        <ele>96.7</ele>
        <time>2023-06-04T08:30:22Z</time>
      </trkpt>
      <trkpt lat="47.24445" lon="0.69365">
        <ele>97.1</ele>
        <time>2023-06-04T08:30:31Z</time>
      </trkpt>
      <trkpt lat="47.2445" lon="0.69361">
        <ele>97.1</ele>
        <time>2023-06-04T08:30:32Z</time>
      </trkpt>
      <trkpt lat="47.24482" lon="0.69329">
        <ele>97.2</ele>
        <time>2023-06-04T08:30:38Z</time>
      </trkpt>
      <trkpt lat="47.24509" lon="0.6929">
        <ele>97.4</ele>
        <time>2023-06-04T08:30:44Z</time>
      </trkpt>
      <trkpt lat="47.24513" lon="0.69282">
        <ele>97.5</ele>
        <time>2023-06-04T08:30:45Z</time>
      </trkpt>
      <trkpt lat="47.24524" lon="0.69259">
        <ele>97.5</ele>
        <time>2023-06-04T08:30:48Z</time>
      </trkpt>
      <trkpt lat="47.24534" lon="0.69235">
        <ele>97.5</ele>
        <time>2023-06-04T08:30:51Z</time>
      </trkpt>
      <trkpt lat="47.24566" lon="0.6916">
        <ele>97.9</ele>
        <time>2023-06-04T08:31:00Z</time>
      </trkpt>
      <trkpt lat="47.24573" lon="0.69143">
        <ele>98</ele>
        <time>2023-06-04T08:31:02Z</time>
      </trkpt>
      <trkpt lat="47.24592" lon="0.69078">
        <ele>98.2</ele>
        <time>2023-06-04T08:31:09Z</time>
      </trkpt>
      <trkpt lat="47.24605" lon="0.69015">
        <ele>98.1</ele>
        <time>2023-06-04T08:31:15Z</time>
      </trkpt>
      <trkpt lat="47.24624" lon="0.68963">
        <ele>98</ele>
        <time>2023-06-04T08:31:20Z</time>
      </trkpt>
      <trkpt lat="47.24655" lon="0.6891">
        <ele>98</ele>
        <time>2023-06-04T08:31:26Z</time>
      </trkpt>
      <trkpt lat="47.24696" lon="0.68856">
        <ele>98.1</ele>
        <time>2023-06-04T08:31:33Z</time>
      </trkpt>
      <trkpt lat="47.24702" lon="0.68849">
        <ele>98.1</ele>
        <time>2023-06-04T08:31:34Z</time>
      </trkpt>
      <trkpt lat="47.24738" lon="0.68804">
        <ele>98.3</ele>
        <time>2023-06-04T08:31:40Z</time>
      </trkpt>
      <trkpt lat="47.24783" lon="0.68752">
        <ele>98.5</ele>
        <time>2023-06-04T08:31:47Z</time>
      </trkpt>
      <trkpt lat="47.2479" lon="0.68746">
        <ele>98.5</ele>
        <time>2023-06-04T08:31:48Z</time>
      </trkpt>
      <trkpt lat="47.24836" lon="0.68701">
        <ele>98.9</ele>
        <time>2023-06-04T08:31:55Z</time>
      </trkpt>
      <trkpt lat="47.24882" lon="0.68657">
        <ele>99</ele>
        <time>2023-06-04T08:32:02Z</time>
      </trkpt>
      <trkpt lat="47.24927" lon="0.68612">
        <ele>99</ele>
        <time>2023-06-04T08:32:09Z</time>
      </trkpt>
      <trkpt lat="47.2494" lon="0.68599">
        <ele>99</ele>
        <time>2023-06-04T08:32:11Z</time>
      </trkpt>
      <trkpt lat="47.24983" lon="0.68557">
        <ele>99.1</ele>
        <time>2023-06-04T08:32:18Z</time>
      </trkpt>
      <trkpt lat="47.25022" lon="0.68519">
        <ele>98.9</ele>
        <time>2023-06-04T08:32:24Z</time>
      </trkpt>
      <trkpt lat="47.25035" lon="0.68506">
        <ele>98.8</ele>
        <time>2023-06-04T08:32:26Z</time>
      </trkpt>
      <trkpt lat="47.25085" lon="0.68463">
        <ele>98.7</ele>
        <time>2023-06-04T08:32:33Z</time>
      </trkpt>
      <trkpt lat="47.25093" lon="0.68457">
        <ele>98.6</ele>
        <time>2023-06-04T08:32:34Z</time>
      </trkpt>
      <trkpt lat="47.25107" lon="0.68446">
        <ele>98.6</ele>
        <time>2023-06-04T08:32:36Z</time>
      </trkpt>
      <trkpt lat="47.25156" lon="0.68404">
        <ele>98.5</ele>
        <time>2023-06-04T08:32:43Z</time>
      </trkpt>
      <trkpt lat="47.25163" lon="0.68396">
        <ele>98.5</ele>
        <time>2023-06-04T08:32:44Z</time>
      </trkpt>
      <trkpt lat="47.25198" lon="0.68346">
        <ele>98.4</ele>
        <time>2023-06-04T08:32:50Z</time>
      </trkpt>
      <trkpt lat="47.25238" lon="0.68287">
        <ele>98.3</ele>
        <time>2023-06-04T08:32:57Z</time>
      </trkpt>
      <trkpt lat="47.25262" lon="0.68256">
        <ele>98.3</ele>
        <time>2023-06-04T08:33:01Z</time>
      </trkpt>
      <trkpt lat="47.25294" lon="0.68218">
        <ele>98.3</ele>
        <time>2023-06-04T08:33:06Z</time>
      </trkpt>
      <trkpt lat="47.25341" lon="0.68173">
        <ele>98.3</ele>
        <time>2023-06-04T08:33:13Z</time>
      </trkpt>
      <trkpt lat="47.25355" lon="0.6816">
        <ele>98.3</ele>
        <time>2023-06-04T08:33:15Z</time>
      </trkpt>
      <trkpt lat="47.25402" lon="0.68111">
        <ele>98</ele>
        <time>2023-06-04T08:33:22Z</time>
      </trkpt>
      <trkpt lat="47.25415" lon="0.68095">
        <ele>97.9</ele>
        <time>2023-06-04T08:33:24Z</time>
      </trkpt>
      <trkpt lat="47.2546" lon="0.68037">
        <ele>97.6</ele>
        <time>2023-06-04T08:33:31Z</time>
      </trkpt>
      <trkpt lat="47.25485" lon="0.68004">
        <ele>97.6</ele>
        <time>2023-06-04T08:33:35Z</time>
      </trkpt>
      <trkpt lat="47.25528" lon="0.6795">
        <ele>97.5</ele>
        <time>2023-06-04T08:33:42Z</time>
      </trkpt>
      <trkpt lat="47.2554" lon="0.67934">
        <ele>97.5</ele>
        <time>2023-06-04T08:33:44Z</time>
      </trkpt>
      <trkpt lat="47.25559" lon="0.67916">
        <ele>97.5</ele>
        <time>2023-06-04T08:33:47Z</time>
      </trkpt>
      <trkpt lat="47.25573" lon="0.67908">
        <ele>97.6</ele>
        <time>2023-06-04T08:33:49Z</time>
      </trkpt>
      <trkpt lat="47.25578" lon="0.67888">
        <ele>97.6</ele>
        <time>2023-06-04T08:33:51Z</time>
      </trkpt>
      <trkpt lat="47.25576" lon="0.67866">
        <ele>97.3</ele>
        <time>2023-06-04T08:33:53Z</time>
      </trkpt>
      <trkpt lat="47.25577" lon="0.67855">
        <ele>97.1</ele>
        <time>2023-06-04T08:33:54Z</time>
      </trkpt>
      <trkpt lat="47.2559" lon="0.67786">
        <ele>96.7</ele>
        <time>2023-06-04T08:34:00Z</time>
      </trkpt>
      <trkpt lat="47.2561" lon="0.67719">
        <ele>96.1</ele>
        <time>2023-06-04T08:34:06Z</time>
      </trkpt>
      <trkpt lat="47.25617" lon="0.67696">
        <ele>95.9</ele>
        <time>2023-06-04T08:34:08Z</time>
      </trkpt>
      <trkpt lat="47.25635" lon="0.67625">
        <ele>95.3</ele>
        <time>2023-06-04T08:34:14Z</time>
      </trkpt>
      <trkpt lat="47.25645" lon="0.67561">
        <ele>94.8</ele>
        <time>2023-06-04T08:34:19Z</time>
      </trkpt>
      <trkpt lat="47.25653" lon="0.67508">
        <ele>94.4</ele>
        <time>2023-06-04T08:34:23Z</time>
      </trkpt>
      <trkpt lat="47.25657" lon="0.67482">
        <ele>94.3</ele>
        <time>2023-06-04T08:34:25Z</time>
      </trkpt>
      <trkpt lat="47.25669" lon="0.67419">
        <ele>94.3</ele>
        <time>2023-06-04T08:34:30Z</time>
      </trkpt>
      <trkpt lat="47.25693" lon="0.67337">
        <ele>94.3</ele>
        <time>2023-06-04T08:34:37Z</time>
      </trkpt>
      <trkpt lat="47.25716" lon="0.67259">
        <ele>94.7</ele>
        <time>2023-06-04T08:34:44Z</time>
      </trkpt>
      <trkpt lat="47.25723" lon="0.67236">
        <ele>94.8</ele>
        <time>2023-06-04T08:34:46Z</time>
      </trkpt>
      <trkpt lat="47.25745" lon="0.67158">
        <ele>94.8</ele>
        <time>2023-06-04T08:34:53Z</time>
      </trkpt>
      <trkpt lat="47.25748" lon="0.67147">
        <ele>94.7</ele>
        <time>2023-06-04T08:34:54Z</time>
      </trkpt>
      <trkpt lat="47.25773" lon="0.67067">
        <ele>94.1</ele>
        <time>2023-06-04T08:35:01Z</time>
      </trkpt>
      <trkpt lat="47.258" lon="0.66986">
        <ele>93.8</ele>
        <time>2023-06-04T08:35:08Z</time>
      </trkpt>
      <trkpt lat="47.25816" lon="0.66941">
        <ele>94.2</ele>
        <time>2023-06-04T08:35:12Z</time>
      </trkpt>
      <trkpt lat="47.2583" lon="0.66897">
        <ele>94.7</ele>
        <time>2023-06-04T08:35:16Z</time>
      </trkpt>
      <trkpt lat="47.2584" lon="0.66867">
        <ele>95.1</ele>
        <time>2023-06-04T08:35:19Z</time>
      </trkpt>
      <trkpt lat="47.25847" lon="0.66846">
        <ele>95.3</ele>
        <time>2023-06-04T08:35:21Z</time>
      </trkpt>
      <trkpt lat="47.25856" lon="0.66817">
        <ele>95.6</ele>
        <time>2023-06-04T08:35:24Z</time>
      </trkpt>
      <trkpt lat="47.25869" lon="0.66777">
        <ele>96</ele>
        <time>2023-06-04T08:35:28Z</time>
      </trkpt>
      <trkpt lat="47.25875" lon="0.66758">
        <ele>96.2</ele>
        <time>2023-06-04T08:35:30Z</time>
      </trkpt>
      <trkpt lat="47.25902" lon="0.66678">
        <ele>96.5</ele>
        <time>2023-06-04T08:35:38Z</time>
      </trkpt>
      <trkpt lat="47.25905" lon="0.66667">
        <ele>96.6</ele>
        <time>2023-06-04T08:35:39Z</time>
      </trkpt>
      <trkpt lat="47.25929" lon="0.66595">
        <ele>96.3</ele>
        <time>2023-06-04T08:35:46Z</time>
      </trkpt>
      <trkpt lat="47.25936" lon="0.66574">
        <ele>96.1</ele>
        <time>2023-06-04T08:35:48Z</time>
      </trkpt>
      <trkpt lat="47.25968" lon="0.66499">
        <ele>94.5</ele>
        <time>2023-06-04T08:35:55Z</time>
      </trkpt>
      <trkpt lat="47.25992" lon="0.66458">
        <ele>93.3</ele>
        <time>2023-06-04T08:35:59Z</time>
      </trkpt>
      <trkpt lat="47.26005" lon="0.66438">
        <ele>92.6</ele>
        <time>2023-06-04T08:36:01Z</time>
      </trkpt>
      <trkpt lat="47.26051" lon="0.66385">
        <ele>90.5</ele>
        <time>2023-06-04T08:36:07Z</time>
      </trkpt>
      <trkpt lat="47.26084" lon="0.66355">
        <ele>89.3</ele>
        <time>2023-06-04T08:36:11Z</time>
      </trkpt>
      <trkpt lat="47.26101" lon="0.66342">
        <ele>88.8</ele>
        <time>2023-06-04T08:36:13Z</time>
      </trkpt>
      <trkpt lat="47.26118" lon="0.66331">
        <ele>88.4</ele>
        <time>2023-06-04T08:36:15Z</time>
      </trkpt>
      <trkpt lat="47.26153" lon="0.66314">
        <ele>87.8</ele>
        <time>2023-06-04T08:36:19Z</time>
      </trkpt>
      <trkpt lat="47.2617" lon="0.66306">
        <ele>87.6</ele>
        <time>2023-06-04T08:36:21Z</time>
      </trkpt>
      <trkpt lat="47.26187" lon="0.66299">
        <ele>87.5</ele>
        <time>2023-06-04T08:36:23Z</time>
      </trkpt>
      <trkpt lat="47.26203" lon="0.66293">
        <ele>87.5</ele>
        <time>2023-06-04T08:36:25Z</time>
      </trkpt>
      <trkpt lat="47.26219" lon="0.66286">
        <ele>87.5</ele>
        <time>2023-06-04T08:36:27Z</time>
      </trkpt>
      <trkpt lat="47.26262" lon="0.66268">
        <ele>87.5</ele>
        <time>2023-06-04T08:36:33Z</time>
      </trkpt>
      <trkpt lat="47.26276" lon="0.66261">
        <ele>87.5</ele>
        <time>2023-06-04T08:36:35Z</time>
      </trkpt>
      <trkpt lat="47.26286" lon="0.66249">
        <ele>87.5</ele>
        <time>2023-06-04T08:36:37Z</time>
      </trkpt>
      <trkpt lat="47.26298" lon="0.66221">
        <ele>87.2</ele>
        <time>2023-06-04T08:36:40Z</time>
      </trkpt>
      <trkpt lat="47.26302" lon="0.662">
        <ele>87</ele>
        <time>2023-06-04T08:36:42Z</time>
      </trkpt>
      <trkpt lat="47.26309" lon="0.66156">
        <ele>86.8</ele>
        <time>2023-06-04T08:36:46Z</time>
      </trkpt>
      <trkpt lat="47.26324" lon="0.66077">
        <ele>86.6</ele>
        <time>2023-06-04T08:36:53Z</time>
      </trkpt>
      <trkpt lat="47.26331" lon="0.66044">
        <ele>86.7</ele>
        <time>2023-06-04T08:36:56Z</time>
      </trkpt>
      <trkpt lat="47.26342" lon="0.6597">
        <ele>86.6</ele>
        <time>2023-06-04T08:37:03Z</time>
      </trkpt>
      <trkpt lat="47.26353" lon="0.65883">
        <ele>86.2</ele>
        <time>2023-06-04T08:37:11Z</time>
      </trkpt>
      <trkpt lat="47.26363" lon="0.65802">
        <ele>86.4</ele>
        <time>2023-06-04T08:37:18Z</time>
      </trkpt>
      <trkpt lat="47.26371" lon="0.65732">
        <ele>87.2</ele>
        <time>2023-06-04T08:37:24Z</time>
      </trkpt>
      <trkpt lat="47.26381" lon="0.65644">
        <ele>88.3</ele>
        <time>2023-06-04T08:37:32Z</time>
      </trkpt>
      <trkpt lat="47.26382" lon="0.65633">
        <ele>88.4</ele>
        <time>2023-06-04T08:37:33Z</time>
      </trkpt>
      <trkpt lat="47.26383" lon="0.65623">
        <ele>88.4</ele>
        <time>2023-06-04T08:37:34Z</time>
      </trkpt>
      <trkpt lat="47.26386" lon="0.6559">
        <ele>88.3</ele>
        <time>2023-06-04T08:37:37Z</time>
      </trkpt>
      <trkpt lat="47.26389" lon="0.65557">
        <ele>87.8</ele>
        <time>2023-06-04T08:37:40Z</time>
      </trkpt>
      <trkpt lat="47.26397" lon="0.65473">
        <ele>86.3</ele>
        <time>2023-06-04T08:37:47Z</time>
      </trkpt>
      <trkpt lat="47.26398" lon="0.65461">
        <ele>86.2</ele>
        <time>2023-06-04T08:37:48Z</time>
      </trkpt>
      <trkpt lat="47.26404" lon="0.65424">
        <ele>85.8</ele>
        <time>2023-06-04T08:37:51Z</time>
      </trkpt>
      <trkpt lat="47.26414" lon="0.65365">
        <ele>85.5</ele>
        <time>2023-06-04T08:37:56Z</time>
      </trkpt>
      <trkpt lat="47.26416" lon="0.65353">
        <ele>85.5</ele>
        <time>2023-06-04T08:37:57Z</time>
      </trkpt>
      <trkpt lat="47.26432" lon="0.65275">
        <ele>85.4</ele>
        <time>2023-06-04T08:38:04Z</time>
      </trkpt>
      <trkpt lat="47.26435" lon="0.65264">
        <ele>85.2</ele>
        <time>2023-06-04T08:38:05Z</time>
      </trkpt>
      <trkpt lat="47.26455" lon="0.65185">
        <ele>85.2</ele>
        <time>2023-06-04T08:38:12Z</time>
      </trkpt>
      <trkpt lat="47.26461" lon="0.65163">
        <ele>85.6</ele>
        <time>2023-06-04T08:38:14Z</time>
      </trkpt>
      <trkpt lat="47.26477" lon="0.65102">
        <ele>87.1</ele>
        <time>2023-06-04T08:38:20Z</time>
      </trkpt>
      <trkpt lat="47.26481" lon="0.65072">
        <ele>87.8</ele>
        <time>2023-06-04T08:38:23Z</time>
      </trkpt>
      <trkpt lat="47.26482" lon="0.65062">
        <ele>88</ele>
        <time>2023-06-04T08:38:24Z</time>
      </trkpt>
      <trkpt lat="47.26483" lon="0.65052">
        <ele>88.1</ele>
        <time>2023-06-04T08:38:25Z</time>
      </trkpt>
      <trkpt lat="47.26484" lon="0.65042">
        <ele>88.2</ele>
        <time>2023-06-04T08:38:26Z</time>
      </trkpt>
      <trkpt lat="47.26486" lon="0.65022">
        <ele>88.2</ele>
        <time>2023-06-04T08:38:28Z</time>
      </trkpt>
      <trkpt lat="47.26491" lon="0.6499">
        <ele>88</ele>
        <time>2023-06-04T08:38:31Z</time>
      </trkpt>
      <trkpt lat="47.26508" lon="0.64918">
        <ele>86.9</ele>
        <time>2023-06-04T08:38:37Z</time>
      </trkpt>
      <trkpt lat="47.26514" lon="0.64895">
        <ele>86.6</ele>
        <time>2023-06-04T08:38:39Z</time>
      </trkpt>
      <trkpt lat="47.26524" lon="0.64859">
        <ele>86.2</ele>
        <time>2023-06-04T08:38:42Z</time>
      </trkpt>
      <trkpt lat="47.26534" lon="0.64822">
        <ele>85.8</ele>
        <time>2023-06-04T08:38:45Z</time>
      </trkpt>
      <trkpt lat="47.26558" lon="0.64753">
        <ele>85.1</ele>
        <time>2023-06-04T08:38:51Z</time>
      </trkpt>
      <trkpt lat="47.26562" lon="0.64741">
        <ele>85</ele>
        <time>2023-06-04T08:38:52Z</time>
      </trkpt>
      <trkpt lat="47.26587" lon="0.64661">
        <ele>84.6</ele>
        <time>2023-06-04T08:38:59Z</time>
      </trkpt>
      <trkpt lat="47.26593" lon="0.64623">
        <ele>84.3</ele>
        <time>2023-06-04T08:39:02Z</time>
      </trkpt>
      <trkpt lat="47.26595" lon="0.64597">
        <ele>84.2</ele>
        <time>2023-06-04T08:39:04Z</time>
      </trkpt>
      <trkpt lat="47.26598" lon="0.64508">
        <ele>84</ele>
        <time>2023-06-04T08:39:11Z</time>
      </trkpt>
      <trkpt lat="47.26602" lon="0.64421">
        <ele>83.4</ele>
        <time>2023-06-04T08:39:18Z</time>
      </trkpt>
      <trkpt lat="47.26603" lon="0.64409">
        <ele>83.3</ele>
        <time>2023-06-04T08:39:19Z</time>
      </trkpt>
      <trkpt lat="47.26615" lon="0.64324">
        <ele>82.4</ele>
        <time>2023-06-04T08:39:26Z</time>
      </trkpt>
      <trkpt lat="47.26618" lon="0.64312">
        <ele>82.2</ele>
        <time>2023-06-04T08:39:27Z</time>
      </trkpt>
      <trkpt lat="47.26633" lon="0.64241">
        <ele>81.3</ele>
        <time>2023-06-04T08:39:33Z</time>
      </trkpt>
      <trkpt lat="47.26636" lon="0.6423">
        <ele>81.1</ele>
        <time>2023-06-04T08:39:34Z</time>
      </trkpt>
      <trkpt lat="47.26655" lon="0.6415">
        <ele>80</ele>
        <time>2023-06-04T08:39:41Z</time>
      </trkpt>
      <trkpt lat="47.26657" lon="0.64139">
        <ele>79.8</ele>
        <time>2023-06-04T08:39:42Z</time>
      </trkpt>
      <trkpt lat="47.2666" lon="0.64127">
        <ele>79.7</ele>
        <time>2023-06-04T08:39:43Z</time>
      </trkpt>
      <trkpt lat="47.2668" lon="0.64045">
        <ele>79.1</ele>
        <time>2023-06-04T08:39:50Z</time>
      </trkpt>
      <trkpt lat="47.26685" lon="0.64021">
        <ele>78.9</ele>
        <time>2023-06-04T08:39:52Z</time>
      </trkpt>
      <trkpt lat="47.26705" lon="0.63935">
        <ele>77.5</ele>
        <time>2023-06-04T08:39:59Z</time>
      </trkpt>
      <trkpt lat="47.26718" lon="0.63887">
        <ele>76.7</ele>
        <time>2023-06-04T08:40:03Z</time>
      </trkpt>
      <trkpt lat="47.26726" lon="0.63865">
        <ele>76.2</ele>
        <time>2023-06-04T08:40:05Z</time>
      </trkpt>
      <trkpt lat="47.2673" lon="0.63854">
        <ele>76</ele>
        <time>2023-06-04T08:40:06Z</time>
      </trkpt>
      <trkpt lat="47.26754" lon="0.638">
        <ele>74.9</ele>
        <time>2023-06-04T08:40:11Z</time>
      </trkpt>
      <trkpt lat="47.26759" lon="0.63789">
        <ele>74.7</ele>
        <time>2023-06-04T08:40:12Z</time>
      </trkpt>
      <trkpt lat="47.26779" lon="0.63744">
        <ele>74.2</ele>
        <time>2023-06-04T08:40:16Z</time>
      </trkpt>
      <trkpt lat="47.26798" lon="0.63698">
        <ele>74.2</ele>
        <time>2023-06-04T08:40:20Z</time>
      </trkpt>
      <trkpt lat="47.26824" lon="0.63617">
        <ele>74.2</ele>
        <time>2023-06-04T08:40:27Z</time>
      </trkpt>
      <trkpt lat="47.26831" lon="0.63595">
        <ele>74.3</ele>
        <time>2023-06-04T08:40:29Z</time>
      </trkpt>
      <trkpt lat="47.26855" lon="0.63516">
        <ele>74.6</ele>
        <time>2023-06-04T08:40:36Z</time>
      </trkpt>
      <trkpt lat="47.26858" lon="0.63505">
        <ele>74.6</ele>
        <time>2023-06-04T08:40:37Z</time>
      </trkpt>
      <trkpt lat="47.26882" lon="0.63427">
        <ele>74.8</ele>
        <time>2023-06-04T08:40:44Z</time>
      </trkpt>
      <trkpt lat="47.26896" lon="0.63384">
        <ele>74.8</ele>
        <time>2023-06-04T08:40:48Z</time>
      </trkpt>
      <trkpt lat="47.26919" lon="0.6331">
        <ele>75</ele>
        <time>2023-06-04T08:40:55Z</time>
      </trkpt>
      <trkpt lat="47.26925" lon="0.63289">
        <ele>75</ele>
        <time>2023-06-04T08:40:57Z</time>
      </trkpt>
      <trkpt lat="47.26928" lon="0.63279">
        <ele>75</ele>
        <time>2023-06-04T08:40:58Z</time>
      </trkpt>
      <trkpt lat="47.26951" lon="0.63207">
        <ele>74.9</ele>
        <time>2023-06-04T08:41:05Z</time>
      </trkpt>
      <trkpt lat="47.26955" lon="0.63197">
        <ele>74.8</ele>
        <time>2023-06-04T08:41:06Z</time>
      </trkpt>
      <trkpt lat="47.26979" lon="0.63116">
        <ele>74</ele>
        <time>2023-06-04T08:41:14Z</time>
      </trkpt>
      <trkpt lat="47.26983" lon="0.63106">
        <ele>73.9</ele>
        <time>2023-06-04T08:41:15Z</time>
      </trkpt>
      <trkpt lat="47.27004" lon="0.63033">
        <ele>73.2</ele>
        <time>2023-06-04T08:41:22Z</time>
      </trkpt>
      <trkpt lat="47.27007" lon="0.63022">
        <ele>73.2</ele>
        <time>2023-06-04T08:41:23Z</time>
      </trkpt>
      <trkpt lat="47.27012" lon="0.63">
        <ele>73.1</ele>
        <time>2023-06-04T08:41:25Z</time>
      </trkpt>
      <trkpt lat="47.27027" lon="0.62921">
        <ele>72.9</ele>
        <time>2023-06-04T08:41:32Z</time>
      </trkpt>
      <trkpt lat="47.27029" lon="0.6291">
        <ele>72.9</ele>
        <time>2023-06-04T08:41:33Z</time>
      </trkpt>
      <trkpt lat="47.27048" lon="0.62844">
        <ele>72.8</ele>
        <time>2023-06-04T08:41:39Z</time>
      </trkpt>
      <trkpt lat="47.27058" lon="0.62813">
        <ele>72.9</ele>
        <time>2023-06-04T08:41:42Z</time>
      </trkpt>
      <trkpt lat="47.27079" lon="0.62766">
        <ele>73.1</ele>
        <time>2023-06-04T08:41:47Z</time>
      </trkpt>
      <trkpt lat="47.27104" lon="0.62702">
        <ele>73.2</ele>
        <time>2023-06-04T08:41:54Z</time>
      </trkpt>
      <trkpt lat="47.27136" lon="0.62632">
        <ele>73.1</ele>
        <time>2023-06-04T08:42:02Z</time>
      </trkpt>
      <trkpt lat="47.27149" lon="0.62606">
        <ele>72.9</ele>
        <time>2023-06-04T08:42:05Z</time>
      </trkpt>
      <trkpt lat="47.27174" lon="0.62555">
        <ele>72.6</ele>
        <time>2023-06-04T08:42:11Z</time>
      </trkpt>
      <trkpt lat="47.27187" lon="0.62531">
        <ele>72.5</ele>
        <time>2023-06-04T08:42:14Z</time>
      </trkpt>
      <trkpt lat="47.27197" lon="0.62517">
        <ele>72.4</ele>
        <time>2023-06-04T08:42:16Z</time>
      </trkpt>
      <trkpt lat="47.27214" lon="0.625">
        <ele>72</ele>
        <time>2023-06-04T08:42:19Z</time>
      </trkpt>
      <trkpt lat="47.27226" lon="0.62489">
        <ele>71.9</ele>
        <time>2023-06-04T08:42:21Z</time>
      </trkpt>
      <trkpt lat="47.27237" lon="0.62479">
        <ele>71.8</ele>
        <time>2023-06-04T08:42:23Z</time>
      </trkpt>
      <trkpt lat="47.27248" lon="0.62469">
        <ele>71.8</ele>
        <time>2023-06-04T08:42:25Z</time>
      </trkpt>
      <trkpt lat="47.2726" lon="0.62462">
        <ele>72</ele>
        <time>2023-06-04T08:42:27Z</time>
      </trkpt>
      <trkpt lat="47.27272" lon="0.62455">
        <ele>72.2</ele>
        <time>2023-06-04T08:42:29Z</time>
      </trkpt>
      <trkpt lat="47.27282" lon="0.62443">
        <ele>72.6</ele>
        <time>2023-06-04T08:42:31Z</time>
      </trkpt>
      <trkpt lat="47.27289" lon="0.6243">
        <ele>72.9</ele>
        <time>2023-06-04T08:42:33Z</time>
      </trkpt>
      <trkpt lat="47.27295" lon="0.62416">
        <ele>73.2</ele>
        <time>2023-06-04T08:42:35Z</time>
      </trkpt>
      <trkpt lat="47.27299" lon="0.6239">
        <ele>73.7</ele>
        <time>2023-06-04T08:42:38Z</time>
      </trkpt>
      <trkpt lat="47.27301" lon="0.62372">
        <ele>74.1</ele>
        <time>2023-06-04T08:42:40Z</time>
      </trkpt>
      <trkpt lat="47.27302" lon="0.62337">
        <ele>74.8</ele>
        <time>2023-06-04T08:42:44Z</time>
      </trkpt>
      <trkpt lat="47.27303" lon="0.62329">
        <ele>74.9</ele>
        <time>2023-06-04T08:42:45Z</time>
      </trkpt>
      <trkpt lat="47.27305" lon="0.62302">
        <ele>75.1</ele>
        <time>2023-06-04T08:42:48Z</time>
      </trkpt>
      <trkpt lat="47.27309" lon="0.62285">
        <ele>75.2</ele>
        <time>2023-06-04T08:42:50Z</time>
      </trkpt>
      <trkpt lat="47.2731" lon="0.62276">
        <ele>75.3</ele>
        <time>2023-06-04T08:42:51Z</time>
      </trkpt>
      <trkpt lat="47.27324" lon="0.62218">
        <ele>75.3</ele>
        <time>2023-06-04T08:42:58Z</time>
      </trkpt>
      <trkpt lat="47.27327" lon="0.6221">
        <ele>75.2</ele>
        <time>2023-06-04T08:42:59Z</time>
      </trkpt>
      <trkpt lat="47.27348" lon="0.62167">
        <ele>75.1</ele>
        <time>2023-06-04T08:43:05Z</time>
      </trkpt>
      <trkpt lat="47.27362" lon="0.62136">
        <ele>75</ele>
        <time>2023-06-04T08:43:09Z</time>
      </trkpt>
      <trkpt lat="47.27366" lon="0.62123">
        <ele>75.1</ele>
        <time>2023-06-04T08:43:11Z</time>
      </trkpt>
      <trkpt lat="47.27373" lon="0.62105">
        <ele>75</ele>
        <time>2023-06-04T08:43:15Z</time>
      </trkpt>
      <trkpt lat="47.27377" lon="0.62103">
        <ele>74.9</ele>
        <time>2023-06-04T08:43:16Z</time>
      </trkpt>
      <trkpt lat="47.27392" lon="0.62106">
        <ele>74.8</ele>
        <time>2023-06-04T08:43:18Z</time>
      </trkpt>
      <trkpt lat="47.274" lon="0.62109">
        <ele>74.8</ele>
        <time>2023-06-04T08:43:19Z</time>
      </trkpt>
      <trkpt lat="47.27437" lon="0.6212">
        <ele>74.6</ele>
        <time>2023-06-04T08:43:24Z</time>
      </trkpt>
      <trkpt lat="47.27472" lon="0.62124">
        <ele>74.3</ele>
        <time>2023-06-04T08:43:30Z</time>
      </trkpt>
      <trkpt lat="47.27514" lon="0.62129">
        <ele>73.8</ele>
        <time>2023-06-04T08:43:37Z</time>
      </trkpt>
      <trkpt lat="47.27538" lon="0.62131">
        <ele>73.4</ele>
        <time>2023-06-04T08:43:41Z</time>
      </trkpt>
      <trkpt lat="47.2757" lon="0.62131">
        <ele>72.4</ele>
        <time>2023-06-04T08:43:46Z</time>
      </trkpt>
      <trkpt lat="47.27595" lon="0.62128">
        <ele>71.4</ele>
        <time>2023-06-04T08:43:50Z</time>
      </trkpt>
      <trkpt lat="47.27615" lon="0.62123">
        <ele>70.5</ele>
        <time>2023-06-04T08:43:53Z</time>
      </trkpt>
      <trkpt lat="47.27644" lon="0.62115">
        <ele>69.5</ele>
        <time>2023-06-04T08:43:57Z</time>
      </trkpt>
      <trkpt lat="47.27666" lon="0.62109">
        <ele>68.7</ele>
        <time>2023-06-04T08:44:00Z</time>
      </trkpt>
      <trkpt lat="47.27705" lon="0.62099">
        <ele>67.5</ele>
        <time>2023-06-04T08:44:05Z</time>
      </trkpt>
      <trkpt lat="47.27712" lon="0.62102">
        <ele>67.3</ele>
        <time>2023-06-04T08:44:06Z</time>
      </trkpt>
      <trkpt lat="47.2773" lon="0.62124">
        <ele>66.5</ele>
        <time>2023-06-04T08:44:09Z</time>
      </trkpt>
      <trkpt lat="47.2774" lon="0.62143">
        <ele>65.7</ele>
        <time>2023-06-04T08:44:11Z</time>
      </trkpt>
      <trkpt lat="47.27749" lon="0.62164">
        <ele>64.8</ele>
        <time>2023-06-04T08:44:13Z</time>
      </trkpt>
      <trkpt lat="47.27753" lon="0.62175">
        <ele>64.3</ele>
        <time>2023-06-04T08:44:14Z</time>
      </trkpt>
      <trkpt lat="47.27768" lon="0.62207">
        <ele>62.7</ele>
        <time>2023-06-04T08:44:17Z</time>
      </trkpt>
      <trkpt lat="47.27783" lon="0.62241">
        <ele>61</ele>
        <time>2023-06-04T08:44:20Z</time>
      </trkpt>
      <trkpt lat="47.27793" lon="0.62265">
        <ele>59.8</ele>
        <time>2023-06-04T08:44:22Z</time>
      </trkpt>
      <trkpt lat="47.27801" lon="0.62291">
        <ele>58.6</ele>
        <time>2023-06-04T08:44:24Z</time>
      </trkpt>
      <trkpt lat="47.27804" lon="0.62304">
        <ele>57.9</ele>
        <time>2023-06-04T08:44:25Z</time>
      </trkpt>
      <trkpt lat="47.27806" lon="0.62318">
        <ele>57.3</ele>
        <time>2023-06-04T08:44:26Z</time>
      </trkpt>
      <trkpt lat="47.27808" lon="0.62343">
        <ele>56.3</ele>
        <time>2023-06-04T08:44:28Z</time>
      </trkpt>
      <trkpt lat="47.27809" lon="0.62355">
        <ele>55.8</ele>
        <time>2023-06-04T08:44:29Z</time>
      </trkpt>
      <trkpt lat="47.2781" lon="0.62377">
        <ele>54.9</ele>
        <time>2023-06-04T08:44:31Z</time>
      </trkpt>
      <trkpt lat="47.27811" lon="0.62385">
        <ele>54.5</ele>
        <time>2023-06-04T08:44:32Z</time>
      </trkpt>
      <trkpt lat="47.27811" lon="0.62402">
        <ele>53.8</ele>
        <time>2023-06-04T08:44:35Z</time>
      </trkpt>
      <trkpt lat="47.2781" lon="0.62409">
        <ele>53.6</ele>
        <time>2023-06-04T08:44:36Z</time>
      </trkpt>
      <trkpt lat="47.27802" lon="0.62449">
        <ele>52.4</ele>
        <time>2023-06-04T08:44:41Z</time>
      </trkpt>
      <trkpt lat="47.27798" lon="0.62469">
        <ele>52.1</ele>
        <time>2023-06-04T08:44:43Z</time>
      </trkpt>
      <trkpt lat="47.27799" lon="0.62479">
        <ele>52</ele>
        <time>2023-06-04T08:44:44Z</time>
      </trkpt>
      <trkpt lat="47.27802" lon="0.62484">
        <ele>52</ele>
        <time>2023-06-04T08:44:45Z</time>
      </trkpt>
      <trkpt lat="47.27812" lon="0.62488">
        <ele>51.8</ele>
        <time>2023-06-04T08:44:47Z</time>
      </trkpt>
      <trkpt lat="47.27818" lon="0.6249">
        <ele>51.8</ele>
        <time>2023-06-04T08:44:48Z</time>
      </trkpt>
      <trkpt lat="47.27831" lon="0.62491">
        <ele>51.8</ele>
        <time>2023-06-04T08:44:50Z</time>
      </trkpt>
      <trkpt lat="47.27851" lon="0.62493">
        <ele>51.7</ele>
        <time>2023-06-04T08:44:53Z</time>
      </trkpt>
      <trkpt lat="47.27857" lon="0.62495">
        <ele>51.7</ele>
        <time>2023-06-04T08:44:54Z</time>
      </trkpt>
      <trkpt lat="47.2787" lon="0.625">
        <ele>51.7</ele>
        <time>2023-06-04T08:44:56Z</time>
      </trkpt>
      <trkpt lat="47.27882" lon="0.62509">
        <ele>51.7</ele>
        <time>2023-06-04T08:44:58Z</time>
      </trkpt>
      <trkpt lat="47.27887" lon="0.62514">
        <ele>51.7</ele>
        <time>2023-06-04T08:44:59Z</time>
      </trkpt>
      <trkpt lat="47.27912" lon="0.62538">
        <ele>51.7</ele>
        <time>2023-06-04T08:45:04Z</time>
      </trkpt>
      <trkpt lat="47.27958" lon="0.62583">
        <ele>51.5</ele>
        <time>2023-06-04T08:45:12Z</time>
      </trkpt>
      <trkpt lat="47.27977" lon="0.626">
        <ele>51.4</ele>
        <time>2023-06-04T08:45:15Z</time>
      </trkpt>
      <trkpt lat="47.28002" lon="0.62623">
        <ele>51.4</ele>
        <time>2023-06-04T08:45:19Z</time>
      </trkpt>
      <trkpt lat="47.28038" lon="0.62656">
        <ele>51.3</ele>
        <time>2023-06-04T08:45:25Z</time>
      </trkpt>
      <trkpt lat="47.28044" lon="0.6266">
        <ele>51.3</ele>
        <time>2023-06-04T08:45:26Z</time>
      </trkpt>
      <trkpt lat="47.2808" lon="0.62698">
        <ele>51.2</ele>
        <time>2023-06-04T08:45:33Z</time>
      </trkpt>
      <trkpt lat="47.28088" lon="0.62713">
        <ele>51.1</ele>
        <time>2023-06-04T08:45:35Z</time>
      </trkpt>
      <trkpt lat="47.28102" lon="0.62736">
        <ele>51</ele>
        <time>2023-06-04T08:45:38Z</time>
      </trkpt>
      <trkpt lat="47.28138" lon="0.62787">
        <ele>51.1</ele>
        <time>2023-06-04T08:45:45Z</time>
      </trkpt>
      <trkpt lat="47.28177" lon="0.62842">
        <ele>51.4</ele>
        <time>2023-06-04T08:45:53Z</time>
      </trkpt>
      <trkpt lat="47.28182" lon="0.62849">
        <ele>51.5</ele>
        <time>2023-06-04T08:45:54Z</time>
      </trkpt>
      <trkpt lat="47.28197" lon="0.62869">
        <ele>51.8</ele>
        <time>2023-06-04T08:45:57Z</time>
      </trkpt>
      <trkpt lat="47.28216" lon="0.62895">
        <ele>52.3</ele>
        <time>2023-06-04T08:46:01Z</time>
      </trkpt>
      <trkpt lat="47.28225" lon="0.62909">
        <ele>52.6</ele>
        <time>2023-06-04T08:46:03Z</time>
      </trkpt>
      <trkpt lat="47.28243" lon="0.62935">
        <ele>53.3</ele>
        <time>2023-06-04T08:46:07Z</time>
      </trkpt>
      <trkpt lat="47.28265" lon="0.62966">
        <ele>54.1</ele>
        <time>2023-06-04T08:46:12Z</time>
      </trkpt>
      <trkpt lat="47.28302" lon="0.63018">
        <ele>55.1</ele>
        <time>2023-06-04T08:46:21Z</time>
      </trkpt>
      <trkpt lat="47.28306" lon="0.63024">
        <ele>55.2</ele>
        <time>2023-06-04T08:46:22Z</time>
      </trkpt>
      <trkpt lat="47.28323" lon="0.63047">
        <ele>55.5</ele>
        <time>2023-06-04T08:46:26Z</time>
      </trkpt>
      <trkpt lat="47.28344" lon="0.63076">
        <ele>55.7</ele>
        <time>2023-06-04T08:46:31Z</time>
      </trkpt>
      <trkpt lat="47.28376" lon="0.63128">
        <ele>55.7</ele>
        <time>2023-06-04T08:46:39Z</time>
      </trkpt>
      <trkpt lat="47.28401" lon="0.63176">
        <ele>56.2</ele>
        <time>2023-06-04T08:46:46Z</time>
      </trkpt>
      <trkpt lat="47.28407" lon="0.6319">
        <ele>56.5</ele>
        <time>2023-06-04T08:46:48Z</time>
      </trkpt>
      <trkpt lat="47.2843" lon="0.63236">
        <ele>57.8</ele>
        <time>2023-06-04T08:46:55Z</time>
      </trkpt>
      <trkpt lat="47.28436" lon="0.63248">
        <ele>58.2</ele>
        <time>2023-06-04T08:46:57Z</time>
      </trkpt>
      <trkpt lat="47.28443" lon="0.6326">
        <ele>58.7</ele>
        <time>2023-06-04T08:46:59Z</time>
      </trkpt>
      <trkpt lat="47.28457" lon="0.63289">
        <ele>59.8</ele>
        <time>2023-06-04T08:47:04Z</time>
      </trkpt>
      <trkpt lat="47.2846" lon="0.63295">
        <ele>60.1</ele>
        <time>2023-06-04T08:47:05Z</time>
      </trkpt>
      <trkpt lat="47.28473" lon="0.63318">
        <ele>61</ele>
        <time>2023-06-04T08:47:09Z</time>
      </trkpt>
      <trkpt lat="47.28482" lon="0.63337">
        <ele>61.7</ele>
        <time>2023-06-04T08:47:12Z</time>
      </trkpt>
      <trkpt lat="47.28484" lon="0.63343">
        <ele>61.9</ele>
        <time>2023-06-04T08:47:13Z</time>
      </trkpt>
      <trkpt lat="47.28497" lon="0.63367">
        <ele>62.7</ele>
        <time>2023-06-04T08:47:17Z</time>
      </trkpt>
      <trkpt lat="47.28517" lon="0.63401">
        <ele>63.6</ele>
        <time>2023-06-04T08:47:23Z</time>
      </trkpt>
      <trkpt lat="47.28547" lon="0.63444">
        <ele>64.4</ele>
        <time>2023-06-04T08:47:31Z</time>
      </trkpt>
      <trkpt lat="47.28573" lon="0.63474">
        <ele>64.8</ele>
        <time>2023-06-04T08:47:37Z</time>
      </trkpt>
      <trkpt lat="47.28594" lon="0.63499">
        <ele>65.2</ele>
        <time>2023-06-04T08:47:42Z</time>
      </trkpt>
      <trkpt lat="47.28633" lon="0.63547">
        <ele>65.8</ele>
        <time>2023-06-04T08:47:51Z</time>
      </trkpt>
      <trkpt lat="47.28664" lon="0.63585">
        <ele>66.4</ele>
        <time>2023-06-04T08:47:59Z</time>
      </trkpt>
      <trkpt lat="47.28672" lon="0.63594">
        <ele>66.5</ele>
        <time>2023-06-04T08:48:01Z</time>
      </trkpt>
      <trkpt lat="47.28695" lon="0.63619">
        <ele>66.7</ele>
        <time>2023-06-04T08:48:06Z</time>
      </trkpt>
      <trkpt lat="47.28728" lon="0.63649">
        <ele>67.1</ele>
        <time>2023-06-04T08:48:13Z</time>
      </trkpt>
      <trkpt lat="47.28756" lon="0.63669">
        <ele>67.4</ele>
        <time>2023-06-04T08:48:19Z</time>
      </trkpt>
      <trkpt lat="47.28771" lon="0.6368">
        <ele>67.5</ele>
        <time>2023-06-04T08:48:22Z</time>
      </trkpt>
      <trkpt lat="47.28792" lon="0.63691">
        <ele>67.6</ele>
        <time>2023-06-04T08:48:26Z</time>
      </trkpt>
      <trkpt lat="47.28796" lon="0.63694">
        <ele>67.6</ele>
        <time>2023-06-04T08:48:27Z</time>
      </trkpt>
      <trkpt lat="47.28811" lon="0.63704">
        <ele>67.7</ele>
        <time>2023-06-04T08:48:30Z</time>
      </trkpt>
      <trkpt lat="47.28816" lon="0.63707">
        <ele>67.7</ele>
        <time>2023-06-04T08:48:31Z</time>
      </trkpt>
      <trkpt lat="47.28838" lon="0.63719">
        <ele>67.8</ele>
        <time>2023-06-04T08:48:35Z</time>
      </trkpt>
      <trkpt lat="47.28849" lon="0.63725">
        <ele>67.9</ele>
        <time>2023-06-04T08:48:37Z</time>
      </trkpt>
      <trkpt lat="47.28896" lon="0.6375">
        <ele>68.3</ele>
        <time>2023-06-04T08:48:45Z</time>
      </trkpt>
      <trkpt lat="47.28908" lon="0.63756">
        <ele>68.4</ele>
        <time>2023-06-04T08:48:47Z</time>
      </trkpt>
      <trkpt lat="47.2895" lon="0.63777">
        <ele>68.7</ele>
        <time>2023-06-04T08:48:54Z</time>
      </trkpt>
      <trkpt lat="47.28996" lon="0.63802">
        <ele>69.4</ele>
        <time>2023-06-04T08:49:02Z</time>
      </trkpt>
      <trkpt lat="47.29001" lon="0.63805">
        <ele>69.4</ele>
        <time>2023-06-04T08:49:03Z</time>
      </trkpt>
      <trkpt lat="47.29041" lon="0.63827">
        <ele>69.8</ele>
        <time>2023-06-04T08:49:10Z</time>
      </trkpt>
      <trkpt lat="47.29053" lon="0.63833">
        <ele>69.8</ele>
        <time>2023-06-04T08:49:12Z</time>
      </trkpt>
      <trkpt lat="47.29082" lon="0.6385">
        <ele>69.9</ele>
        <time>2023-06-04T08:49:17Z</time>
      </trkpt>
      <trkpt lat="47.29126" lon="0.63874">
        <ele>69.8</ele>
        <time>2023-06-04T08:49:24Z</time>
      </trkpt>
      <trkpt lat="47.29167" lon="0.63897">
        <ele>69.4</ele>
        <time>2023-06-04T08:49:31Z</time>
      </trkpt>
      <trkpt lat="47.29198" lon="0.63915">
        <ele>69</ele>
        <time>2023-06-04T08:49:36Z</time>
      </trkpt>
      <trkpt lat="47.29204" lon="0.63919">
        <ele>68.9</ele>
        <time>2023-06-04T08:49:37Z</time>
      </trkpt>
      <trkpt lat="47.29241" lon="0.63938">
        <ele>68.4</ele>
        <time>2023-06-04T08:49:43Z</time>
      </trkpt>
      <trkpt lat="47.2929" lon="0.63966">
        <ele>68</ele>
        <time>2023-06-04T08:49:51Z</time>
      </trkpt>
      <trkpt lat="47.29332" lon="0.6399">
        <ele>68.2</ele>
        <time>2023-06-04T08:49:58Z</time>
      </trkpt>
      <trkpt lat="47.29379" lon="0.64015">
        <ele>68.8</ele>
        <time>2023-06-04T08:50:06Z</time>
      </trkpt>
      <trkpt lat="47.29418" lon="0.64036">
        <ele>69.3</ele>
        <time>2023-06-04T08:50:13Z</time>
      </trkpt>
      <trkpt lat="47.29429" lon="0.64042">
        <ele>69.5</ele>
        <time>2023-06-04T08:50:15Z</time>
      </trkpt>
      <trkpt lat="47.29461" lon="0.6406">
        <ele>70.1</ele>
        <time>2023-06-04T08:50:21Z</time>
      </trkpt>
      <trkpt lat="47.29467" lon="0.64063">
        <ele>70.2</ele>
        <time>2023-06-04T08:50:22Z</time>
      </trkpt>
      <trkpt lat="47.2951" lon="0.64087">
        <ele>70.8</ele>
        <time>2023-06-04T08:50:30Z</time>
      </trkpt>
      <trkpt lat="47.29547" lon="0.64108">
        <ele>71.4</ele>
        <time>2023-06-04T08:50:37Z</time>
      </trkpt>
      <trkpt lat="47.29566" lon="0.6412">
        <ele>71.9</ele>
        <time>2023-06-04T08:50:41Z</time>
      </trkpt>
      <trkpt lat="47.29579" lon="0.64128">
        <ele>72.4</ele>
        <time>2023-06-04T08:50:44Z</time>
      </trkpt>
      <trkpt lat="47.29582" lon="0.64132">
        <ele>72.5</ele>
        <time>2023-06-04T08:50:45Z</time>
      </trkpt>
      <trkpt lat="47.2959" lon="0.64147">
        <ele>72.6</ele>
        <time>2023-06-04T08:50:48Z</time>
      </trkpt>
      <trkpt lat="47.29596" lon="0.64158">
        <ele>72.6</ele>
        <time>2023-06-04T08:50:51Z</time>
      </trkpt>
      <trkpt lat="47.296" lon="0.64165">
        <ele>72.7</ele>
        <time>2023-06-04T08:50:53Z</time>
      </trkpt>
      <trkpt lat="47.29604" lon="0.64168">
        <ele>72.7</ele>
        <time>2023-06-04T08:50:55Z</time>
      </trkpt>
      <trkpt lat="47.2961" lon="0.64166">
        <ele>72.8</ele>
        <time>2023-06-04T08:50:57Z</time>
      </trkpt>
      <trkpt lat="47.2962" lon="0.64151">
        <ele>73</ele>
        <time>2023-06-04T08:51:01Z</time>
      </trkpt>
      <trkpt lat="47.29629" lon="0.6415">
        <ele>73.1</ele>
        <time>2023-06-04T08:51:03Z</time>
      </trkpt>
      <trkpt lat="47.29634" lon="0.64151">
        <ele>73.1</ele>
        <time>2023-06-04T08:51:04Z</time>
      </trkpt>
      <trkpt lat="47.29648" lon="0.64159">
        <ele>73.2</ele>
        <time>2023-06-04T08:51:07Z</time>
      </trkpt>
      <trkpt lat="47.29657" lon="0.64165">
        <ele>73.2</ele>
        <time>2023-06-04T08:51:09Z</time>
      </trkpt>
      <trkpt lat="47.29698" lon="0.64194">
        <ele>73.3</ele>
        <time>2023-06-04T08:51:17Z</time>
      </trkpt>
      <trkpt lat="47.29734" lon="0.64226">
        <ele>73.6</ele>
        <time>2023-06-04T08:51:24Z</time>
      </trkpt>
      <trkpt lat="47.29739" lon="0.64231">
        <ele>73.7</ele>
        <time>2023-06-04T08:51:25Z</time>
      </trkpt>
      <trkpt lat="47.29782" lon="0.64277">
        <ele>74.2</ele>
        <time>2023-06-04T08:51:34Z</time>
      </trkpt>
      <trkpt lat="47.2982" lon="0.64321">
        <ele>74.6</ele>
        <time>2023-06-04T08:51:42Z</time>
      </trkpt>
      <trkpt lat="47.29825" lon="0.64327">
        <ele>74.6</ele>
        <time>2023-06-04T08:51:43Z</time>
      </trkpt>
      <trkpt lat="47.29834" lon="0.64338">
        <ele>74.7</ele>
        <time>2023-06-04T08:51:45Z</time>
      </trkpt>
      <trkpt lat="47.29862" lon="0.64371">
        <ele>75.1</ele>
        <time>2023-06-04T08:51:51Z</time>
      </trkpt>
      <trkpt lat="47.29885" lon="0.64399">
        <ele>75.4</ele>
        <time>2023-06-04T08:51:56Z</time>
      </trkpt>
      <trkpt lat="47.29918" lon="0.64438">
        <ele>76</ele>
        <time>2023-06-04T08:52:03Z</time>
      </trkpt>
      <trkpt lat="47.2995" lon="0.64477">
        <ele>76.5</ele>
        <time>2023-06-04T08:52:10Z</time>
      </trkpt>
      <trkpt lat="47.29955" lon="0.64482">
        <ele>76.5</ele>
        <time>2023-06-04T08:52:11Z</time>
      </trkpt>
      <trkpt lat="47.30002" lon="0.64526">
        <ele>77</ele>
        <time>2023-06-04T08:52:20Z</time>
      </trkpt>
      <trkpt lat="47.30024" lon="0.64542">
        <ele>77.3</ele>
        <time>2023-06-04T08:52:24Z</time>
      </trkpt>
      <trkpt lat="47.30044" lon="0.64557">
        <ele>77.4</ele>
        <time>2023-06-04T08:52:28Z</time>
      </trkpt>
      <trkpt lat="47.30061" lon="0.64568">
        <ele>77.5</ele>
        <time>2023-06-04T08:52:32Z</time>
      </trkpt>
      <trkpt lat="47.30072" lon="0.64577">
        <ele>77.5</ele>
        <time>2023-06-04T08:52:35Z</time>
      </trkpt>
      <trkpt lat="47.30086" lon="0.64586">
        <ele>77.4</ele>
        <time>2023-06-04T08:52:40Z</time>
      </trkpt>
      <trkpt lat="47.30088" lon="0.64587">
        <ele>77.4</ele>
        <time>2023-06-04T08:52:41Z</time>
      </trkpt>
      <trkpt lat="47.30102" lon="0.64598">
        <ele>77.1</ele>
        <time>2023-06-04T08:52:45Z</time>
      </trkpt>
      <trkpt lat="47.30127" lon="0.64615">
        <ele>76.1</ele>
        <time>2023-06-04T08:52:50Z</time>
      </trkpt>
      <trkpt lat="47.30138" lon="0.64623">
        <ele>75.6</ele>
        <time>2023-06-04T08:52:52Z</time>
      </trkpt>
      <trkpt lat="47.30144" lon="0.64628">
        <ele>75.4</ele>
        <time>2023-06-04T08:52:53Z</time>
      </trkpt>
      <trkpt lat="47.30184" lon="0.64656">
        <ele>73.2</ele>
        <time>2023-06-04T08:52:59Z</time>
      </trkpt>
      <trkpt lat="47.30213" lon="0.64677">
        <ele>71.7</ele>
        <time>2023-06-04T08:53:03Z</time>
      </trkpt>
      <trkpt lat="47.30234" lon="0.64694">
        <ele>70.7</ele>
        <time>2023-06-04T08:53:06Z</time>
      </trkpt>
      <trkpt lat="47.30248" lon="0.64707">
        <ele>70.1</ele>
        <time>2023-06-04T08:53:08Z</time>
      </trkpt>
      <trkpt lat="47.30255" lon="0.64713">
        <ele>69.8</ele>
        <time>2023-06-04T08:53:09Z</time>
      </trkpt>
      <trkpt lat="47.30283" lon="0.64739">
        <ele>68.9</ele>
        <time>2023-06-04T08:53:13Z</time>
      </trkpt>
      <trkpt lat="47.30302" lon="0.64759">
        <ele>68.8</ele>
        <time>2023-06-04T08:53:16Z</time>
      </trkpt>
      <trkpt lat="47.30309" lon="0.64765">
        <ele>68.8</ele>
        <time>2023-06-04T08:53:17Z</time>
      </trkpt>
      <trkpt lat="47.30354" lon="0.64809">
        <ele>69.8</ele>
        <time>2023-06-04T08:53:24Z</time>
      </trkpt>
      <trkpt lat="47.30373" lon="0.64826">
        <ele>70.8</ele>
        <time>2023-06-04T08:53:27Z</time>
      </trkpt>
      <trkpt lat="47.30384" lon="0.64837">
        <ele>71.5</ele>
        <time>2023-06-04T08:53:29Z</time>
      </trkpt>
      <trkpt lat="47.30404" lon="0.64857">
        <ele>72.8</ele>
        <time>2023-06-04T08:53:33Z</time>
      </trkpt>
      <trkpt lat="47.30424" lon="0.64875">
        <ele>74.1</ele>
        <time>2023-06-04T08:53:37Z</time>
      </trkpt>
      <trkpt lat="47.30439" lon="0.64888">
        <ele>75</ele>
        <time>2023-06-04T08:53:40Z</time>
      </trkpt>
      <trkpt lat="47.30452" lon="0.64901">
        <ele>75.9</ele>
        <time>2023-06-04T08:53:43Z</time>
      </trkpt>
      <trkpt lat="47.3046" lon="0.6491">
        <ele>76.4</ele>
        <time>2023-06-04T08:53:45Z</time>
      </trkpt>
      <trkpt lat="47.30479" lon="0.64928">
        <ele>77.5</ele>
        <time>2023-06-04T08:53:49Z</time>
      </trkpt>
      <trkpt lat="47.30493" lon="0.64941">
        <ele>78.3</ele>
        <time>2023-06-04T08:53:52Z</time>
      </trkpt>
      <trkpt lat="47.30498" lon="0.64945">
        <ele>78.5</ele>
        <time>2023-06-04T08:53:53Z</time>
      </trkpt>
      <trkpt lat="47.30517" lon="0.6496">
        <ele>79.3</ele>
        <time>2023-06-04T08:53:57Z</time>
      </trkpt>
      <trkpt lat="47.30538" lon="0.64972">
        <ele>80.1</ele>
        <time>2023-06-04T08:54:01Z</time>
      </trkpt>
      <trkpt lat="47.30548" lon="0.64977">
        <ele>80.5</ele>
        <time>2023-06-04T08:54:03Z</time>
      </trkpt>
      <trkpt lat="47.30558" lon="0.64982">
        <ele>80.9</ele>
        <time>2023-06-04T08:54:05Z</time>
      </trkpt>
      <trkpt lat="47.30583" lon="0.64993">
        <ele>81.6</ele>
        <time>2023-06-04T08:54:10Z</time>
      </trkpt>
      <trkpt lat="47.30609" lon="0.65005">
        <ele>82.1</ele>
        <time>2023-06-04T08:54:15Z</time>
      </trkpt>
      <trkpt lat="47.3063" lon="0.65014">
        <ele>82.5</ele>
        <time>2023-06-04T08:54:19Z</time>
      </trkpt>
      <trkpt lat="47.30669" lon="0.65031">
        <ele>83.3</ele>
        <time>2023-06-04T08:54:26Z</time>
      </trkpt>
      <trkpt lat="47.3068" lon="0.65036">
        <ele>83.5</ele>
        <time>2023-06-04T08:54:28Z</time>
      </trkpt>
      <trkpt lat="47.30736" lon="0.65067">
        <ele>84.3</ele>
        <time>2023-06-04T08:54:38Z</time>
      </trkpt>
      <trkpt lat="47.30742" lon="0.65071">
        <ele>84.4</ele>
        <time>2023-06-04T08:54:39Z</time>
      </trkpt>
      <trkpt lat="47.30786" lon="0.65105">
        <ele>85.1</ele>
        <time>2023-06-04T08:54:47Z</time>
      </trkpt>
      <trkpt lat="47.30818" lon="0.65137">
        <ele>85.6</ele>
        <time>2023-06-04T08:54:53Z</time>
      </trkpt>
      <trkpt lat="47.30829" lon="0.65148">
        <ele>85.7</ele>
        <time>2023-06-04T08:54:55Z</time>
      </trkpt>
      <trkpt lat="47.3087" lon="0.65188">
        <ele>86.3</ele>
        <time>2023-06-04T08:55:03Z</time>
      </trkpt>
      <trkpt lat="47.30904" lon="0.65224">
        <ele>86.7</ele>
        <time>2023-06-04T08:55:11Z</time>
      </trkpt>
      <trkpt lat="47.30909" lon="0.65228">
        <ele>86.7</ele>
        <time>2023-06-04T08:55:12Z</time>
      </trkpt>
      <trkpt lat="47.30946" lon="0.65258">
        <ele>87.1</ele>
        <time>2023-06-04T08:55:19Z</time>
      </trkpt>
      <trkpt lat="47.30996" lon="0.65291">
        <ele>87.4</ele>
        <time>2023-06-04T08:55:28Z</time>
      </trkpt>
      <trkpt lat="47.31043" lon="0.65317">
        <ele>87</ele>
        <time>2023-06-04T08:55:36Z</time>
      </trkpt>
      <trkpt lat="47.31094" lon="0.65344">
        <ele>85.9</ele>
        <time>2023-06-04T08:55:44Z</time>
      </trkpt>
      <trkpt lat="47.311" lon="0.65348">
        <ele>85.7</ele>
        <time>2023-06-04T08:55:45Z</time>
      </trkpt>
      <trkpt lat="47.31132" lon="0.65369">
        <ele>84.6</ele>
        <time>2023-06-04T08:55:50Z</time>
      </trkpt>
      <trkpt lat="47.31144" lon="0.65378">
        <ele>84.1</ele>
        <time>2023-06-04T08:55:52Z</time>
      </trkpt>
      <trkpt lat="47.31173" lon="0.65405">
        <ele>83</ele>
        <time>2023-06-04T08:55:57Z</time>
      </trkpt>
      <trkpt lat="47.31185" lon="0.65418">
        <ele>82.6</ele>
        <time>2023-06-04T08:55:59Z</time>
      </trkpt>
      <trkpt lat="47.31203" lon="0.65438">
        <ele>81.9</ele>
        <time>2023-06-04T08:56:02Z</time>
      </trkpt>
      <trkpt lat="47.3122" lon="0.65459">
        <ele>81.4</ele>
        <time>2023-06-04T08:56:05Z</time>
      </trkpt>
      <trkpt lat="47.31231" lon="0.65473">
        <ele>81.1</ele>
        <time>2023-06-04T08:56:07Z</time>
      </trkpt>
      <trkpt lat="47.31273" lon="0.65526">
        <ele>81.2</ele>
        <time>2023-06-04T08:56:15Z</time>
      </trkpt>
      <trkpt lat="47.31278" lon="0.65532">
        <ele>81.2</ele>
        <time>2023-06-04T08:56:16Z</time>
      </trkpt>
      <trkpt lat="47.31317" lon="0.65579">
        <ele>82.5</ele>
        <time>2023-06-04T08:56:24Z</time>
      </trkpt>
      <trkpt lat="47.31327" lon="0.65588">
        <ele>83.1</ele>
        <time>2023-06-04T08:56:26Z</time>
      </trkpt>
      <trkpt lat="47.31351" lon="0.65612">
        <ele>84.4</ele>
        <time>2023-06-04T08:56:31Z</time>
      </trkpt>
      <trkpt lat="47.31366" lon="0.65625">
        <ele>85.2</ele>
        <time>2023-06-04T08:56:34Z</time>
      </trkpt>
      <trkpt lat="47.31371" lon="0.65629">
        <ele>85.4</ele>
        <time>2023-06-04T08:56:35Z</time>
      </trkpt>
      <trkpt lat="47.31386" lon="0.65641">
        <ele>86.1</ele>
        <time>2023-06-04T08:56:38Z</time>
      </trkpt>
      <trkpt lat="47.31406" lon="0.65657">
        <ele>87</ele>
        <time>2023-06-04T08:56:42Z</time>
      </trkpt>
      <trkpt lat="47.31417" lon="0.65665">
        <ele>87.4</ele>
        <time>2023-06-04T08:56:44Z</time>
      </trkpt>
      <trkpt lat="47.31427" lon="0.65672">
        <ele>87.7</ele>
        <time>2023-06-04T08:56:46Z</time>
      </trkpt>
      <trkpt lat="47.31457" lon="0.65693">
        <ele>88.8</ele>
        <time>2023-06-04T08:56:52Z</time>
      </trkpt>
      <trkpt lat="47.31481" lon="0.65709">
        <ele>89.7</ele>
        <time>2023-06-04T08:56:57Z</time>
      </trkpt>
      <trkpt lat="47.31506" lon="0.65722">
        <ele>90.3</ele>
        <time>2023-06-04T08:57:02Z</time>
      </trkpt>
      <trkpt lat="47.31519" lon="0.65731">
        <ele>90.5</ele>
        <time>2023-06-04T08:57:05Z</time>
      </trkpt>
      <trkpt lat="47.31526" lon="0.65742">
        <ele>90.7</ele>
        <time>2023-06-04T08:57:07Z</time>
      </trkpt>
      <trkpt lat="47.31541" lon="0.65763">
        <ele>90.7</ele>
        <time>2023-06-04T08:57:11Z</time>
      </trkpt>
      <trkpt lat="47.31558" lon="0.65759">
        <ele>91.1</ele>
        <time>2023-06-04T08:57:14Z</time>
      </trkpt>
      <trkpt lat="47.31581" lon="0.65759">
        <ele>91.4</ele>
        <time>2023-06-04T08:57:18Z</time>
      </trkpt>
      <trkpt lat="47.31587" lon="0.65762">
        <ele>91.5</ele>
        <time>2023-06-04T08:57:19Z</time>
      </trkpt>
      <trkpt lat="47.31626" lon="0.65782">
        <ele>91.2</ele>
        <time>2023-06-04T08:57:26Z</time>
      </trkpt>
      <trkpt lat="47.31679" lon="0.65811">
        <ele>90.5</ele>
        <time>2023-06-04T08:57:35Z</time>
      </trkpt>
      <trkpt lat="47.31685" lon="0.65814">
        <ele>90.3</ele>
        <time>2023-06-04T08:57:36Z</time>
      </trkpt>
      <trkpt lat="47.31733" lon="0.65848">
        <ele>88.9</ele>
        <time>2023-06-04T08:57:44Z</time>
      </trkpt>
      <trkpt lat="47.31758" lon="0.65867">
        <ele>88.3</ele>
        <time>2023-06-04T08:57:48Z</time>
      </trkpt>
      <trkpt lat="47.3179" lon="0.6589">
        <ele>87.5</ele>
        <time>2023-06-04T08:57:53Z</time>
      </trkpt>
      <trkpt lat="47.3181" lon="0.65903">
        <ele>87</ele>
        <time>2023-06-04T08:57:56Z</time>
      </trkpt>
      <trkpt lat="47.31857" lon="0.65933">
        <ele>86.3</ele>
        <time>2023-06-04T08:58:03Z</time>
      </trkpt>
      <trkpt lat="47.31864" lon="0.65937">
        <ele>86.2</ele>
        <time>2023-06-04T08:58:04Z</time>
      </trkpt>
      <trkpt lat="47.31916" lon="0.6597">
        <ele>86.3</ele>
        <time>2023-06-04T08:58:12Z</time>
      </trkpt>
      <trkpt lat="47.31966" lon="0.66001">
        <ele>87.4</ele>
        <time>2023-06-04T08:58:20Z</time>
      </trkpt>
      <trkpt lat="47.31978" lon="0.66008">
        <ele>87.7</ele>
        <time>2023-06-04T08:58:22Z</time>
      </trkpt>
      <trkpt lat="47.31996" lon="0.66019">
        <ele>88.3</ele>
        <time>2023-06-04T08:58:25Z</time>
      </trkpt>
      <trkpt lat="47.32019" lon="0.66033">
        <ele>89.1</ele>
        <time>2023-06-04T08:58:29Z</time>
      </trkpt>
      <trkpt lat="47.32031" lon="0.66039">
        <ele>89.5</ele>
        <time>2023-06-04T08:58:31Z</time>
      </trkpt>
      <trkpt lat="47.32042" lon="0.66046">
        <ele>89.9</ele>
        <time>2023-06-04T08:58:33Z</time>
      </trkpt>
      <trkpt lat="47.32069" lon="0.66062">
        <ele>90.9</ele>
        <time>2023-06-04T08:58:38Z</time>
      </trkpt>
      <trkpt lat="47.32091" lon="0.66074">
        <ele>91.7</ele>
        <time>2023-06-04T08:58:42Z</time>
      </trkpt>
      <trkpt lat="47.32117" lon="0.66089">
        <ele>92.5</ele>
        <time>2023-06-04T08:58:47Z</time>
      </trkpt>
      <trkpt lat="47.32139" lon="0.66102">
        <ele>93</ele>
        <time>2023-06-04T08:58:51Z</time>
      </trkpt>
      <trkpt lat="47.32189" lon="0.66132">
        <ele>93.6</ele>
        <time>2023-06-04T08:59:00Z</time>
      </trkpt>
      <trkpt lat="47.32201" lon="0.6614">
        <ele>93.7</ele>
        <time>2023-06-04T08:59:02Z</time>
      </trkpt>
      <trkpt lat="47.32242" lon="0.66165">
        <ele>93.7</ele>
        <time>2023-06-04T08:59:09Z</time>
      </trkpt>
      <trkpt lat="47.32264" lon="0.66179">
        <ele>93.9</ele>
        <time>2023-06-04T08:59:13Z</time>
      </trkpt>
      <trkpt lat="47.32284" lon="0.66191">
        <ele>93.8</ele>
        <time>2023-06-04T08:59:17Z</time>
      </trkpt>
      <trkpt lat="47.32288" lon="0.66196">
        <ele>93.8</ele>
        <time>2023-06-04T08:59:20Z</time>
      </trkpt>
      <trkpt lat="47.32293" lon="0.66211">
        <ele>93.7</ele>
        <time>2023-06-04T08:59:24Z</time>
      </trkpt>
      <trkpt lat="47.32295" lon="0.66217">
        <ele>93.7</ele>
        <time>2023-06-04T08:59:25Z</time>
      </trkpt>
      <trkpt lat="47.32298" lon="0.66223">
        <ele>93.7</ele>
        <time>2023-06-04T08:59:26Z</time>
      </trkpt>
      <trkpt lat="47.32306" lon="0.6623">
        <ele>93.7</ele>
        <time>2023-06-04T08:59:28Z</time>
      </trkpt>
      <trkpt lat="47.3232" lon="0.66222">
        <ele>93.8</ele>
        <time>2023-06-04T08:59:31Z</time>
      </trkpt>
      <trkpt lat="47.32325" lon="0.66207">
        <ele>93.7</ele>
        <time>2023-06-04T08:59:33Z</time>
      </trkpt>
      <trkpt lat="47.32325" lon="0.66199">
        <ele>93.7</ele>
        <time>2023-06-04T08:59:34Z</time>
      </trkpt>
      <trkpt lat="47.32331" lon="0.66163">
        <ele>93.5</ele>
        <time>2023-06-04T08:59:38Z</time>
      </trkpt>
      <trkpt lat="47.32333" lon="0.66155">
        <ele>93.4</ele>
        <time>2023-06-04T08:59:39Z</time>
      </trkpt>
      <trkpt lat="47.32358" lon="0.66077">
        <ele>93.4</ele>
        <time>2023-06-04T08:59:48Z</time>
      </trkpt>
      <trkpt lat="47.32382" lon="0.66006">
        <ele>93.4</ele>
        <time>2023-06-04T08:59:56Z</time>
      </trkpt>
      <trkpt lat="47.32391" lon="0.65979">
        <ele>93.4</ele>
        <time>2023-06-04T08:59:59Z</time>
      </trkpt>
      <trkpt lat="47.32394" lon="0.65971">
        <ele>93.4</ele>
        <time>2023-06-04T09:00:00Z</time>
      </trkpt>
      <trkpt lat="47.32421" lon="0.65891">
        <ele>93.6</ele>
        <time>2023-06-04T09:00:09Z</time>
      </trkpt>
      <trkpt lat="47.3243" lon="0.65864">
        <ele>93.6</ele>
        <time>2023-06-04T09:00:12Z</time>
      </trkpt>
      <trkpt lat="47.32456" lon="0.65788">
        <ele>93.9</ele>
        <time>2023-06-04T09:00:21Z</time>
      </trkpt>
      <trkpt lat="47.32475" lon="0.65732">
        <ele>93.8</ele>
        <time>2023-06-04T09:00:28Z</time>
      </trkpt>
      <trkpt lat="47.32502" lon="0.65655">
        <ele>93.1</ele>
        <time>2023-06-04T09:00:37Z</time>
      </trkpt>
      <trkpt lat="47.32505" lon="0.65646">
        <ele>93</ele>
        <time>2023-06-04T09:00:38Z</time>
      </trkpt>
      <trkpt lat="47.32531" lon="0.65599">
        <ele>92.4</ele>
        <time>2023-06-04T09:00:44Z</time>
      </trkpt>
      <trkpt lat="47.32535" lon="0.65591">
        <ele>92.3</ele>
        <time>2023-06-04T09:00:45Z</time>
      </trkpt>
      <trkpt lat="47.32542" lon="0.65563">
        <ele>92</ele>
        <time>2023-06-04T09:00:48Z</time>
      </trkpt>
      <trkpt lat="47.3254" lon="0.65534">
        <ele>91.8</ele>
        <time>2023-06-04T09:00:51Z</time>
      </trkpt>
      <trkpt lat="47.32537" lon="0.65525">
        <ele>91.8</ele>
        <time>2023-06-04T09:00:52Z</time>
      </trkpt>
      <trkpt lat="47.32529" lon="0.65499">
        <ele>91.8</ele>
        <time>2023-06-04T09:00:55Z</time>
      </trkpt>
      <trkpt lat="47.32522" lon="0.65484">
        <ele>91.8</ele>
        <time>2023-06-04T09:00:57Z</time>
      </trkpt>
      <trkpt lat="47.32497" lon="0.65423">
        <ele>92.4</ele>
        <time>2023-06-04T09:01:05Z</time>
      </trkpt>
      <trkpt lat="47.32496" lon="0.65387">
        <ele>92.6</ele>
        <time>2023-06-04T09:01:09Z</time>
      </trkpt>
      <trkpt lat="47.32503" lon="0.65362">
        <ele>92.7</ele>
        <time>2023-06-04T09:01:12Z</time>
      </trkpt>
      <trkpt lat="47.32506" lon="0.65353">
        <ele>92.7</ele>
        <time>2023-06-04T09:01:13Z</time>
      </trkpt>
      <trkpt lat="47.32531" lon="0.65286">
        <ele>92.7</ele>
        <time>2023-06-04T09:01:21Z</time>
      </trkpt>
      <trkpt lat="47.3256" lon="0.6521">
        <ele>92.9</ele>
        <time>2023-06-04T09:01:30Z</time>
      </trkpt>
      <trkpt lat="47.32563" lon="0.65201">
        <ele>92.9</ele>
        <time>2023-06-04T09:01:31Z</time>
      </trkpt>
      <trkpt lat="47.32585" lon="0.65145">
        <ele>93.1</ele>
        <time>2023-06-04T09:01:38Z</time>
      </trkpt>
      <trkpt lat="47.32589" lon="0.65138">
        <ele>93.1</ele>
        <time>2023-06-04T09:01:39Z</time>
      </trkpt>
      <trkpt lat="47.32617" lon="0.65086">
        <ele>92.9</ele>
        <time>2023-06-04T09:01:46Z</time>
      </trkpt>
      <trkpt lat="47.32647" lon="0.65049">
        <ele>93</ele>
        <time>2023-06-04T09:01:52Z</time>
      </trkpt>
      <trkpt lat="47.32664" lon="0.65022">
        <ele>93</ele>
        <time>2023-06-04T09:01:56Z</time>
      </trkpt>
      <trkpt lat="47.3267" lon="0.65005">
        <ele>93</ele>
        <time>2023-06-04T09:01:58Z</time>
      </trkpt>
      <trkpt lat="47.32671" lon="0.64977">
        <ele>92.9</ele>
        <time>2023-06-04T09:02:01Z</time>
      </trkpt>
      <trkpt lat="47.3267" lon="0.64967">
        <ele>92.9</ele>
        <time>2023-06-04T09:02:02Z</time>
      </trkpt>
      <trkpt lat="47.32668" lon="0.64891">
        <ele>93.2</ele>
        <time>2023-06-04T09:02:10Z</time>
      </trkpt>
      <trkpt lat="47.32671" lon="0.64858">
        <ele>93.4</ele>
        <time>2023-06-04T09:02:14Z</time>
      </trkpt>
      <trkpt lat="47.32672" lon="0.64852">
        <ele>93.4</ele>
        <time>2023-06-04T09:02:15Z</time>
      </trkpt>
      <trkpt lat="47.32677" lon="0.64833">
        <ele>93.5</ele>
        <time>2023-06-04T09:02:19Z</time>
      </trkpt>
      <trkpt lat="47.32677" lon="0.64822">
        <ele>93.4</ele>
        <time>2023-06-04T09:02:21Z</time>
      </trkpt>
      <trkpt lat="47.32678" lon="0.64803">
        <ele>93.4</ele>
        <time>2023-06-04T09:02:24Z</time>
      </trkpt>
      <trkpt lat="47.32679" lon="0.64796">
        <ele>93.3</ele>
        <time>2023-06-04T09:02:25Z</time>
      </trkpt>
      <trkpt lat="47.32685" lon="0.64765">
        <ele>93.3</ele>
        <time>2023-06-04T09:02:29Z</time>
      </trkpt>
      <trkpt lat="47.32698" lon="0.64706">
        <ele>93.4</ele>
        <time>2023-06-04T09:02:36Z</time>
      </trkpt>
      <trkpt lat="47.32718" lon="0.64627">
        <ele>93.6</ele>
        <time>2023-06-04T09:02:45Z</time>
      </trkpt>
      <trkpt lat="47.3272" lon="0.64619">
        <ele>93.6</ele>
        <time>2023-06-04T09:02:46Z</time>
      </trkpt>
      <trkpt lat="47.32734" lon="0.64562">
        <ele>93.9</ele>
        <time>2023-06-04T09:02:53Z</time>
      </trkpt>
      <trkpt lat="47.32751" lon="0.64493">
        <ele>94.1</ele>
        <time>2023-06-04T09:03:01Z</time>
      </trkpt>
      <trkpt lat="47.32771" lon="0.64414">
        <ele>94.4</ele>
        <time>2023-06-04T09:03:10Z</time>
      </trkpt>
      <trkpt lat="47.32784" lon="0.64356">
        <ele>94.5</ele>
        <time>2023-06-04T09:03:17Z</time>
      </trkpt>
      <trkpt lat="47.32786" lon="0.64349">
        <ele>94.5</ele>
        <time>2023-06-04T09:03:18Z</time>
      </trkpt>
      <trkpt lat="47.328" lon="0.64289">
        <ele>94.5</ele>
        <time>2023-06-04T09:03:25Z</time>
      </trkpt>
      <trkpt lat="47.32815" lon="0.64222">
        <ele>94.4</ele>
        <time>2023-06-04T09:03:33Z</time>
      </trkpt>
      <trkpt lat="47.3283" lon="0.64145">
        <ele>94.2</ele>
        <time>2023-06-04T09:03:42Z</time>
      </trkpt>
      <trkpt lat="47.3284" lon="0.64121">
        <ele>94.1</ele>
        <time>2023-06-04T09:03:45Z</time>
      </trkpt>
      <trkpt lat="47.32844" lon="0.64115">
        <ele>94</ele>
        <time>2023-06-04T09:03:46Z</time>
      </trkpt>
      <trkpt lat="47.32877" lon="0.6407">
        <ele>93.7</ele>
        <time>2023-06-04T09:03:53Z</time>
      </trkpt>
      <trkpt lat="47.32882" lon="0.64064">
        <ele>93.7</ele>
        <time>2023-06-04T09:03:54Z</time>
      </trkpt>
      <trkpt lat="47.32926" lon="0.64003">
        <ele>93.9</ele>
        <time>2023-06-04T09:04:03Z</time>
      </trkpt>
      <trkpt lat="47.32958" lon="0.63945">
        <ele>94</ele>
        <time>2023-06-04T09:04:11Z</time>
      </trkpt>
      <trkpt lat="47.32985" lon="0.6388">
        <ele>93.7</ele>
        <time>2023-06-04T09:04:19Z</time>
      </trkpt>
      <trkpt lat="47.33012" lon="0.63815">
        <ele>93.3</ele>
        <time>2023-06-04T09:04:27Z</time>
      </trkpt>
      <trkpt lat="47.33041" lon="0.63749">
        <ele>92.8</ele>
        <time>2023-06-04T09:04:36Z</time>
      </trkpt>
      <trkpt lat="47.33048" lon="0.63737">
        <ele>92.9</ele>
        <time>2023-06-04T09:04:38Z</time>
      </trkpt>
      <trkpt lat="47.33057" lon="0.63716">
        <ele>93.2</ele>
        <time>2023-06-04T09:04:42Z</time>
      </trkpt>
      <trkpt lat="47.33068" lon="0.63685">
        <ele>92.8</ele>
        <time>2023-06-04T09:04:48Z</time>
      </trkpt>
      <trkpt lat="47.33089" lon="0.6364">
        <ele>92.8</ele>
        <time>2023-06-04T09:04:55Z</time>
      </trkpt>
      <trkpt lat="47.33114" lon="0.63579">
        <ele>93.1</ele>
        <time>2023-06-04T09:05:03Z</time>
      </trkpt>
      <trkpt lat="47.33136" lon="0.63508">
        <ele>92.9</ele>
        <time>2023-06-04T09:05:11Z</time>
      </trkpt>
      <trkpt lat="47.33153" lon="0.63425">
        <ele>92.4</ele>
        <time>2023-06-04T09:05:19Z</time>
      </trkpt>
      <trkpt lat="47.3316" lon="0.63407">
        <ele>92.3</ele>
        <time>2023-06-04T09:05:21Z</time>
      </trkpt>
      <trkpt lat="47.33176" lon="0.63384">
        <ele>92.2</ele>
        <time>2023-06-04T09:05:24Z</time>
      </trkpt>
      <trkpt lat="47.33188" lon="0.63373">
        <ele>92.1</ele>
        <time>2023-06-04T09:05:26Z</time>
      </trkpt>
      <trkpt lat="47.33206" lon="0.63358">
        <ele>91.9</ele>
        <time>2023-06-04T09:05:29Z</time>
      </trkpt>
      <trkpt lat="47.33244" lon="0.63328">
        <ele>91.6</ele>
        <time>2023-06-04T09:05:36Z</time>
      </trkpt>
      <trkpt lat="47.33276" lon="0.63304">
        <ele>91.6</ele>
        <time>2023-06-04T09:05:42Z</time>
      </trkpt>
      <trkpt lat="47.33308" lon="0.63267">
        <ele>92</ele>
        <time>2023-06-04T09:05:49Z</time>
      </trkpt>
      <trkpt lat="47.33311" lon="0.63261">
        <ele>92</ele>
        <time>2023-06-04T09:05:50Z</time>
      </trkpt>
      <trkpt lat="47.33328" lon="0.63231">
        <ele>91.7</ele>
        <time>2023-06-04T09:05:55Z</time>
      </trkpt>
      <trkpt lat="47.33332" lon="0.63224">
        <ele>91.7</ele>
        <time>2023-06-04T09:05:56Z</time>
      </trkpt>
      <trkpt lat="47.33345" lon="0.63196">
        <ele>91.6</ele>
        <time>2023-06-04T09:06:00Z</time>
      </trkpt>
      <trkpt lat="47.33374" lon="0.63131">
        <ele>91.7</ele>
        <time>2023-06-04T09:06:08Z</time>
      </trkpt>
      <trkpt lat="47.33401" lon="0.63062">
        <ele>92</ele>
        <time>2023-06-04T09:06:16Z</time>
      </trkpt>
      <trkpt lat="47.33422" lon="0.62988">
        <ele>92.1</ele>
        <time>2023-06-04T09:06:24Z</time>
      </trkpt>
      <trkpt lat="47.33426" lon="0.6297">
        <ele>92.1</ele>
        <time>2023-06-04T09:06:26Z</time>
      </trkpt>
      <trkpt lat="47.3344" lon="0.62887">
        <ele>92</ele>
        <time>2023-06-04T09:06:35Z</time>
      </trkpt>
      <trkpt lat="47.33451" lon="0.62812">
        <ele>91.9</ele>
        <time>2023-06-04T09:06:43Z</time>
      </trkpt>
      <trkpt lat="47.3346" lon="0.62767">
        <ele>91.9</ele>
        <time>2023-06-04T09:06:48Z</time>
      </trkpt>
      <trkpt lat="47.33463" lon="0.62759">
        <ele>91.9</ele>
        <time>2023-06-04T09:06:49Z</time>
      </trkpt>
      <trkpt lat="47.33482" lon="0.62736">
        <ele>91.9</ele>
        <time>2023-06-04T09:06:53Z</time>
      </trkpt>
      <trkpt lat="47.33497" lon="0.62721">
        <ele>91.9</ele>
        <time>2023-06-04T09:06:56Z</time>
      </trkpt>
      <trkpt lat="47.33503" lon="0.62706">
        <ele>91.9</ele>
        <time>2023-06-04T09:06:58Z</time>
      </trkpt>
      <trkpt lat="47.33508" lon="0.62682">
        <ele>92.1</ele>
        <time>2023-06-04T09:07:01Z</time>
      </trkpt>
      <trkpt lat="47.33508" lon="0.62674">
        <ele>92.1</ele>
        <time>2023-06-04T09:07:02Z</time>
      </trkpt>
      <trkpt lat="47.33508" lon="0.62666">
        <ele>92.2</ele>
        <time>2023-06-04T09:07:03Z</time>
      </trkpt>
      <trkpt lat="47.33508" lon="0.62649">
        <ele>92.4</ele>
        <time>2023-06-04T09:07:06Z</time>
      </trkpt>
      <trkpt lat="47.33507" lon="0.62646">
        <ele>92.4</ele>
        <time>2023-06-04T09:07:07Z</time>
      </trkpt>
      <trkpt lat="47.33498" lon="0.62636">
        <ele>92.5</ele>
        <time>2023-06-04T09:07:10Z</time>
      </trkpt>
      <trkpt lat="47.33494" lon="0.62633">
        <ele>92.5</ele>
        <time>2023-06-04T09:07:11Z</time>
      </trkpt>
      <trkpt lat="47.33475" lon="0.62612">
        <ele>92.8</ele>
        <time>2023-06-04T09:07:16Z</time>
      </trkpt>
      <trkpt lat="47.33474" lon="0.6259">
        <ele>93.1</ele>
        <time>2023-06-04T09:07:19Z</time>
      </trkpt>
      <trkpt lat="47.33474" lon="0.62582">
        <ele>93.1</ele>
        <time>2023-06-04T09:07:20Z</time>
      </trkpt>
      <trkpt lat="47.33469" lon="0.62556">
        <ele>93</ele>
        <time>2023-06-04T09:07:23Z</time>
      </trkpt>
      <trkpt lat="47.33469" lon="0.62547">
        <ele>92.9</ele>
        <time>2023-06-04T09:07:24Z</time>
      </trkpt>
      <trkpt lat="47.33467" lon="0.62518">
        <ele>92.7</ele>
        <time>2023-06-04T09:07:27Z</time>
      </trkpt>
      <trkpt lat="47.33459" lon="0.62479">
        <ele>92.5</ele>
        <time>2023-06-04T09:07:31Z</time>
      </trkpt>
      <trkpt lat="47.33456" lon="0.6247">
        <ele>92.5</ele>
        <time>2023-06-04T09:07:32Z</time>
      </trkpt>
      <trkpt lat="47.33439" lon="0.62412">
        <ele>92.3</ele>
        <time>2023-06-04T09:07:38Z</time>
      </trkpt>
      <trkpt lat="47.33431" lon="0.62382">
        <ele>92.3</ele>
        <time>2023-06-04T09:07:41Z</time>
      </trkpt>
      <trkpt lat="47.3341" lon="0.62303">
        <ele>92</ele>
        <time>2023-06-04T09:07:49Z</time>
      </trkpt>
      <trkpt lat="47.33408" lon="0.62292">
        <ele>92</ele>
        <time>2023-06-04T09:07:50Z</time>
      </trkpt>
      <trkpt lat="47.33404" lon="0.62271">
        <ele>91.9</ele>
        <time>2023-06-04T09:07:52Z</time>
      </trkpt>
      <trkpt lat="47.33405" lon="0.6225">
        <ele>91.9</ele>
        <time>2023-06-04T09:07:54Z</time>
      </trkpt>
      <trkpt lat="47.3341" lon="0.6222">
        <ele>91.9</ele>
        <time>2023-06-04T09:07:57Z</time>
      </trkpt>
      <trkpt lat="47.33412" lon="0.6221">
        <ele>92</ele>
        <time>2023-06-04T09:07:58Z</time>
      </trkpt>
      <trkpt lat="47.33415" lon="0.62201">
        <ele>92</ele>
        <time>2023-06-04T09:07:59Z</time>
      </trkpt>
      <trkpt lat="47.3344" lon="0.62128">
        <ele>91.7</ele>
        <time>2023-06-04T09:08:07Z</time>
      </trkpt>
      <trkpt lat="47.33447" lon="0.62099">
        <ele>91.6</ele>
        <time>2023-06-04T09:08:10Z</time>
      </trkpt>
      <trkpt lat="47.33452" lon="0.62066">
        <ele>91.5</ele>
        <time>2023-06-04T09:08:13Z</time>
      </trkpt>
      <trkpt lat="47.33452" lon="0.61997">
        <ele>91.3</ele>
        <time>2023-06-04T09:08:19Z</time>
      </trkpt>
      <trkpt lat="47.33446" lon="0.61917">
        <ele>91.3</ele>
        <time>2023-06-04T09:08:26Z</time>
      </trkpt>
      <trkpt lat="47.33444" lon="0.61906">
        <ele>91.4</ele>
        <time>2023-06-04T09:08:27Z</time>
      </trkpt>
      <trkpt lat="47.33433" lon="0.61828">
        <ele>91.7</ele>
        <time>2023-06-04T09:08:34Z</time>
      </trkpt>
      <trkpt lat="47.33429" lon="0.61806">
        <ele>91.8</ele>
        <time>2023-06-04T09:08:36Z</time>
      </trkpt>
      <trkpt lat="47.33414" lon="0.61729">
        <ele>92</ele>
        <time>2023-06-04T09:08:43Z</time>
      </trkpt>
      <trkpt lat="47.33407" lon="0.61696">
        <ele>92</ele>
        <time>2023-06-04T09:08:46Z</time>
      </trkpt>
      <trkpt lat="47.33392" lon="0.61619">
        <ele>91.9</ele>
        <time>2023-06-04T09:08:53Z</time>
      </trkpt>
      <trkpt lat="47.33385" lon="0.61586">
        <ele>91.8</ele>
        <time>2023-06-04T09:08:56Z</time>
      </trkpt>
      <trkpt lat="47.33365" lon="0.61536">
        <ele>91.7</ele>
        <time>2023-06-04T09:09:01Z</time>
      </trkpt>
      <trkpt lat="47.3336" lon="0.61528">
        <ele>91.7</ele>
        <time>2023-06-04T09:09:02Z</time>
      </trkpt>
      <trkpt lat="47.33342" lon="0.61506">
        <ele>91.7</ele>
        <time>2023-06-04T09:09:05Z</time>
      </trkpt>
      <trkpt lat="47.33328" lon="0.61493">
        <ele>91.7</ele>
        <time>2023-06-04T09:09:07Z</time>
      </trkpt>
      <trkpt lat="47.33306" lon="0.61482">
        <ele>91.7</ele>
        <time>2023-06-04T09:09:10Z</time>
      </trkpt>
      <trkpt lat="47.33275" lon="0.61478">
        <ele>91.7</ele>
        <time>2023-06-04T09:09:14Z</time>
      </trkpt>
      <trkpt lat="47.33268" lon="0.61478">
        <ele>91.8</ele>
        <time>2023-06-04T09:09:15Z</time>
      </trkpt>
      <trkpt lat="47.33233" lon="0.61494">
        <ele>92</ele>
        <time>2023-06-04T09:09:20Z</time>
      </trkpt>
      <trkpt lat="47.3322" lon="0.61504">
        <ele>92</ele>
        <time>2023-06-04T09:09:22Z</time>
      </trkpt>
      <trkpt lat="47.33195" lon="0.61525">
        <ele>92.3</ele>
        <time>2023-06-04T09:09:26Z</time>
      </trkpt>
      <trkpt lat="47.33148" lon="0.61565">
        <ele>92.4</ele>
        <time>2023-06-04T09:09:34Z</time>
      </trkpt>
      <trkpt lat="47.33109" lon="0.61597">
        <ele>92.4</ele>
        <time>2023-06-04T09:09:41Z</time>
      </trkpt>
      <trkpt lat="47.33096" lon="0.61599">
        <ele>92.5</ele>
        <time>2023-06-04T09:09:43Z</time>
      </trkpt>
      <trkpt lat="47.33082" lon="0.61582">
        <ele>92.5</ele>
        <time>2023-06-04T09:09:46Z</time>
      </trkpt>
      <trkpt lat="47.33082" lon="0.61563">
        <ele>92.6</ele>
        <time>2023-06-04T09:09:48Z</time>
      </trkpt>
      <trkpt lat="47.33089" lon="0.61538">
        <ele>92.8</ele>
        <time>2023-06-04T09:09:51Z</time>
      </trkpt>
      <trkpt lat="47.33094" lon="0.6152">
        <ele>92.8</ele>
        <time>2023-06-04T09:09:53Z</time>
      </trkpt>
      <trkpt lat="47.331" lon="0.61502">
        <ele>92.9</ele>
        <time>2023-06-04T09:09:55Z</time>
      </trkpt>
      <trkpt lat="47.33105" lon="0.61495">
        <ele>92.9</ele>
        <time>2023-06-04T09:09:56Z</time>
      </trkpt>
      <trkpt lat="47.33132" lon="0.61467">
        <ele>93.6</ele>
        <time>2023-06-04T09:10:01Z</time>
      </trkpt>
      <trkpt lat="47.33153" lon="0.61459">
        <ele>94.5</ele>
        <time>2023-06-04T09:10:05Z</time>
      </trkpt>
      <trkpt lat="47.33164" lon="0.61455">
        <ele>95</ele>
        <time>2023-06-04T09:10:07Z</time>
      </trkpt>
      <trkpt lat="47.33179" lon="0.61451">
        <ele>95.9</ele>
        <time>2023-06-04T09:10:10Z</time>
      </trkpt>
      <trkpt lat="47.33189" lon="0.61447">
        <ele>96.5</ele>
        <time>2023-06-04T09:10:12Z</time>
      </trkpt>
      <trkpt lat="47.33194" lon="0.61445">
        <ele>96.8</ele>
        <time>2023-06-04T09:10:13Z</time>
      </trkpt>
      <trkpt lat="47.33208" lon="0.61437">
        <ele>97.6</ele>
        <time>2023-06-04T09:10:16Z</time>
      </trkpt>
      <trkpt lat="47.33218" lon="0.61432">
        <ele>98.2</ele>
        <time>2023-06-04T09:10:18Z</time>
      </trkpt>
      <trkpt lat="47.33227" lon="0.61425">
        <ele>98.7</ele>
        <time>2023-06-04T09:10:20Z</time>
      </trkpt>
      <trkpt lat="47.33247" lon="0.6141">
        <ele>99.4</ele>
        <time>2023-06-04T09:10:24Z</time>
      </trkpt>
      <trkpt lat="47.33256" lon="0.61401">
        <ele>99.7</ele>
        <time>2023-06-04T09:10:26Z</time>
      </trkpt>
      <trkpt lat="47.33282" lon="0.61378">
        <ele>100</ele>
        <time>2023-06-04T09:10:31Z</time>
      </trkpt>
      <trkpt lat="47.33323" lon="0.61341">
        <ele>99.1</ele>
        <time>2023-06-04T09:10:38Z</time>
      </trkpt>
      <trkpt lat="47.33329" lon="0.61335">
        <ele>98.8</ele>
        <time>2023-06-04T09:10:39Z</time>
      </trkpt>
      <trkpt lat="47.33342" lon="0.61323">
        <ele>98.1</ele>
        <time>2023-06-04T09:10:41Z</time>
      </trkpt>
      <trkpt lat="47.33366" lon="0.61306">
        <ele>96.2</ele>
        <time>2023-06-04T09:10:44Z</time>
      </trkpt>
      <trkpt lat="47.33394" lon="0.61302">
        <ele>94.1</ele>
        <time>2023-06-04T09:10:47Z</time>
      </trkpt>
      <trkpt lat="47.33404" lon="0.61305">
        <ele>93.9</ele>
        <time>2023-06-04T09:10:48Z</time>
      </trkpt>
      <trkpt lat="47.33414" lon="0.61306">
        <ele>93.6</ele>
        <time>2023-06-04T09:10:49Z</time>
      </trkpt>
      <trkpt lat="47.33423" lon="0.61306">
        <ele>93.4</ele>
        <time>2023-06-04T09:10:50Z</time>
      </trkpt>
      <trkpt lat="47.33432" lon="0.61307">
        <ele>93.3</ele>
        <time>2023-06-04T09:10:51Z</time>
      </trkpt>
      <trkpt lat="47.3344" lon="0.61304">
        <ele>93.2</ele>
        <time>2023-06-04T09:10:52Z</time>
      </trkpt>
      <trkpt lat="47.33447" lon="0.61297">
        <ele>92.9</ele>
        <time>2023-06-04T09:10:53Z</time>
      </trkpt>
      <trkpt lat="47.33453" lon="0.61288">
        <ele>92.7</ele>
        <time>2023-06-04T09:10:54Z</time>
      </trkpt>
      <trkpt lat="47.33455" lon="0.61265">
        <ele>92.5</ele>
        <time>2023-06-04T09:10:56Z</time>
      </trkpt>
      <trkpt lat="47.33449" lon="0.6123">
        <ele>92.2</ele>
        <time>2023-06-04T09:10:59Z</time>
      </trkpt>
      <trkpt lat="47.33447" lon="0.61218">
        <ele>92</ele>
        <time>2023-06-04T09:11:00Z</time>
      </trkpt>
      <trkpt lat="47.33436" lon="0.61174">
        <ele>91.5</ele>
        <time>2023-06-04T09:11:04Z</time>
      </trkpt>
      <trkpt lat="47.33433" lon="0.61164">
        <ele>91.4</ele>
        <time>2023-06-04T09:11:05Z</time>
      </trkpt>
      <trkpt lat="47.33413" lon="0.61082">
        <ele>91.5</ele>
        <time>2023-06-04T09:11:13Z</time>
      </trkpt>
      <trkpt lat="47.33398" lon="0.61011">
        <ele>91.8</ele>
        <time>2023-06-04T09:11:20Z</time>
      </trkpt>
      <trkpt lat="47.33393" lon="0.6098">
        <ele>92</ele>
        <time>2023-06-04T09:11:23Z</time>
      </trkpt>
      <trkpt lat="47.33389" lon="0.60949">
        <ele>92.2</ele>
        <time>2023-06-04T09:11:26Z</time>
      </trkpt>
      <trkpt lat="47.33382" lon="0.60908">
        <ele>92.4</ele>
        <time>2023-06-04T09:11:30Z</time>
      </trkpt>
      <trkpt lat="47.33381" lon="0.60898">
        <ele>92.5</ele>
        <time>2023-06-04T09:11:31Z</time>
      </trkpt>
      <trkpt lat="47.33366" lon="0.60839">
        <ele>92.7</ele>
        <time>2023-06-04T09:11:37Z</time>
      </trkpt>
      <trkpt lat="47.33356" lon="0.60792">
        <ele>92.6</ele>
        <time>2023-06-04T09:11:42Z</time>
      </trkpt>
      <trkpt lat="47.33343" lon="0.60737">
        <ele>92.4</ele>
        <time>2023-06-04T09:11:48Z</time>
      </trkpt>
      <trkpt lat="47.33339" lon="0.60713">
        <ele>92.5</ele>
        <time>2023-06-04T09:11:51Z</time>
      </trkpt>
      <trkpt lat="47.33345" lon="0.60701">
        <ele>92.5</ele>
        <time>2023-06-04T09:11:53Z</time>
      </trkpt>
      <trkpt lat="47.33353" lon="0.60703">
        <ele>92.5</ele>
        <time>2023-06-04T09:11:55Z</time>
      </trkpt>
      <trkpt lat="47.33359" lon="0.60705">
        <ele>92.5</ele>
        <time>2023-06-04T09:11:56Z</time>
      </trkpt>
      <trkpt lat="47.3339" lon="0.6071">
        <ele>92.7</ele>
        <time>2023-06-04T09:12:01Z</time>
      </trkpt>
      <trkpt lat="47.33441" lon="0.60712">
        <ele>92.9</ele>
        <time>2023-06-04T09:12:09Z</time>
      </trkpt>
      <trkpt lat="47.33495" lon="0.60714">
        <ele>92.9</ele>
        <time>2023-06-04T09:12:17Z</time>
      </trkpt>
      <trkpt lat="47.3355" lon="0.60709">
        <ele>92.4</ele>
        <time>2023-06-04T09:12:25Z</time>
      </trkpt>
      <trkpt lat="47.33585" lon="0.60705">
        <ele>92.3</ele>
        <time>2023-06-04T09:12:31Z</time>
      </trkpt>
      <trkpt lat="47.33589" lon="0.60705">
        <ele>92.3</ele>
        <time>2023-06-04T09:12:32Z</time>
      </trkpt>
      <trkpt lat="47.33598" lon="0.60706">
        <ele>92.3</ele>
        <time>2023-06-04T09:12:34Z</time>
      </trkpt>
      <trkpt lat="47.33614" lon="0.607">
        <ele>92.2</ele>
        <time>2023-06-04T09:12:37Z</time>
      </trkpt>
      <trkpt lat="47.33643" lon="0.60694">
        <ele>92</ele>
        <time>2023-06-04T09:12:42Z</time>
      </trkpt>
      <trkpt lat="47.33656" lon="0.60691">
        <ele>91.9</ele>
        <time>2023-06-04T09:12:44Z</time>
      </trkpt>
      <trkpt lat="47.33696" lon="0.60674">
        <ele>92</ele>
        <time>2023-06-04T09:12:50Z</time>
      </trkpt>
      <trkpt lat="47.33702" lon="0.60672">
        <ele>92</ele>
        <time>2023-06-04T09:12:51Z</time>
      </trkpt>
      <trkpt lat="47.33744" lon="0.60654">
        <ele>92.5</ele>
        <time>2023-06-04T09:12:58Z</time>
      </trkpt>
      <trkpt lat="47.33775" lon="0.60643">
        <ele>92.7</ele>
        <time>2023-06-04T09:13:03Z</time>
      </trkpt>
      <trkpt lat="47.33788" lon="0.6064">
        <ele>92.7</ele>
        <time>2023-06-04T09:13:05Z</time>
      </trkpt>
      <trkpt lat="47.33815" lon="0.6064">
        <ele>92.7</ele>
        <time>2023-06-04T09:13:09Z</time>
      </trkpt>
      <trkpt lat="47.33862" lon="0.60631">
        <ele>92.5</ele>
        <time>2023-06-04T09:13:16Z</time>
      </trkpt>
      <trkpt lat="47.33908" lon="0.6061">
        <ele>92.1</ele>
        <time>2023-06-04T09:13:23Z</time>
      </trkpt>
      <trkpt lat="47.33953" lon="0.60594">
        <ele>91.4</ele>
        <time>2023-06-04T09:13:30Z</time>
      </trkpt>
      <trkpt lat="47.3399" lon="0.60582">
        <ele>91</ele>
        <time>2023-06-04T09:13:37Z</time>
      </trkpt>
      <trkpt lat="47.33998" lon="0.6058">
        <ele>91</ele>
        <time>2023-06-04T09:13:41Z</time>
      </trkpt>
      <trkpt lat="47.34006" lon="0.60578">
        <ele>90.8</ele>
        <time>2023-06-04T09:13:48Z</time>
      </trkpt>
      <trkpt lat="47.34008" lon="0.60578">
        <ele>90.8</ele>
        <time>2023-06-04T09:13:49Z</time>
      </trkpt>
      <trkpt lat="47.34024" lon="0.60581">
        <ele>90.6</ele>
        <time>2023-06-04T09:13:55Z</time>
      </trkpt>
      <trkpt lat="47.34031" lon="0.60581">
        <ele>90.5</ele>
        <time>2023-06-04T09:13:58Z</time>
      </trkpt>
      <trkpt lat="47.34035" lon="0.60583">
        <ele>90.5</ele>
        <time>2023-06-04T09:14:01Z</time>
      </trkpt>
      <trkpt lat="47.34037" lon="0.60583">
        <ele>90.5</ele>
        <time>2023-06-04T09:14:02Z</time>
      </trkpt>
      <trkpt lat="47.34037" lon="0.60578">
        <ele>90.6</ele>
        <time>2023-06-04T09:14:04Z</time>
      </trkpt>
      <trkpt lat="47.34035" lon="0.60578">
        <ele>90.6</ele>
        <time>2023-06-04T09:14:05Z</time>
      </trkpt>
      <trkpt lat="47.34032" lon="0.60577">
        <ele>90.6</ele>
        <time>2023-06-04T09:14:06Z</time>
      </trkpt>
      <trkpt lat="47.3402" lon="0.60575">
        <ele>90.7</ele>
        <time>2023-06-04T09:14:10Z</time>
      </trkpt>
      <trkpt lat="47.34009" lon="0.60564">
        <ele>90.9</ele>
        <time>2023-06-04T09:14:14Z</time>
      </trkpt>
      <trkpt lat="47.34009" lon="0.60558">
        <ele>90.9</ele>
        <time>2023-06-04T09:14:15Z</time>
      </trkpt>
      <trkpt lat="47.34009" lon="0.60522">
        <ele>90.9</ele>
        <time>2023-06-04T09:14:20Z</time>
      </trkpt>
      <trkpt lat="47.34011" lon="0.60469">
        <ele>91.1</ele>
        <time>2023-06-04T09:14:26Z</time>
      </trkpt>
      <trkpt lat="47.34011" lon="0.6046">
        <ele>91.2</ele>
        <time>2023-06-04T09:14:27Z</time>
      </trkpt>
      <trkpt lat="47.34012" lon="0.60404">
        <ele>91.4</ele>
        <time>2023-06-04T09:14:33Z</time>
      </trkpt>
      <trkpt lat="47.34012" lon="0.60377">
        <ele>91.4</ele>
        <time>2023-06-04T09:14:36Z</time>
      </trkpt>
      <trkpt lat="47.34014" lon="0.60317">
        <ele>91.7</ele>
        <time>2023-06-04T09:14:43Z</time>
      </trkpt>
      <trkpt lat="47.34017" lon="0.6031">
        <ele>91.6</ele>
        <time>2023-06-04T09:14:44Z</time>
      </trkpt>
      <trkpt lat="47.34033" lon="0.60301">
        <ele>91.5</ele>
        <time>2023-06-04T09:14:47Z</time>
      </trkpt>
      <trkpt lat="47.34079" lon="0.60278">
        <ele>91</ele>
        <time>2023-06-04T09:14:55Z</time>
      </trkpt>
      <trkpt lat="47.34096" lon="0.60268">
        <ele>90.6</ele>
        <time>2023-06-04T09:14:58Z</time>
      </trkpt>
      <trkpt lat="47.34126" lon="0.60254">
        <ele>89.9</ele>
        <time>2023-06-04T09:15:03Z</time>
      </trkpt>
      <trkpt lat="47.34132" lon="0.6025">
        <ele>89.7</ele>
        <time>2023-06-04T09:15:04Z</time>
      </trkpt>
      <trkpt lat="47.34172" lon="0.60231">
        <ele>88.6</ele>
        <time>2023-06-04T09:15:10Z</time>
      </trkpt>
      <trkpt lat="47.34185" lon="0.60226">
        <ele>88.1</ele>
        <time>2023-06-04T09:15:12Z</time>
      </trkpt>
      <trkpt lat="47.34207" lon="0.60218">
        <ele>87.4</ele>
        <time>2023-06-04T09:15:15Z</time>
      </trkpt>
      <trkpt lat="47.34229" lon="0.60211">
        <ele>86.7</ele>
        <time>2023-06-04T09:15:18Z</time>
      </trkpt>
      <trkpt lat="47.34236" lon="0.60209">
        <ele>86.5</ele>
        <time>2023-06-04T09:15:19Z</time>
      </trkpt>
      <trkpt lat="47.34251" lon="0.60206">
        <ele>86.1</ele>
        <time>2023-06-04T09:15:21Z</time>
      </trkpt>
      <trkpt lat="47.34274" lon="0.60198">
        <ele>85.6</ele>
        <time>2023-06-04T09:15:24Z</time>
      </trkpt>
      <trkpt lat="47.34304" lon="0.60189">
        <ele>84.9</ele>
        <time>2023-06-04T09:15:28Z</time>
      </trkpt>
      <trkpt lat="47.34332" lon="0.6018">
        <ele>84.2</ele>
        <time>2023-06-04T09:15:32Z</time>
      </trkpt>
      <trkpt lat="47.34384" lon="0.60165">
        <ele>83.1</ele>
        <time>2023-06-04T09:15:39Z</time>
      </trkpt>
      <trkpt lat="47.344" lon="0.60161">
        <ele>82.8</ele>
        <time>2023-06-04T09:15:41Z</time>
      </trkpt>
      <trkpt lat="47.34451" lon="0.60142">
        <ele>82.2</ele>
        <time>2023-06-04T09:15:48Z</time>
      </trkpt>
      <trkpt lat="47.34507" lon="0.60114">
        <ele>82.6</ele>
        <time>2023-06-04T09:15:56Z</time>
      </trkpt>
      <trkpt lat="47.34554" lon="0.60095">
        <ele>83.5</ele>
        <time>2023-06-04T09:16:03Z</time>
      </trkpt>
      <trkpt lat="47.3456" lon="0.60092">
        <ele>83.7</ele>
        <time>2023-06-04T09:16:04Z</time>
      </trkpt>
      <trkpt lat="47.34602" lon="0.60074">
        <ele>84.6</ele>
        <time>2023-06-04T09:16:11Z</time>
      </trkpt>
      <trkpt lat="47.34613" lon="0.60069">
        <ele>84.8</ele>
        <time>2023-06-04T09:16:13Z</time>
      </trkpt>
      <trkpt lat="47.34638" lon="0.60057">
        <ele>85.3</ele>
        <time>2023-06-04T09:16:19Z</time>
      </trkpt>
      <trkpt lat="47.34641" lon="0.60055">
        <ele>85.4</ele>
        <time>2023-06-04T09:16:20Z</time>
      </trkpt>
      <trkpt lat="47.34648" lon="0.60048">
        <ele>85.4</ele>
        <time>2023-06-04T09:16:23Z</time>
      </trkpt>
      <trkpt lat="47.3465" lon="0.60045">
        <ele>85.4</ele>
        <time>2023-06-04T09:16:24Z</time>
      </trkpt>
      <trkpt lat="47.34654" lon="0.60047">
        <ele>85.4</ele>
        <time>2023-06-04T09:16:27Z</time>
      </trkpt>
      <trkpt lat="47.34651" lon="0.60054">
        <ele>85.4</ele>
        <time>2023-06-04T09:16:30Z</time>
      </trkpt>
      <trkpt lat="47.34649" lon="0.60055">
        <ele>85.4</ele>
        <time>2023-06-04T09:16:31Z</time>
      </trkpt>
      <trkpt lat="47.34646" lon="0.60048">
        <ele>85.5</ele>
        <time>2023-06-04T09:16:34Z</time>
      </trkpt>
      <trkpt lat="47.34651" lon="0.60043">
        <ele>85.5</ele>
        <time>2023-06-04T09:16:38Z</time>
      </trkpt>
      <trkpt lat="47.34651" lon="0.60043">
        <ele>85.5</ele>
        <time>2023-06-04T09:16:39Z</time>
      </trkpt>
      <trkpt lat="47.34652" lon="0.60041">
        <ele>85.5</ele>
        <time>2023-06-04T09:16:40Z</time>
      </trkpt>
      <trkpt lat="47.34655" lon="0.60035">
        <ele>85.6</ele>
        <time>2023-06-04T09:16:44Z</time>
      </trkpt>
      <trkpt lat="47.34658" lon="0.60031">
        <ele>85.6</ele>
        <time>2023-06-04T09:16:48Z</time>
      </trkpt>
      <trkpt lat="47.34659" lon="0.60026">
        <ele>85.6</ele>
        <time>2023-06-04T09:16:50Z</time>
      </trkpt>
      <trkpt lat="47.34663" lon="0.60019">
        <ele>85.6</ele>
        <time>2023-06-04T09:16:54Z</time>
      </trkpt>
      <trkpt lat="47.34663" lon="0.60022">
        <ele>85.6</ele>
        <time>2023-06-04T09:16:55Z</time>
      </trkpt>
      <trkpt lat="47.34659" lon="0.60029">
        <ele>85.7</ele>
        <time>2023-06-04T09:16:58Z</time>
      </trkpt>
      <trkpt lat="47.34657" lon="0.60032">
        <ele>85.7</ele>
        <time>2023-06-04T09:16:59Z</time>
      </trkpt>
      <trkpt lat="47.34652" lon="0.60046">
        <ele>85.7</ele>
        <time>2023-06-04T09:17:02Z</time>
      </trkpt>
      <trkpt lat="47.34653" lon="0.60052">
        <ele>85.6</ele>
        <time>2023-06-04T09:17:03Z</time>
      </trkpt>
      <trkpt lat="47.34665" lon="0.60056">
        <ele>85.6</ele>
        <time>2023-06-04T09:17:06Z</time>
      </trkpt>
      <trkpt lat="47.34674" lon="0.60056">
        <ele>85.5</ele>
        <time>2023-06-04T09:17:08Z</time>
      </trkpt>
      <trkpt lat="47.34697" lon="0.60058">
        <ele>85.3</ele>
        <time>2023-06-04T09:17:13Z</time>
      </trkpt>
      <trkpt lat="47.34738" lon="0.60054">
        <ele>84.8</ele>
        <time>2023-06-04T09:17:21Z</time>
      </trkpt>
      <trkpt lat="47.34765" lon="0.60051">
        <ele>84.5</ele>
        <time>2023-06-04T09:17:26Z</time>
      </trkpt>
      <trkpt lat="47.34782" lon="0.6005">
        <ele>84.3</ele>
        <time>2023-06-04T09:17:29Z</time>
      </trkpt>
      <trkpt lat="47.34805" lon="0.60047">
        <ele>84.3</ele>
        <time>2023-06-04T09:17:33Z</time>
      </trkpt>
      <trkpt lat="47.34817" lon="0.60045">
        <ele>84.3</ele>
        <time>2023-06-04T09:17:35Z</time>
      </trkpt>
      <trkpt lat="47.34867" lon="0.60039">
        <ele>84.5</ele>
        <time>2023-06-04T09:17:43Z</time>
      </trkpt>
      <trkpt lat="47.34903" lon="0.6003">
        <ele>84.3</ele>
        <time>2023-06-04T09:17:50Z</time>
      </trkpt>
      <trkpt lat="47.34939" lon="0.60023">
        <ele>83.9</ele>
        <time>2023-06-04T09:17:56Z</time>
      </trkpt>
      <trkpt lat="47.34951" lon="0.60021">
        <ele>83.7</ele>
        <time>2023-06-04T09:17:58Z</time>
      </trkpt>
      <trkpt lat="47.34971" lon="0.60022">
        <ele>83.2</ele>
        <time>2023-06-04T09:18:01Z</time>
      </trkpt>
      <trkpt lat="47.35004" lon="0.60025">
        <ele>82.4</ele>
        <time>2023-06-04T09:18:06Z</time>
      </trkpt>
      <trkpt lat="47.3503" lon="0.60024">
        <ele>81.7</ele>
        <time>2023-06-04T09:18:10Z</time>
      </trkpt>
      <trkpt lat="47.35042" lon="0.60022">
        <ele>81.3</ele>
        <time>2023-06-04T09:18:12Z</time>
      </trkpt>
      <trkpt lat="47.35074" lon="0.60016">
        <ele>80.6</ele>
        <time>2023-06-04T09:18:17Z</time>
      </trkpt>
      <trkpt lat="47.3511" lon="0.60012">
        <ele>79.7</ele>
        <time>2023-06-04T09:18:22Z</time>
      </trkpt>
      <trkpt lat="47.35117" lon="0.60011">
        <ele>79.6</ele>
        <time>2023-06-04T09:18:23Z</time>
      </trkpt>
      <trkpt lat="47.35139" lon="0.60005">
        <ele>79.2</ele>
        <time>2023-06-04T09:18:26Z</time>
      </trkpt>
      <trkpt lat="47.3516" lon="0.59997">
        <ele>78.7</ele>
        <time>2023-06-04T09:18:29Z</time>
      </trkpt>
      <trkpt lat="47.35187" lon="0.59987">
        <ele>78.1</ele>
        <time>2023-06-04T09:18:33Z</time>
      </trkpt>
      <trkpt lat="47.35208" lon="0.59979">
        <ele>77.7</ele>
        <time>2023-06-04T09:18:36Z</time>
      </trkpt>
      <trkpt lat="47.35236" lon="0.59974">
        <ele>77.6</ele>
        <time>2023-06-04T09:18:40Z</time>
      </trkpt>
      <trkpt lat="47.35244" lon="0.59973">
        <ele>77.7</ele>
        <time>2023-06-04T09:18:41Z</time>
      </trkpt>
      <trkpt lat="47.3527" lon="0.59976">
        <ele>78.3</ele>
        <time>2023-06-04T09:18:45Z</time>
      </trkpt>
      <trkpt lat="47.35275" lon="0.59979">
        <ele>78.4</ele>
        <time>2023-06-04T09:18:46Z</time>
      </trkpt>
      <trkpt lat="47.35291" lon="0.60002">
        <ele>78.4</ele>
        <time>2023-06-04T09:18:50Z</time>
      </trkpt>
      <trkpt lat="47.35295" lon="0.60009">
        <ele>78.4</ele>
        <time>2023-06-04T09:18:51Z</time>
      </trkpt>
      <trkpt lat="47.35322" lon="0.60049">
        <ele>78.4</ele>
        <time>2023-06-04T09:18:57Z</time>
      </trkpt>
      <trkpt lat="47.35361" lon="0.60099">
        <ele>78</ele>
        <time>2023-06-04T09:19:05Z</time>
      </trkpt>
      <trkpt lat="47.35401" lon="0.60149">
        <ele>77.3</ele>
        <time>2023-06-04T09:19:13Z</time>
      </trkpt>
      <trkpt lat="47.35418" lon="0.6017">
        <ele>76.9</ele>
        <time>2023-06-04T09:19:16Z</time>
      </trkpt>
      <trkpt lat="47.35438" lon="0.60201">
        <ele>76.1</ele>
        <time>2023-06-04T09:19:20Z</time>
      </trkpt>
      <trkpt lat="47.35462" lon="0.60244">
        <ele>75</ele>
        <time>2023-06-04T09:19:25Z</time>
      </trkpt>
      <trkpt lat="47.3547" lon="0.6026">
        <ele>74.5</ele>
        <time>2023-06-04T09:19:27Z</time>
      </trkpt>
      <trkpt lat="47.35484" lon="0.60286">
        <ele>73.6</ele>
        <time>2023-06-04T09:19:30Z</time>
      </trkpt>
      <trkpt lat="47.35499" lon="0.60313">
        <ele>72.6</ele>
        <time>2023-06-04T09:19:33Z</time>
      </trkpt>
      <trkpt lat="47.35509" lon="0.6033">
        <ele>71.9</ele>
        <time>2023-06-04T09:19:35Z</time>
      </trkpt>
      <trkpt lat="47.35529" lon="0.60351">
        <ele>70.8</ele>
        <time>2023-06-04T09:19:38Z</time>
      </trkpt>
      <trkpt lat="47.35535" lon="0.60359">
        <ele>70.4</ele>
        <time>2023-06-04T09:19:39Z</time>
      </trkpt>
      <trkpt lat="47.35548" lon="0.60374">
        <ele>69.7</ele>
        <time>2023-06-04T09:19:41Z</time>
      </trkpt>
      <trkpt lat="47.35568" lon="0.60397">
        <ele>68.7</ele>
        <time>2023-06-04T09:19:44Z</time>
      </trkpt>
      <trkpt lat="47.35581" lon="0.60413">
        <ele>68</ele>
        <time>2023-06-04T09:19:46Z</time>
      </trkpt>
      <trkpt lat="47.35588" lon="0.6042">
        <ele>67.7</ele>
        <time>2023-06-04T09:19:47Z</time>
      </trkpt>
      <trkpt lat="47.35616" lon="0.60445">
        <ele>66.7</ele>
        <time>2023-06-04T09:19:51Z</time>
      </trkpt>
      <trkpt lat="47.35623" lon="0.60451">
        <ele>66.5</ele>
        <time>2023-06-04T09:19:52Z</time>
      </trkpt>
      <trkpt lat="47.35651" lon="0.60471">
        <ele>65.5</ele>
        <time>2023-06-04T09:19:56Z</time>
      </trkpt>
      <trkpt lat="47.35658" lon="0.60476">
        <ele>65.1</ele>
        <time>2023-06-04T09:19:57Z</time>
      </trkpt>
      <trkpt lat="47.35693" lon="0.60507">
        <ele>62.2</ele>
        <time>2023-06-04T09:20:02Z</time>
      </trkpt>
      <trkpt lat="47.357" lon="0.60517">
        <ele>61.4</ele>
        <time>2023-06-04T09:20:03Z</time>
      </trkpt>
      <trkpt lat="47.35715" lon="0.60533">
        <ele>59.7</ele>
        <time>2023-06-04T09:20:05Z</time>
      </trkpt>
      <trkpt lat="47.35735" lon="0.60544">
        <ele>58.8</ele>
        <time>2023-06-04T09:20:07Z</time>
      </trkpt>
      <trkpt lat="47.35755" lon="0.60554">
        <ele>56.5</ele>
        <time>2023-06-04T09:20:09Z</time>
      </trkpt>
      <trkpt lat="47.35765" lon="0.6056">
        <ele>55.2</ele>
        <time>2023-06-04T09:20:10Z</time>
      </trkpt>
      <trkpt lat="47.35774" lon="0.60565">
        <ele>54.2</ele>
        <time>2023-06-04T09:20:11Z</time>
      </trkpt>
      <trkpt lat="47.35783" lon="0.6057">
        <ele>53.2</ele>
        <time>2023-06-04T09:20:12Z</time>
      </trkpt>
      <trkpt lat="47.35791" lon="0.60574">
        <ele>52.5</ele>
        <time>2023-06-04T09:20:13Z</time>
      </trkpt>
      <trkpt lat="47.35805" lon="0.60581">
        <ele>51.2</ele>
        <time>2023-06-04T09:20:15Z</time>
      </trkpt>
      <trkpt lat="47.35812" lon="0.60584">
        <ele>50.7</ele>
        <time>2023-06-04T09:20:16Z</time>
      </trkpt>
      <trkpt lat="47.35827" lon="0.60589">
        <ele>50.1</ele>
        <time>2023-06-04T09:20:18Z</time>
      </trkpt>
      <trkpt lat="47.35849" lon="0.60594">
        <ele>49.4</ele>
        <time>2023-06-04T09:20:21Z</time>
      </trkpt>
      <trkpt lat="47.35856" lon="0.60595">
        <ele>49.3</ele>
        <time>2023-06-04T09:20:22Z</time>
      </trkpt>
      <trkpt lat="47.35863" lon="0.60596">
        <ele>49.1</ele>
        <time>2023-06-04T09:20:23Z</time>
      </trkpt>
      <trkpt lat="47.35871" lon="0.60597">
        <ele>49</ele>
        <time>2023-06-04T09:20:24Z</time>
      </trkpt>
      <trkpt lat="47.35877" lon="0.60599">
        <ele>49</ele>
        <time>2023-06-04T09:20:25Z</time>
      </trkpt>
      <trkpt lat="47.35881" lon="0.60603">
        <ele>48.9</ele>
        <time>2023-06-04T09:20:26Z</time>
      </trkpt>
      <trkpt lat="47.35887" lon="0.60614">
        <ele>48.8</ele>
        <time>2023-06-04T09:20:28Z</time>
      </trkpt>
      <trkpt lat="47.35888" lon="0.60622">
        <ele>48.8</ele>
        <time>2023-06-04T09:20:29Z</time>
      </trkpt>
      <trkpt lat="47.3589" lon="0.60629">
        <ele>48.8</ele>
        <time>2023-06-04T09:20:30Z</time>
      </trkpt>
      <trkpt lat="47.35897" lon="0.60662">
        <ele>48.6</ele>
        <time>2023-06-04T09:20:34Z</time>
      </trkpt>
      <trkpt lat="47.35901" lon="0.60677">
        <ele>48.6</ele>
        <time>2023-06-04T09:20:36Z</time>
      </trkpt>
      <trkpt lat="47.35913" lon="0.60678">
        <ele>48.3</ele>
        <time>2023-06-04T09:20:38Z</time>
      </trkpt>
      <trkpt lat="47.35924" lon="0.60675">
        <ele>48.2</ele>
        <time>2023-06-04T09:20:40Z</time>
      </trkpt>
      <trkpt lat="47.35936" lon="0.60672">
        <ele>48</ele>
        <time>2023-06-04T09:20:42Z</time>
      </trkpt>
      <trkpt lat="47.35942" lon="0.6067">
        <ele>47.8</ele>
        <time>2023-06-04T09:20:43Z</time>
      </trkpt>
      <trkpt lat="47.35982" lon="0.60664">
        <ele>47.3</ele>
        <time>2023-06-04T09:20:49Z</time>
      </trkpt>
      <trkpt lat="47.36002" lon="0.6066">
        <ele>47.1</ele>
        <time>2023-06-04T09:20:52Z</time>
      </trkpt>
      <trkpt lat="47.36042" lon="0.60655">
        <ele>46.9</ele>
        <time>2023-06-04T09:20:58Z</time>
      </trkpt>
      <trkpt lat="47.36054" lon="0.60654">
        <ele>46.9</ele>
        <time>2023-06-04T09:21:00Z</time>
      </trkpt>
      <trkpt lat="47.36097" lon="0.60649">
        <ele>46.8</ele>
        <time>2023-06-04T09:21:07Z</time>
      </trkpt>
      <trkpt lat="47.36148" lon="0.60643">
        <ele>46.1</ele>
        <time>2023-06-04T09:21:16Z</time>
      </trkpt>
      <trkpt lat="47.36153" lon="0.60631">
        <ele>46</ele>
        <time>2023-06-04T09:21:19Z</time>
      </trkpt>
      <trkpt lat="47.36148" lon="0.60612">
        <ele>45.9</ele>
        <time>2023-06-04T09:21:22Z</time>
      </trkpt>
      <trkpt lat="47.36147" lon="0.60605">
        <ele>45.9</ele>
        <time>2023-06-04T09:21:23Z</time>
      </trkpt>
      <trkpt lat="47.36147" lon="0.60581">
        <ele>45.8</ele>
        <time>2023-06-04T09:21:26Z</time>
      </trkpt>
      <trkpt lat="47.36148" lon="0.60572">
        <ele>45.8</ele>
        <time>2023-06-04T09:21:27Z</time>
      </trkpt>
      <trkpt lat="47.36151" lon="0.60564">
        <ele>45.8</ele>
        <time>2023-06-04T09:21:28Z</time>
      </trkpt>
      <trkpt lat="47.36158" lon="0.60551">
        <ele>45.7</ele>
        <time>2023-06-04T09:21:30Z</time>
      </trkpt>
      <trkpt lat="47.3617" lon="0.60543">
        <ele>45.5</ele>
        <time>2023-06-04T09:21:32Z</time>
      </trkpt>
      <trkpt lat="47.36182" lon="0.60535">
        <ele>45.4</ele>
        <time>2023-06-04T09:21:34Z</time>
      </trkpt>
      <trkpt lat="47.36188" lon="0.60532">
        <ele>45.3</ele>
        <time>2023-06-04T09:21:35Z</time>
      </trkpt>
      <trkpt lat="47.36238" lon="0.60505">
        <ele>45.3</ele>
        <time>2023-06-04T09:21:43Z</time>
      </trkpt>
      <trkpt lat="47.36274" lon="0.60485">
        <ele>45.5</ele>
        <time>2023-06-04T09:21:49Z</time>
      </trkpt>
      <trkpt lat="47.36278" lon="0.60478">
        <ele>45.5</ele>
        <time>2023-06-04T09:21:50Z</time>
      </trkpt>
      <trkpt lat="47.36285" lon="0.60453">
        <ele>45.5</ele>
        <time>2023-06-04T09:21:53Z</time>
      </trkpt>
      <trkpt lat="47.36287" lon="0.60435">
        <ele>45.6</ele>
        <time>2023-06-04T09:21:55Z</time>
      </trkpt>
      <trkpt lat="47.3629" lon="0.60389">
        <ele>45.9</ele>
        <time>2023-06-04T09:22:00Z</time>
      </trkpt>
      <trkpt lat="47.36289" lon="0.60335">
        <ele>45.9</ele>
        <time>2023-06-04T09:22:06Z</time>
      </trkpt>
      <trkpt lat="47.36289" lon="0.60278">
        <ele>46.2</ele>
        <time>2023-06-04T09:22:12Z</time>
      </trkpt>
      <trkpt lat="47.36287" lon="0.6026">
        <ele>46.1</ele>
        <time>2023-06-04T09:22:14Z</time>
      </trkpt>
      <trkpt lat="47.36283" lon="0.60223">
        <ele>46</ele>
        <time>2023-06-04T09:22:18Z</time>
      </trkpt>
      <trkpt lat="47.36282" lon="0.60203">
        <ele>45.9</ele>
        <time>2023-06-04T09:22:20Z</time>
      </trkpt>
      <trkpt lat="47.36285" lon="0.60164">
        <ele>45.8</ele>
        <time>2023-06-04T09:22:24Z</time>
      </trkpt>
      <trkpt lat="47.36288" lon="0.60084">
        <ele>45.7</ele>
        <time>2023-06-04T09:22:32Z</time>
      </trkpt>
      <trkpt lat="47.36284" lon="0.60016">
        <ele>45.9</ele>
        <time>2023-06-04T09:22:39Z</time>
      </trkpt>
      <trkpt lat="47.36285" lon="0.59941">
        <ele>45.9</ele>
        <time>2023-06-04T09:22:46Z</time>
      </trkpt>
      <trkpt lat="47.36291" lon="0.59878">
        <ele>46.1</ele>
        <time>2023-06-04T09:22:52Z</time>
      </trkpt>
      <trkpt lat="47.36301" lon="0.598">
        <ele>46.3</ele>
        <time>2023-06-04T09:23:00Z</time>
      </trkpt>
      <trkpt lat="47.36303" lon="0.5978">
        <ele>46.4</ele>
        <time>2023-06-04T09:23:02Z</time>
      </trkpt>
      <trkpt lat="47.36309" lon="0.5971">
        <ele>46.4</ele>
        <time>2023-06-04T09:23:09Z</time>
      </trkpt>
      <trkpt lat="47.36313" lon="0.59642">
        <ele>46.2</ele>
        <time>2023-06-04T09:23:16Z</time>
      </trkpt>
      <trkpt lat="47.36322" lon="0.59585">
        <ele>46.2</ele>
        <time>2023-06-04T09:23:22Z</time>
      </trkpt>
      <trkpt lat="47.36338" lon="0.59523">
        <ele>46.1</ele>
        <time>2023-06-04T09:23:29Z</time>
      </trkpt>
      <trkpt lat="47.3636" lon="0.59449">
        <ele>46</ele>
        <time>2023-06-04T09:23:37Z</time>
      </trkpt>
      <trkpt lat="47.36377" lon="0.59385">
        <ele>46.2</ele>
        <time>2023-06-04T09:23:44Z</time>
      </trkpt>
      <trkpt lat="47.36392" lon="0.59311">
        <ele>46.3</ele>
        <time>2023-06-04T09:23:52Z</time>
      </trkpt>
      <trkpt lat="47.36402" lon="0.59254">
        <ele>46.4</ele>
        <time>2023-06-04T09:23:58Z</time>
      </trkpt>
      <trkpt lat="47.36413" lon="0.59186">
        <ele>46.3</ele>
        <time>2023-06-04T09:24:05Z</time>
      </trkpt>
      <trkpt lat="47.36419" lon="0.59137">
        <ele>46.2</ele>
        <time>2023-06-04T09:24:10Z</time>
      </trkpt>
      <trkpt lat="47.36428" lon="0.59057">
        <ele>46.1</ele>
        <time>2023-06-04T09:24:18Z</time>
      </trkpt>
      <trkpt lat="47.36432" lon="0.58995">
        <ele>46.1</ele>
        <time>2023-06-04T09:24:24Z</time>
      </trkpt>
      <trkpt lat="47.36436" lon="0.58937">
        <ele>46.1</ele>
        <time>2023-06-04T09:24:30Z</time>
      </trkpt>
      <trkpt lat="47.36437" lon="0.58927">
        <ele>46.1</ele>
        <time>2023-06-04T09:24:31Z</time>
      </trkpt>
      <trkpt lat="47.36437" lon="0.58888">
        <ele>46</ele>
        <time>2023-06-04T09:24:35Z</time>
      </trkpt>
      <trkpt lat="47.36433" lon="0.58827">
        <ele>45.8</ele>
        <time>2023-06-04T09:24:41Z</time>
      </trkpt>
      <trkpt lat="47.36419" lon="0.5876">
        <ele>46.1</ele>
        <time>2023-06-04T09:24:48Z</time>
      </trkpt>
      <trkpt lat="47.3641" lon="0.58702">
        <ele>46</ele>
        <time>2023-06-04T09:24:54Z</time>
      </trkpt>
      <trkpt lat="47.36399" lon="0.58642">
        <ele>45.9</ele>
        <time>2023-06-04T09:25:00Z</time>
      </trkpt>
      <trkpt lat="47.3638" lon="0.58578">
        <ele>45.8</ele>
        <time>2023-06-04T09:25:07Z</time>
      </trkpt>
      <trkpt lat="47.36355" lon="0.58506">
        <ele>45.8</ele>
        <time>2023-06-04T09:25:15Z</time>
      </trkpt>
      <trkpt lat="47.36349" lon="0.58488">
        <ele>45.8</ele>
        <time>2023-06-04T09:25:17Z</time>
      </trkpt>
      <trkpt lat="47.36326" lon="0.58413">
        <ele>45.8</ele>
        <time>2023-06-04T09:25:25Z</time>
      </trkpt>
      <trkpt lat="47.36302" lon="0.58339">
        <ele>45.9</ele>
        <time>2023-06-04T09:25:33Z</time>
      </trkpt>
      <trkpt lat="47.36286" lon="0.58285">
        <ele>45.9</ele>
        <time>2023-06-04T09:25:39Z</time>
      </trkpt>
      <trkpt lat="47.36258" lon="0.58211">
        <ele>45.4</ele>
        <time>2023-06-04T09:25:47Z</time>
      </trkpt>
      <trkpt lat="47.36234" lon="0.5815">
        <ele>45.2</ele>
        <time>2023-06-04T09:25:54Z</time>
      </trkpt>
      <trkpt lat="47.3621" lon="0.58078">
        <ele>45.4</ele>
        <time>2023-06-04T09:26:02Z</time>
      </trkpt>
      <trkpt lat="47.36207" lon="0.58069">
        <ele>45.4</ele>
        <time>2023-06-04T09:26:03Z</time>
      </trkpt>
      <trkpt lat="47.36186" lon="0.5801">
        <ele>45.7</ele>
        <time>2023-06-04T09:26:10Z</time>
      </trkpt>
      <trkpt lat="47.36162" lon="0.57953">
        <ele>45.6</ele>
        <time>2023-06-04T09:26:17Z</time>
      </trkpt>
      <trkpt lat="47.36152" lon="0.57928">
        <ele>45.6</ele>
        <time>2023-06-04T09:26:20Z</time>
      </trkpt>
      <trkpt lat="47.36147" lon="0.57911">
        <ele>45.8</ele>
        <time>2023-06-04T09:26:22Z</time>
      </trkpt>
      <trkpt lat="47.36126" lon="0.57854">
        <ele>45.9</ele>
        <time>2023-06-04T09:26:29Z</time>
      </trkpt>
      <trkpt lat="47.36122" lon="0.57846">
        <ele>45.8</ele>
        <time>2023-06-04T09:26:30Z</time>
      </trkpt>
      <trkpt lat="47.36113" lon="0.57818">
        <ele>45.7</ele>
        <time>2023-06-04T09:26:33Z</time>
      </trkpt>
      <trkpt lat="47.36111" lon="0.57808">
        <ele>45.7</ele>
        <time>2023-06-04T09:26:34Z</time>
      </trkpt>
      <trkpt lat="47.36103" lon="0.5777">
        <ele>45.7</ele>
        <time>2023-06-04T09:26:38Z</time>
      </trkpt>
      <trkpt lat="47.36093" lon="0.57706">
        <ele>46.2</ele>
        <time>2023-06-04T09:26:45Z</time>
      </trkpt>
      <trkpt lat="47.36084" lon="0.57655">
        <ele>46.2</ele>
        <time>2023-06-04T09:26:51Z</time>
      </trkpt>
      <trkpt lat="47.36079" lon="0.57638">
        <ele>46.2</ele>
        <time>2023-06-04T09:26:53Z</time>
      </trkpt>
      <trkpt lat="47.36071" lon="0.57604">
        <ele>46.2</ele>
        <time>2023-06-04T09:26:57Z</time>
      </trkpt>
      <trkpt lat="47.36069" lon="0.57596">
        <ele>46.2</ele>
        <time>2023-06-04T09:26:58Z</time>
      </trkpt>
      <trkpt lat="47.36063" lon="0.5756">
        <ele>46.3</ele>
        <time>2023-06-04T09:27:02Z</time>
      </trkpt>
      <trkpt lat="47.36054" lon="0.57491">
        <ele>45.9</ele>
        <time>2023-06-04T09:27:09Z</time>
      </trkpt>
      <trkpt lat="47.36048" lon="0.57421">
        <ele>45.9</ele>
        <time>2023-06-04T09:27:16Z</time>
      </trkpt>
      <trkpt lat="47.36046" lon="0.57339">
        <ele>45.9</ele>
        <time>2023-06-04T09:27:24Z</time>
      </trkpt>
      <trkpt lat="47.36047" lon="0.5727">
        <ele>46.1</ele>
        <time>2023-06-04T09:27:31Z</time>
      </trkpt>
      <trkpt lat="47.36051" lon="0.57192">
        <ele>46.4</ele>
        <time>2023-06-04T09:27:39Z</time>
      </trkpt>
      <trkpt lat="47.36061" lon="0.57104">
        <ele>46.5</ele>
        <time>2023-06-04T09:27:48Z</time>
      </trkpt>
      <trkpt lat="47.36073" lon="0.57039">
        <ele>46.5</ele>
        <time>2023-06-04T09:27:55Z</time>
      </trkpt>
      <trkpt lat="47.36093" lon="0.56986">
        <ele>46.3</ele>
        <time>2023-06-04T09:28:01Z</time>
      </trkpt>
      <trkpt lat="47.36127" lon="0.56923">
        <ele>46.3</ele>
        <time>2023-06-04T09:28:09Z</time>
      </trkpt>
      <trkpt lat="47.36149" lon="0.5688">
        <ele>46.3</ele>
        <time>2023-06-04T09:28:15Z</time>
      </trkpt>
      <trkpt lat="47.36153" lon="0.56873">
        <ele>46.3</ele>
        <time>2023-06-04T09:28:16Z</time>
      </trkpt>
      <trkpt lat="47.36184" lon="0.56818">
        <ele>45.9</ele>
        <time>2023-06-04T09:28:23Z</time>
      </trkpt>
      <trkpt lat="47.36207" lon="0.56778">
        <ele>45.9</ele>
        <time>2023-06-04T09:28:28Z</time>
      </trkpt>
      <trkpt lat="47.36215" lon="0.56762">
        <ele>46</ele>
        <time>2023-06-04T09:28:30Z</time>
      </trkpt>
      <trkpt lat="47.36248" lon="0.56687">
        <ele>46</ele>
        <time>2023-06-04T09:28:39Z</time>
      </trkpt>
      <trkpt lat="47.36282" lon="0.56615">
        <ele>45.9</ele>
        <time>2023-06-04T09:28:48Z</time>
      </trkpt>
      <trkpt lat="47.36315" lon="0.5655">
        <ele>46.4</ele>
        <time>2023-06-04T09:28:57Z</time>
      </trkpt>
      <trkpt lat="47.36335" lon="0.56504">
        <ele>46.2</ele>
        <time>2023-06-04T09:29:03Z</time>
      </trkpt>
      <trkpt lat="47.36345" lon="0.56469">
        <ele>46</ele>
        <time>2023-06-04T09:29:07Z</time>
      </trkpt>
      <trkpt lat="47.36348" lon="0.56451">
        <ele>45.9</ele>
        <time>2023-06-04T09:29:09Z</time>
      </trkpt>
      <trkpt lat="47.36349" lon="0.56432">
        <ele>45.8</ele>
        <time>2023-06-04T09:29:11Z</time>
      </trkpt>
      <trkpt lat="47.3635" lon="0.56412">
        <ele>45.7</ele>
        <time>2023-06-04T09:29:13Z</time>
      </trkpt>
      <trkpt lat="47.36348" lon="0.56368">
        <ele>45.7</ele>
        <time>2023-06-04T09:29:18Z</time>
      </trkpt>
      <trkpt lat="47.36347" lon="0.56358">
        <ele>45.7</ele>
        <time>2023-06-04T09:29:19Z</time>
      </trkpt>
      <trkpt lat="47.36337" lon="0.56304">
        <ele>45.9</ele>
        <time>2023-06-04T09:29:25Z</time>
      </trkpt>
      <trkpt lat="47.36316" lon="0.56244">
        <ele>46.5</ele>
        <time>2023-06-04T09:29:32Z</time>
      </trkpt>
      <trkpt lat="47.36301" lon="0.56208">
        <ele>46.8</ele>
        <time>2023-06-04T09:29:37Z</time>
      </trkpt>
      <trkpt lat="47.36298" lon="0.56201">
        <ele>46.8</ele>
        <time>2023-06-04T09:29:38Z</time>
      </trkpt>
      <trkpt lat="47.36273" lon="0.5615">
        <ele>46.2</ele>
        <time>2023-06-04T09:29:45Z</time>
      </trkpt>
      <trkpt lat="47.36268" lon="0.56143">
        <ele>46.2</ele>
        <time>2023-06-04T09:29:46Z</time>
      </trkpt>
      <trkpt lat="47.36246" lon="0.56109">
        <ele>46.3</ele>
        <time>2023-06-04T09:29:51Z</time>
      </trkpt>
      <trkpt lat="47.36222" lon="0.56062">
        <ele>46.1</ele>
        <time>2023-06-04T09:29:57Z</time>
      </trkpt>
      <trkpt lat="47.36196" lon="0.56018">
        <ele>46</ele>
        <time>2023-06-04T09:30:03Z</time>
      </trkpt>
      <trkpt lat="47.36173" lon="0.55961">
        <ele>46.1</ele>
        <time>2023-06-04T09:30:10Z</time>
      </trkpt>
      <trkpt lat="47.36151" lon="0.55902">
        <ele>46.4</ele>
        <time>2023-06-04T09:30:17Z</time>
      </trkpt>
      <trkpt lat="47.36135" lon="0.55863">
        <ele>46.4</ele>
        <time>2023-06-04T09:30:22Z</time>
      </trkpt>
      <trkpt lat="47.36117" lon="0.55821">
        <ele>46</ele>
        <time>2023-06-04T09:30:27Z</time>
      </trkpt>
      <trkpt lat="47.36112" lon="0.55814">
        <ele>45.9</ele>
        <time>2023-06-04T09:30:28Z</time>
      </trkpt>
      <trkpt lat="47.36081" lon="0.55774">
        <ele>45.3</ele>
        <time>2023-06-04T09:30:34Z</time>
      </trkpt>
      <trkpt lat="47.36066" lon="0.55741">
        <ele>45.2</ele>
        <time>2023-06-04T09:30:38Z</time>
      </trkpt>
      <trkpt lat="47.36063" lon="0.55732">
        <ele>45.1</ele>
        <time>2023-06-04T09:30:39Z</time>
      </trkpt>
      <trkpt lat="47.36049" lon="0.55676">
        <ele>45</ele>
        <time>2023-06-04T09:30:45Z</time>
      </trkpt>
      <trkpt lat="47.36034" lon="0.55597">
        <ele>45</ele>
        <time>2023-06-04T09:30:53Z</time>
      </trkpt>
      <trkpt lat="47.3603" lon="0.55577">
        <ele>45</ele>
        <time>2023-06-04T09:30:55Z</time>
      </trkpt>
      <trkpt lat="47.36014" lon="0.55509">
        <ele>44.9</ele>
        <time>2023-06-04T09:31:02Z</time>
      </trkpt>
      <trkpt lat="47.35992" lon="0.55467">
        <ele>44.7</ele>
        <time>2023-06-04T09:31:07Z</time>
      </trkpt>
      <trkpt lat="47.35975" lon="0.55436">
        <ele>44.6</ele>
        <time>2023-06-04T09:31:11Z</time>
      </trkpt>
      <trkpt lat="47.3597" lon="0.55418">
        <ele>44.7</ele>
        <time>2023-06-04T09:31:13Z</time>
      </trkpt>
      <trkpt lat="47.35966" lon="0.55381">
        <ele>44.7</ele>
        <time>2023-06-04T09:31:17Z</time>
      </trkpt>
      <trkpt lat="47.35967" lon="0.55328">
        <ele>44.6</ele>
        <time>2023-06-04T09:31:23Z</time>
      </trkpt>
      <trkpt lat="47.35967" lon="0.55319">
        <ele>44.6</ele>
        <time>2023-06-04T09:31:24Z</time>
      </trkpt>
      <trkpt lat="47.35962" lon="0.55297">
        <ele>44.6</ele>
        <time>2023-06-04T09:31:27Z</time>
      </trkpt>
      <trkpt lat="47.35959" lon="0.55285">
        <ele>44.6</ele>
        <time>2023-06-04T09:31:29Z</time>
      </trkpt>
      <trkpt lat="47.35951" lon="0.55265">
        <ele>44.7</ele>
        <time>2023-06-04T09:31:33Z</time>
      </trkpt>
      <trkpt lat="47.35952" lon="0.55259">
        <ele>44.6</ele>
        <time>2023-06-04T09:31:34Z</time>
      </trkpt>
      <trkpt lat="47.35964" lon="0.55252">
        <ele>44.5</ele>
        <time>2023-06-04T09:31:37Z</time>
      </trkpt>
      <trkpt lat="47.35997" lon="0.5524">
        <ele>44.7</ele>
        <time>2023-06-04T09:31:43Z</time>
      </trkpt>
      <trkpt lat="47.36008" lon="0.55222">
        <ele>44.9</ele>
        <time>2023-06-04T09:31:46Z</time>
      </trkpt>
      <trkpt lat="47.36005" lon="0.55197">
        <ele>45</ele>
        <time>2023-06-04T09:31:49Z</time>
      </trkpt>
      <trkpt lat="47.36004" lon="0.55179">
        <ele>45</ele>
        <time>2023-06-04T09:31:51Z</time>
      </trkpt>
      <trkpt lat="47.36005" lon="0.5515">
        <ele>45</ele>
        <time>2023-06-04T09:31:54Z</time>
      </trkpt>
      <trkpt lat="47.36001" lon="0.55091">
        <ele>44.9</ele>
        <time>2023-06-04T09:32:00Z</time>
      </trkpt>
      <trkpt lat="47.35989" lon="0.5502">
        <ele>44.8</ele>
        <time>2023-06-04T09:32:07Z</time>
      </trkpt>
      <trkpt lat="47.35976" lon="0.54963">
        <ele>44.9</ele>
        <time>2023-06-04T09:32:13Z</time>
      </trkpt>
      <trkpt lat="47.35958" lon="0.54885">
        <ele>44.7</ele>
        <time>2023-06-04T09:32:21Z</time>
      </trkpt>
      <trkpt lat="47.35952" lon="0.54867">
        <ele>44.7</ele>
        <time>2023-06-04T09:32:23Z</time>
      </trkpt>
      <trkpt lat="47.35932" lon="0.54815">
        <ele>44.8</ele>
        <time>2023-06-04T09:32:29Z</time>
      </trkpt>
      <trkpt lat="47.35899" lon="0.54763">
        <ele>44.6</ele>
        <time>2023-06-04T09:32:36Z</time>
      </trkpt>
      <trkpt lat="47.35872" lon="0.54728">
        <ele>43.9</ele>
        <time>2023-06-04T09:32:41Z</time>
      </trkpt>
      <trkpt lat="47.35845" lon="0.54696">
        <ele>43.6</ele>
        <time>2023-06-04T09:32:46Z</time>
      </trkpt>
      <trkpt lat="47.35801" lon="0.54663">
        <ele>43.5</ele>
        <time>2023-06-04T09:32:53Z</time>
      </trkpt>
      <trkpt lat="47.35747" lon="0.54638">
        <ele>43.4</ele>
        <time>2023-06-04T09:33:01Z</time>
      </trkpt>
      <trkpt lat="47.35697" lon="0.5463">
        <ele>43.2</ele>
        <time>2023-06-04T09:33:08Z</time>
      </trkpt>
      <trkpt lat="47.35655" lon="0.54639">
        <ele>43.5</ele>
        <time>2023-06-04T09:33:14Z</time>
      </trkpt>
      <trkpt lat="47.35615" lon="0.54663">
        <ele>43.5</ele>
        <time>2023-06-04T09:33:20Z</time>
      </trkpt>
      <trkpt lat="47.35603" lon="0.54673">
        <ele>43.6</ele>
        <time>2023-06-04T09:33:22Z</time>
      </trkpt>
      <trkpt lat="47.35587" lon="0.54691">
        <ele>43.6</ele>
        <time>2023-06-04T09:33:25Z</time>
      </trkpt>
      <trkpt lat="47.35567" lon="0.54715">
        <ele>43.9</ele>
        <time>2023-06-04T09:33:29Z</time>
      </trkpt>
      <trkpt lat="47.35563" lon="0.5472">
        <ele>44</ele>
        <time>2023-06-04T09:33:30Z</time>
      </trkpt>
      <trkpt lat="47.35558" lon="0.54725">
        <ele>44.1</ele>
        <time>2023-06-04T09:33:31Z</time>
      </trkpt>
      <trkpt lat="47.3552" lon="0.54759">
        <ele>44.4</ele>
        <time>2023-06-04T09:33:38Z</time>
      </trkpt>
      <trkpt lat="47.35471" lon="0.54805">
        <ele>44.2</ele>
        <time>2023-06-04T09:33:47Z</time>
      </trkpt>
      <trkpt lat="47.35466" lon="0.54811">
        <ele>44.1</ele>
        <time>2023-06-04T09:33:48Z</time>
      </trkpt>
      <trkpt lat="47.3544" lon="0.54838">
        <ele>44</ele>
        <time>2023-06-04T09:33:53Z</time>
      </trkpt>
      <trkpt lat="47.3543" lon="0.54848">
        <ele>43.9</ele>
        <time>2023-06-04T09:33:55Z</time>
      </trkpt>
      <trkpt lat="47.35389" lon="0.54888">
        <ele>44</ele>
        <time>2023-06-04T09:34:03Z</time>
      </trkpt>
      <trkpt lat="47.35347" lon="0.54923">
        <ele>44.1</ele>
        <time>2023-06-04T09:34:10Z</time>
      </trkpt>
      <trkpt lat="47.35309" lon="0.54944">
        <ele>44</ele>
        <time>2023-06-04T09:34:16Z</time>
      </trkpt>
      <trkpt lat="47.35262" lon="0.54963">
        <ele>43.7</ele>
        <time>2023-06-04T09:34:23Z</time>
      </trkpt>
      <trkpt lat="47.35225" lon="0.54969">
        <ele>43.7</ele>
        <time>2023-06-04T09:34:29Z</time>
      </trkpt>
      <trkpt lat="47.3518" lon="0.54974">
        <ele>43.7</ele>
        <time>2023-06-04T09:34:36Z</time>
      </trkpt>
      <trkpt lat="47.35133" lon="0.54976">
        <ele>43.6</ele>
        <time>2023-06-04T09:34:43Z</time>
      </trkpt>
      <trkpt lat="47.35107" lon="0.54976">
        <ele>43.6</ele>
        <time>2023-06-04T09:34:47Z</time>
      </trkpt>
      <trkpt lat="47.35102" lon="0.54974">
        <ele>43.6</ele>
        <time>2023-06-04T09:34:48Z</time>
      </trkpt>
      <trkpt lat="47.35076" lon="0.54959">
        <ele>43.6</ele>
        <time>2023-06-04T09:34:53Z</time>
      </trkpt>
      <trkpt lat="47.35072" lon="0.54956">
        <ele>43.5</ele>
        <time>2023-06-04T09:34:54Z</time>
      </trkpt>
      <trkpt lat="47.35042" lon="0.54937">
        <ele>43.4</ele>
        <time>2023-06-04T09:35:00Z</time>
      </trkpt>
      <trkpt lat="47.35026" lon="0.54926">
        <ele>43.4</ele>
        <time>2023-06-04T09:35:04Z</time>
      </trkpt>
      <trkpt lat="47.35021" lon="0.54924">
        <ele>43.4</ele>
        <time>2023-06-04T09:35:05Z</time>
      </trkpt>
      <trkpt lat="47.34996" lon="0.5491">
        <ele>43.3</ele>
        <time>2023-06-04T09:35:11Z</time>
      </trkpt>
      <trkpt lat="47.34988" lon="0.54905">
        <ele>43.3</ele>
        <time>2023-06-04T09:35:13Z</time>
      </trkpt>
      <trkpt lat="47.34962" lon="0.54888">
        <ele>43.2</ele>
        <time>2023-06-04T09:35:19Z</time>
      </trkpt>
      <trkpt lat="47.34953" lon="0.54883">
        <ele>43.2</ele>
        <time>2023-06-04T09:35:21Z</time>
      </trkpt>
      <trkpt lat="47.3494" lon="0.54877">
        <ele>43.2</ele>
        <time>2023-06-04T09:35:24Z</time>
      </trkpt>
      <trkpt lat="47.34932" lon="0.54874">
        <ele>43.1</ele>
        <time>2023-06-04T09:35:26Z</time>
      </trkpt>
      <trkpt lat="47.34923" lon="0.54869">
        <ele>43.1</ele>
        <time>2023-06-04T09:35:28Z</time>
      </trkpt>
      <trkpt lat="47.34921" lon="0.54864">
        <ele>43.1</ele>
        <time>2023-06-04T09:35:29Z</time>
      </trkpt>
      <trkpt lat="47.34913" lon="0.54842">
        <ele>43.1</ele>
        <time>2023-06-04T09:35:33Z</time>
      </trkpt>
      <trkpt lat="47.34911" lon="0.54838">
        <ele>43.1</ele>
        <time>2023-06-04T09:35:34Z</time>
      </trkpt>
      <trkpt lat="47.34901" lon="0.54822">
        <ele>43.2</ele>
        <time>2023-06-04T09:35:39Z</time>
      </trkpt>
      <trkpt lat="47.34896" lon="0.54811">
        <ele>43.2</ele>
        <time>2023-06-04T09:36:24Z</time>
      </trkpt>
      <trkpt lat="47.34894" lon="0.54807">
        <ele>43.3</ele>
        <time>2023-06-04T09:36:25Z</time>
      </trkpt>
      <trkpt lat="47.34883" lon="0.54786">
        <ele>43.4</ele>
        <time>2023-06-04T09:36:30Z</time>
      </trkpt>
      <trkpt lat="47.34867" lon="0.54764">
        <ele>43.8</ele>
        <time>2023-06-04T09:36:36Z</time>
      </trkpt>
      <trkpt lat="47.34865" lon="0.5476">
        <ele>43.9</ele>
        <time>2023-06-04T09:36:37Z</time>
      </trkpt>
      <trkpt lat="47.34861" lon="0.54746">
        <ele>44.1</ele>
        <time>2023-06-04T09:36:40Z</time>
      </trkpt>
      <trkpt lat="47.34858" lon="0.54717">
        <ele>43.9</ele>
        <time>2023-06-04T09:36:45Z</time>
      </trkpt>
      <trkpt lat="47.34852" lon="0.54673">
        <ele>43.6</ele>
        <time>2023-06-04T09:36:51Z</time>
      </trkpt>
      <trkpt lat="47.3485" lon="0.54654">
        <ele>43.6</ele>
        <time>2023-06-04T09:36:54Z</time>
      </trkpt>
      <trkpt lat="47.34848" lon="0.54641">
        <ele>43.7</ele>
        <time>2023-06-04T09:36:56Z</time>
      </trkpt>
      <trkpt lat="47.34847" lon="0.54634">
        <ele>43.8</ele>
        <time>2023-06-04T09:36:57Z</time>
      </trkpt>
      <trkpt lat="47.34835" lon="0.54592">
        <ele>44.1</ele>
        <time>2023-06-04T09:37:04Z</time>
      </trkpt>
      <trkpt lat="47.34833" lon="0.54586">
        <ele>44.1</ele>
        <time>2023-06-04T09:37:05Z</time>
      </trkpt>
      <trkpt lat="47.34822" lon="0.54559">
        <ele>44.4</ele>
        <time>2023-06-04T09:37:10Z</time>
      </trkpt>
      <trkpt lat="47.34811" lon="0.54543">
        <ele>45</ele>
        <time>2023-06-04T09:37:15Z</time>
      </trkpt>
      <trkpt lat="47.3481" lon="0.54541">
        <ele>45.1</ele>
        <time>2023-06-04T09:37:16Z</time>
      </trkpt>
      <trkpt lat="47.34806" lon="0.5453">
        <ele>45.6</ele>
        <time>2023-06-04T09:37:20Z</time>
      </trkpt>
      <trkpt lat="47.34806" lon="0.54527">
        <ele>45.7</ele>
        <time>2023-06-04T09:37:21Z</time>
      </trkpt>
      <trkpt lat="47.34808" lon="0.54517">
        <ele>45.8</ele>
        <time>2023-06-04T09:37:24Z</time>
      </trkpt>
      <trkpt lat="47.34807" lon="0.54512">
        <ele>45.8</ele>
        <time>2023-06-04T09:37:26Z</time>
      </trkpt>
      <trkpt lat="47.34804" lon="0.54505">
        <ele>45.5</ele>
        <time>2023-06-04T09:37:29Z</time>
      </trkpt>
      <trkpt lat="47.34804" lon="0.54493">
        <ele>44.9</ele>
        <time>2023-06-04T09:37:31Z</time>
      </trkpt>
      <trkpt lat="47.34804" lon="0.54485">
        <ele>44.3</ele>
        <time>2023-06-04T09:37:32Z</time>
      </trkpt>
      <trkpt lat="47.34802" lon="0.54461">
        <ele>42.6</ele>
        <time>2023-06-04T09:37:35Z</time>
      </trkpt>
      <trkpt lat="47.34801" lon="0.54454">
        <ele>42.3</ele>
        <time>2023-06-04T09:37:36Z</time>
      </trkpt>
      <trkpt lat="47.348" lon="0.54447">
        <ele>42</ele>
        <time>2023-06-04T09:37:37Z</time>
      </trkpt>
      <trkpt lat="47.34799" lon="0.5444">
        <ele>41.8</ele>
        <time>2023-06-04T09:37:38Z</time>
      </trkpt>
      <trkpt lat="47.34798" lon="0.54433">
        <ele>41.7</ele>
        <time>2023-06-04T09:37:39Z</time>
      </trkpt>
      <trkpt lat="47.34797" lon="0.54418">
        <ele>41.5</ele>
        <time>2023-06-04T09:37:41Z</time>
      </trkpt>
      <trkpt lat="47.34795" lon="0.54396">
        <ele>41.4</ele>
        <time>2023-06-04T09:37:44Z</time>
      </trkpt>
      <trkpt lat="47.34792" lon="0.54366">
        <ele>41.4</ele>
        <time>2023-06-04T09:37:48Z</time>
      </trkpt>
      <trkpt lat="47.3479" lon="0.54351">
        <ele>41.4</ele>
        <time>2023-06-04T09:37:50Z</time>
      </trkpt>
      <trkpt lat="47.34788" lon="0.5431">
        <ele>41.6</ele>
        <time>2023-06-04T09:37:56Z</time>
      </trkpt>
      <trkpt lat="47.34789" lon="0.54297">
        <ele>41.6</ele>
        <time>2023-06-04T09:37:58Z</time>
      </trkpt>
      <trkpt lat="47.34787" lon="0.54291">
        <ele>41.6</ele>
        <time>2023-06-04T09:37:59Z</time>
      </trkpt>
      <trkpt lat="47.34781" lon="0.54274">
        <ele>41.7</ele>
        <time>2023-06-04T09:38:03Z</time>
      </trkpt>
      <trkpt lat="47.34781" lon="0.54274">
        <ele>41.7</ele>
        <time>2023-06-04T09:38:04Z</time>
      </trkpt>
      <trkpt lat="47.3478" lon="0.54277">
        <ele>41.7</ele>
        <time>2023-06-04T09:38:06Z</time>
      </trkpt>
      <trkpt lat="47.3478" lon="0.54283">
        <ele>41.7</ele>
        <time>2023-06-04T09:38:19Z</time>
      </trkpt>
      <trkpt lat="47.34779" lon="0.54277">
        <ele>41.7</ele>
        <time>2023-06-04T09:38:21Z</time>
      </trkpt>
      <trkpt lat="47.34776" lon="0.54254">
        <ele>41.7</ele>
        <time>2023-06-04T09:38:26Z</time>
      </trkpt>
      <trkpt lat="47.3477" lon="0.54221">
        <ele>41.7</ele>
        <time>2023-06-04T09:38:31Z</time>
      </trkpt>
      <trkpt lat="47.34769" lon="0.54214">
        <ele>41.7</ele>
        <time>2023-06-04T09:38:32Z</time>
      </trkpt>
      <trkpt lat="47.34759" lon="0.54178">
        <ele>42</ele>
        <time>2023-06-04T09:38:37Z</time>
      </trkpt>
      <trkpt lat="47.34751" lon="0.54133">
        <ele>42.2</ele>
        <time>2023-06-04T09:38:43Z</time>
      </trkpt>
      <trkpt lat="47.34748" lon="0.54099">
        <ele>42.4</ele>
        <time>2023-06-04T09:38:47Z</time>
      </trkpt>
      <trkpt lat="47.34746" lon="0.54084">
        <ele>42.5</ele>
        <time>2023-06-04T09:38:49Z</time>
      </trkpt>
      <trkpt lat="47.34745" lon="0.54054">
        <ele>42.6</ele>
        <time>2023-06-04T09:38:53Z</time>
      </trkpt>
      <trkpt lat="47.34742" lon="0.54006">
        <ele>42.4</ele>
        <time>2023-06-04T09:38:59Z</time>
      </trkpt>
      <trkpt lat="47.3474" lon="0.53999">
        <ele>42.3</ele>
        <time>2023-06-04T09:39:00Z</time>
      </trkpt>
      <trkpt lat="47.34737" lon="0.53969">
        <ele>42.2</ele>
        <time>2023-06-04T09:39:04Z</time>
      </trkpt>
      <trkpt lat="47.34732" lon="0.53918">
        <ele>41.9</ele>
        <time>2023-06-04T09:39:10Z</time>
      </trkpt>
      <trkpt lat="47.34726" lon="0.53855">
        <ele>42</ele>
        <time>2023-06-04T09:39:17Z</time>
      </trkpt>
      <trkpt lat="47.34718" lon="0.53788">
        <ele>42.1</ele>
        <time>2023-06-04T09:39:25Z</time>
      </trkpt>
      <trkpt lat="47.34714" lon="0.53754">
        <ele>42</ele>
        <time>2023-06-04T09:39:29Z</time>
      </trkpt>
      <trkpt lat="47.3471" lon="0.53721">
        <ele>42.3</ele>
        <time>2023-06-04T09:39:33Z</time>
      </trkpt>
      <trkpt lat="47.34703" lon="0.53676">
        <ele>43.4</ele>
        <time>2023-06-04T09:39:39Z</time>
      </trkpt>
      <trkpt lat="47.347" lon="0.53662">
        <ele>43.9</ele>
        <time>2023-06-04T09:39:41Z</time>
      </trkpt>
      <trkpt lat="47.34697" lon="0.5365">
        <ele>44.4</ele>
        <time>2023-06-04T09:39:43Z</time>
      </trkpt>
      <trkpt lat="47.34694" lon="0.5363">
        <ele>44.4</ele>
        <time>2023-06-04T09:39:46Z</time>
      </trkpt>
      <trkpt lat="47.34694" lon="0.53622">
        <ele>44.4</ele>
        <time>2023-06-04T09:39:47Z</time>
      </trkpt>
      <trkpt lat="47.34693" lon="0.53614">
        <ele>44.4</ele>
        <time>2023-06-04T09:39:48Z</time>
      </trkpt>
      <trkpt lat="47.3469" lon="0.53555">
        <ele>44.2</ele>
        <time>2023-06-04T09:39:55Z</time>
      </trkpt>
      <trkpt lat="47.34689" lon="0.53517">
        <ele>43.9</ele>
        <time>2023-06-04T09:40:00Z</time>
      </trkpt>
      <trkpt lat="47.34689" lon="0.53501">
        <ele>43.6</ele>
        <time>2023-06-04T09:40:02Z</time>
      </trkpt>
      <trkpt lat="47.34689" lon="0.53455">
        <ele>43</ele>
        <time>2023-06-04T09:40:07Z</time>
      </trkpt>
      <trkpt lat="47.34691" lon="0.53429">
        <ele>42.8</ele>
        <time>2023-06-04T09:40:10Z</time>
      </trkpt>
      <trkpt lat="47.34696" lon="0.5336">
        <ele>42.7</ele>
        <time>2023-06-04T09:40:18Z</time>
      </trkpt>
      <trkpt lat="47.34703" lon="0.53315">
        <ele>42.6</ele>
        <time>2023-06-04T09:40:23Z</time>
      </trkpt>
      <trkpt lat="47.34705" lon="0.53307">
        <ele>42.6</ele>
        <time>2023-06-04T09:40:24Z</time>
      </trkpt>
      <trkpt lat="47.34716" lon="0.53249">
        <ele>42.7</ele>
        <time>2023-06-04T09:40:31Z</time>
      </trkpt>
      <trkpt lat="47.34716" lon="0.53241">
        <ele>42.7</ele>
        <time>2023-06-04T09:40:32Z</time>
      </trkpt>
      <trkpt lat="47.34712" lon="0.53207">
        <ele>42.8</ele>
        <time>2023-06-04T09:40:36Z</time>
      </trkpt>
      <trkpt lat="47.34704" lon="0.53157">
        <ele>43</ele>
        <time>2023-06-04T09:40:42Z</time>
      </trkpt>
      <trkpt lat="47.34704" lon="0.53147">
        <ele>43.1</ele>
        <time>2023-06-04T09:40:43Z</time>
      </trkpt>
      <trkpt lat="47.34701" lon="0.53086">
        <ele>42.9</ele>
        <time>2023-06-04T09:40:50Z</time>
      </trkpt>
      <trkpt lat="47.34696" lon="0.53061">
        <ele>42.9</ele>
        <time>2023-06-04T09:40:53Z</time>
      </trkpt>
      <trkpt lat="47.34693" lon="0.53048">
        <ele>43</ele>
        <time>2023-06-04T09:40:55Z</time>
      </trkpt>
      <trkpt lat="47.34685" lon="0.52997">
        <ele>43.2</ele>
        <time>2023-06-04T09:41:02Z</time>
      </trkpt>
      <trkpt lat="47.34683" lon="0.5298">
        <ele>43.1</ele>
        <time>2023-06-04T09:41:04Z</time>
      </trkpt>
      <trkpt lat="47.34684" lon="0.52962">
        <ele>43.1</ele>
        <time>2023-06-04T09:41:06Z</time>
      </trkpt>
      <trkpt lat="47.34689" lon="0.52945">
        <ele>43</ele>
        <time>2023-06-04T09:41:08Z</time>
      </trkpt>
      <trkpt lat="47.34698" lon="0.5292">
        <ele>42.9</ele>
        <time>2023-06-04T09:41:11Z</time>
      </trkpt>
      <trkpt lat="47.34703" lon="0.52903">
        <ele>42.8</ele>
        <time>2023-06-04T09:41:13Z</time>
      </trkpt>
      <trkpt lat="47.34705" lon="0.52876">
        <ele>42.8</ele>
        <time>2023-06-04T09:41:16Z</time>
      </trkpt>
      <trkpt lat="47.34705" lon="0.5284">
        <ele>42.9</ele>
        <time>2023-06-04T09:41:20Z</time>
      </trkpt>
      <trkpt lat="47.347" lon="0.52823">
        <ele>42.8</ele>
        <time>2023-06-04T09:41:22Z</time>
      </trkpt>
      <trkpt lat="47.34677" lon="0.52741">
        <ele>42.1</ele>
        <time>2023-06-04T09:41:31Z</time>
      </trkpt>
      <trkpt lat="47.34655" lon="0.5266">
        <ele>41.8</ele>
        <time>2023-06-04T09:41:40Z</time>
      </trkpt>
      <trkpt lat="47.34638" lon="0.52599">
        <ele>41.2</ele>
        <time>2023-06-04T09:41:47Z</time>
      </trkpt>
      <trkpt lat="47.34635" lon="0.52591">
        <ele>41.1</ele>
        <time>2023-06-04T09:41:48Z</time>
      </trkpt>
      <trkpt lat="47.34618" lon="0.52567">
        <ele>41</ele>
        <time>2023-06-04T09:41:52Z</time>
      </trkpt>
      <trkpt lat="47.34606" lon="0.52545">
        <ele>41.4</ele>
        <time>2023-06-04T09:41:55Z</time>
      </trkpt>
      <trkpt lat="47.34599" lon="0.52531">
        <ele>42</ele>
        <time>2023-06-04T09:41:57Z</time>
      </trkpt>
      <trkpt lat="47.34596" lon="0.52525">
        <ele>42.2</ele>
        <time>2023-06-04T09:41:58Z</time>
      </trkpt>
      <trkpt lat="47.34588" lon="0.52513">
        <ele>42.7</ele>
        <time>2023-06-04T09:42:00Z</time>
      </trkpt>
      <trkpt lat="47.34581" lon="0.52488">
        <ele>42.7</ele>
        <time>2023-06-04T09:42:04Z</time>
      </trkpt>
      <trkpt lat="47.3458" lon="0.52471">
        <ele>42.3</ele>
        <time>2023-06-04T09:42:06Z</time>
      </trkpt>
      <trkpt lat="47.34577" lon="0.52452">
        <ele>41.8</ele>
        <time>2023-06-04T09:42:08Z</time>
      </trkpt>
      <trkpt lat="47.34575" lon="0.52444">
        <ele>41.7</ele>
        <time>2023-06-04T09:42:09Z</time>
      </trkpt>
      <trkpt lat="47.34559" lon="0.52419">
        <ele>41.4</ele>
        <time>2023-06-04T09:42:13Z</time>
      </trkpt>
      <trkpt lat="47.34551" lon="0.52407">
        <ele>41.4</ele>
        <time>2023-06-04T09:42:15Z</time>
      </trkpt>
      <trkpt lat="47.34532" lon="0.52383">
        <ele>41.6</ele>
        <time>2023-06-04T09:42:19Z</time>
      </trkpt>
      <trkpt lat="47.34517" lon="0.52367">
        <ele>41.9</ele>
        <time>2023-06-04T09:42:22Z</time>
      </trkpt>
      <trkpt lat="47.34509" lon="0.52356">
        <ele>42.1</ele>
        <time>2023-06-04T09:42:24Z</time>
      </trkpt>
      <trkpt lat="47.34479" lon="0.52313">
        <ele>42.3</ele>
        <time>2023-06-04T09:42:31Z</time>
      </trkpt>
      <trkpt lat="47.34475" lon="0.52306">
        <ele>42.3</ele>
        <time>2023-06-04T09:42:32Z</time>
      </trkpt>
      <trkpt lat="47.3446" lon="0.52277">
        <ele>42.3</ele>
        <time>2023-06-04T09:42:36Z</time>
      </trkpt>
      <trkpt lat="47.3445" lon="0.52253">
        <ele>42.4</ele>
        <time>2023-06-04T09:42:39Z</time>
      </trkpt>
      <trkpt lat="47.34443" lon="0.52238">
        <ele>42.5</ele>
        <time>2023-06-04T09:42:41Z</time>
      </trkpt>
      <trkpt lat="47.34429" lon="0.52204">
        <ele>42.9</ele>
        <time>2023-06-04T09:42:47Z</time>
      </trkpt>
      <trkpt lat="47.34406" lon="0.52147">
        <ele>42.8</ele>
        <time>2023-06-04T09:42:54Z</time>
      </trkpt>
      <trkpt lat="47.34383" lon="0.52079">
        <ele>43.5</ele>
        <time>2023-06-04T09:43:02Z</time>
      </trkpt>
      <trkpt lat="47.34378" lon="0.52064">
        <ele>44.1</ele>
        <time>2023-06-04T09:43:04Z</time>
      </trkpt>
      <trkpt lat="47.3437" lon="0.52046">
        <ele>45.2</ele>
        <time>2023-06-04T09:43:07Z</time>
      </trkpt>
      <trkpt lat="47.34367" lon="0.5204">
        <ele>45.4</ele>
        <time>2023-06-04T09:43:08Z</time>
      </trkpt>
      <trkpt lat="47.34366" lon="0.52033">
        <ele>45.8</ele>
        <time>2023-06-04T09:43:09Z</time>
      </trkpt>
      <trkpt lat="47.34365" lon="0.52017">
        <ele>45.8</ele>
        <time>2023-06-04T09:43:11Z</time>
      </trkpt>
      <trkpt lat="47.34363" lon="0.51975">
        <ele>45.8</ele>
        <time>2023-06-04T09:43:16Z</time>
      </trkpt>
      <trkpt lat="47.34362" lon="0.51967">
        <ele>45.8</ele>
        <time>2023-06-04T09:43:17Z</time>
      </trkpt>
      <trkpt lat="47.34355" lon="0.5189">
        <ele>45.8</ele>
        <time>2023-06-04T09:43:26Z</time>
      </trkpt>
      <trkpt lat="47.34352" lon="0.51866">
        <ele>45.8</ele>
        <time>2023-06-04T09:43:29Z</time>
      </trkpt>
      <trkpt lat="47.34349" lon="0.51822">
        <ele>45.8</ele>
        <time>2023-06-04T09:43:34Z</time>
      </trkpt>
      <trkpt lat="47.34344" lon="0.51752">
        <ele>45.7</ele>
        <time>2023-06-04T09:43:42Z</time>
      </trkpt>
      <trkpt lat="47.34347" lon="0.51696">
        <ele>45.7</ele>
        <time>2023-06-04T09:43:48Z</time>
      </trkpt>
      <trkpt lat="47.34354" lon="0.51612">
        <ele>45.8</ele>
        <time>2023-06-04T09:43:57Z</time>
      </trkpt>
      <trkpt lat="47.34365" lon="0.51538">
        <ele>46</ele>
        <time>2023-06-04T09:44:05Z</time>
      </trkpt>
      <trkpt lat="47.34383" lon="0.51457">
        <ele>46</ele>
        <time>2023-06-04T09:44:14Z</time>
      </trkpt>
      <trkpt lat="47.34396" lon="0.51371">
        <ele>45.9</ele>
        <time>2023-06-04T09:44:23Z</time>
      </trkpt>
      <trkpt lat="47.34397" lon="0.51361">
        <ele>45.9</ele>
        <time>2023-06-04T09:44:24Z</time>
      </trkpt>
      <trkpt lat="47.34406" lon="0.51285">
        <ele>45.9</ele>
        <time>2023-06-04T09:44:32Z</time>
      </trkpt>
      <trkpt lat="47.34413" lon="0.5121">
        <ele>45.7</ele>
        <time>2023-06-04T09:44:40Z</time>
      </trkpt>
      <trkpt lat="47.34416" lon="0.5115">
        <ele>45.9</ele>
        <time>2023-06-04T09:44:47Z</time>
      </trkpt>
      <trkpt lat="47.34417" lon="0.51071">
        <ele>46.2</ele>
        <time>2023-06-04T09:44:57Z</time>
      </trkpt>
      <trkpt lat="47.34416" lon="0.51043">
        <ele>46.2</ele>
        <time>2023-06-04T09:45:01Z</time>
      </trkpt>
      <trkpt lat="47.34413" lon="0.51038">
        <ele>46.2</ele>
        <time>2023-06-04T09:45:02Z</time>
      </trkpt>
      <trkpt lat="47.34399" lon="0.51043">
        <ele>45.2</ele>
        <time>2023-06-04T09:45:05Z</time>
      </trkpt>
      <trkpt lat="47.34385" lon="0.51049">
        <ele>44.7</ele>
        <time>2023-06-04T09:45:07Z</time>
      </trkpt>
      <trkpt lat="47.34366" lon="0.51056">
        <ele>44.3</ele>
        <time>2023-06-04T09:45:10Z</time>
      </trkpt>
      <trkpt lat="47.3433" lon="0.51066">
        <ele>44</ele>
        <time>2023-06-04T09:45:16Z</time>
      </trkpt>
      <trkpt lat="47.34324" lon="0.51067">
        <ele>44</ele>
        <time>2023-06-04T09:45:17Z</time>
      </trkpt>
      <trkpt lat="47.34291" lon="0.51078">
        <ele>43.9</ele>
        <time>2023-06-04T09:45:22Z</time>
      </trkpt>
      <trkpt lat="47.34254" lon="0.5109">
        <ele>43.9</ele>
        <time>2023-06-04T09:45:28Z</time>
      </trkpt>
      <trkpt lat="47.34211" lon="0.51103">
        <ele>43.9</ele>
        <time>2023-06-04T09:45:35Z</time>
      </trkpt>
      <trkpt lat="47.34161" lon="0.51117">
        <ele>43.9</ele>
        <time>2023-06-04T09:45:43Z</time>
      </trkpt>
      <trkpt lat="47.34124" lon="0.51129">
        <ele>44.2</ele>
        <time>2023-06-04T09:45:50Z</time>
      </trkpt>
      <trkpt lat="47.34093" lon="0.51139">
        <ele>44.7</ele>
        <time>2023-06-04T09:45:57Z</time>
      </trkpt>
      <trkpt lat="47.34089" lon="0.5114">
        <ele>44.8</ele>
        <time>2023-06-04T09:46:00Z</time>
      </trkpt>
      <trkpt lat="47.34087" lon="0.51142">
        <ele>44.8</ele>
        <time>2023-06-04T09:46:05Z</time>
      </trkpt>
      <trkpt lat="47.34083" lon="0.51144">
        <ele>44.9</ele>
        <time>2023-06-04T09:46:07Z</time>
      </trkpt>
      <trkpt lat="47.34069" lon="0.51146">
        <ele>44.9</ele>
        <time>2023-06-04T09:46:12Z</time>
      </trkpt>
      <trkpt lat="47.34044" lon="0.51146">
        <ele>45.2</ele>
        <time>2023-06-04T09:46:18Z</time>
      </trkpt>
      <trkpt lat="47.34023" lon="0.51154">
        <ele>45.8</ele>
        <time>2023-06-04T09:46:23Z</time>
      </trkpt>
      <trkpt lat="47.34001" lon="0.51162">
        <ele>47.6</ele>
        <time>2023-06-04T09:46:29Z</time>
      </trkpt>
      <trkpt lat="47.33994" lon="0.51162">
        <ele>48.4</ele>
        <time>2023-06-04T09:46:31Z</time>
      </trkpt>
      <trkpt lat="47.33989" lon="0.51164">
        <ele>49</ele>
        <time>2023-06-04T09:46:33Z</time>
      </trkpt>
      <trkpt lat="47.33986" lon="0.51163">
        <ele>49.1</ele>
        <time>2023-06-04T09:46:34Z</time>
      </trkpt>
      <trkpt lat="47.33976" lon="0.51157">
        <ele>50.5</ele>
        <time>2023-06-04T09:46:38Z</time>
      </trkpt>
      <trkpt lat="47.33974" lon="0.51158">
        <ele>50.8</ele>
        <time>2023-06-04T09:46:39Z</time>
      </trkpt>
      <trkpt lat="47.33971" lon="0.51159">
        <ele>51.1</ele>
        <time>2023-06-04T09:46:40Z</time>
      </trkpt>
      <trkpt lat="47.33968" lon="0.51159">
        <ele>51.5</ele>
        <time>2023-06-04T09:46:41Z</time>
      </trkpt>
      <trkpt lat="47.33953" lon="0.5116">
        <ele>52.7</ele>
        <time>2023-06-04T09:46:46Z</time>
      </trkpt>
      <trkpt lat="47.3395" lon="0.51162">
        <ele>52.8</ele>
        <time>2023-06-04T09:46:47Z</time>
      </trkpt>
      <trkpt lat="47.33933" lon="0.51168">
        <ele>54</ele>
        <time>2023-06-04T09:46:52Z</time>
      </trkpt>
      <trkpt lat="47.3393" lon="0.51169">
        <ele>54.3</ele>
        <time>2023-06-04T09:46:53Z</time>
      </trkpt>
      <trkpt lat="47.3392" lon="0.51176">
        <ele>54.9</ele>
        <time>2023-06-04T09:46:56Z</time>
      </trkpt>
      <trkpt lat="47.33909" lon="0.5118">
        <ele>55.6</ele>
        <time>2023-06-04T09:46:59Z</time>
      </trkpt>
      <trkpt lat="47.33891" lon="0.51184">
        <ele>56.7</ele>
        <time>2023-06-04T09:47:04Z</time>
      </trkpt>
      <trkpt lat="47.33884" lon="0.51185">
        <ele>57.2</ele>
        <time>2023-06-04T09:47:06Z</time>
      </trkpt>
      <trkpt lat="47.33878" lon="0.51188">
        <ele>57.6</ele>
        <time>2023-06-04T09:47:08Z</time>
      </trkpt>
      <trkpt lat="47.33866" lon="0.51197">
        <ele>58.5</ele>
        <time>2023-06-04T09:47:12Z</time>
      </trkpt>
      <trkpt lat="47.33861" lon="0.51202">
        <ele>59</ele>
        <time>2023-06-04T09:47:14Z</time>
      </trkpt>
      <trkpt lat="47.33854" lon="0.51209">
        <ele>59.5</ele>
        <time>2023-06-04T09:47:17Z</time>
      </trkpt>
      <trkpt lat="47.33842" lon="0.5122">
        <ele>60.1</ele>
        <time>2023-06-04T09:47:22Z</time>
      </trkpt>
      <trkpt lat="47.33822" lon="0.51238">
        <ele>61</ele>
        <time>2023-06-04T09:47:29Z</time>
      </trkpt>
      <trkpt lat="47.33814" lon="0.51245">
        <ele>61.4</ele>
        <time>2023-06-04T09:47:32Z</time>
      </trkpt>
      <trkpt lat="47.33802" lon="0.51252">
        <ele>61.9</ele>
        <time>2023-06-04T09:47:36Z</time>
      </trkpt>
      <trkpt lat="47.33782" lon="0.51261">
        <ele>62.4</ele>
        <time>2023-06-04T09:47:42Z</time>
      </trkpt>
      <trkpt lat="47.33776" lon="0.51263">
        <ele>62.7</ele>
        <time>2023-06-04T09:47:44Z</time>
      </trkpt>
      <trkpt lat="47.33767" lon="0.51265">
        <ele>63.4</ele>
        <time>2023-06-04T09:47:47Z</time>
      </trkpt>
      <trkpt lat="47.33759" lon="0.51266">
        <ele>64</ele>
        <time>2023-06-04T09:47:50Z</time>
      </trkpt>
      <trkpt lat="47.33756" lon="0.51265">
        <ele>64.3</ele>
        <time>2023-06-04T09:47:51Z</time>
      </trkpt>
      <trkpt lat="47.3374" lon="0.51265">
        <ele>65.6</ele>
        <time>2023-06-04T09:47:56Z</time>
      </trkpt>
      <trkpt lat="47.33737" lon="0.51265">
        <ele>65.9</ele>
        <time>2023-06-04T09:47:57Z</time>
      </trkpt>
      <trkpt lat="47.33728" lon="0.51265">
        <ele>66.8</ele>
        <time>2023-06-04T09:48:00Z</time>
      </trkpt>
      <trkpt lat="47.33715" lon="0.51265">
        <ele>68.1</ele>
        <time>2023-06-04T09:48:04Z</time>
      </trkpt>
      <trkpt lat="47.33709" lon="0.51265">
        <ele>68.8</ele>
        <time>2023-06-04T09:48:06Z</time>
      </trkpt>
      <trkpt lat="47.33702" lon="0.51266">
        <ele>69.4</ele>
        <time>2023-06-04T09:48:08Z</time>
      </trkpt>
      <trkpt lat="47.3369" lon="0.51265">
        <ele>70.7</ele>
        <time>2023-06-04T09:48:12Z</time>
      </trkpt>
      <trkpt lat="47.33676" lon="0.51265">
        <ele>72</ele>
        <time>2023-06-04T09:48:16Z</time>
      </trkpt>
      <trkpt lat="47.33663" lon="0.51266">
        <ele>73.1</ele>
        <time>2023-06-04T09:48:20Z</time>
      </trkpt>
      <trkpt lat="47.33653" lon="0.51265">
        <ele>73.9</ele>
        <time>2023-06-04T09:48:23Z</time>
      </trkpt>
      <trkpt lat="47.33649" lon="0.51265">
        <ele>74.2</ele>
        <time>2023-06-04T09:48:24Z</time>
      </trkpt>
      <trkpt lat="47.33628" lon="0.51264">
        <ele>75.9</ele>
        <time>2023-06-04T09:48:30Z</time>
      </trkpt>
      <trkpt lat="47.33618" lon="0.51263">
        <ele>76.6</ele>
        <time>2023-06-04T09:48:33Z</time>
      </trkpt>
      <trkpt lat="47.33611" lon="0.51263">
        <ele>77</ele>
        <time>2023-06-04T09:48:35Z</time>
      </trkpt>
      <trkpt lat="47.336" lon="0.51262">
        <ele>77.7</ele>
        <time>2023-06-04T09:48:38Z</time>
      </trkpt>
      <trkpt lat="47.33577" lon="0.5126">
        <ele>78.9</ele>
        <time>2023-06-04T09:48:44Z</time>
      </trkpt>
      <trkpt lat="47.33549" lon="0.51256">
        <ele>80.1</ele>
        <time>2023-06-04T09:48:51Z</time>
      </trkpt>
      <trkpt lat="47.33537" lon="0.51253">
        <ele>80.6</ele>
        <time>2023-06-04T09:48:54Z</time>
      </trkpt>
      <trkpt lat="47.33519" lon="0.51249">
        <ele>81.3</ele>
        <time>2023-06-04T09:48:58Z</time>
      </trkpt>
      <trkpt lat="47.33489" lon="0.51241">
        <ele>82.2</ele>
        <time>2023-06-04T09:49:05Z</time>
      </trkpt>
      <trkpt lat="47.33484" lon="0.5124">
        <ele>82.3</ele>
        <time>2023-06-04T09:49:06Z</time>
      </trkpt>
      <trkpt lat="47.33457" lon="0.51233">
        <ele>83.2</ele>
        <time>2023-06-04T09:49:12Z</time>
      </trkpt>
      <trkpt lat="47.33448" lon="0.5123">
        <ele>83.6</ele>
        <time>2023-06-04T09:49:14Z</time>
      </trkpt>
      <trkpt lat="47.33425" lon="0.51226">
        <ele>84.5</ele>
        <time>2023-06-04T09:49:19Z</time>
      </trkpt>
      <trkpt lat="47.33407" lon="0.51226">
        <ele>85.2</ele>
        <time>2023-06-04T09:49:23Z</time>
      </trkpt>
      <trkpt lat="47.33397" lon="0.51227">
        <ele>85.5</ele>
        <time>2023-06-04T09:49:25Z</time>
      </trkpt>
      <trkpt lat="47.33372" lon="0.51234">
        <ele>86.3</ele>
        <time>2023-06-04T09:49:30Z</time>
      </trkpt>
      <trkpt lat="47.33363" lon="0.51238">
        <ele>86.6</ele>
        <time>2023-06-04T09:49:32Z</time>
      </trkpt>
      <trkpt lat="47.33346" lon="0.51249">
        <ele>87.2</ele>
        <time>2023-06-04T09:49:36Z</time>
      </trkpt>
      <trkpt lat="47.33342" lon="0.51252">
        <ele>87.4</ele>
        <time>2023-06-04T09:49:37Z</time>
      </trkpt>
      <trkpt lat="47.33325" lon="0.51265">
        <ele>88</ele>
        <time>2023-06-04T09:49:41Z</time>
      </trkpt>
      <trkpt lat="47.3331" lon="0.51281">
        <ele>88.5</ele>
        <time>2023-06-04T09:49:45Z</time>
      </trkpt>
      <trkpt lat="47.333" lon="0.51295">
        <ele>88.9</ele>
        <time>2023-06-04T09:49:48Z</time>
      </trkpt>
      <trkpt lat="47.33289" lon="0.5131">
        <ele>89.3</ele>
        <time>2023-06-04T09:49:51Z</time>
      </trkpt>
      <trkpt lat="47.33282" lon="0.5132">
        <ele>89.6</ele>
        <time>2023-06-04T09:49:53Z</time>
      </trkpt>
      <trkpt lat="47.33269" lon="0.51337">
        <ele>90</ele>
        <time>2023-06-04T09:49:57Z</time>
      </trkpt>
      <trkpt lat="47.33264" lon="0.51338">
        <ele>90.1</ele>
        <time>2023-06-04T09:49:58Z</time>
      </trkpt>
      <trkpt lat="47.33253" lon="0.51327">
        <ele>89.8</ele>
        <time>2023-06-04T09:50:01Z</time>
      </trkpt>
      <trkpt lat="47.3325" lon="0.51322">
        <ele>89.7</ele>
        <time>2023-06-04T09:50:02Z</time>
      </trkpt>
      <trkpt lat="47.33231" lon="0.51295">
        <ele>89.2</ele>
        <time>2023-06-04T09:50:07Z</time>
      </trkpt>
      <trkpt lat="47.33196" lon="0.51247">
        <ele>88.7</ele>
        <time>2023-06-04T09:50:15Z</time>
      </trkpt>
      <trkpt lat="47.33162" lon="0.51206">
        <ele>88</ele>
        <time>2023-06-04T09:50:22Z</time>
      </trkpt>
      <trkpt lat="47.33129" lon="0.5118">
        <ele>87.9</ele>
        <time>2023-06-04T09:50:28Z</time>
      </trkpt>
      <trkpt lat="47.33081" lon="0.5115">
        <ele>88.9</ele>
        <time>2023-06-04T09:50:36Z</time>
      </trkpt>
      <trkpt lat="47.33025" lon="0.51116">
        <ele>89.9</ele>
        <time>2023-06-04T09:50:45Z</time>
      </trkpt>
      <trkpt lat="47.33013" lon="0.51108">
        <ele>90.1</ele>
        <time>2023-06-04T09:50:47Z</time>
      </trkpt>
      <trkpt lat="47.32982" lon="0.51089">
        <ele>90.8</ele>
        <time>2023-06-04T09:50:52Z</time>
      </trkpt>
      <trkpt lat="47.32958" lon="0.51071">
        <ele>91.2</ele>
        <time>2023-06-04T09:50:56Z</time>
      </trkpt>
      <trkpt lat="47.32952" lon="0.51066">
        <ele>91.2</ele>
        <time>2023-06-04T09:50:57Z</time>
      </trkpt>
      <trkpt lat="47.32916" lon="0.51036">
        <ele>91.1</ele>
        <time>2023-06-04T09:51:03Z</time>
      </trkpt>
      <trkpt lat="47.3291" lon="0.5103">
        <ele>91.1</ele>
        <time>2023-06-04T09:51:04Z</time>
      </trkpt>
      <trkpt lat="47.32863" lon="0.50982">
        <ele>90.3</ele>
        <time>2023-06-04T09:51:12Z</time>
      </trkpt>
      <trkpt lat="47.32834" lon="0.50947">
        <ele>89.9</ele>
        <time>2023-06-04T09:51:17Z</time>
      </trkpt>
      <trkpt lat="47.32809" lon="0.5092">
        <ele>89.8</ele>
        <time>2023-06-04T09:51:21Z</time>
      </trkpt>
      <trkpt lat="47.32762" lon="0.5088">
        <ele>89.6</ele>
        <time>2023-06-04T09:51:28Z</time>
      </trkpt>
      <trkpt lat="47.32734" lon="0.50857">
        <ele>89.6</ele>
        <time>2023-06-04T09:51:32Z</time>
      </trkpt>
      <trkpt lat="47.32686" lon="0.50818">
        <ele>89.9</ele>
        <time>2023-06-04T09:51:39Z</time>
      </trkpt>
      <trkpt lat="47.32663" lon="0.50823">
        <ele>89.9</ele>
        <time>2023-06-04T09:51:42Z</time>
      </trkpt>
      <trkpt lat="47.32656" lon="0.50826">
        <ele>90</ele>
        <time>2023-06-04T09:51:43Z</time>
      </trkpt>
      <trkpt lat="47.32604" lon="0.50853">
        <ele>90.3</ele>
        <time>2023-06-04T09:51:50Z</time>
      </trkpt>
      <trkpt lat="47.32545" lon="0.50876">
        <ele>91</ele>
        <time>2023-06-04T09:51:58Z</time>
      </trkpt>
      <trkpt lat="47.3253" lon="0.50881">
        <ele>91.2</ele>
        <time>2023-06-04T09:52:00Z</time>
      </trkpt>
      <trkpt lat="47.32508" lon="0.50888">
        <ele>91.6</ele>
        <time>2023-06-04T09:52:03Z</time>
      </trkpt>
      <trkpt lat="47.32459" lon="0.50901">
        <ele>92.5</ele>
        <time>2023-06-04T09:52:10Z</time>
      </trkpt>
      <trkpt lat="47.32452" lon="0.50902">
        <ele>92.7</ele>
        <time>2023-06-04T09:52:11Z</time>
      </trkpt>
      <trkpt lat="47.32404" lon="0.5091">
        <ele>92.8</ele>
        <time>2023-06-04T09:52:18Z</time>
      </trkpt>
      <trkpt lat="47.32349" lon="0.50919">
        <ele>92.5</ele>
        <time>2023-06-04T09:52:26Z</time>
      </trkpt>
      <trkpt lat="47.32294" lon="0.50929">
        <ele>91.8</ele>
        <time>2023-06-04T09:52:34Z</time>
      </trkpt>
      <trkpt lat="47.32237" lon="0.5094">
        <ele>91.3</ele>
        <time>2023-06-04T09:52:42Z</time>
      </trkpt>
      <trkpt lat="47.32223" lon="0.50943">
        <ele>91.2</ele>
        <time>2023-06-04T09:52:44Z</time>
      </trkpt>
      <trkpt lat="47.32191" lon="0.5095">
        <ele>91.1</ele>
        <time>2023-06-04T09:52:49Z</time>
      </trkpt>
      <trkpt lat="47.32179" lon="0.50953">
        <ele>91.1</ele>
        <time>2023-06-04T09:52:51Z</time>
      </trkpt>
      <trkpt lat="47.32126" lon="0.50965">
        <ele>90.8</ele>
        <time>2023-06-04T09:52:59Z</time>
      </trkpt>
      <trkpt lat="47.32067" lon="0.50972">
        <ele>90.1</ele>
        <time>2023-06-04T09:53:07Z</time>
      </trkpt>
      <trkpt lat="47.32059" lon="0.50972">
        <ele>90</ele>
        <time>2023-06-04T09:53:08Z</time>
      </trkpt>
      <trkpt lat="47.32043" lon="0.50971">
        <ele>89.7</ele>
        <time>2023-06-04T09:53:10Z</time>
      </trkpt>
      <trkpt lat="47.32004" lon="0.50966">
        <ele>89.2</ele>
        <time>2023-06-04T09:53:15Z</time>
      </trkpt>
      <trkpt lat="47.31996" lon="0.50965">
        <ele>89.1</ele>
        <time>2023-06-04T09:53:16Z</time>
      </trkpt>
      <trkpt lat="47.31974" lon="0.50959">
        <ele>88.8</ele>
        <time>2023-06-04T09:53:19Z</time>
      </trkpt>
      <trkpt lat="47.31951" lon="0.50955">
        <ele>88.3</ele>
        <time>2023-06-04T09:53:22Z</time>
      </trkpt>
      <trkpt lat="47.31927" lon="0.50951">
        <ele>87.9</ele>
        <time>2023-06-04T09:53:25Z</time>
      </trkpt>
      <trkpt lat="47.31887" lon="0.50951">
        <ele>86.9</ele>
        <time>2023-06-04T09:53:30Z</time>
      </trkpt>
      <trkpt lat="47.3188" lon="0.50953">
        <ele>86.7</ele>
        <time>2023-06-04T09:53:31Z</time>
      </trkpt>
      <trkpt lat="47.31848" lon="0.50967">
        <ele>86</ele>
        <time>2023-06-04T09:53:35Z</time>
      </trkpt>
      <trkpt lat="47.31832" lon="0.50974">
        <ele>85.8</ele>
        <time>2023-06-04T09:53:37Z</time>
      </trkpt>
      <trkpt lat="47.31801" lon="0.5099">
        <ele>85.4</ele>
        <time>2023-06-04T09:53:41Z</time>
      </trkpt>
      <trkpt lat="47.31778" lon="0.51001">
        <ele>85.3</ele>
        <time>2023-06-04T09:53:44Z</time>
      </trkpt>
      <trkpt lat="47.31726" lon="0.51027">
        <ele>85.9</ele>
        <time>2023-06-04T09:53:51Z</time>
      </trkpt>
      <trkpt lat="47.3169" lon="0.51048">
        <ele>86.9</ele>
        <time>2023-06-04T09:53:57Z</time>
      </trkpt>
      <trkpt lat="47.31675" lon="0.51055">
        <ele>87.5</ele>
        <time>2023-06-04T09:54:00Z</time>
      </trkpt>
      <trkpt lat="47.31666" lon="0.51052">
        <ele>87.7</ele>
        <time>2023-06-04T09:54:02Z</time>
      </trkpt>
      <trkpt lat="47.31656" lon="0.51033">
        <ele>87.8</ele>
        <time>2023-06-04T09:54:05Z</time>
      </trkpt>
      <trkpt lat="47.31628" lon="0.50976">
        <ele>87.9</ele>
        <time>2023-06-04T09:54:13Z</time>
      </trkpt>
      <trkpt lat="47.31606" lon="0.5092">
        <ele>87.8</ele>
        <time>2023-06-04T09:54:20Z</time>
      </trkpt>
      <trkpt lat="47.31603" lon="0.50901">
        <ele>87.7</ele>
        <time>2023-06-04T09:54:22Z</time>
      </trkpt>
      <trkpt lat="47.316" lon="0.50871">
        <ele>87.5</ele>
        <time>2023-06-04T09:54:25Z</time>
      </trkpt>
      <trkpt lat="47.31596" lon="0.50803">
        <ele>86.9</ele>
        <time>2023-06-04T09:54:32Z</time>
      </trkpt>
      <trkpt lat="47.31598" lon="0.5075">
        <ele>86.5</ele>
        <time>2023-06-04T09:54:37Z</time>
      </trkpt>
      <trkpt lat="47.316" lon="0.50719">
        <ele>86.2</ele>
        <time>2023-06-04T09:54:40Z</time>
      </trkpt>
      <trkpt lat="47.316" lon="0.50664">
        <ele>85.9</ele>
        <time>2023-06-04T09:54:45Z</time>
      </trkpt>
      <trkpt lat="47.31598" lon="0.50632">
        <ele>85.9</ele>
        <time>2023-06-04T09:54:48Z</time>
      </trkpt>
      <trkpt lat="47.31588" lon="0.50558">
        <ele>86</ele>
        <time>2023-06-04T09:54:55Z</time>
      </trkpt>
      <trkpt lat="47.31571" lon="0.50478">
        <ele>86.2</ele>
        <time>2023-06-04T09:55:03Z</time>
      </trkpt>
      <trkpt lat="47.31569" lon="0.50468">
        <ele>86.2</ele>
        <time>2023-06-04T09:55:04Z</time>
      </trkpt>
      <trkpt lat="47.31551" lon="0.50387">
        <ele>86.1</ele>
        <time>2023-06-04T09:55:12Z</time>
      </trkpt>
      <trkpt lat="47.31549" lon="0.50376">
        <ele>86.1</ele>
        <time>2023-06-04T09:55:13Z</time>
      </trkpt>
      <trkpt lat="47.31537" lon="0.50306">
        <ele>85.4</ele>
        <time>2023-06-04T09:55:20Z</time>
      </trkpt>
      <trkpt lat="47.31531" lon="0.5023">
        <ele>84.5</ele>
        <time>2023-06-04T09:55:27Z</time>
      </trkpt>
      <trkpt lat="47.31528" lon="0.50174">
        <ele>83.9</ele>
        <time>2023-06-04T09:55:32Z</time>
      </trkpt>
      <trkpt lat="47.31524" lon="0.5013">
        <ele>83.4</ele>
        <time>2023-06-04T09:55:36Z</time>
      </trkpt>
      <trkpt lat="47.31522" lon="0.5012">
        <ele>83.3</ele>
        <time>2023-06-04T09:55:37Z</time>
      </trkpt>
      <trkpt lat="47.31511" lon="0.50033">
        <ele>81.3</ele>
        <time>2023-06-04T09:55:45Z</time>
      </trkpt>
      <trkpt lat="47.3151" lon="0.50021">
        <ele>80.9</ele>
        <time>2023-06-04T09:55:46Z</time>
      </trkpt>
      <trkpt lat="47.31506" lon="0.49996">
        <ele>80.1</ele>
        <time>2023-06-04T09:55:48Z</time>
      </trkpt>
      <trkpt lat="47.31502" lon="0.49959">
        <ele>79.2</ele>
        <time>2023-06-04T09:55:51Z</time>
      </trkpt>
      <trkpt lat="47.31497" lon="0.49935">
        <ele>78.8</ele>
        <time>2023-06-04T09:55:53Z</time>
      </trkpt>
      <trkpt lat="47.31492" lon="0.49911">
        <ele>78.7</ele>
        <time>2023-06-04T09:55:55Z</time>
      </trkpt>
      <trkpt lat="47.31486" lon="0.4989">
        <ele>79</ele>
        <time>2023-06-04T09:55:57Z</time>
      </trkpt>
      <trkpt lat="47.31481" lon="0.49869">
        <ele>79.4</ele>
        <time>2023-06-04T09:55:59Z</time>
      </trkpt>
      <trkpt lat="47.3147" lon="0.49837">
        <ele>80.2</ele>
        <time>2023-06-04T09:56:03Z</time>
      </trkpt>
      <trkpt lat="47.31467" lon="0.49829">
        <ele>80.4</ele>
        <time>2023-06-04T09:56:04Z</time>
      </trkpt>
      <trkpt lat="47.31457" lon="0.49809">
        <ele>80.8</ele>
        <time>2023-06-04T09:56:07Z</time>
      </trkpt>
      <trkpt lat="47.31453" lon="0.49803">
        <ele>80.8</ele>
        <time>2023-06-04T09:56:08Z</time>
      </trkpt>
      <trkpt lat="47.31438" lon="0.4977">
        <ele>80.9</ele>
        <time>2023-06-04T09:56:12Z</time>
      </trkpt>
      <trkpt lat="47.31413" lon="0.49694">
        <ele>81</ele>
        <time>2023-06-04T09:56:20Z</time>
      </trkpt>
      <trkpt lat="47.31393" lon="0.49626">
        <ele>81.6</ele>
        <time>2023-06-04T09:56:27Z</time>
      </trkpt>
      <trkpt lat="47.31389" lon="0.49572">
        <ele>82.3</ele>
        <time>2023-06-04T09:56:32Z</time>
      </trkpt>
      <trkpt lat="47.31388" lon="0.49541">
        <ele>82.5</ele>
        <time>2023-06-04T09:56:35Z</time>
      </trkpt>
      <trkpt lat="47.31383" lon="0.49479">
        <ele>82.8</ele>
        <time>2023-06-04T09:56:41Z</time>
      </trkpt>
      <trkpt lat="47.31375" lon="0.49398">
        <ele>82.9</ele>
        <time>2023-06-04T09:56:49Z</time>
      </trkpt>
      <trkpt lat="47.31373" lon="0.49388">
        <ele>82.9</ele>
        <time>2023-06-04T09:56:50Z</time>
      </trkpt>
      <trkpt lat="47.31357" lon="0.49331">
        <ele>83</ele>
        <time>2023-06-04T09:56:56Z</time>
      </trkpt>
      <trkpt lat="47.31329" lon="0.49262">
        <ele>83</ele>
        <time>2023-06-04T09:57:04Z</time>
      </trkpt>
      <trkpt lat="47.31304" lon="0.4921">
        <ele>83.1</ele>
        <time>2023-06-04T09:57:11Z</time>
      </trkpt>
      <trkpt lat="47.31289" lon="0.49171">
        <ele>83</ele>
        <time>2023-06-04T09:57:16Z</time>
      </trkpt>
      <trkpt lat="47.31283" lon="0.49154">
        <ele>82.9</ele>
        <time>2023-06-04T09:57:18Z</time>
      </trkpt>
      <trkpt lat="47.31271" lon="0.49112">
        <ele>82.5</ele>
        <time>2023-06-04T09:57:23Z</time>
      </trkpt>
      <trkpt lat="47.31254" lon="0.4907">
        <ele>81.8</ele>
        <time>2023-06-04T09:57:28Z</time>
      </trkpt>
      <trkpt lat="47.31238" lon="0.49035">
        <ele>81.3</ele>
        <time>2023-06-04T09:57:32Z</time>
      </trkpt>
      <trkpt lat="47.31231" lon="0.49017">
        <ele>81.1</ele>
        <time>2023-06-04T09:57:34Z</time>
      </trkpt>
      <trkpt lat="47.31219" lon="0.4898">
        <ele>80.5</ele>
        <time>2023-06-04T09:57:38Z</time>
      </trkpt>
      <trkpt lat="47.31213" lon="0.48961">
        <ele>80</ele>
        <time>2023-06-04T09:57:40Z</time>
      </trkpt>
      <trkpt lat="47.31197" lon="0.48926">
        <ele>78.6</ele>
        <time>2023-06-04T09:57:44Z</time>
      </trkpt>
      <trkpt lat="47.31192" lon="0.48918">
        <ele>78.2</ele>
        <time>2023-06-04T09:57:45Z</time>
      </trkpt>
      <trkpt lat="47.31181" lon="0.48899">
        <ele>77.1</ele>
        <time>2023-06-04T09:57:47Z</time>
      </trkpt>
      <trkpt lat="47.31168" lon="0.48878">
        <ele>75.8</ele>
        <time>2023-06-04T09:57:49Z</time>
      </trkpt>
      <trkpt lat="47.31163" lon="0.48867">
        <ele>75</ele>
        <time>2023-06-04T09:57:50Z</time>
      </trkpt>
      <trkpt lat="47.31162" lon="0.48836">
        <ele>72.9</ele>
        <time>2023-06-04T09:57:52Z</time>
      </trkpt>
      <trkpt lat="47.31165" lon="0.48803">
        <ele>70.3</ele>
        <time>2023-06-04T09:57:54Z</time>
      </trkpt>
      <trkpt lat="47.31168" lon="0.48787">
        <ele>69</ele>
        <time>2023-06-04T09:57:55Z</time>
      </trkpt>
      <trkpt lat="47.31171" lon="0.48771">
        <ele>67.7</ele>
        <time>2023-06-04T09:57:56Z</time>
      </trkpt>
      <trkpt lat="47.31173" lon="0.48754">
        <ele>66.5</ele>
        <time>2023-06-04T09:57:57Z</time>
      </trkpt>
      <trkpt lat="47.31174" lon="0.48739">
        <ele>65.3</ele>
        <time>2023-06-04T09:57:58Z</time>
      </trkpt>
      <trkpt lat="47.31173" lon="0.48724">
        <ele>64.4</ele>
        <time>2023-06-04T09:57:59Z</time>
      </trkpt>
      <trkpt lat="47.3117" lon="0.48709">
        <ele>63.5</ele>
        <time>2023-06-04T09:58:00Z</time>
      </trkpt>
      <trkpt lat="47.31164" lon="0.48694">
        <ele>63.7</ele>
        <time>2023-06-04T09:58:01Z</time>
      </trkpt>
      <trkpt lat="47.31159" lon="0.48679">
        <ele>63.3</ele>
        <time>2023-06-04T09:58:02Z</time>
      </trkpt>
      <trkpt lat="47.31153" lon="0.48666">
        <ele>62.8</ele>
        <time>2023-06-04T09:58:03Z</time>
      </trkpt>
      <trkpt lat="47.31147" lon="0.48653">
        <ele>62.4</ele>
        <time>2023-06-04T09:58:04Z</time>
      </trkpt>
      <trkpt lat="47.31142" lon="0.4864">
        <ele>62.1</ele>
        <time>2023-06-04T09:58:05Z</time>
      </trkpt>
      <trkpt lat="47.31138" lon="0.48627">
        <ele>62</ele>
        <time>2023-06-04T09:58:06Z</time>
      </trkpt>
      <trkpt lat="47.31125" lon="0.48588">
        <ele>62.9</ele>
        <time>2023-06-04T09:58:09Z</time>
      </trkpt>
      <trkpt lat="47.31122" lon="0.48575">
        <ele>63.4</ele>
        <time>2023-06-04T09:58:10Z</time>
      </trkpt>
      <trkpt lat="47.31121" lon="0.48563">
        <ele>63.9</ele>
        <time>2023-06-04T09:58:11Z</time>
      </trkpt>
      <trkpt lat="47.3112" lon="0.4854">
        <ele>64.9</ele>
        <time>2023-06-04T09:58:13Z</time>
      </trkpt>
      <trkpt lat="47.31121" lon="0.48498">
        <ele>66.9</ele>
        <time>2023-06-04T09:58:17Z</time>
      </trkpt>
      <trkpt lat="47.31122" lon="0.48489">
        <ele>67.3</ele>
        <time>2023-06-04T09:58:18Z</time>
      </trkpt>
      <trkpt lat="47.31123" lon="0.4848">
        <ele>67.7</ele>
        <time>2023-06-04T09:58:19Z</time>
      </trkpt>
      <trkpt lat="47.31127" lon="0.48462">
        <ele>68.5</ele>
        <time>2023-06-04T09:58:21Z</time>
      </trkpt>
      <trkpt lat="47.31134" lon="0.48448">
        <ele>69.3</ele>
        <time>2023-06-04T09:58:23Z</time>
      </trkpt>
      <trkpt lat="47.31148" lon="0.48432">
        <ele>70.2</ele>
        <time>2023-06-04T09:58:26Z</time>
      </trkpt>
      <trkpt lat="47.31153" lon="0.48428">
        <ele>70.4</ele>
        <time>2023-06-04T09:58:27Z</time>
      </trkpt>
      <trkpt lat="47.31162" lon="0.4842">
        <ele>71</ele>
        <time>2023-06-04T09:58:29Z</time>
      </trkpt>
      <trkpt lat="47.31181" lon="0.48402">
        <ele>71.9</ele>
        <time>2023-06-04T09:58:33Z</time>
      </trkpt>
      <trkpt lat="47.31189" lon="0.48393">
        <ele>72.4</ele>
        <time>2023-06-04T09:58:35Z</time>
      </trkpt>
      <trkpt lat="47.31198" lon="0.48385">
        <ele>72.8</ele>
        <time>2023-06-04T09:58:37Z</time>
      </trkpt>
      <trkpt lat="47.31221" lon="0.48364">
        <ele>73.7</ele>
        <time>2023-06-04T09:58:42Z</time>
      </trkpt>
      <trkpt lat="47.31225" lon="0.48359">
        <ele>73.9</ele>
        <time>2023-06-04T09:58:43Z</time>
      </trkpt>
      <trkpt lat="47.31229" lon="0.48353">
        <ele>74</ele>
        <time>2023-06-04T09:58:44Z</time>
      </trkpt>
      <trkpt lat="47.31236" lon="0.48331">
        <ele>74.3</ele>
        <time>2023-06-04T09:58:47Z</time>
      </trkpt>
      <trkpt lat="47.31237" lon="0.48323">
        <ele>74.4</ele>
        <time>2023-06-04T09:58:48Z</time>
      </trkpt>
      <trkpt lat="47.31234" lon="0.48287">
        <ele>74.7</ele>
        <time>2023-06-04T09:58:52Z</time>
      </trkpt>
      <trkpt lat="47.31232" lon="0.48279">
        <ele>74.8</ele>
        <time>2023-06-04T09:58:53Z</time>
      </trkpt>
      <trkpt lat="47.31228" lon="0.48261">
        <ele>74.9</ele>
        <time>2023-06-04T09:58:55Z</time>
      </trkpt>
      <trkpt lat="47.31216" lon="0.48217">
        <ele>75.2</ele>
        <time>2023-06-04T09:59:00Z</time>
      </trkpt>
      <trkpt lat="47.31189" lon="0.48148">
        <ele>75.7</ele>
        <time>2023-06-04T09:59:08Z</time>
      </trkpt>
      <trkpt lat="47.31152" lon="0.48078">
        <ele>76.4</ele>
        <time>2023-06-04T09:59:17Z</time>
      </trkpt>
      <trkpt lat="47.31148" lon="0.4807">
        <ele>76.5</ele>
        <time>2023-06-04T09:59:18Z</time>
      </trkpt>
      <trkpt lat="47.31125" lon="0.48011">
        <ele>76.8</ele>
        <time>2023-06-04T09:59:25Z</time>
      </trkpt>
      <trkpt lat="47.31098" lon="0.47932">
        <ele>77.6</ele>
        <time>2023-06-04T09:59:34Z</time>
      </trkpt>
      <trkpt lat="47.31092" lon="0.47915">
        <ele>77.8</ele>
        <time>2023-06-04T09:59:36Z</time>
      </trkpt>
      <trkpt lat="47.31071" lon="0.47855">
        <ele>78.6</ele>
        <time>2023-06-04T09:59:43Z</time>
      </trkpt>
      <trkpt lat="47.31066" lon="0.4784">
        <ele>78.8</ele>
        <time>2023-06-04T09:59:45Z</time>
      </trkpt>
      <trkpt lat="47.31057" lon="0.47802">
        <ele>79.4</ele>
        <time>2023-06-04T09:59:50Z</time>
      </trkpt>
      <trkpt lat="47.31055" lon="0.47786">
        <ele>79.6</ele>
        <time>2023-06-04T09:59:52Z</time>
      </trkpt>
      <trkpt lat="47.31053" lon="0.4777">
        <ele>79.9</ele>
        <time>2023-06-04T09:59:54Z</time>
      </trkpt>
      <trkpt lat="47.31048" lon="0.47724">
        <ele>80.6</ele>
        <time>2023-06-04T10:00:00Z</time>
      </trkpt>
      <trkpt lat="47.31047" lon="0.47716">
        <ele>80.8</ele>
        <time>2023-06-04T10:00:01Z</time>
      </trkpt>
      <trkpt lat="47.31041" lon="0.47665">
        <ele>81.5</ele>
        <time>2023-06-04T10:00:08Z</time>
      </trkpt>
      <trkpt lat="47.3104" lon="0.47657">
        <ele>81.5</ele>
        <time>2023-06-04T10:00:09Z</time>
      </trkpt>
      <trkpt lat="47.3104" lon="0.47598">
        <ele>81.7</ele>
        <time>2023-06-04T10:00:16Z</time>
      </trkpt>
      <trkpt lat="47.31047" lon="0.4755">
        <ele>81.7</ele>
        <time>2023-06-04T10:00:22Z</time>
      </trkpt>
      <trkpt lat="47.31059" lon="0.47503">
        <ele>81.6</ele>
        <time>2023-06-04T10:00:28Z</time>
      </trkpt>
      <trkpt lat="47.31062" lon="0.47486">
        <ele>81.5</ele>
        <time>2023-06-04T10:00:30Z</time>
      </trkpt>
      <trkpt lat="47.31064" lon="0.47461">
        <ele>81.4</ele>
        <time>2023-06-04T10:00:33Z</time>
      </trkpt>
      <trkpt lat="47.31066" lon="0.47427">
        <ele>81.3</ele>
        <time>2023-06-04T10:00:37Z</time>
      </trkpt>
      <trkpt lat="47.31067" lon="0.47407">
        <ele>81.2</ele>
        <time>2023-06-04T10:00:40Z</time>
      </trkpt>
      <trkpt lat="47.31065" lon="0.47382">
        <ele>81.2</ele>
        <time>2023-06-04T10:00:44Z</time>
      </trkpt>
      <trkpt lat="47.31064" lon="0.47374">
        <ele>81.2</ele>
        <time>2023-06-04T10:00:45Z</time>
      </trkpt>
      <trkpt lat="47.31058" lon="0.47343">
        <ele>81.2</ele>
        <time>2023-06-04T10:00:49Z</time>
      </trkpt>
      <trkpt lat="47.31056" lon="0.47326">
        <ele>81.2</ele>
        <time>2023-06-04T10:00:51Z</time>
      </trkpt>
      <trkpt lat="47.31041" lon="0.4726">
        <ele>81.4</ele>
        <time>2023-06-04T10:00:59Z</time>
      </trkpt>
      <trkpt lat="47.31022" lon="0.47237">
        <ele>81.6</ele>
        <time>2023-06-04T10:01:03Z</time>
      </trkpt>
      <trkpt lat="47.30997" lon="0.47227">
        <ele>81.8</ele>
        <time>2023-06-04T10:01:07Z</time>
      </trkpt>
      <trkpt lat="47.30991" lon="0.47224">
        <ele>81.9</ele>
        <time>2023-06-04T10:01:08Z</time>
      </trkpt>
      <trkpt lat="47.30961" lon="0.4721">
        <ele>82.3</ele>
        <time>2023-06-04T10:01:13Z</time>
      </trkpt>
      <trkpt lat="47.3095" lon="0.47201">
        <ele>82.4</ele>
        <time>2023-06-04T10:01:15Z</time>
      </trkpt>
      <trkpt lat="47.30908" lon="0.47165">
        <ele>83.2</ele>
        <time>2023-06-04T10:01:23Z</time>
      </trkpt>
      <trkpt lat="47.30876" lon="0.47128">
        <ele>84</ele>
        <time>2023-06-04T10:01:30Z</time>
      </trkpt>
      <trkpt lat="47.30867" lon="0.47117">
        <ele>84.3</ele>
        <time>2023-06-04T10:01:32Z</time>
      </trkpt>
      <trkpt lat="47.30839" lon="0.47075">
        <ele>85.2</ele>
        <time>2023-06-04T10:01:39Z</time>
      </trkpt>
      <trkpt lat="47.30808" lon="0.47011">
        <ele>86.4</ele>
        <time>2023-06-04T10:01:48Z</time>
      </trkpt>
      <trkpt lat="47.30786" lon="0.4694">
        <ele>87.5</ele>
        <time>2023-06-04T10:01:57Z</time>
      </trkpt>
      <trkpt lat="47.30771" lon="0.46895">
        <ele>88.1</ele>
        <time>2023-06-04T10:02:03Z</time>
      </trkpt>
      <trkpt lat="47.30759" lon="0.46866">
        <ele>88.3</ele>
        <time>2023-06-04T10:02:07Z</time>
      </trkpt>
      <trkpt lat="47.30739" lon="0.46829">
        <ele>88.5</ele>
        <time>2023-06-04T10:02:13Z</time>
      </trkpt>
      <trkpt lat="47.30731" lon="0.46816">
        <ele>88.6</ele>
        <time>2023-06-04T10:02:15Z</time>
      </trkpt>
      <trkpt lat="47.30708" lon="0.46776">
        <ele>88.6</ele>
        <time>2023-06-04T10:02:21Z</time>
      </trkpt>
      <trkpt lat="47.30688" lon="0.46743">
        <ele>88.5</ele>
        <time>2023-06-04T10:02:26Z</time>
      </trkpt>
      <trkpt lat="47.30679" lon="0.4673">
        <ele>88.4</ele>
        <time>2023-06-04T10:02:28Z</time>
      </trkpt>
      <trkpt lat="47.30643" lon="0.46674">
        <ele>87.3</ele>
        <time>2023-06-04T10:02:36Z</time>
      </trkpt>
      <trkpt lat="47.30638" lon="0.46667">
        <ele>87.2</ele>
        <time>2023-06-04T10:02:37Z</time>
      </trkpt>
      <trkpt lat="47.30611" lon="0.46632">
        <ele>86</ele>
        <time>2023-06-04T10:02:42Z</time>
      </trkpt>
      <trkpt lat="47.30604" lon="0.46625">
        <ele>85.6</ele>
        <time>2023-06-04T10:02:43Z</time>
      </trkpt>
      <trkpt lat="47.30583" lon="0.46605">
        <ele>84.6</ele>
        <time>2023-06-04T10:02:46Z</time>
      </trkpt>
      <trkpt lat="47.30561" lon="0.46584">
        <ele>83.7</ele>
        <time>2023-06-04T10:02:49Z</time>
      </trkpt>
      <trkpt lat="47.30554" lon="0.46577">
        <ele>83.5</ele>
        <time>2023-06-04T10:02:50Z</time>
      </trkpt>
      <trkpt lat="47.30547" lon="0.4657">
        <ele>83.4</ele>
        <time>2023-06-04T10:02:51Z</time>
      </trkpt>
      <trkpt lat="47.30512" lon="0.46532">
        <ele>83.2</ele>
        <time>2023-06-04T10:02:56Z</time>
      </trkpt>
      <trkpt lat="47.30498" lon="0.46517">
        <ele>83.2</ele>
        <time>2023-06-04T10:02:58Z</time>
      </trkpt>
      <trkpt lat="47.30459" lon="0.46492">
        <ele>83.6</ele>
        <time>2023-06-04T10:03:03Z</time>
      </trkpt>
      <trkpt lat="47.30404" lon="0.46468">
        <ele>84.1</ele>
        <time>2023-06-04T10:03:10Z</time>
      </trkpt>
      <trkpt lat="47.30362" lon="0.4644">
        <ele>84.4</ele>
        <time>2023-06-04T10:03:16Z</time>
      </trkpt>
      <trkpt lat="47.30335" lon="0.46419">
        <ele>84.7</ele>
        <time>2023-06-04T10:03:20Z</time>
      </trkpt>
      <trkpt lat="47.30288" lon="0.46386">
        <ele>85.2</ele>
        <time>2023-06-04T10:03:27Z</time>
      </trkpt>
      <trkpt lat="47.30246" lon="0.46366">
        <ele>85.1</ele>
        <time>2023-06-04T10:03:33Z</time>
      </trkpt>
      <trkpt lat="47.30232" lon="0.4636">
        <ele>85</ele>
        <time>2023-06-04T10:03:35Z</time>
      </trkpt>
      <trkpt lat="47.30184" lon="0.46341">
        <ele>84.5</ele>
        <time>2023-06-04T10:03:42Z</time>
      </trkpt>
      <trkpt lat="47.30165" lon="0.46332">
        <ele>84.2</ele>
        <time>2023-06-04T10:03:45Z</time>
      </trkpt>
      <trkpt lat="47.3013" lon="0.46317">
        <ele>84.3</ele>
        <time>2023-06-04T10:03:50Z</time>
      </trkpt>
      <trkpt lat="47.30091" lon="0.46295">
        <ele>84.4</ele>
        <time>2023-06-04T10:03:56Z</time>
      </trkpt>
      <trkpt lat="47.3006" lon="0.46267">
        <ele>84.6</ele>
        <time>2023-06-04T10:04:01Z</time>
      </trkpt>
      <trkpt lat="47.3003" lon="0.46226">
        <ele>85</ele>
        <time>2023-06-04T10:04:07Z</time>
      </trkpt>
      <trkpt lat="47.30017" lon="0.46202">
        <ele>85.2</ele>
        <time>2023-06-04T10:04:10Z</time>
      </trkpt>
      <trkpt lat="47.30006" lon="0.46178">
        <ele>85.6</ele>
        <time>2023-06-04T10:04:13Z</time>
      </trkpt>
      <trkpt lat="47.29985" lon="0.46133">
        <ele>86.4</ele>
        <time>2023-06-04T10:04:19Z</time>
      </trkpt>
      <trkpt lat="47.29982" lon="0.46125">
        <ele>86.6</ele>
        <time>2023-06-04T10:04:20Z</time>
      </trkpt>
      <trkpt lat="47.29966" lon="0.46089">
        <ele>87.2</ele>
        <time>2023-06-04T10:04:25Z</time>
      </trkpt>
      <trkpt lat="47.2996" lon="0.46074">
        <ele>87.5</ele>
        <time>2023-06-04T10:04:27Z</time>
      </trkpt>
      <trkpt lat="47.29946" lon="0.46036">
        <ele>88.2</ele>
        <time>2023-06-04T10:04:32Z</time>
      </trkpt>
      <trkpt lat="47.29936" lon="0.46005">
        <ele>88.7</ele>
        <time>2023-06-04T10:04:36Z</time>
      </trkpt>
      <trkpt lat="47.29919" lon="0.4594">
        <ele>89.5</ele>
        <time>2023-06-04T10:04:44Z</time>
      </trkpt>
      <trkpt lat="47.29917" lon="0.45932">
        <ele>89.6</ele>
        <time>2023-06-04T10:04:45Z</time>
      </trkpt>
      <trkpt lat="47.29914" lon="0.45918">
        <ele>89.7</ele>
        <time>2023-06-04T10:04:47Z</time>
      </trkpt>
      <trkpt lat="47.29911" lon="0.45905">
        <ele>89.8</ele>
        <time>2023-06-04T10:04:49Z</time>
      </trkpt>
      <trkpt lat="47.29908" lon="0.45892">
        <ele>89.9</ele>
        <time>2023-06-04T10:04:51Z</time>
      </trkpt>
      <trkpt lat="47.29905" lon="0.45885">
        <ele>90</ele>
        <time>2023-06-04T10:04:52Z</time>
      </trkpt>
      <trkpt lat="47.29898" lon="0.4587">
        <ele>90.2</ele>
        <time>2023-06-04T10:04:54Z</time>
      </trkpt>
      <trkpt lat="47.29893" lon="0.45863">
        <ele>90.2</ele>
        <time>2023-06-04T10:04:55Z</time>
      </trkpt>
      <trkpt lat="47.29876" lon="0.45834">
        <ele>90.5</ele>
        <time>2023-06-04T10:04:59Z</time>
      </trkpt>
      <trkpt lat="47.29847" lon="0.45783">
        <ele>91</ele>
        <time>2023-06-04T10:05:06Z</time>
      </trkpt>
      <trkpt lat="47.29826" lon="0.45733">
        <ele>91.7</ele>
        <time>2023-06-04T10:05:13Z</time>
      </trkpt>
      <trkpt lat="47.29824" lon="0.45724">
        <ele>91.8</ele>
        <time>2023-06-04T10:05:14Z</time>
      </trkpt>
      <trkpt lat="47.29821" lon="0.45717">
        <ele>91.8</ele>
        <time>2023-06-04T10:05:15Z</time>
      </trkpt>
      <trkpt lat="47.29813" lon="0.45691">
        <ele>92.1</ele>
        <time>2023-06-04T10:05:18Z</time>
      </trkpt>
      <trkpt lat="47.29808" lon="0.45674">
        <ele>92.2</ele>
        <time>2023-06-04T10:05:20Z</time>
      </trkpt>
      <trkpt lat="47.29792" lon="0.45621">
        <ele>92.7</ele>
        <time>2023-06-04T10:05:26Z</time>
      </trkpt>
      <trkpt lat="47.29769" lon="0.45541">
        <ele>92.9</ele>
        <time>2023-06-04T10:05:35Z</time>
      </trkpt>
      <trkpt lat="47.29766" lon="0.45532">
        <ele>92.9</ele>
        <time>2023-06-04T10:05:36Z</time>
      </trkpt>
      <trkpt lat="47.29753" lon="0.45458">
        <ele>93</ele>
        <time>2023-06-04T10:05:44Z</time>
      </trkpt>
      <trkpt lat="47.29741" lon="0.45371">
        <ele>93</ele>
        <time>2023-06-04T10:05:53Z</time>
      </trkpt>
      <trkpt lat="47.29735" lon="0.45324">
        <ele>93.1</ele>
        <time>2023-06-04T10:05:58Z</time>
      </trkpt>
      <trkpt lat="47.2973" lon="0.45297">
        <ele>93.1</ele>
        <time>2023-06-04T10:06:01Z</time>
      </trkpt>
      <trkpt lat="47.29712" lon="0.45243">
        <ele>92.8</ele>
        <time>2023-06-04T10:06:07Z</time>
      </trkpt>
      <trkpt lat="47.29682" lon="0.45176">
        <ele>92.8</ele>
        <time>2023-06-04T10:06:15Z</time>
      </trkpt>
      <trkpt lat="47.29659" lon="0.45121">
        <ele>92.9</ele>
        <time>2023-06-04T10:06:22Z</time>
      </trkpt>
      <trkpt lat="47.29626" lon="0.4505">
        <ele>93.4</ele>
        <time>2023-06-04T10:06:31Z</time>
      </trkpt>
      <trkpt lat="47.29589" lon="0.44988">
        <ele>94</ele>
        <time>2023-06-04T10:06:40Z</time>
      </trkpt>
      <trkpt lat="47.29581" lon="0.44977">
        <ele>94.1</ele>
        <time>2023-06-04T10:06:42Z</time>
      </trkpt>
      <trkpt lat="47.29564" lon="0.4497">
        <ele>94.1</ele>
        <time>2023-06-04T10:06:45Z</time>
      </trkpt>
      <trkpt lat="47.29547" lon="0.44983">
        <ele>94</ele>
        <time>2023-06-04T10:06:48Z</time>
      </trkpt>
      <trkpt lat="47.29542" lon="0.44988">
        <ele>93.9</ele>
        <time>2023-06-04T10:06:49Z</time>
      </trkpt>
      <trkpt lat="47.29501" lon="0.45021">
        <ele>93.7</ele>
        <time>2023-06-04T10:06:56Z</time>
      </trkpt>
      <trkpt lat="47.29451" lon="0.45058">
        <ele>93.3</ele>
        <time>2023-06-04T10:07:04Z</time>
      </trkpt>
      <trkpt lat="47.29418" lon="0.4508">
        <ele>93</ele>
        <time>2023-06-04T10:07:09Z</time>
      </trkpt>
      <trkpt lat="47.29411" lon="0.4508">
        <ele>92.8</ele>
        <time>2023-06-04T10:07:10Z</time>
      </trkpt>
      <trkpt lat="47.29398" lon="0.45073">
        <ele>92.6</ele>
        <time>2023-06-04T10:07:12Z</time>
      </trkpt>
      <trkpt lat="47.29392" lon="0.45069">
        <ele>92.6</ele>
        <time>2023-06-04T10:07:13Z</time>
      </trkpt>
      <trkpt lat="47.29386" lon="0.45065">
        <ele>92.5</ele>
        <time>2023-06-04T10:07:14Z</time>
      </trkpt>
      <trkpt lat="47.2936" lon="0.45055">
        <ele>92.1</ele>
        <time>2023-06-04T10:07:18Z</time>
      </trkpt>
      <trkpt lat="47.29353" lon="0.45056">
        <ele>92.1</ele>
        <time>2023-06-04T10:07:19Z</time>
      </trkpt>
      <trkpt lat="47.29347" lon="0.45061">
        <ele>92</ele>
        <time>2023-06-04T10:07:20Z</time>
      </trkpt>
      <trkpt lat="47.29319" lon="0.45091">
        <ele>91.8</ele>
        <time>2023-06-04T10:07:25Z</time>
      </trkpt>
      <trkpt lat="47.29306" lon="0.451">
        <ele>91.7</ele>
        <time>2023-06-04T10:07:27Z</time>
      </trkpt>
      <trkpt lat="47.29294" lon="0.45106">
        <ele>91.7</ele>
        <time>2023-06-04T10:07:29Z</time>
      </trkpt>
      <trkpt lat="47.29274" lon="0.45112">
        <ele>91.7</ele>
        <time>2023-06-04T10:07:32Z</time>
      </trkpt>
      <trkpt lat="47.29228" lon="0.4513">
        <ele>92</ele>
        <time>2023-06-04T10:07:39Z</time>
      </trkpt>
      <trkpt lat="47.29208" lon="0.45136">
        <ele>92.2</ele>
        <time>2023-06-04T10:07:42Z</time>
      </trkpt>
      <trkpt lat="47.29166" lon="0.45154">
        <ele>92.4</ele>
        <time>2023-06-04T10:07:49Z</time>
      </trkpt>
      <trkpt lat="47.29121" lon="0.45178">
        <ele>92.3</ele>
        <time>2023-06-04T10:07:56Z</time>
      </trkpt>
      <trkpt lat="47.29079" lon="0.45197">
        <ele>92.1</ele>
        <time>2023-06-04T10:08:02Z</time>
      </trkpt>
      <trkpt lat="47.29072" lon="0.45199">
        <ele>92.1</ele>
        <time>2023-06-04T10:08:03Z</time>
      </trkpt>
      <trkpt lat="47.29041" lon="0.45195">
        <ele>92.1</ele>
        <time>2023-06-04T10:08:07Z</time>
      </trkpt>
      <trkpt lat="47.29033" lon="0.45193">
        <ele>92</ele>
        <time>2023-06-04T10:08:08Z</time>
      </trkpt>
      <trkpt lat="47.28981" lon="0.45167">
        <ele>92</ele>
        <time>2023-06-04T10:08:15Z</time>
      </trkpt>
      <trkpt lat="47.28927" lon="0.45144">
        <ele>92.2</ele>
        <time>2023-06-04T10:08:22Z</time>
      </trkpt>
      <trkpt lat="47.28912" lon="0.45139">
        <ele>92.2</ele>
        <time>2023-06-04T10:08:24Z</time>
      </trkpt>
      <trkpt lat="47.28859" lon="0.4512">
        <ele>92.2</ele>
        <time>2023-06-04T10:08:31Z</time>
      </trkpt>
      <trkpt lat="47.28844" lon="0.45113">
        <ele>92.2</ele>
        <time>2023-06-04T10:08:33Z</time>
      </trkpt>
      <trkpt lat="47.28802" lon="0.45088">
        <ele>92.3</ele>
        <time>2023-06-04T10:08:39Z</time>
      </trkpt>
      <trkpt lat="47.28779" lon="0.45083">
        <ele>92.3</ele>
        <time>2023-06-04T10:08:42Z</time>
      </trkpt>
      <trkpt lat="47.28764" lon="0.45083">
        <ele>92.3</ele>
        <time>2023-06-04T10:08:44Z</time>
      </trkpt>
      <trkpt lat="47.28756" lon="0.45083">
        <ele>92.3</ele>
        <time>2023-06-04T10:08:45Z</time>
      </trkpt>
      <trkpt lat="47.28704" lon="0.45093">
        <ele>92.7</ele>
        <time>2023-06-04T10:08:52Z</time>
      </trkpt>
      <trkpt lat="47.28652" lon="0.45103">
        <ele>93.2</ele>
        <time>2023-06-04T10:09:00Z</time>
      </trkpt>
      <trkpt lat="47.28631" lon="0.45105">
        <ele>93.5</ele>
        <time>2023-06-04T10:09:03Z</time>
      </trkpt>
      <trkpt lat="47.28605" lon="0.45105">
        <ele>93.9</ele>
        <time>2023-06-04T10:09:07Z</time>
      </trkpt>
      <trkpt lat="47.28585" lon="0.45105">
        <ele>94.2</ele>
        <time>2023-06-04T10:09:10Z</time>
      </trkpt>
      <trkpt lat="47.2854" lon="0.451">
        <ele>94.7</ele>
        <time>2023-06-04T10:09:17Z</time>
      </trkpt>
      <trkpt lat="47.28528" lon="0.45099">
        <ele>94.9</ele>
        <time>2023-06-04T10:09:19Z</time>
      </trkpt>
      <trkpt lat="47.28517" lon="0.45096">
        <ele>95</ele>
        <time>2023-06-04T10:09:21Z</time>
      </trkpt>
      <trkpt lat="47.28512" lon="0.45093">
        <ele>95.1</ele>
        <time>2023-06-04T10:09:22Z</time>
      </trkpt>
      <trkpt lat="47.28501" lon="0.45073">
        <ele>95</ele>
        <time>2023-06-04T10:09:25Z</time>
      </trkpt>
      <trkpt lat="47.28497" lon="0.45056">
        <ele>94.9</ele>
        <time>2023-06-04T10:09:27Z</time>
      </trkpt>
      <trkpt lat="47.28488" lon="0.4502">
        <ele>94.6</ele>
        <time>2023-06-04T10:09:31Z</time>
      </trkpt>
      <trkpt lat="47.28467" lon="0.44953">
        <ele>94.1</ele>
        <time>2023-06-04T10:09:38Z</time>
      </trkpt>
      <trkpt lat="47.28459" lon="0.44935">
        <ele>94</ele>
        <time>2023-06-04T10:09:40Z</time>
      </trkpt>
      <trkpt lat="47.28428" lon="0.44858">
        <ele>93.6</ele>
        <time>2023-06-04T10:09:48Z</time>
      </trkpt>
      <trkpt lat="47.28407" lon="0.44813">
        <ele>93.5</ele>
        <time>2023-06-04T10:09:53Z</time>
      </trkpt>
      <trkpt lat="47.28381" lon="0.44758">
        <ele>93.6</ele>
        <time>2023-06-04T10:09:59Z</time>
      </trkpt>
      <trkpt lat="47.28358" lon="0.44716">
        <ele>93.6</ele>
        <time>2023-06-04T10:10:04Z</time>
      </trkpt>
      <trkpt lat="47.28345" lon="0.44693">
        <ele>93.7</ele>
        <time>2023-06-04T10:10:07Z</time>
      </trkpt>
      <trkpt lat="47.28307" lon="0.44629">
        <ele>93.8</ele>
        <time>2023-06-04T10:10:15Z</time>
      </trkpt>
      <trkpt lat="47.28302" lon="0.44621">
        <ele>93.7</ele>
        <time>2023-06-04T10:10:16Z</time>
      </trkpt>
      <trkpt lat="47.28266" lon="0.44561">
        <ele>93.4</ele>
        <time>2023-06-04T10:10:23Z</time>
      </trkpt>
      <trkpt lat="47.28238" lon="0.44512">
        <ele>93.1</ele>
        <time>2023-06-04T10:10:29Z</time>
      </trkpt>
      <trkpt lat="47.28228" lon="0.44495">
        <ele>93</ele>
        <time>2023-06-04T10:10:31Z</time>
      </trkpt>
      <trkpt lat="47.28186" lon="0.44431">
        <ele>93</ele>
        <time>2023-06-04T10:10:39Z</time>
      </trkpt>
      <trkpt lat="47.28176" lon="0.44417">
        <ele>93</ele>
        <time>2023-06-04T10:10:41Z</time>
      </trkpt>
      <trkpt lat="47.28151" lon="0.44369">
        <ele>92.9</ele>
        <time>2023-06-04T10:10:47Z</time>
      </trkpt>
      <trkpt lat="47.28128" lon="0.44295">
        <ele>92.6</ele>
        <time>2023-06-04T10:10:55Z</time>
      </trkpt>
      <trkpt lat="47.28122" lon="0.44233">
        <ele>92.2</ele>
        <time>2023-06-04T10:11:01Z</time>
      </trkpt>
      <trkpt lat="47.28122" lon="0.44181">
        <ele>92.2</ele>
        <time>2023-06-04T10:11:06Z</time>
      </trkpt>
      <trkpt lat="47.28122" lon="0.44171">
        <ele>92.2</ele>
        <time>2023-06-04T10:11:07Z</time>
      </trkpt>
      <trkpt lat="47.28122" lon="0.44161">
        <ele>92.1</ele>
        <time>2023-06-04T10:11:08Z</time>
      </trkpt>
      <trkpt lat="47.28119" lon="0.44134">
        <ele>91.7</ele>
        <time>2023-06-04T10:11:11Z</time>
      </trkpt>
      <trkpt lat="47.28116" lon="0.44126">
        <ele>91.6</ele>
        <time>2023-06-04T10:11:12Z</time>
      </trkpt>
      <trkpt lat="47.28097" lon="0.44076">
        <ele>91.7</ele>
        <time>2023-06-04T10:11:18Z</time>
      </trkpt>
      <trkpt lat="47.28067" lon="0.44008">
        <ele>92</ele>
        <time>2023-06-04T10:11:26Z</time>
      </trkpt>
      <trkpt lat="47.2806" lon="0.43991">
        <ele>92</ele>
        <time>2023-06-04T10:11:28Z</time>
      </trkpt>
      <trkpt lat="47.28029" lon="0.43921">
        <ele>92</ele>
        <time>2023-06-04T10:11:36Z</time>
      </trkpt>
      <trkpt lat="47.28025" lon="0.43912">
        <ele>92</ele>
        <time>2023-06-04T10:11:37Z</time>
      </trkpt>
      <trkpt lat="47.27991" lon="0.43842">
        <ele>91.3</ele>
        <time>2023-06-04T10:11:45Z</time>
      </trkpt>
      <trkpt lat="47.27984" lon="0.438">
        <ele>90.9</ele>
        <time>2023-06-04T10:11:49Z</time>
      </trkpt>
      <trkpt lat="47.27984" lon="0.43789">
        <ele>90.8</ele>
        <time>2023-06-04T10:11:50Z</time>
      </trkpt>
      <trkpt lat="47.27982" lon="0.43756">
        <ele>90.6</ele>
        <time>2023-06-04T10:11:53Z</time>
      </trkpt>
      <trkpt lat="47.2798" lon="0.43713">
        <ele>90.3</ele>
        <time>2023-06-04T10:11:57Z</time>
      </trkpt>
      <trkpt lat="47.27973" lon="0.43659">
        <ele>89.9</ele>
        <time>2023-06-04T10:12:02Z</time>
      </trkpt>
      <trkpt lat="47.2797" lon="0.43649">
        <ele>89.8</ele>
        <time>2023-06-04T10:12:03Z</time>
      </trkpt>
      <trkpt lat="47.27952" lon="0.43588">
        <ele>89</ele>
        <time>2023-06-04T10:12:09Z</time>
      </trkpt>
      <trkpt lat="47.27929" lon="0.43554">
        <ele>88.6</ele>
        <time>2023-06-04T10:12:13Z</time>
      </trkpt>
      <trkpt lat="47.27923" lon="0.43547">
        <ele>88.5</ele>
        <time>2023-06-04T10:12:14Z</time>
      </trkpt>
      <trkpt lat="47.27908" lon="0.43536">
        <ele>88.3</ele>
        <time>2023-06-04T10:12:16Z</time>
      </trkpt>
      <trkpt lat="47.27894" lon="0.43526">
        <ele>88.1</ele>
        <time>2023-06-04T10:12:18Z</time>
      </trkpt>
      <trkpt lat="47.27872" lon="0.4351">
        <ele>87.8</ele>
        <time>2023-06-04T10:12:21Z</time>
      </trkpt>
      <trkpt lat="47.27853" lon="0.43488">
        <ele>87.5</ele>
        <time>2023-06-04T10:12:24Z</time>
      </trkpt>
      <trkpt lat="47.27826" lon="0.43446">
        <ele>86.9</ele>
        <time>2023-06-04T10:12:29Z</time>
      </trkpt>
      <trkpt lat="47.27799" lon="0.43406">
        <ele>86.3</ele>
        <time>2023-06-04T10:12:34Z</time>
      </trkpt>
      <trkpt lat="47.27787" lon="0.43393">
        <ele>86.1</ele>
        <time>2023-06-04T10:12:36Z</time>
      </trkpt>
      <trkpt lat="47.2775" lon="0.43359">
        <ele>85.3</ele>
        <time>2023-06-04T10:12:42Z</time>
      </trkpt>
      <trkpt lat="47.27744" lon="0.43354">
        <ele>85.2</ele>
        <time>2023-06-04T10:12:43Z</time>
      </trkpt>
      <trkpt lat="47.2772" lon="0.43334">
        <ele>84.7</ele>
        <time>2023-06-04T10:12:47Z</time>
      </trkpt>
      <trkpt lat="47.27707" lon="0.43325">
        <ele>84.5</ele>
        <time>2023-06-04T10:12:49Z</time>
      </trkpt>
      <trkpt lat="47.27701" lon="0.43322">
        <ele>84.3</ele>
        <time>2023-06-04T10:12:50Z</time>
      </trkpt>
      <trkpt lat="47.27688" lon="0.43316">
        <ele>84.1</ele>
        <time>2023-06-04T10:12:52Z</time>
      </trkpt>
      <trkpt lat="47.27662" lon="0.43308">
        <ele>83.6</ele>
        <time>2023-06-04T10:12:56Z</time>
      </trkpt>
      <trkpt lat="47.27623" lon="0.43296">
        <ele>82.6</ele>
        <time>2023-06-04T10:13:02Z</time>
      </trkpt>
      <trkpt lat="47.2761" lon="0.43292">
        <ele>82.3</ele>
        <time>2023-06-04T10:13:04Z</time>
      </trkpt>
      <trkpt lat="47.27582" lon="0.4328">
        <ele>81.4</ele>
        <time>2023-06-04T10:13:08Z</time>
      </trkpt>
      <trkpt lat="47.27576" lon="0.43276">
        <ele>81.2</ele>
        <time>2023-06-04T10:13:09Z</time>
      </trkpt>
      <trkpt lat="47.27556" lon="0.43264">
        <ele>80.5</ele>
        <time>2023-06-04T10:13:12Z</time>
      </trkpt>
      <trkpt lat="47.27536" lon="0.43252">
        <ele>79.6</ele>
        <time>2023-06-04T10:13:15Z</time>
      </trkpt>
      <trkpt lat="47.27523" lon="0.43246">
        <ele>78.8</ele>
        <time>2023-06-04T10:13:17Z</time>
      </trkpt>
      <trkpt lat="47.27503" lon="0.43237">
        <ele>77.7</ele>
        <time>2023-06-04T10:13:20Z</time>
      </trkpt>
      <trkpt lat="47.27488" lon="0.43232">
        <ele>76.9</ele>
        <time>2023-06-04T10:13:22Z</time>
      </trkpt>
      <trkpt lat="47.27467" lon="0.43224">
        <ele>75.7</ele>
        <time>2023-06-04T10:13:25Z</time>
      </trkpt>
      <trkpt lat="47.27446" lon="0.43218">
        <ele>74.4</ele>
        <time>2023-06-04T10:13:28Z</time>
      </trkpt>
      <trkpt lat="47.27439" lon="0.43216">
        <ele>74</ele>
        <time>2023-06-04T10:13:29Z</time>
      </trkpt>
      <trkpt lat="47.27433" lon="0.43214">
        <ele>73.6</ele>
        <time>2023-06-04T10:13:30Z</time>
      </trkpt>
      <trkpt lat="47.27424" lon="0.43213">
        <ele>73</ele>
        <time>2023-06-04T10:13:32Z</time>
      </trkpt>
      <trkpt lat="47.27412" lon="0.4321">
        <ele>72.2</ele>
        <time>2023-06-04T10:13:35Z</time>
      </trkpt>
      <trkpt lat="47.27411" lon="0.43207">
        <ele>72.1</ele>
        <time>2023-06-04T10:13:36Z</time>
      </trkpt>
      <trkpt lat="47.27411" lon="0.43196">
        <ele>72.1</ele>
        <time>2023-06-04T10:13:40Z</time>
      </trkpt>
    </trkseg>
  </trk>
</gpx>